<?xml version="1.0" encoding="UTF-8" standalone="no" ?>
<gpx xmlns="http://www.topografix.com/GPX/1/1" creator="MapSource 6.16.3" version="1.1" xmlns:xsi="http://www.w3.org/2001/XMLSchema-instance" xsi:schemaLocation="http://www.topografix.com/GPX/1/1 http://www.topografix.com/GPX/1/1/gpx.xsd">

  <metadata>
    <link href="http://www.garmin.com">
      <text>Garmin International</text>
    </link>
    <time>2013-09-21T19:21:17Z</time>
    <bounds maxlat="54.316106010228395" maxlon="27.532936977222562" minlat="53.929903032258153" minlon="26.83758401311934"/>
  </metadata>

  <trk>
    <name>СЕН-21-13 10:13:32 PM</name>
    <extensions>
      <gpxx:TrackExtension xmlns:gpxx="http://www.garmin.com/xmlschemas/GpxExtensions/v3">
        <gpxx:DisplayColor>Magenta</gpxx:DisplayColor>
      </gpxx:TrackExtension>
    </extensions>
    <trkseg>
      <trkpt lat="54.316106010228395" lon="26.83758401311934">
        <ele>211.15000000000001</ele>
        <time>2013-09-21T04:34:22Z</time>
      </trkpt>
      <trkpt lat="54.31601095944643" lon="26.837722985073924">
        <ele>167.88999999999999</ele>
        <time>2013-09-21T04:36:05Z</time>
      </trkpt>
      <trkpt lat="54.315958991646767" lon="26.837850976735353">
        <ele>163.08000000000001</ele>
        <time>2013-09-21T04:36:19Z</time>
      </trkpt>
      <trkpt lat="54.315937031060457" lon="26.837936975061893">
        <ele>163.08000000000001</ele>
        <time>2013-09-21T04:38:13Z</time>
      </trkpt>
      <trkpt lat="54.315739972516894" lon="26.838021967560053">
        <ele>167.41</ele>
        <time>2013-09-21T04:38:28Z</time>
      </trkpt>
      <trkpt lat="54.315516008064151" lon="26.838414994999766">
        <ele>165.96000000000001</ele>
        <time>2013-09-21T04:38:40Z</time>
      </trkpt>
      <trkpt lat="54.315553978085518" lon="26.839042967185378">
        <ele>165.47999999999999</ele>
        <time>2013-09-21T04:38:52Z</time>
      </trkpt>
      <trkpt lat="54.315435960888863" lon="26.839976962655783">
        <ele>165</ele>
        <time>2013-09-21T04:39:07Z</time>
      </trkpt>
      <trkpt lat="54.315062966197729" lon="26.840144013985991">
        <ele>163.08000000000001</ele>
        <time>2013-09-21T04:39:18Z</time>
      </trkpt>
      <trkpt lat="54.314684020355344" lon="26.84007603675127">
        <ele>163.56</ele>
        <time>2013-09-21T04:39:29Z</time>
      </trkpt>
      <trkpt lat="54.314628029242158" lon="26.840087017044425">
        <ele>163.56</ele>
        <time>2013-09-21T04:39:31Z</time>
      </trkpt>
      <trkpt lat="54.314494002610445" lon="26.840102020651102">
        <ele>164.52000000000001</ele>
        <time>2013-09-21T04:39:38Z</time>
      </trkpt>
      <trkpt lat="54.31435695849359" lon="26.840100008994341">
        <ele>165</ele>
        <time>2013-09-21T04:39:51Z</time>
      </trkpt>
      <trkpt lat="54.31435695849359" lon="26.840100008994341">
        <ele>165</ele>
        <time>2013-09-21T04:40:02Z</time>
      </trkpt>
      <trkpt lat="54.314362993463874" lon="26.84026999399066">
        <ele>165.96000000000001</ele>
        <time>2013-09-21T04:40:08Z</time>
      </trkpt>
      <trkpt lat="54.314338015392423" lon="26.840531006455421">
        <ele>165.96000000000001</ele>
        <time>2013-09-21T04:40:13Z</time>
      </trkpt>
      <trkpt lat="54.314330974593759" lon="26.840790007263422">
        <ele>165.96000000000001</ele>
        <time>2013-09-21T04:40:17Z</time>
      </trkpt>
      <trkpt lat="54.314316976815462" lon="26.841286970302463">
        <ele>165.96000000000001</ele>
        <time>2013-09-21T04:40:24Z</time>
      </trkpt>
      <trkpt lat="54.314327035099268" lon="26.842403020709753">
        <ele>166.44999999999999</ele>
        <time>2013-09-21T04:40:40Z</time>
      </trkpt>
      <trkpt lat="54.314315970987082" lon="26.843294017016888">
        <ele>166.44999999999999</ele>
        <time>2013-09-21T04:40:53Z</time>
      </trkpt>
      <trkpt lat="54.314308008179069" lon="26.843588976189494">
        <ele>166.44999999999999</ele>
        <time>2013-09-21T04:40:57Z</time>
      </trkpt>
      <trkpt lat="54.314282024279237" lon="26.844832012429833">
        <ele>167.41</ele>
        <time>2013-09-21T04:41:13Z</time>
      </trkpt>
      <trkpt lat="54.314239025115967" lon="26.84620002284646">
        <ele>166.44999999999999</ele>
        <time>2013-09-21T04:41:30Z</time>
      </trkpt>
      <trkpt lat="54.314167024567723" lon="26.847455967217684">
        <ele>165</ele>
        <time>2013-09-21T04:41:47Z</time>
      </trkpt>
      <trkpt lat="54.314091000705957" lon="26.848576962947845">
        <ele>165</ele>
        <time>2013-09-21T04:42:03Z</time>
      </trkpt>
      <trkpt lat="54.314084965735674" lon="26.84865097515285">
        <ele>165</ele>
        <time>2013-09-21T04:42:04Z</time>
      </trkpt>
      <trkpt lat="54.314007014036179" lon="26.849926030263305">
        <ele>165</ele>
        <time>2013-09-21T04:42:22Z</time>
      </trkpt>
      <trkpt lat="54.313984969630837" lon="26.850432967767119">
        <ele>165.47999999999999</ele>
        <time>2013-09-21T04:42:29Z</time>
      </trkpt>
      <trkpt lat="54.313981030136347" lon="26.850504968315363">
        <ele>165.47999999999999</ele>
        <time>2013-09-21T04:42:30Z</time>
      </trkpt>
      <trkpt lat="54.313976000994444" lon="26.850577974691987">
        <ele>165.47999999999999</ele>
        <time>2013-09-21T04:42:31Z</time>
      </trkpt>
      <trkpt lat="54.31388103403151" lon="26.85191597789526">
        <ele>165</ele>
        <time>2013-09-21T04:42:50Z</time>
      </trkpt>
      <trkpt lat="54.31385999545455" lon="26.852155029773712">
        <ele>165</ele>
        <time>2013-09-21T04:42:54Z</time>
      </trkpt>
      <trkpt lat="54.313777014613152" lon="26.852273968979716">
        <ele>165.47999999999999</ele>
        <time>2013-09-21T04:42:58Z</time>
      </trkpt>
      <trkpt lat="54.313643993809819" lon="26.852450994774699">
        <ele>165.47999999999999</ele>
        <time>2013-09-21T04:43:06Z</time>
      </trkpt>
      <trkpt lat="54.3136449996382" lon="26.852944018319249">
        <ele>165</ele>
        <time>2013-09-21T04:43:15Z</time>
      </trkpt>
      <trkpt lat="54.313393961638212" lon="26.853471994400024">
        <ele>165</ele>
        <time>2013-09-21T04:43:26Z</time>
      </trkpt>
      <trkpt lat="54.313304023817182" lon="26.853595962747931">
        <ele>164.52000000000001</ele>
        <time>2013-09-21T04:43:29Z</time>
      </trkpt>
      <trkpt lat="54.312956007197499" lon="26.854002987965941">
        <ele>165</ele>
        <time>2013-09-21T04:43:41Z</time>
      </trkpt>
      <trkpt lat="54.312846958637238" lon="26.854051016271114">
        <ele>165</ele>
        <time>2013-09-21T04:43:53Z</time>
      </trkpt>
      <trkpt lat="54.312841007485986" lon="26.854050010442734">
        <ele>165.47999999999999</ele>
        <time>2013-09-21T04:44:09Z</time>
      </trkpt>
      <trkpt lat="54.312532972544432" lon="26.854293001815677">
        <ele>166.44999999999999</ele>
        <time>2013-09-21T04:44:22Z</time>
      </trkpt>
      <trkpt lat="54.312385031953454" lon="26.854328038170934">
        <ele>166.93000000000001</ele>
        <time>2013-09-21T04:44:26Z</time>
      </trkpt>
      <trkpt lat="54.312184033915401" lon="26.854386040940881">
        <ele>166.44999999999999</ele>
        <time>2013-09-21T04:44:31Z</time>
      </trkpt>
      <trkpt lat="54.311417005956173" lon="26.854441026225686">
        <ele>165.96000000000001</ele>
        <time>2013-09-21T04:44:50Z</time>
      </trkpt>
      <trkpt lat="54.310882994905114" lon="26.854532975703478">
        <ele>166.93000000000001</ele>
        <time>2013-09-21T04:45:05Z</time>
      </trkpt>
      <trkpt lat="54.310362981632352" lon="26.854606987908483">
        <ele>168.37</ele>
        <time>2013-09-21T04:45:21Z</time>
      </trkpt>
      <trkpt lat="54.309742972254753" lon="26.854705978184938">
        <ele>169.33000000000001</ele>
        <time>2013-09-21T04:45:37Z</time>
      </trkpt>
      <trkpt lat="54.309002012014389" lon="26.854732967913151">
        <ele>170.77000000000001</ele>
        <time>2013-09-21T04:45:57Z</time>
      </trkpt>
      <trkpt lat="54.308398012071848" lon="26.85477496124804">
        <ele>171.72999999999999</ele>
        <time>2013-09-21T04:46:15Z</time>
      </trkpt>
      <trkpt lat="54.308314025402069" lon="26.854872023686767">
        <ele>172.21000000000001</ele>
        <time>2013-09-21T04:46:19Z</time>
      </trkpt>
      <trkpt lat="54.308270020410419" lon="26.854904964566231">
        <ele>172.21000000000001</ele>
        <time>2013-09-21T04:46:21Z</time>
      </trkpt>
      <trkpt lat="54.308112021535635" lon="26.855066986754537">
        <ele>173.16999999999999</ele>
        <time>2013-09-21T04:46:29Z</time>
      </trkpt>
      <trkpt lat="54.308045972138643" lon="26.855107974261045">
        <ele>173.16999999999999</ele>
        <time>2013-09-21T04:46:31Z</time>
      </trkpt>
      <trkpt lat="54.307412970811129" lon="26.855690013617277">
        <ele>175.09999999999999</ele>
        <time>2013-09-21T04:46:49Z</time>
      </trkpt>
      <trkpt lat="54.306716015562415" lon="26.856379006057978">
        <ele>176.06</ele>
        <time>2013-09-21T04:47:08Z</time>
      </trkpt>
      <trkpt lat="54.306063987314701" lon="26.857017036527395">
        <ele>177.97999999999999</ele>
        <time>2013-09-21T04:47:27Z</time>
      </trkpt>
      <trkpt lat="54.305823007598519" lon="26.857251981273293">
        <ele>178.46000000000001</ele>
        <time>2013-09-21T04:47:34Z</time>
      </trkpt>
      <trkpt lat="54.305124040693045" lon="26.857927981764078">
        <ele>180.38</ele>
        <time>2013-09-21T04:47:54Z</time>
      </trkpt>
      <trkpt lat="54.304411998018622" lon="26.858620997518301">
        <ele>182.31</ele>
        <time>2013-09-21T04:48:14Z</time>
      </trkpt>
      <trkpt lat="54.303597025573254" lon="26.859434964135289">
        <ele>182.78999999999999</ele>
        <time>2013-09-21T04:48:36Z</time>
      </trkpt>
      <trkpt lat="54.302820023149252" lon="26.860067965462804">
        <ele>182.31</ele>
        <time>2013-09-21T04:48:55Z</time>
      </trkpt>
      <trkpt lat="54.302106974646449" lon="26.860343981534243">
        <ele>181.34999999999999</ele>
        <time>2013-09-21T04:49:10Z</time>
      </trkpt>
      <trkpt lat="54.301366014406085" lon="26.860125968232751">
        <ele>180.87</ele>
        <time>2013-09-21T04:49:27Z</time>
      </trkpt>
      <trkpt lat="54.301057979464531" lon="26.859947014600039">
        <ele>180.87</ele>
        <time>2013-09-21T04:49:39Z</time>
      </trkpt>
      <trkpt lat="54.301057979464531" lon="26.859947014600039">
        <ele>180.87</ele>
        <time>2013-09-21T04:49:51Z</time>
      </trkpt>
      <trkpt lat="54.301025960594416" lon="26.860032007098198">
        <ele>181.83000000000001</ele>
        <time>2013-09-21T04:49:55Z</time>
      </trkpt>
      <trkpt lat="54.300915990024805" lon="26.86059501953423">
        <ele>182.78999999999999</ele>
        <time>2013-09-21T04:50:07Z</time>
      </trkpt>
      <trkpt lat="54.300632011145353" lon="26.861965041607618">
        <ele>183.75</ele>
        <time>2013-09-21T04:50:28Z</time>
      </trkpt>
      <trkpt lat="54.300564033910632" lon="26.862278021872044">
        <ele>184.71000000000001</ele>
        <time>2013-09-21T04:50:33Z</time>
      </trkpt>
      <trkpt lat="54.300406035035849" lon="26.863029040396214">
        <ele>186.15000000000001</ele>
        <time>2013-09-21T04:50:46Z</time>
      </trkpt>
      <trkpt lat="54.300210988149047" lon="26.864018021151423">
        <ele>186.15000000000001</ele>
        <time>2013-09-21T04:51:03Z</time>
      </trkpt>
      <trkpt lat="54.300199002027512" lon="26.864082980901003">
        <ele>186.63</ele>
        <time>2013-09-21T04:51:04Z</time>
      </trkpt>
      <trkpt lat="54.29995802231133" lon="26.865182016044855">
        <ele>187.59</ele>
        <time>2013-09-21T04:51:20Z</time>
      </trkpt>
      <trkpt lat="54.29970103316009" lon="26.866428991779685">
        <ele>186.63</ele>
        <time>2013-09-21T04:51:37Z</time>
      </trkpt>
      <trkpt lat="54.299541022628546" lon="26.867256034165621">
        <ele>186.15000000000001</ele>
        <time>2013-09-21T04:51:48Z</time>
      </trkpt>
      <trkpt lat="54.299295013770461" lon="26.868390021845698">
        <ele>186.15000000000001</ele>
        <time>2013-09-21T04:52:02Z</time>
      </trkpt>
      <trkpt lat="54.299083035439253" lon="26.869459971785545">
        <ele>184.71000000000001</ele>
        <time>2013-09-21T04:52:13Z</time>
      </trkpt>
      <trkpt lat="54.298912966623902" lon="26.87028500251472">
        <ele>182.31</ele>
        <time>2013-09-21T04:52:23Z</time>
      </trkpt>
      <trkpt lat="54.298671986907721" lon="26.871469030156732">
        <ele>180.87</ele>
        <time>2013-09-21T04:52:39Z</time>
      </trkpt>
      <trkpt lat="54.298410974442959" lon="26.872791023924947">
        <ele>182.78999999999999</ele>
        <time>2013-09-21T04:52:58Z</time>
      </trkpt>
      <trkpt lat="54.298342997208238" lon="26.87312101945281">
        <ele>183.75</ele>
        <time>2013-09-21T04:53:03Z</time>
      </trkpt>
      <trkpt lat="54.298106040805578" lon="26.8741749599576">
        <ele>185.66999999999999</ele>
        <time>2013-09-21T04:53:19Z</time>
      </trkpt>
      <trkpt lat="54.297901019454002" lon="26.875168969854712">
        <ele>188.08000000000001</ele>
        <time>2013-09-21T04:53:36Z</time>
      </trkpt>
      <trkpt lat="54.297898001968861" lon="26.875454960390925">
        <ele>188.56</ele>
        <time>2013-09-21T04:53:45Z</time>
      </trkpt>
      <trkpt lat="54.297664985060692" lon="26.876605041325092">
        <ele>187.59</ele>
        <time>2013-09-21T04:54:02Z</time>
      </trkpt>
      <trkpt lat="54.29748703725636" lon="26.877658981829882">
        <ele>187.11000000000001</ele>
        <time>2013-09-21T04:54:18Z</time>
      </trkpt>
      <trkpt lat="54.297352004796267" lon="26.878518965095282">
        <ele>184.22999999999999</ele>
        <time>2013-09-21T04:54:32Z</time>
      </trkpt>
      <trkpt lat="54.29735803976655" lon="26.878803027793765">
        <ele>183.75</ele>
        <time>2013-09-21T04:54:36Z</time>
      </trkpt>
      <trkpt lat="54.297430962324142" lon="26.879333015531301">
        <ele>182.31</ele>
        <time>2013-09-21T04:54:43Z</time>
      </trkpt>
      <trkpt lat="54.297447977587581" lon="26.879585981369019">
        <ele>182.31</ele>
        <time>2013-09-21T04:54:46Z</time>
      </trkpt>
      <trkpt lat="54.297369020059705" lon="26.880282014608383">
        <ele>184.22999999999999</ele>
        <time>2013-09-21T04:54:57Z</time>
      </trkpt>
      <trkpt lat="54.297350998967886" lon="26.880305986851454">
        <ele>184.22999999999999</ele>
        <time>2013-09-21T04:54:58Z</time>
      </trkpt>
      <trkpt lat="54.297243040055037" lon="26.880277991294861">
        <ele>185.66999999999999</ele>
        <time>2013-09-21T04:55:02Z</time>
      </trkpt>
      <trkpt lat="54.296898962929845" lon="26.880033994093537">
        <ele>188.56</ele>
        <time>2013-09-21T04:55:17Z</time>
      </trkpt>
      <trkpt lat="54.296889994293451" lon="26.880036005750299">
        <ele>188.56</ele>
        <time>2013-09-21T04:55:27Z</time>
      </trkpt>
      <trkpt lat="54.296768959611654" lon="26.880390979349613">
        <ele>190.47999999999999</ele>
        <time>2013-09-21T04:55:39Z</time>
      </trkpt>
      <trkpt lat="54.296733001247048" lon="26.880397014319897">
        <ele>190.47999999999999</ele>
        <time>2013-09-21T04:55:51Z</time>
      </trkpt>
      <trkpt lat="54.296733001247048" lon="26.880397014319897">
        <ele>190.47999999999999</ele>
        <time>2013-09-21T04:55:56Z</time>
      </trkpt>
      <trkpt lat="54.296523034572601" lon="26.880132984369993">
        <ele>190</ele>
        <time>2013-09-21T04:56:08Z</time>
      </trkpt>
      <trkpt lat="54.296250035986304" lon="26.879946989938617">
        <ele>191.44</ele>
        <time>2013-09-21T04:56:18Z</time>
      </trkpt>
      <trkpt lat="54.29574703797698" lon="26.879634009674191">
        <ele>193.84</ele>
        <time>2013-09-21T04:56:34Z</time>
      </trkpt>
      <trkpt lat="54.295420981943607" lon="26.879382971674204">
        <ele>194.31999999999999</ele>
        <time>2013-09-21T04:56:45Z</time>
      </trkpt>
      <trkpt lat="54.294865010306239" lon="26.879077032208443">
        <ele>195.77000000000001</ele>
        <time>2013-09-21T04:57:00Z</time>
      </trkpt>
      <trkpt lat="54.294164031744003" lon="26.878650980070233">
        <ele>198.65000000000001</ele>
        <time>2013-09-21T04:57:18Z</time>
      </trkpt>
      <trkpt lat="54.293440002948046" lon="26.878199027851224">
        <ele>199.13</ele>
        <time>2013-09-21T04:57:36Z</time>
      </trkpt>
      <trkpt lat="54.293199023231864" lon="26.878047985956073">
        <ele>199.61000000000001</ele>
        <time>2013-09-21T04:57:43Z</time>
      </trkpt>
      <trkpt lat="54.292552024126053" lon="26.87765596434474">
        <ele>200.09</ele>
        <time>2013-09-21T04:58:00Z</time>
      </trkpt>
      <trkpt lat="54.291842998936772" lon="26.877224966883659">
        <ele>201.05000000000001</ele>
        <time>2013-09-21T04:58:20Z</time>
      </trkpt>
      <trkpt lat="54.291470004245639" lon="26.877020029351115">
        <ele>200.56999999999999</ele>
        <time>2013-09-21T04:58:34Z</time>
      </trkpt>
      <trkpt lat="54.291463969275355" lon="26.877046013250947">
        <ele>200.56999999999999</ele>
        <time>2013-09-21T04:58:58Z</time>
      </trkpt>
      <trkpt lat="54.291420970112085" lon="26.877082977443933">
        <ele>200.09</ele>
        <time>2013-09-21T04:59:02Z</time>
      </trkpt>
      <trkpt lat="54.291337989270687" lon="26.877104016020894">
        <ele>200.56999999999999</ele>
        <time>2013-09-21T04:59:15Z</time>
      </trkpt>
      <trkpt lat="54.291014028713107" lon="26.877153972163796">
        <ele>202.00999999999999</ele>
        <time>2013-09-21T04:59:27Z</time>
      </trkpt>
      <trkpt lat="54.290623012930155" lon="26.877026986330748">
        <ele>203.94</ele>
        <time>2013-09-21T04:59:39Z</time>
      </trkpt>
      <trkpt lat="54.290047008544207" lon="26.876808973029256">
        <ele>205.86000000000001</ele>
        <time>2013-09-21T04:59:55Z</time>
      </trkpt>
      <trkpt lat="54.28945298306644" lon="26.876765973865986">
        <ele>205.86000000000001</ele>
        <time>2013-09-21T05:00:10Z</time>
      </trkpt>
      <trkpt lat="54.288795003667474" lon="26.876681987196207">
        <ele>206.81999999999999</ele>
        <time>2013-09-21T05:00:27Z</time>
      </trkpt>
      <trkpt lat="54.288662988692522" lon="26.876656003296375">
        <ele>205.86000000000001</ele>
        <time>2013-09-21T05:00:30Z</time>
      </trkpt>
      <trkpt lat="54.288216987624764" lon="26.876549972221255">
        <ele>203.94</ele>
        <time>2013-09-21T05:00:40Z</time>
      </trkpt>
      <trkpt lat="54.288053959608078" lon="26.876483000814915">
        <ele>203.46000000000001</ele>
        <time>2013-09-21T05:00:43Z</time>
      </trkpt>
      <trkpt lat="54.287329008802772" lon="26.876331958919764">
        <ele>202.49000000000001</ele>
        <time>2013-09-21T05:00:56Z</time>
      </trkpt>
      <trkpt lat="54.286662982776761" lon="26.876144958660007">
        <ele>202.97999999999999</ele>
        <time>2013-09-21T05:01:10Z</time>
      </trkpt>
      <trkpt lat="54.285943983122706" lon="26.875969022512436">
        <ele>204.41999999999999</ele>
        <time>2013-09-21T05:01:28Z</time>
      </trkpt>
      <trkpt lat="54.285430004820228" lon="26.875844970345497">
        <ele>206.81999999999999</ele>
        <time>2013-09-21T05:01:43Z</time>
      </trkpt>
      <trkpt lat="54.284958019852638" lon="26.875688983127475">
        <ele>209.22</ele>
        <time>2013-09-21T05:01:57Z</time>
      </trkpt>
      <trkpt lat="54.284444963559508" lon="26.875572977587581">
        <ele>212.11000000000001</ele>
        <time>2013-09-21T05:02:12Z</time>
      </trkpt>
      <trkpt lat="54.283854961395264" lon="26.875486979261041">
        <ele>214.03</ele>
        <time>2013-09-21T05:02:29Z</time>
      </trkpt>
      <trkpt lat="54.283375013619661" lon="26.87539997510612">
        <ele>214.03</ele>
        <time>2013-09-21T05:02:42Z</time>
      </trkpt>
      <trkpt lat="54.282799009233713" lon="26.875286987051368">
        <ele>215.47</ele>
        <time>2013-09-21T05:02:58Z</time>
      </trkpt>
      <trkpt lat="54.282317971810699" lon="26.875212974846363">
        <ele>214.99000000000001</ele>
        <time>2013-09-21T05:03:12Z</time>
      </trkpt>
      <trkpt lat="54.282127032056451" lon="26.8753129709512">
        <ele>215.94999999999999</ele>
        <time>2013-09-21T05:03:23Z</time>
      </trkpt>
      <trkpt lat="54.282012032344937" lon="26.876044040545821">
        <ele>215.47</ele>
        <time>2013-09-21T05:03:36Z</time>
      </trkpt>
      <trkpt lat="54.28182695992291" lon="26.877116002142429">
        <ele>214.99000000000001</ele>
        <time>2013-09-21T05:03:52Z</time>
      </trkpt>
      <trkpt lat="54.281621016561985" lon="26.878479989245534">
        <ele>214.50999999999999</ele>
        <time>2013-09-21T05:04:10Z</time>
      </trkpt>
      <trkpt lat="54.281596038490534" lon="26.878546960651875">
        <ele>214.03</ele>
        <time>2013-09-21T05:04:11Z</time>
      </trkpt>
      <trkpt lat="54.28156603127718" lon="26.878603035584092">
        <ele>214.03</ele>
        <time>2013-09-21T05:04:12Z</time>
      </trkpt>
      <trkpt lat="54.281527977436781" lon="26.878649974241853">
        <ele>214.03</ele>
        <time>2013-09-21T05:04:13Z</time>
      </trkpt>
      <trkpt lat="54.28148397244513" lon="26.878682998940349">
        <ele>213.55000000000001</ele>
        <time>2013-09-21T05:04:14Z</time>
      </trkpt>
      <trkpt lat="54.28143803961575" lon="26.878710994496942">
        <ele>213.55000000000001</ele>
        <time>2013-09-21T05:04:15Z</time>
      </trkpt>
      <trkpt lat="54.281390011310577" lon="26.878732033073902">
        <ele>213.55000000000001</ele>
        <time>2013-09-21T05:04:16Z</time>
      </trkpt>
      <trkpt lat="54.281340977177024" lon="26.878746030852199">
        <ele>213.55000000000001</ele>
        <time>2013-09-21T05:04:17Z</time>
      </trkpt>
      <trkpt lat="54.281193958595395" lon="26.878773020580411">
        <ele>213.06999999999999</ele>
        <time>2013-09-21T05:04:20Z</time>
      </trkpt>
      <trkpt lat="54.281065966933966" lon="26.878752987831831">
        <ele>213.06999999999999</ele>
        <time>2013-09-21T05:04:23Z</time>
      </trkpt>
      <trkpt lat="54.281027996912599" lon="26.878741001710296">
        <ele>213.06999999999999</ele>
        <time>2013-09-21T05:04:24Z</time>
      </trkpt>
      <trkpt lat="54.280992960557342" lon="26.878737984225154">
        <ele>213.06999999999999</ele>
        <time>2013-09-21T05:04:25Z</time>
      </trkpt>
      <trkpt lat="54.280957002192736" lon="26.878730021417141">
        <ele>213.06999999999999</ele>
        <time>2013-09-21T05:04:26Z</time>
      </trkpt>
      <trkpt lat="54.280918026342988" lon="26.878715017810464">
        <ele>213.55000000000001</ele>
        <time>2013-09-21T05:04:27Z</time>
      </trkpt>
      <trkpt lat="54.280629018321633" lon="26.878623990342021">
        <ele>214.03</ele>
        <time>2013-09-21T05:04:34Z</time>
      </trkpt>
      <trkpt lat="54.279984030872583" lon="26.878432966768742">
        <ele>215.47</ele>
        <time>2013-09-21T05:04:49Z</time>
      </trkpt>
      <trkpt lat="54.279668033123016" lon="26.878658020868897">
        <ele>215.94999999999999</ele>
        <time>2013-09-21T05:05:00Z</time>
      </trkpt>
      <trkpt lat="54.279664009809494" lon="26.878722980618477">
        <ele>215.94999999999999</ele>
        <time>2013-09-21T05:05:01Z</time>
      </trkpt>
      <trkpt lat="54.279566025361419" lon="26.879591010510921">
        <ele>214.99000000000001</ele>
        <time>2013-09-21T05:05:13Z</time>
      </trkpt>
      <trkpt lat="54.279485978186131" lon="26.880013961344957">
        <ele>213.55000000000001</ele>
        <time>2013-09-21T05:05:19Z</time>
      </trkpt>
      <trkpt lat="54.279286991804838" lon="26.880784006789327">
        <ele>212.11000000000001</ele>
        <time>2013-09-21T05:05:30Z</time>
      </trkpt>
      <trkpt lat="54.279240975156426" lon="26.881158007308841">
        <ele>212.59</ele>
        <time>2013-09-21T05:05:35Z</time>
      </trkpt>
      <trkpt lat="54.279283974319696" lon="26.881794026121497">
        <ele>211.63</ele>
        <time>2013-09-21T05:05:43Z</time>
      </trkpt>
      <trkpt lat="54.279182972386479" lon="26.882670018821955">
        <ele>211.15000000000001</ele>
        <time>2013-09-21T05:05:56Z</time>
      </trkpt>
      <trkpt lat="54.279065961018205" lon="26.883323974907398">
        <ele>210.19</ele>
        <time>2013-09-21T05:06:09Z</time>
      </trkpt>
      <trkpt lat="54.278898993507028" lon="26.884199967607856">
        <ele>211.15000000000001</ele>
        <time>2013-09-21T05:06:23Z</time>
      </trkpt>
      <trkpt lat="54.278833027929068" lon="26.884606992825866">
        <ele>212.11000000000001</ele>
        <time>2013-09-21T05:06:29Z</time>
      </trkpt>
      <trkpt lat="54.278826992958784" lon="26.885918006300926">
        <ele>212.11000000000001</ele>
        <time>2013-09-21T05:06:47Z</time>
      </trkpt>
      <trkpt lat="54.278864962980151" lon="26.886315979063511">
        <ele>212.11000000000001</ele>
        <time>2013-09-21T05:06:52Z</time>
      </trkpt>
      <trkpt lat="54.278999995440245" lon="26.88728098757565">
        <ele>209.69999999999999</ele>
        <time>2013-09-21T05:07:04Z</time>
      </trkpt>
      <trkpt lat="54.279160005971789" lon="26.88874295912683">
        <ele>206.81999999999999</ele>
        <time>2013-09-21T05:07:20Z</time>
      </trkpt>
      <trkpt lat="54.279393022879958" lon="26.890821000561118">
        <ele>205.38</ele>
        <time>2013-09-21T05:07:44Z</time>
      </trkpt>
      <trkpt lat="54.279500981792808" lon="26.891875024884939">
        <ele>205.86000000000001</ele>
        <time>2013-09-21T05:08:00Z</time>
      </trkpt>
      <trkpt lat="54.279496036469936" lon="26.891887011006474">
        <ele>206.34</ele>
        <time>2013-09-21T05:08:11Z</time>
      </trkpt>
      <trkpt lat="54.279513973742723" lon="26.89194300211966">
        <ele>205.86000000000001</ele>
        <time>2013-09-21T05:09:28Z</time>
      </trkpt>
      <trkpt lat="54.279528977349401" lon="26.891993964090943">
        <ele>205.86000000000001</ele>
        <time>2013-09-21T05:09:47Z</time>
      </trkpt>
      <trkpt lat="54.279534006491303" lon="26.892042998224497">
        <ele>205.86000000000001</ele>
        <time>2013-09-21T05:10:02Z</time>
      </trkpt>
      <trkpt lat="54.279534006491303" lon="26.892042998224497">
        <ele>205.86000000000001</ele>
        <time>2013-09-21T05:10:06Z</time>
      </trkpt>
      <trkpt lat="54.27961396984756" lon="26.892506014555693">
        <ele>205.86000000000001</ele>
        <time>2013-09-21T05:10:20Z</time>
      </trkpt>
      <trkpt lat="54.279767023399472" lon="26.893417965620756">
        <ele>207.30000000000001</ele>
        <time>2013-09-21T05:10:35Z</time>
      </trkpt>
      <trkpt lat="54.28000196814537" lon="26.894570980221033">
        <ele>205.86000000000001</ele>
        <time>2013-09-21T05:10:53Z</time>
      </trkpt>
      <trkpt lat="54.280320983380079" lon="26.895823990926147">
        <ele>202.00999999999999</ele>
        <time>2013-09-21T05:11:07Z</time>
      </trkpt>
      <trkpt lat="54.280693978071213" lon="26.897326027974486">
        <ele>195.28</ele>
        <time>2013-09-21T05:11:24Z</time>
      </trkpt>
      <trkpt lat="54.280693978071213" lon="26.89793799072504">
        <ele>194.31999999999999</ele>
        <time>2013-09-21T05:11:36Z</time>
      </trkpt>
      <trkpt lat="54.280444029718637" lon="26.898182993754745">
        <ele>194.31999999999999</ele>
        <time>2013-09-21T05:11:44Z</time>
      </trkpt>
      <trkpt lat="54.279733998700976" lon="26.898965025320649">
        <ele>193.84</ele>
        <time>2013-09-21T05:12:04Z</time>
      </trkpt>
      <trkpt lat="54.279668033123016" lon="26.899048006162047">
        <ele>193.36000000000001</ele>
        <time>2013-09-21T05:12:06Z</time>
      </trkpt>
      <trkpt lat="54.279318004846573" lon="26.899544969201088">
        <ele>192.40000000000001</ele>
        <time>2013-09-21T05:12:19Z</time>
      </trkpt>
      <trkpt lat="54.279315993189812" lon="26.899559972807765">
        <ele>192.40000000000001</ele>
        <time>2013-09-21T05:12:36Z</time>
      </trkpt>
      <trkpt lat="54.279316999018192" lon="26.899560978636146">
        <ele>192.40000000000001</ele>
        <time>2013-09-21T05:13:18Z</time>
      </trkpt>
      <trkpt lat="54.279136033728719" lon="26.899696011096239">
        <ele>191.91999999999999</ele>
        <time>2013-09-21T05:13:26Z</time>
      </trkpt>
      <trkpt lat="54.278520969673991" lon="26.900488017126918">
        <ele>188.08000000000001</ele>
        <time>2013-09-21T05:13:41Z</time>
      </trkpt>
      <trkpt lat="54.277886040508747" lon="26.901107020676136">
        <ele>186.63</ele>
        <time>2013-09-21T05:13:56Z</time>
      </trkpt>
      <trkpt lat="54.277328979223967" lon="26.901660980656743">
        <ele>189.03999999999999</ele>
        <time>2013-09-21T05:14:11Z</time>
      </trkpt>
      <trkpt lat="54.277294026687741" lon="26.901714038103819">
        <ele>189.03999999999999</ele>
        <time>2013-09-21T05:14:12Z</time>
      </trkpt>
      <trkpt lat="54.277262007817626" lon="26.901776986196637">
        <ele>189.03999999999999</ele>
        <time>2013-09-21T05:14:13Z</time>
      </trkpt>
      <trkpt lat="54.277233006432652" lon="26.901844963431358">
        <ele>189.03999999999999</ele>
        <time>2013-09-21T05:14:14Z</time>
      </trkpt>
      <trkpt lat="54.27720601670444" lon="26.901918975636363">
        <ele>189.52000000000001</ele>
        <time>2013-09-21T05:14:15Z</time>
      </trkpt>
      <trkpt lat="54.276808965951204" lon="26.903487984091043">
        <ele>187.11000000000001</ele>
        <time>2013-09-21T05:14:32Z</time>
      </trkpt>
      <trkpt lat="54.276321977376938" lon="26.90549997612834">
        <ele>184.71000000000001</ele>
        <time>2013-09-21T05:14:52Z</time>
      </trkpt>
      <trkpt lat="54.275888968259096" lon="26.907423036172986">
        <ele>183.75</ele>
        <time>2013-09-21T05:15:11Z</time>
      </trkpt>
      <trkpt lat="54.27570297382772" lon="26.908316966146231">
        <ele>185.19</ele>
        <time>2013-09-21T05:15:23Z</time>
      </trkpt>
      <trkpt lat="54.275505999103189" lon="26.909422036260366">
        <ele>188.56</ele>
        <time>2013-09-21T05:15:40Z</time>
      </trkpt>
      <trkpt lat="54.275313969701529" lon="26.910617966204882">
        <ele>193.36000000000001</ele>
        <time>2013-09-21T05:16:00Z</time>
      </trkpt>
      <trkpt lat="54.275183966383338" lon="26.911703003570437">
        <ele>194.31999999999999</ele>
        <time>2013-09-21T05:16:15Z</time>
      </trkpt>
      <trkpt lat="54.275051029399037" lon="26.913071013987064">
        <ele>193.84</ele>
        <time>2013-09-21T05:16:32Z</time>
      </trkpt>
      <trkpt lat="54.27488699555397" lon="26.914171976968646">
        <ele>194.31999999999999</ele>
        <time>2013-09-21T05:16:49Z</time>
      </trkpt>
      <trkpt lat="54.274851959198713" lon="26.914818976074457">
        <ele>195.28</ele>
        <time>2013-09-21T05:17:00Z</time>
      </trkpt>
      <trkpt lat="54.274816000834107" lon="26.915277969092131">
        <ele>195.77000000000001</ele>
        <time>2013-09-21T05:17:06Z</time>
      </trkpt>
      <trkpt lat="54.274723967537284" lon="26.916397036984563">
        <ele>195.28</ele>
        <time>2013-09-21T05:17:19Z</time>
      </trkpt>
      <trkpt lat="54.274554988369346" lon="26.917772004380822">
        <ele>192.88</ele>
        <time>2013-09-21T05:17:35Z</time>
      </trkpt>
      <trkpt lat="54.274423979222775" lon="26.919297007843852">
        <ele>190</ele>
        <time>2013-09-21T05:17:48Z</time>
      </trkpt>
      <trkpt lat="54.274373017251492" lon="26.920026987791061">
        <ele>187.59</ele>
        <time>2013-09-21T05:17:53Z</time>
      </trkpt>
      <trkpt lat="54.274463960900903" lon="26.920653032138944">
        <ele>186.15000000000001</ele>
        <time>2013-09-21T05:17:58Z</time>
      </trkpt>
      <trkpt lat="54.274908034130931" lon="26.922239977866411">
        <ele>183.75</ele>
        <time>2013-09-21T05:18:12Z</time>
      </trkpt>
      <trkpt lat="54.274870986118913" lon="26.922986973077059">
        <ele>182.78999999999999</ele>
        <time>2013-09-21T05:18:18Z</time>
      </trkpt>
      <trkpt lat="54.274400006979704" lon="26.924644997343421">
        <ele>181.34999999999999</ele>
        <time>2013-09-21T05:18:36Z</time>
      </trkpt>
      <trkpt lat="54.274237984791398" lon="26.925302976742387">
        <ele>181.83000000000001</ele>
        <time>2013-09-21T05:18:48Z</time>
      </trkpt>
      <trkpt lat="54.274034975096583" lon="26.925872024148703">
        <ele>182.78999999999999</ele>
        <time>2013-09-21T05:19:00Z</time>
      </trkpt>
      <trkpt lat="54.273739010095596" lon="26.926896963268518">
        <ele>184.22999999999999</ele>
        <time>2013-09-21T05:19:16Z</time>
      </trkpt>
      <trkpt lat="54.273627027869225" lon="26.927989963442087">
        <ele>186.63</ele>
        <time>2013-09-21T05:19:33Z</time>
      </trkpt>
      <trkpt lat="54.273626022040844" lon="26.928920019418001">
        <ele>191.44</ele>
        <time>2013-09-21T05:19:49Z</time>
      </trkpt>
      <trkpt lat="54.273628033697605" lon="26.930115027353168">
        <ele>193.36000000000001</ele>
        <time>2013-09-21T05:20:07Z</time>
      </trkpt>
      <trkpt lat="54.27357598207891" lon="26.931473985314369">
        <ele>192.40000000000001</ele>
        <time>2013-09-21T05:20:23Z</time>
      </trkpt>
      <trkpt lat="54.273527031764388" lon="26.932773012667894">
        <ele>193.84</ele>
        <time>2013-09-21T05:20:41Z</time>
      </trkpt>
      <trkpt lat="54.273572964593768" lon="26.934055024757981">
        <ele>190.96000000000001</ele>
        <time>2013-09-21T05:20:57Z</time>
      </trkpt>
      <trkpt lat="54.273685030639172" lon="26.936044972389936">
        <ele>185.66999999999999</ele>
        <time>2013-09-21T05:21:13Z</time>
      </trkpt>
      <trkpt lat="54.273719983175397" lon="26.937162028625607">
        <ele>184.71000000000001</ele>
        <time>2013-09-21T05:21:22Z</time>
      </trkpt>
      <trkpt lat="54.273732975125313" lon="26.937953028827906">
        <ele>184.71000000000001</ele>
        <time>2013-09-21T05:21:33Z</time>
      </trkpt>
      <trkpt lat="54.273761976510286" lon="26.93839400075376">
        <ele>184.71000000000001</ele>
        <time>2013-09-21T05:21:45Z</time>
      </trkpt>
      <trkpt lat="54.273767005652189" lon="26.939370995387435">
        <ele>188.56</ele>
        <time>2013-09-21T05:22:02Z</time>
      </trkpt>
      <trkpt lat="54.273961968719959" lon="26.940095024183393">
        <ele>191.44</ele>
        <time>2013-09-21T05:22:17Z</time>
      </trkpt>
      <trkpt lat="54.274512995034456" lon="26.94032896310091">
        <ele>190.96000000000001</ele>
        <time>2013-09-21T05:22:32Z</time>
      </trkpt>
      <trkpt lat="54.274960001930594" lon="26.940379003062844">
        <ele>190</ele>
        <time>2013-09-21T05:22:42Z</time>
      </trkpt>
      <trkpt lat="54.27578897215426" lon="26.940431976690888">
        <ele>188.08000000000001</ele>
        <time>2013-09-21T05:22:58Z</time>
      </trkpt>
      <trkpt lat="54.275993993505836" lon="26.940529961138964">
        <ele>187.11000000000001</ele>
        <time>2013-09-21T05:23:02Z</time>
      </trkpt>
      <trkpt lat="54.276031963527203" lon="26.940585030242801">
        <ele>187.59</ele>
        <time>2013-09-21T05:23:03Z</time>
      </trkpt>
      <trkpt lat="54.276060964912176" lon="26.940653007477522">
        <ele>187.11000000000001</ele>
        <time>2013-09-21T05:23:04Z</time>
      </trkpt>
      <trkpt lat="54.276086026802659" lon="26.940729031339288">
        <ele>187.11000000000001</ele>
        <time>2013-09-21T05:23:05Z</time>
      </trkpt>
      <trkpt lat="54.276108993217349" lon="26.940812012180686">
        <ele>186.63</ele>
        <time>2013-09-21T05:23:06Z</time>
      </trkpt>
      <trkpt lat="54.276122990995646" lon="26.940901027992368">
        <ele>186.15000000000001</ele>
        <time>2013-09-21T05:23:07Z</time>
      </trkpt>
      <trkpt lat="54.2761339712888" lon="26.94099297747016">
        <ele>186.15000000000001</ele>
        <time>2013-09-21T05:23:08Z</time>
      </trkpt>
      <trkpt lat="54.276140006259084" lon="26.941086016595364">
        <ele>185.66999999999999</ele>
        <time>2013-09-21T05:23:09Z</time>
      </trkpt>
      <trkpt lat="54.276142017915845" lon="26.941177966073155">
        <ele>185.19</ele>
        <time>2013-09-21T05:23:10Z</time>
      </trkpt>
      <trkpt lat="54.276157021522522" lon="26.941580967977643">
        <ele>184.22999999999999</ele>
        <time>2013-09-21T05:23:15Z</time>
      </trkpt>
      <trkpt lat="54.276160039007664" lon="26.941662020981312">
        <ele>184.22999999999999</ele>
        <time>2013-09-21T05:23:16Z</time>
      </trkpt>
      <trkpt lat="54.276248971000314" lon="26.942487973719835">
        <ele>183.27000000000001</ele>
        <time>2013-09-21T05:23:26Z</time>
      </trkpt>
      <trkpt lat="54.276395989581943" lon="26.943750036880374">
        <ele>185.66999999999999</ele>
        <time>2013-09-21T05:23:43Z</time>
      </trkpt>
      <trkpt lat="54.276564968749881" lon="26.945191975682974">
        <ele>184.71000000000001</ele>
        <time>2013-09-21T05:23:58Z</time>
      </trkpt>
      <trkpt lat="54.276684997603297" lon="26.946329986676574">
        <ele>188.08000000000001</ele>
        <time>2013-09-21T05:24:13Z</time>
      </trkpt>
      <trkpt lat="54.276704024523497" lon="26.94655797444284">
        <ele>188.56</ele>
        <time>2013-09-21T05:24:16Z</time>
      </trkpt>
      <trkpt lat="54.276737971231341" lon="26.946851005777717">
        <ele>189.52000000000001</ele>
        <time>2013-09-21T05:24:20Z</time>
      </trkpt>
      <trkpt lat="54.276768984273076" lon="26.947143031284213">
        <ele>190.47999999999999</ele>
        <time>2013-09-21T05:24:24Z</time>
      </trkpt>
      <trkpt lat="54.276772001758218" lon="26.947216959670186">
        <ele>190.47999999999999</ele>
        <time>2013-09-21T05:24:25Z</time>
      </trkpt>
      <trkpt lat="54.27677895873785" lon="26.94728996604681">
        <ele>190.47999999999999</ele>
        <time>2013-09-21T05:24:26Z</time>
      </trkpt>
      <trkpt lat="54.276885995641351" lon="26.948464019224048">
        <ele>192.40000000000001</ele>
        <time>2013-09-21T05:24:42Z</time>
      </trkpt>
      <trkpt lat="54.276937963441014" lon="26.949074976146221">
        <ele>190.47999999999999</ele>
        <time>2013-09-21T05:24:49Z</time>
      </trkpt>
      <trkpt lat="54.277103003114462" lon="26.950495038181543">
        <ele>185.66999999999999</ele>
        <time>2013-09-21T05:25:01Z</time>
      </trkpt>
      <trkpt lat="54.27714197896421" lon="26.950716990977526">
        <ele>184.71000000000001</ele>
        <time>2013-09-21T05:25:03Z</time>
      </trkpt>
      <trkpt lat="54.277167962864041" lon="26.950816987082362">
        <ele>184.22999999999999</ele>
        <time>2013-09-21T05:25:04Z</time>
      </trkpt>
      <trkpt lat="54.277196964249015" lon="26.950901979580522">
        <ele>184.22999999999999</ele>
        <time>2013-09-21T05:25:05Z</time>
      </trkpt>
      <trkpt lat="54.277232000604272" lon="26.950973980128765">
        <ele>183.75</ele>
        <time>2013-09-21T05:25:06Z</time>
      </trkpt>
      <trkpt lat="54.277541041374207" lon="26.951271034777164">
        <ele>181.83000000000001</ele>
        <time>2013-09-21T05:25:13Z</time>
      </trkpt>
      <trkpt lat="54.278031969442964" lon="26.951246978715062">
        <ele>179.90000000000001</ele>
        <time>2013-09-21T05:25:22Z</time>
      </trkpt>
      <trkpt lat="54.278289964422584" lon="26.951147988438606">
        <ele>179.41999999999999</ele>
        <time>2013-09-21T05:25:27Z</time>
      </trkpt>
      <trkpt lat="54.279007958248258" lon="26.950541976839304">
        <ele>176.53999999999999</ele>
        <time>2013-09-21T05:25:42Z</time>
      </trkpt>
      <trkpt lat="54.27944197319448" lon="26.950171999633312">
        <ele>176.06</ele>
        <time>2013-09-21T05:25:54Z</time>
      </trkpt>
      <trkpt lat="54.279444990679622" lon="26.950174011290073">
        <ele>176.06</ele>
        <time>2013-09-21T05:26:14Z</time>
      </trkpt>
      <trkpt lat="54.279602989554405" lon="26.950538037344813">
        <ele>177.97999999999999</ele>
        <time>2013-09-21T05:26:26Z</time>
      </trkpt>
      <trkpt lat="54.279830977320671" lon="26.951152011752129">
        <ele>179.90000000000001</ele>
        <time>2013-09-21T05:26:39Z</time>
      </trkpt>
      <trkpt lat="54.280034992843866" lon="26.951762968674302">
        <ele>183.27000000000001</ele>
        <time>2013-09-21T05:26:52Z</time>
      </trkpt>
      <trkpt lat="54.280071035027504" lon="26.952778017148376">
        <ele>187.59</ele>
        <time>2013-09-21T05:27:08Z</time>
      </trkpt>
      <trkpt lat="54.280014038085937" lon="26.953770015388727">
        <ele>189.03999999999999</ele>
        <time>2013-09-21T05:27:24Z</time>
      </trkpt>
      <trkpt lat="54.279963998124003" lon="26.955023026093841">
        <ele>190.47999999999999</ele>
        <time>2013-09-21T05:27:42Z</time>
      </trkpt>
      <trkpt lat="54.279927033931017" lon="26.956241000443697">
        <ele>190.47999999999999</ele>
        <time>2013-09-21T05:27:59Z</time>
      </trkpt>
      <trkpt lat="54.279905995354056" lon="26.956983972340822">
        <ele>191.44</ele>
        <time>2013-09-21T05:28:13Z</time>
      </trkpt>
      <trkpt lat="54.279499975964427" lon="26.957015991210938">
        <ele>190.47999999999999</ele>
        <time>2013-09-21T05:28:27Z</time>
      </trkpt>
      <trkpt lat="54.278934029862285" lon="26.95699998177588">
        <ele>191.91999999999999</ele>
        <time>2013-09-21T05:28:45Z</time>
      </trkpt>
      <trkpt lat="54.278305973857641" lon="26.95699998177588">
        <ele>191.91999999999999</ele>
        <time>2013-09-21T05:29:04Z</time>
      </trkpt>
      <trkpt lat="54.278264986351132" lon="26.957008028402925">
        <ele>192.40000000000001</ele>
        <time>2013-09-21T05:29:11Z</time>
      </trkpt>
      <trkpt lat="54.278233973309398" lon="26.957044992595911">
        <ele>192.88</ele>
        <time>2013-09-21T05:29:14Z</time>
      </trkpt>
      <trkpt lat="54.278242019936442" lon="26.957159992307425">
        <ele>194.31999999999999</ele>
        <time>2013-09-21T05:29:26Z</time>
      </trkpt>
      <trkpt lat="54.278225004673004" lon="26.957741025835276">
        <ele>193.84</ele>
        <time>2013-09-21T05:29:37Z</time>
      </trkpt>
      <trkpt lat="54.278188040480018" lon="26.958810975775123">
        <ele>193.36000000000001</ele>
        <time>2013-09-21T05:29:52Z</time>
      </trkpt>
      <trkpt lat="54.278158033266664" lon="26.960107991471887">
        <ele>193.84</ele>
        <time>2013-09-21T05:30:09Z</time>
      </trkpt>
      <trkpt lat="54.278111010789871" lon="26.961438031867146">
        <ele>193.36000000000001</ele>
        <time>2013-09-21T05:30:27Z</time>
      </trkpt>
      <trkpt lat="54.278075974434614" lon="26.962466994300485">
        <ele>193.84</ele>
        <time>2013-09-21T05:30:41Z</time>
      </trkpt>
      <trkpt lat="54.278030963614583" lon="26.963715981692076">
        <ele>194.80000000000001</ele>
        <time>2013-09-21T05:30:58Z</time>
      </trkpt>
      <trkpt lat="54.277986036613584" lon="26.964931022375822">
        <ele>194.80000000000001</ele>
        <time>2013-09-21T05:31:15Z</time>
      </trkpt>
      <trkpt lat="54.277960974723101" lon="26.966091999784112">
        <ele>194.31999999999999</ele>
        <time>2013-09-21T05:31:32Z</time>
      </trkpt>
      <trkpt lat="54.277915963903069" lon="26.96744198910892">
        <ele>192.40000000000001</ele>
        <time>2013-09-21T05:31:49Z</time>
      </trkpt>
      <trkpt lat="54.277915041893721" lon="26.967529999092221">
        <ele>192.88</ele>
        <time>2013-09-21T05:31:50Z</time>
      </trkpt>
      <trkpt lat="54.277857961133122" lon="26.968934973701835">
        <ele>193.84</ele>
        <time>2013-09-21T05:32:07Z</time>
      </trkpt>
      <trkpt lat="54.277810016646981" lon="26.970440028235316">
        <ele>193.36000000000001</ele>
        <time>2013-09-21T05:32:26Z</time>
      </trkpt>
      <trkpt lat="54.277789983898401" lon="26.971097001805902">
        <ele>192.88</ele>
        <time>2013-09-21T05:32:34Z</time>
      </trkpt>
      <trkpt lat="54.277748996391892" lon="26.972129987552762">
        <ele>191.91999999999999</ele>
        <time>2013-09-21T05:32:47Z</time>
      </trkpt>
      <trkpt lat="54.277708008885384" lon="26.973002962768078">
        <ele>191.91999999999999</ele>
        <time>2013-09-21T05:32:59Z</time>
      </trkpt>
      <trkpt lat="54.277612958103418" lon="26.974374996498227">
        <ele>190.47999999999999</ele>
        <time>2013-09-21T05:33:16Z</time>
      </trkpt>
      <trkpt lat="54.277524026110768" lon="26.975849959999323">
        <ele>190</ele>
        <time>2013-09-21T05:33:35Z</time>
      </trkpt>
      <trkpt lat="54.277299977838993" lon="26.976291015744209">
        <ele>189.52000000000001</ele>
        <time>2013-09-21T05:33:46Z</time>
      </trkpt>
      <trkpt lat="54.276874009519815" lon="26.976254973560572">
        <ele>188.08000000000001</ele>
        <time>2013-09-21T05:33:58Z</time>
      </trkpt>
      <trkpt lat="54.276274032890797" lon="26.976193031296134">
        <ele>188.56</ele>
        <time>2013-09-21T05:34:14Z</time>
      </trkpt>
      <trkpt lat="54.275795007124543" lon="26.97618599049747">
        <ele>190</ele>
        <time>2013-09-21T05:34:27Z</time>
      </trkpt>
      <trkpt lat="54.275298966094851" lon="26.976188002154231">
        <ele>191.44</ele>
        <time>2013-09-21T05:34:43Z</time>
      </trkpt>
      <trkpt lat="54.275044994428754" lon="26.976681025698781">
        <ele>190.96000000000001</ele>
        <time>2013-09-21T05:34:55Z</time>
      </trkpt>
      <trkpt lat="54.274953966960311" lon="26.97713297791779">
        <ele>191.44</ele>
        <time>2013-09-21T05:35:07Z</time>
      </trkpt>
      <trkpt lat="54.274951033294201" lon="26.97713197208941">
        <ele>191.44</ele>
        <time>2013-09-21T05:35:37Z</time>
      </trkpt>
      <trkpt lat="54.27495002746582" lon="26.977137001231313">
        <ele>191.44</ele>
        <time>2013-09-21T05:36:28Z</time>
      </trkpt>
      <trkpt lat="54.27495002746582" lon="26.977137001231313">
        <ele>191.44</ele>
        <time>2013-09-21T05:38:03Z</time>
      </trkpt>
      <trkpt lat="54.274952039122581" lon="26.977120991796255">
        <ele>190.96000000000001</ele>
        <time>2013-09-21T05:38:39Z</time>
      </trkpt>
      <trkpt lat="54.274984980002046" lon="26.976885041221976">
        <ele>190.47999999999999</ele>
        <time>2013-09-21T05:38:51Z</time>
      </trkpt>
      <trkpt lat="54.275085981935263" lon="26.976456977427006">
        <ele>190</ele>
        <time>2013-09-21T05:39:02Z</time>
      </trkpt>
      <trkpt lat="54.275135016068816" lon="26.976252961903811">
        <ele>190</ele>
        <time>2013-09-21T05:39:07Z</time>
      </trkpt>
      <trkpt lat="54.274969976395369" lon="26.976066967472434">
        <ele>189.52000000000001</ele>
        <time>2013-09-21T05:39:16Z</time>
      </trkpt>
      <trkpt lat="54.274396989494562" lon="26.976031009107828">
        <ele>189.52000000000001</ele>
        <time>2013-09-21T05:39:33Z</time>
      </trkpt>
      <trkpt lat="54.273884017020464" lon="26.976081971079111">
        <ele>190.96000000000001</ele>
        <time>2013-09-21T05:39:47Z</time>
      </trkpt>
      <trkpt lat="54.273263001814485" lon="26.976157994940877">
        <ele>191.91999999999999</ele>
        <time>2013-09-21T05:40:04Z</time>
      </trkpt>
      <trkpt lat="54.272855976596475" lon="26.976109966635704">
        <ele>192.88</ele>
        <time>2013-09-21T05:40:15Z</time>
      </trkpt>
      <trkpt lat="54.272234961390495" lon="26.976039977744222">
        <ele>193.84</ele>
        <time>2013-09-21T05:40:32Z</time>
      </trkpt>
      <trkpt lat="54.271794995293021" lon="26.976171992719173">
        <ele>194.80000000000001</ele>
        <time>2013-09-21T05:40:47Z</time>
      </trkpt>
      <trkpt lat="54.271711008623242" lon="26.976772975176573">
        <ele>194.80000000000001</ele>
        <time>2013-09-21T05:40:58Z</time>
      </trkpt>
      <trkpt lat="54.271692987531424" lon="26.97792598977685">
        <ele>192.88</ele>
        <time>2013-09-21T05:41:15Z</time>
      </trkpt>
      <trkpt lat="54.271633978933096" lon="26.979024019092321">
        <ele>192.88</ele>
        <time>2013-09-21T05:41:30Z</time>
      </trkpt>
      <trkpt lat="54.27162098698318" lon="26.979162991046906">
        <ele>192.40000000000001</ele>
        <time>2013-09-21T05:41:32Z</time>
      </trkpt>
      <trkpt lat="54.271558038890362" lon="26.979994978755713">
        <ele>190.96000000000001</ele>
        <time>2013-09-21T05:41:45Z</time>
      </trkpt>
      <trkpt lat="54.271285962313414" lon="26.980414995923638">
        <ele>190</ele>
        <time>2013-09-21T05:41:57Z</time>
      </trkpt>
      <trkpt lat="54.270973987877369" lon="26.980797965079546">
        <ele>189.52000000000001</ele>
        <time>2013-09-21T05:42:10Z</time>
      </trkpt>
      <trkpt lat="54.270893018692732" lon="26.981345973908901">
        <ele>189.03999999999999</ele>
        <time>2013-09-21T05:42:18Z</time>
      </trkpt>
      <trkpt lat="54.270801991224289" lon="26.982128005474806">
        <ele>189.52000000000001</ele>
        <time>2013-09-21T05:42:29Z</time>
      </trkpt>
      <trkpt lat="54.270762009546161" lon="26.982454983517528">
        <ele>190</ele>
        <time>2013-09-21T05:42:35Z</time>
      </trkpt>
      <trkpt lat="54.270418016240001" lon="26.982436962425709">
        <ele>189.52000000000001</ele>
        <time>2013-09-21T05:42:47Z</time>
      </trkpt>
      <trkpt lat="54.269846035167575" lon="26.982348030433059">
        <ele>191.91999999999999</ele>
        <time>2013-09-21T05:43:04Z</time>
      </trkpt>
      <trkpt lat="54.269359968602657" lon="26.982297990471125">
        <ele>193.84</ele>
        <time>2013-09-21T05:43:19Z</time>
      </trkpt>
      <trkpt lat="54.269094010815024" lon="26.982263959944248">
        <ele>194.80000000000001</ele>
        <time>2013-09-21T05:43:28Z</time>
      </trkpt>
      <trkpt lat="54.269032990559936" lon="26.982349036261439">
        <ele>194.31999999999999</ele>
        <time>2013-09-21T05:43:32Z</time>
      </trkpt>
      <trkpt lat="54.269013963639736" lon="26.98247903957963">
        <ele>193.36000000000001</ele>
        <time>2013-09-21T05:43:35Z</time>
      </trkpt>
      <trkpt lat="54.268903993070126" lon="26.982516003772616">
        <ele>192.88</ele>
        <time>2013-09-21T05:43:40Z</time>
      </trkpt>
      <trkpt lat="54.268475007265806" lon="26.982370996847749">
        <ele>195.28</ele>
        <time>2013-09-21T05:43:54Z</time>
      </trkpt>
      <trkpt lat="54.268035963177681" lon="26.982220960780978">
        <ele>196.72999999999999</ele>
        <time>2013-09-21T05:44:08Z</time>
      </trkpt>
      <trkpt lat="54.267966980114579" lon="26.982202017679811">
        <ele>197.21000000000001</ele>
        <time>2013-09-21T05:44:11Z</time>
      </trkpt>
      <trkpt lat="54.26790595985949" lon="26.982411984354258">
        <ele>196.25</ele>
        <time>2013-09-21T05:44:17Z</time>
      </trkpt>
      <trkpt lat="54.267828008159995" lon="26.983261993154883">
        <ele>193.36000000000001</ele>
        <time>2013-09-21T05:44:32Z</time>
      </trkpt>
      <trkpt lat="54.267777968198061" lon="26.9837929867208">
        <ele>192.40000000000001</ele>
        <time>2013-09-21T05:44:45Z</time>
      </trkpt>
      <trkpt lat="54.267798000946641" lon="26.983733978122473">
        <ele>192.88</ele>
        <time>2013-09-21T05:44:57Z</time>
      </trkpt>
      <trkpt lat="54.267789032310247" lon="26.983661977574229">
        <ele>194.80000000000001</ele>
        <time>2013-09-21T05:45:08Z</time>
      </trkpt>
      <trkpt lat="54.267811998724937" lon="26.98342602699995">
        <ele>194.80000000000001</ele>
        <time>2013-09-21T05:45:20Z</time>
      </trkpt>
      <trkpt lat="54.2678829934448" lon="26.982843987643719">
        <ele>194.31999999999999</ele>
        <time>2013-09-21T05:45:31Z</time>
      </trkpt>
      <trkpt lat="54.267943007871509" lon="26.982168992981315">
        <ele>194.80000000000001</ele>
        <time>2013-09-21T05:45:44Z</time>
      </trkpt>
      <trkpt lat="54.268030012026429" lon="26.98147002607584">
        <ele>197.21000000000001</ele>
        <time>2013-09-21T05:45:58Z</time>
      </trkpt>
      <trkpt lat="54.26809798926115" lon="26.980930985882878">
        <ele>198.65000000000001</ele>
        <time>2013-09-21T05:46:09Z</time>
      </trkpt>
      <trkpt lat="54.268194967880845" lon="26.980066979303956">
        <ele>198.65000000000001</ele>
        <time>2013-09-21T05:46:23Z</time>
      </trkpt>
      <trkpt lat="54.268217012286186" lon="26.9796899612993">
        <ele>196.25</ele>
        <time>2013-09-21T05:46:30Z</time>
      </trkpt>
      <trkpt lat="54.26803202368319" lon="26.979498015716672">
        <ele>195.28</ele>
        <time>2013-09-21T05:46:40Z</time>
      </trkpt>
      <trkpt lat="54.267757013440132" lon="26.979389972984791">
        <ele>194.80000000000001</ele>
        <time>2013-09-21T05:46:51Z</time>
      </trkpt>
      <trkpt lat="54.26749600097537" lon="26.9792789965868">
        <ele>195.77000000000001</ele>
        <time>2013-09-21T05:47:02Z</time>
      </trkpt>
      <trkpt lat="54.267253009602427" lon="26.97921596467495">
        <ele>197.21000000000001</ele>
        <time>2013-09-21T05:47:11Z</time>
      </trkpt>
      <trkpt lat="54.266780018806458" lon="26.979143964126706">
        <ele>202.97999999999999</ele>
        <time>2013-09-21T05:47:26Z</time>
      </trkpt>
      <trkpt lat="54.266670970246196" lon="26.97906500659883">
        <ele>203.94</ele>
        <time>2013-09-21T05:47:29Z</time>
      </trkpt>
      <trkpt lat="54.266352038830519" lon="26.978988982737064">
        <ele>202.49000000000001</ele>
        <time>2013-09-21T05:47:42Z</time>
      </trkpt>
      <trkpt lat="54.265999998897314" lon="26.97882603853941">
        <ele>204.41999999999999</ele>
        <time>2013-09-21T05:47:54Z</time>
      </trkpt>
      <trkpt lat="54.265932021662593" lon="26.978750014677644">
        <ele>205.38</ele>
        <time>2013-09-21T05:47:57Z</time>
      </trkpt>
      <trkpt lat="54.265914000570774" lon="26.978622023016214">
        <ele>203.94</ele>
        <time>2013-09-21T05:48:02Z</time>
      </trkpt>
      <trkpt lat="54.265910983085632" lon="26.97857198305428">
        <ele>202.97999999999999</ele>
        <time>2013-09-21T05:48:04Z</time>
      </trkpt>
      <trkpt lat="54.265662040561438" lon="26.978315999731421">
        <ele>194.31999999999999</ele>
        <time>2013-09-21T05:48:17Z</time>
      </trkpt>
      <trkpt lat="54.26551996730268" lon="26.978331003338099">
        <ele>194.31999999999999</ele>
        <time>2013-09-21T05:48:31Z</time>
      </trkpt>
      <trkpt lat="54.265489960089326" lon="26.978353969752789">
        <ele>196.72999999999999</ele>
        <time>2013-09-21T05:48:45Z</time>
      </trkpt>
      <trkpt lat="54.265432041138411" lon="26.978522026911378">
        <ele>204.90000000000001</ele>
        <time>2013-09-21T05:48:52Z</time>
      </trkpt>
      <trkpt lat="54.26543396897614" lon="26.978638032451272">
        <ele>204.41999999999999</ele>
        <time>2013-09-21T05:48:57Z</time>
      </trkpt>
      <trkpt lat="54.265362974256277" lon="26.978968027979136">
        <ele>205.38</ele>
        <time>2013-09-21T05:49:11Z</time>
      </trkpt>
      <trkpt lat="54.265256021171808" lon="26.979255024343729">
        <ele>205.86000000000001</ele>
        <time>2013-09-21T05:49:25Z</time>
      </trkpt>
      <trkpt lat="54.265256021171808" lon="26.979255024343729">
        <ele>205.86000000000001</ele>
        <time>2013-09-21T05:49:27Z</time>
      </trkpt>
      <trkpt lat="54.265240011736751" lon="26.979281008243561">
        <ele>206.34</ele>
        <time>2013-09-21T05:49:29Z</time>
      </trkpt>
      <trkpt lat="54.265163987874985" lon="26.979689039289951">
        <ele>205.86000000000001</ele>
        <time>2013-09-21T05:49:39Z</time>
      </trkpt>
      <trkpt lat="54.265174968168139" lon="26.980423964560032">
        <ele>201.53</ele>
        <time>2013-09-21T05:49:50Z</time>
      </trkpt>
      <trkpt lat="54.265101961791515" lon="26.981233991682529">
        <ele>202.49000000000001</ele>
        <time>2013-09-21T05:49:59Z</time>
      </trkpt>
      <trkpt lat="54.265054017305374" lon="26.981484023854136">
        <ele>202.49000000000001</ele>
        <time>2013-09-21T05:50:02Z</time>
      </trkpt>
      <trkpt lat="54.264919990673661" lon="26.982764024287462">
        <ele>206.81999999999999</ele>
        <time>2013-09-21T05:50:18Z</time>
      </trkpt>
      <trkpt lat="54.264899035915732" lon="26.982921017333865">
        <ele>206.81999999999999</ele>
        <time>2013-09-21T05:50:20Z</time>
      </trkpt>
      <trkpt lat="54.264805996790528" lon="26.983860963955522">
        <ele>208.74000000000001</ele>
        <time>2013-09-21T05:50:34Z</time>
      </trkpt>
      <trkpt lat="54.264684040099382" lon="26.984932003542781">
        <ele>213.55000000000001</ele>
        <time>2013-09-21T05:50:53Z</time>
      </trkpt>
      <trkpt lat="54.264612039551139" lon="26.985554024577141">
        <ele>211.15000000000001</ele>
        <time>2013-09-21T05:51:05Z</time>
      </trkpt>
      <trkpt lat="54.264493016526103" lon="26.986029027029872">
        <ele>208.25999999999999</ele>
        <time>2013-09-21T05:51:17Z</time>
      </trkpt>
      <trkpt lat="54.264468960464001" lon="26.98662699200213">
        <ele>206.34</ele>
        <time>2013-09-21T05:51:29Z</time>
      </trkpt>
      <trkpt lat="54.264424033463001" lon="26.987256975844502">
        <ele>208.74000000000001</ele>
        <time>2013-09-21T05:51:42Z</time>
      </trkpt>
      <trkpt lat="54.264355972409248" lon="26.987930964678526">
        <ele>211.63</ele>
        <time>2013-09-21T05:51:59Z</time>
      </trkpt>
      <trkpt lat="54.264285983517766" lon="26.988697992637753">
        <ele>208.25999999999999</ele>
        <time>2013-09-21T05:52:11Z</time>
      </trkpt>
      <trkpt lat="54.264364019036293" lon="26.989151034504175">
        <ele>206.34</ele>
        <time>2013-09-21T05:52:24Z</time>
      </trkpt>
      <trkpt lat="54.264396959915757" lon="26.989247007295489">
        <ele>205.86000000000001</ele>
        <time>2013-09-21T05:52:36Z</time>
      </trkpt>
      <trkpt lat="54.264546995982528" lon="26.98954900726676">
        <ele>202.00999999999999</ele>
        <time>2013-09-21T05:52:47Z</time>
      </trkpt>
      <trkpt lat="54.264640035107732" lon="26.989694014191628">
        <ele>202.00999999999999</ele>
        <time>2013-09-21T05:52:51Z</time>
      </trkpt>
      <trkpt lat="54.264679010957479" lon="26.99002300389111">
        <ele>202.00999999999999</ele>
        <time>2013-09-21T05:52:59Z</time>
      </trkpt>
      <trkpt lat="54.26461698487401" lon="26.990332966670394">
        <ele>202.49000000000001</ele>
        <time>2013-09-21T05:53:11Z</time>
      </trkpt>
      <trkpt lat="54.264480024576187" lon="26.990729011595249">
        <ele>196.72999999999999</ele>
        <time>2013-09-21T05:53:44Z</time>
      </trkpt>
      <trkpt lat="54.264275003224611" lon="26.991328988224268">
        <ele>189.52000000000001</ele>
        <time>2013-09-21T05:53:54Z</time>
      </trkpt>
      <trkpt lat="54.264049027115107" lon="26.991790998727083">
        <ele>191.91999999999999</ele>
        <time>2013-09-21T05:54:04Z</time>
      </trkpt>
      <trkpt lat="54.263978032395244" lon="26.991922007873654">
        <ele>192.88</ele>
        <time>2013-09-21T05:54:06Z</time>
      </trkpt>
      <trkpt lat="54.263579975813627" lon="26.992609994485974">
        <ele>192.40000000000001</ele>
        <time>2013-09-21T05:54:17Z</time>
      </trkpt>
      <trkpt lat="54.263355005532503" lon="26.993175018578768">
        <ele>190</ele>
        <time>2013-09-21T05:54:24Z</time>
      </trkpt>
      <trkpt lat="54.263256015256047" lon="26.993856970220804">
        <ele>184.22999999999999</ele>
        <time>2013-09-21T05:54:34Z</time>
      </trkpt>
      <trkpt lat="54.263254003599286" lon="26.993982028216124">
        <ele>182.78999999999999</ele>
        <time>2013-09-21T05:54:36Z</time>
      </trkpt>
      <trkpt lat="54.263251991942525" lon="26.994937984272838">
        <ele>175.58000000000001</ele>
        <time>2013-09-21T05:54:48Z</time>
      </trkpt>
      <trkpt lat="54.263247968629003" lon="26.995276026427746">
        <ele>174.13999999999999</ele>
        <time>2013-09-21T05:54:52Z</time>
      </trkpt>
      <trkpt lat="54.263309994712472" lon="26.99573703110218">
        <ele>181.83000000000001</ele>
        <time>2013-09-21T05:54:57Z</time>
      </trkpt>
      <trkpt lat="54.263525996357203" lon="26.996676977723837">
        <ele>194.80000000000001</ele>
        <time>2013-09-21T05:55:10Z</time>
      </trkpt>
      <trkpt lat="54.26386303268373" lon="26.99764802120626">
        <ele>194.31999999999999</ele>
        <time>2013-09-21T05:55:23Z</time>
      </trkpt>
      <trkpt lat="54.263938972726464" lon="26.997868968173862">
        <ele>194.31999999999999</ele>
        <time>2013-09-21T05:55:26Z</time>
      </trkpt>
      <trkpt lat="54.264023965224624" lon="26.998062003403902">
        <ele>193.84</ele>
        <time>2013-09-21T05:55:29Z</time>
      </trkpt>
      <trkpt lat="54.264325965195894" lon="26.998871024698019">
        <ele>193.84</ele>
        <time>2013-09-21T05:55:43Z</time>
      </trkpt>
      <trkpt lat="54.264427972957492" lon="26.999472007155418">
        <ele>194.31999999999999</ele>
        <time>2013-09-21T05:55:55Z</time>
      </trkpt>
      <trkpt lat="54.264238039031625" lon="26.9997129868716">
        <ele>195.77000000000001</ele>
        <time>2013-09-21T05:56:09Z</time>
      </trkpt>
      <trkpt lat="54.264223035424948" lon="26.999738970771432">
        <ele>196.25</ele>
        <time>2013-09-21T05:56:38Z</time>
      </trkpt>
      <trkpt lat="54.264182969927788" lon="26.999809965491295">
        <ele>196.72999999999999</ele>
        <time>2013-09-21T05:56:42Z</time>
      </trkpt>
      <trkpt lat="54.263995969668031" lon="27.00005698017776">
        <ele>196.72999999999999</ele>
        <time>2013-09-21T05:56:54Z</time>
      </trkpt>
      <trkpt lat="54.263868983834982" lon="27.000252027064562">
        <ele>196.72999999999999</ele>
        <time>2013-09-21T05:57:09Z</time>
      </trkpt>
      <trkpt lat="54.263298008590937" lon="27.001010002568364">
        <ele>192.88</ele>
        <time>2013-09-21T05:57:23Z</time>
      </trkpt>
      <trkpt lat="54.262843960896134" lon="27.001687008887529">
        <ele>189.52000000000001</ele>
        <time>2013-09-21T05:57:37Z</time>
      </trkpt>
      <trkpt lat="54.262458980083466" lon="27.002279022708535">
        <ele>188.56</ele>
        <time>2013-09-21T05:57:50Z</time>
      </trkpt>
      <trkpt lat="54.262438025325537" lon="27.002302994951606">
        <ele>188.56</ele>
        <time>2013-09-21T05:57:51Z</time>
      </trkpt>
      <trkpt lat="54.262259993702173" lon="27.002069978043437">
        <ele>188.56</ele>
        <time>2013-09-21T05:58:00Z</time>
      </trkpt>
      <trkpt lat="54.262057989835739" lon="27.001676028594375">
        <ele>189.52000000000001</ele>
        <time>2013-09-21T05:58:12Z</time>
      </trkpt>
      <trkpt lat="54.261764958500862" lon="27.001002039760351">
        <ele>190.96000000000001</ele>
        <time>2013-09-21T05:58:26Z</time>
      </trkpt>
      <trkpt lat="54.261391963809729" lon="27.000135015696287">
        <ele>192.88</ele>
        <time>2013-09-21T05:58:45Z</time>
      </trkpt>
      <trkpt lat="54.261099016293883" lon="26.999502014368773">
        <ele>194.80000000000001</ele>
        <time>2013-09-21T05:59:00Z</time>
      </trkpt>
      <trkpt lat="54.26085602492094" lon="26.99895802885294">
        <ele>196.25</ele>
        <time>2013-09-21T05:59:14Z</time>
      </trkpt>
      <trkpt lat="54.260459979996085" lon="26.998146995902061">
        <ele>197.21000000000001</ele>
        <time>2013-09-21T05:59:30Z</time>
      </trkpt>
      <trkpt lat="54.260122021660209" lon="26.997363958507776">
        <ele>197.69</ele>
        <time>2013-09-21T05:59:46Z</time>
      </trkpt>
      <trkpt lat="54.259766964241862" lon="26.996600031852722">
        <ele>199.13</ele>
        <time>2013-09-21T06:00:01Z</time>
      </trkpt>
      <trkpt lat="54.259406961500645" lon="26.995841972529888">
        <ele>200.56999999999999</ele>
        <time>2013-09-21T06:00:16Z</time>
      </trkpt>
      <trkpt lat="54.259079983457923" lon="26.995038986206055">
        <ele>202.97999999999999</ele>
        <time>2013-09-21T06:00:33Z</time>
      </trkpt>
      <trkpt lat="54.258799022063613" lon="26.994412019848824">
        <ele>204.41999999999999</ele>
        <time>2013-09-21T06:00:47Z</time>
      </trkpt>
      <trkpt lat="54.258419992402196" lon="26.993868034332991">
        <ele>204.90000000000001</ele>
        <time>2013-09-21T06:01:00Z</time>
      </trkpt>
      <trkpt lat="54.258308010175824" lon="26.993758985772729">
        <ele>204.41999999999999</ele>
        <time>2013-09-21T06:01:03Z</time>
      </trkpt>
      <trkpt lat="54.257695041596889" lon="26.993146017193794">
        <ele>203.46000000000001</ele>
        <time>2013-09-21T06:01:22Z</time>
      </trkpt>
      <trkpt lat="54.257046030834317" lon="26.992648970335722">
        <ele>200.56999999999999</ele>
        <time>2013-09-21T06:01:36Z</time>
      </trkpt>
      <trkpt lat="54.256313033401966" lon="26.991923013702035">
        <ele>194.80000000000001</ele>
        <time>2013-09-21T06:01:51Z</time>
      </trkpt>
      <trkpt lat="54.255877006798983" lon="26.991307027637959">
        <ele>195.77000000000001</ele>
        <time>2013-09-21T06:02:05Z</time>
      </trkpt>
      <trkpt lat="54.255324974656105" lon="26.990878041833639">
        <ele>199.61000000000001</ele>
        <time>2013-09-21T06:02:23Z</time>
      </trkpt>
      <trkpt lat="54.254766991361976" lon="26.990526001900434">
        <ele>201.05000000000001</ele>
        <time>2013-09-21T06:02:39Z</time>
      </trkpt>
      <trkpt lat="54.25423800945282" lon="26.99017102830112">
        <ele>200.56999999999999</ele>
        <time>2013-09-21T06:02:54Z</time>
      </trkpt>
      <trkpt lat="54.253533007577062" lon="26.989666018635035">
        <ele>198.65000000000001</ele>
        <time>2013-09-21T06:03:09Z</time>
      </trkpt>
      <trkpt lat="54.253041995689273" lon="26.989285983145237">
        <ele>198.65000000000001</ele>
        <time>2013-09-21T06:03:21Z</time>
      </trkpt>
      <trkpt lat="54.252685010433197" lon="26.989113986492157">
        <ele>198.16999999999999</ele>
        <time>2013-09-21T06:03:34Z</time>
      </trkpt>
      <trkpt lat="54.252557018771768" lon="26.989094959571958">
        <ele>198.16999999999999</ele>
        <time>2013-09-21T06:03:42Z</time>
      </trkpt>
      <trkpt lat="54.252304974943399" lon="26.988956993445754">
        <ele>197.21000000000001</ele>
        <time>2013-09-21T06:03:54Z</time>
      </trkpt>
      <trkpt lat="54.252224005758762" lon="26.989002004265785">
        <ele>196.72999999999999</ele>
        <time>2013-09-21T06:04:08Z</time>
      </trkpt>
      <trkpt lat="54.252226017415524" lon="26.989008961245418">
        <ele>196.25</ele>
        <time>2013-09-21T06:05:00Z</time>
      </trkpt>
      <trkpt lat="54.252211013808846" lon="26.989017007872462">
        <ele>196.72999999999999</ele>
        <time>2013-09-21T06:05:17Z</time>
      </trkpt>
      <trkpt lat="54.252118980512023" lon="26.989153968170285">
        <ele>195.77000000000001</ele>
        <time>2013-09-21T06:05:22Z</time>
      </trkpt>
      <trkpt lat="54.25185302272439" lon="26.990081006661057">
        <ele>193.36000000000001</ele>
        <time>2013-09-21T06:05:36Z</time>
      </trkpt>
      <trkpt lat="54.251603996381164" lon="26.991358995437622">
        <ele>190</ele>
        <time>2013-09-21T06:05:52Z</time>
      </trkpt>
      <trkpt lat="54.251471981406212" lon="26.992315035313368">
        <ele>188.08000000000001</ele>
        <time>2013-09-21T06:06:07Z</time>
      </trkpt>
      <trkpt lat="54.251404004171491" lon="26.992656011134386">
        <ele>188.56</ele>
        <time>2013-09-21T06:06:12Z</time>
      </trkpt>
      <trkpt lat="54.251193031668663" lon="26.993704000487924">
        <ele>188.08000000000001</ele>
        <time>2013-09-21T06:06:28Z</time>
      </trkpt>
      <trkpt lat="54.251023968681693" lon="26.994392992928624">
        <ele>188.08000000000001</ele>
        <time>2013-09-21T06:06:42Z</time>
      </trkpt>
      <trkpt lat="54.250902011990547" lon="26.995009984821081">
        <ele>189.03999999999999</ele>
        <time>2013-09-21T06:06:55Z</time>
      </trkpt>
      <trkpt lat="54.250788018107414" lon="26.995612978935242">
        <ele>189.52000000000001</ele>
        <time>2013-09-21T06:07:08Z</time>
      </trkpt>
      <trkpt lat="54.250590959563851" lon="26.99659701436758">
        <ele>189.52000000000001</ele>
        <time>2013-09-21T06:07:26Z</time>
      </trkpt>
      <trkpt lat="54.250335982069373" lon="26.997539978474379">
        <ele>189.52000000000001</ele>
        <time>2013-09-21T06:07:43Z</time>
      </trkpt>
      <trkpt lat="54.249946977943182" lon="26.998411025851965">
        <ele>190.47999999999999</ele>
        <time>2013-09-21T06:08:01Z</time>
      </trkpt>
      <trkpt lat="54.249581024050713" lon="26.999233039095998">
        <ele>190.47999999999999</ele>
        <time>2013-09-21T06:08:17Z</time>
      </trkpt>
      <trkpt lat="54.249214986339211" lon="27.000010963529348">
        <ele>191.44</ele>
        <time>2013-09-21T06:08:32Z</time>
      </trkpt>
      <trkpt lat="54.248790023848414" lon="27.000940013676882">
        <ele>191.91999999999999</ele>
        <time>2013-09-21T06:08:51Z</time>
      </trkpt>
      <trkpt lat="54.248442007228732" lon="27.001717016100883">
        <ele>191.91999999999999</ele>
        <time>2013-09-21T06:09:06Z</time>
      </trkpt>
      <trkpt lat="54.248317033052444" lon="27.001985991373658">
        <ele>191.91999999999999</ele>
        <time>2013-09-21T06:09:11Z</time>
      </trkpt>
      <trkpt lat="54.247992988675833" lon="27.00269996188581">
        <ele>191.91999999999999</ele>
        <time>2013-09-21T06:09:25Z</time>
      </trkpt>
      <trkpt lat="54.247626028954983" lon="27.003469001501799">
        <ele>192.88</ele>
        <time>2013-09-21T06:09:41Z</time>
      </trkpt>
      <trkpt lat="54.247225960716605" lon="27.003782987594604">
        <ele>193.36000000000001</ele>
        <time>2013-09-21T06:09:54Z</time>
      </trkpt>
      <trkpt lat="54.246613997966051" lon="27.003427008166909">
        <ele>194.80000000000001</ele>
        <time>2013-09-21T06:10:12Z</time>
      </trkpt>
      <trkpt lat="54.245988037437201" lon="27.0031270198524">
        <ele>197.21000000000001</ele>
        <time>2013-09-21T06:10:30Z</time>
      </trkpt>
      <trkpt lat="54.245413038879633" lon="27.002857038751245">
        <ele>197.21000000000001</ele>
        <time>2013-09-21T06:10:46Z</time>
      </trkpt>
      <trkpt lat="54.244801998138428" lon="27.002857038751245">
        <ele>197.21000000000001</ele>
        <time>2013-09-21T06:11:02Z</time>
      </trkpt>
      <trkpt lat="54.244115017354488" lon="27.003006990998983">
        <ele>198.65000000000001</ele>
        <time>2013-09-21T06:11:20Z</time>
      </trkpt>
      <trkpt lat="54.243393000215292" lon="27.00313095934689">
        <ele>199.61000000000001</ele>
        <time>2013-09-21T06:11:40Z</time>
      </trkpt>
      <trkpt lat="54.243155959993601" lon="27.003112016245723">
        <ele>199.61000000000001</ele>
        <time>2013-09-21T06:11:52Z</time>
      </trkpt>
      <trkpt lat="54.243126958608627" lon="27.003183010965586">
        <ele>200.09</ele>
        <time>2013-09-21T06:12:41Z</time>
      </trkpt>
      <trkpt lat="54.243103992193937" lon="27.003202959895134">
        <ele>200.09</ele>
        <time>2013-09-21T06:12:59Z</time>
      </trkpt>
      <trkpt lat="54.243078008294106" lon="27.003230033442378">
        <ele>200.09</ele>
        <time>2013-09-21T06:13:04Z</time>
      </trkpt>
      <trkpt lat="54.243061998859048" lon="27.003252999857068">
        <ele>200.09</ele>
        <time>2013-09-21T06:13:06Z</time>
      </trkpt>
      <trkpt lat="54.243015982210636" lon="27.003473024815321">
        <ele>199.61000000000001</ele>
        <time>2013-09-21T06:13:14Z</time>
      </trkpt>
      <trkpt lat="54.242758993059397" lon="27.003908967599273">
        <ele>200.56999999999999</ele>
        <time>2013-09-21T06:13:30Z</time>
      </trkpt>
      <trkpt lat="54.242484988644719" lon="27.004195963963866">
        <ele>200.56999999999999</ele>
        <time>2013-09-21T06:13:44Z</time>
      </trkpt>
      <trkpt lat="54.242049967870116" lon="27.004527971148491">
        <ele>202.97999999999999</ele>
        <time>2013-09-21T06:14:02Z</time>
      </trkpt>
      <trkpt lat="54.24166901037097" lon="27.004778003320098">
        <ele>205.38</ele>
        <time>2013-09-21T06:14:17Z</time>
      </trkpt>
      <trkpt lat="54.241124019026756" lon="27.005187962204218">
        <ele>206.34</ele>
        <time>2013-09-21T06:14:35Z</time>
      </trkpt>
      <trkpt lat="54.240584978833795" lon="27.005607979372144">
        <ele>207.78</ele>
        <time>2013-09-21T06:14:53Z</time>
      </trkpt>
      <trkpt lat="54.240129003301263" lon="27.00594300404191">
        <ele>209.69999999999999</ele>
        <time>2013-09-21T06:15:09Z</time>
      </trkpt>
      <trkpt lat="54.239749973639846" lon="27.006253972649574">
        <ele>210.66999999999999</ele>
        <time>2013-09-21T06:15:23Z</time>
      </trkpt>
      <trkpt lat="54.239271031692624" lon="27.006698967888951">
        <ele>214.03</ele>
        <time>2013-09-21T06:15:41Z</time>
      </trkpt>
      <trkpt lat="54.238809021189809" lon="27.007085960358381">
        <ele>216.91</ele>
        <time>2013-09-21T06:15:58Z</time>
      </trkpt>
      <trkpt lat="54.238397972658277" lon="27.007407993078232">
        <ele>217.88</ele>
        <time>2013-09-21T06:16:13Z</time>
      </trkpt>
      <trkpt lat="54.238033024594188" lon="27.007733965292573">
        <ele>218.84</ele>
        <time>2013-09-21T06:16:27Z</time>
      </trkpt>
      <trkpt lat="54.237569002434611" lon="27.008156999945641">
        <ele>216.91</ele>
        <time>2013-09-21T06:16:46Z</time>
      </trkpt>
      <trkpt lat="54.237236995249987" lon="27.008642982691526">
        <ele>216.43000000000001</ele>
        <time>2013-09-21T06:17:02Z</time>
      </trkpt>
      <trkpt lat="54.237132975831628" lon="27.008770974352956">
        <ele>215.47</ele>
        <time>2013-09-21T06:17:14Z</time>
      </trkpt>
      <trkpt lat="54.237120989710093" lon="27.008839035406709">
        <ele>215.94999999999999</ele>
        <time>2013-09-21T06:17:33Z</time>
      </trkpt>
      <trkpt lat="54.237150996923447" lon="27.008964009582996">
        <ele>215.94999999999999</ele>
        <time>2013-09-21T06:17:39Z</time>
      </trkpt>
      <trkpt lat="54.23730798996985" lon="27.009458038955927">
        <ele>219.31999999999999</ele>
        <time>2013-09-21T06:17:53Z</time>
      </trkpt>
      <trkpt lat="54.237446039915085" lon="27.010115012526512">
        <ele>220.75999999999999</ele>
        <time>2013-09-21T06:18:07Z</time>
      </trkpt>
      <trkpt lat="54.237493984401226" lon="27.010653968900442">
        <ele>222.19999999999999</ele>
        <time>2013-09-21T06:18:19Z</time>
      </trkpt>
      <trkpt lat="54.237518962472677" lon="27.011106004938483">
        <ele>222.19999999999999</ele>
        <time>2013-09-21T06:18:31Z</time>
      </trkpt>
      <trkpt lat="54.237675033509731" lon="27.011495009064674">
        <ele>222.19999999999999</ele>
        <time>2013-09-21T06:18:43Z</time>
      </trkpt>
      <trkpt lat="54.237865973263979" lon="27.012081993743777">
        <ele>221.72</ele>
        <time>2013-09-21T06:18:55Z</time>
      </trkpt>
      <trkpt lat="54.237906038761139" lon="27.012201016768813">
        <ele>221.24000000000001</ele>
        <time>2013-09-21T06:18:57Z</time>
      </trkpt>
      <trkpt lat="54.238065965473652" lon="27.012648023664951">
        <ele>219.80000000000001</ele>
        <time>2013-09-21T06:19:04Z</time>
      </trkpt>
      <trkpt lat="54.238513978198171" lon="27.013404993340373">
        <ele>217.88</ele>
        <time>2013-09-21T06:19:16Z</time>
      </trkpt>
      <trkpt lat="54.238780019804835" lon="27.013733983039856">
        <ele>216.43000000000001</ele>
        <time>2013-09-21T06:19:22Z</time>
      </trkpt>
      <trkpt lat="54.238898959010839" lon="27.013845965266228">
        <ele>215.94999999999999</ele>
        <time>2013-09-21T06:19:25Z</time>
      </trkpt>
      <trkpt lat="54.239225015044212" lon="27.014613999053836">
        <ele>213.06999999999999</ele>
        <time>2013-09-21T06:19:37Z</time>
      </trkpt>
      <trkpt lat="54.239430958405137" lon="27.015120014548302">
        <ele>210.19</ele>
        <time>2013-09-21T06:19:51Z</time>
      </trkpt>
      <trkpt lat="54.239496001973748" lon="27.015281030908227">
        <ele>208.74000000000001</ele>
        <time>2013-09-21T06:20:03Z</time>
      </trkpt>
      <trkpt lat="54.239624999463558" lon="27.015485968440771">
        <ele>209.22</ele>
        <time>2013-09-21T06:20:20Z</time>
      </trkpt>
      <trkpt lat="54.23971401527524" lon="27.015703981742263">
        <ele>209.69999999999999</ele>
        <time>2013-09-21T06:20:48Z</time>
      </trkpt>
      <trkpt lat="54.23975701443851" lon="27.015849994495511">
        <ele>209.69999999999999</ele>
        <time>2013-09-21T06:21:04Z</time>
      </trkpt>
      <trkpt lat="54.23975701443851" lon="27.01584898866713">
        <ele>209.22</ele>
        <time>2013-09-21T06:21:42Z</time>
      </trkpt>
      <trkpt lat="54.239933034405112" lon="27.016201028600335">
        <ele>209.22</ele>
        <time>2013-09-21T06:21:55Z</time>
      </trkpt>
      <trkpt lat="54.240071000531316" lon="27.016505040228367">
        <ele>209.22</ele>
        <time>2013-09-21T06:22:07Z</time>
      </trkpt>
      <trkpt lat="54.240332012996078" lon="27.017134018242359">
        <ele>208.74000000000001</ele>
        <time>2013-09-21T06:22:21Z</time>
      </trkpt>
      <trkpt lat="54.240601994097233" lon="27.017887970432639">
        <ele>209.22</ele>
        <time>2013-09-21T06:22:37Z</time>
      </trkpt>
      <trkpt lat="54.240892007946968" lon="27.018518960103393">
        <ele>209.69999999999999</ele>
        <time>2013-09-21T06:22:52Z</time>
      </trkpt>
      <trkpt lat="54.241130976006389" lon="27.019224967807531">
        <ele>210.66999999999999</ele>
        <time>2013-09-21T06:23:07Z</time>
      </trkpt>
      <trkpt lat="54.241269025951624" lon="27.02018897049129">
        <ele>212.59</ele>
        <time>2013-09-21T06:23:24Z</time>
      </trkpt>
      <trkpt lat="54.24134898930788" lon="27.021124977618456">
        <ele>214.50999999999999</ele>
        <time>2013-09-21T06:23:41Z</time>
      </trkpt>
      <trkpt lat="54.241424007341266" lon="27.021985966712236">
        <ele>216.91</ele>
        <time>2013-09-21T06:23:56Z</time>
      </trkpt>
      <trkpt lat="54.241443034261465" lon="27.022749977186322">
        <ele>219.80000000000001</ele>
        <time>2013-09-21T06:24:10Z</time>
      </trkpt>
      <trkpt lat="54.241513023152947" lon="27.02375203371048">
        <ele>220.75999999999999</ele>
        <time>2013-09-21T06:24:29Z</time>
      </trkpt>
      <trkpt lat="54.241586029529572" lon="27.02461201697588">
        <ele>219.31999999999999</ele>
        <time>2013-09-21T06:24:42Z</time>
      </trkpt>
      <trkpt lat="54.241783004254103" lon="27.025628993287683">
        <ele>218.36000000000001</ele>
        <time>2013-09-21T06:25:00Z</time>
      </trkpt>
      <trkpt lat="54.241960030049086" lon="27.02656801789999">
        <ele>221.72</ele>
        <time>2013-09-21T06:25:18Z</time>
      </trkpt>
      <trkpt lat="54.24222799949348" lon="27.027089037001133">
        <ele>224.12</ele>
        <time>2013-09-21T06:25:32Z</time>
      </trkpt>
      <trkpt lat="54.242590013891459" lon="27.027806024998426">
        <ele>226.05000000000001</ele>
        <time>2013-09-21T06:25:50Z</time>
      </trkpt>
      <trkpt lat="54.242634018883109" lon="27.02845998108387">
        <ele>226.53</ele>
        <time>2013-09-21T06:26:03Z</time>
      </trkpt>
      <trkpt lat="54.242532011121511" lon="27.02925500459969">
        <ele>227.49000000000001</ele>
        <time>2013-09-21T06:26:17Z</time>
      </trkpt>
      <trkpt lat="54.24248700030148" lon="27.029668986797333">
        <ele>227.97</ele>
        <time>2013-09-21T06:26:31Z</time>
      </trkpt>
      <trkpt lat="54.242281978949904" lon="27.029928993433714">
        <ele>228.44999999999999</ele>
        <time>2013-09-21T06:26:43Z</time>
      </trkpt>
      <trkpt lat="54.241817034780979" lon="27.030294025316834">
        <ele>228.93000000000001</ele>
        <time>2013-09-21T06:26:58Z</time>
      </trkpt>
      <trkpt lat="54.241310013458133" lon="27.030566018074751">
        <ele>229.88999999999999</ele>
        <time>2013-09-21T06:27:13Z</time>
      </trkpt>
      <trkpt lat="54.240806009620428" lon="27.030771039426327">
        <ele>229.41</ele>
        <time>2013-09-21T06:27:28Z</time>
      </trkpt>
      <trkpt lat="54.240288008004427" lon="27.03110103495419">
        <ele>230.84999999999999</ele>
        <time>2013-09-21T06:27:43Z</time>
      </trkpt>
      <trkpt lat="54.239833960309625" lon="27.031545024365187">
        <ele>229.88999999999999</ele>
        <time>2013-09-21T06:27:57Z</time>
      </trkpt>
      <trkpt lat="54.239390976727009" lon="27.032032012939453">
        <ele>232.30000000000001</ele>
        <time>2013-09-21T06:28:11Z</time>
      </trkpt>
      <trkpt lat="54.238840034231544" lon="27.03262796625495">
        <ele>233.25999999999999</ele>
        <time>2013-09-21T06:28:28Z</time>
      </trkpt>
      <trkpt lat="54.23863903619349" lon="27.032810021191835">
        <ele>233.25999999999999</ele>
        <time>2013-09-21T06:28:33Z</time>
      </trkpt>
      <trkpt lat="54.238056996837258" lon="27.033449979498982">
        <ele>234.22</ele>
        <time>2013-09-21T06:28:51Z</time>
      </trkpt>
      <trkpt lat="54.23769598826766" lon="27.033844012767076">
        <ele>234.69999999999999</ele>
        <time>2013-09-21T06:29:07Z</time>
      </trkpt>
      <trkpt lat="54.237682996317744" lon="27.033897992223501">
        <ele>235.18000000000001</ele>
        <time>2013-09-21T06:31:05Z</time>
      </trkpt>
      <trkpt lat="54.237682996317744" lon="27.033897992223501">
        <ele>235.18000000000001</ele>
        <time>2013-09-21T06:31:08Z</time>
      </trkpt>
      <trkpt lat="54.237691964954138" lon="27.034421022981405">
        <ele>234.69999999999999</ele>
        <time>2013-09-21T06:31:21Z</time>
      </trkpt>
      <trkpt lat="54.237835966050625" lon="27.035169024020433">
        <ele>237.58000000000001</ele>
        <time>2013-09-21T06:31:34Z</time>
      </trkpt>
      <trkpt lat="54.237984996289015" lon="27.036092961207032">
        <ele>239.02000000000001</ele>
        <time>2013-09-21T06:31:49Z</time>
      </trkpt>
      <trkpt lat="54.238116005435586" lon="27.036961996927857">
        <ele>242.87</ele>
        <time>2013-09-21T06:32:04Z</time>
      </trkpt>
      <trkpt lat="54.238264029845595" lon="27.0376349799335">
        <ele>242.87</ele>
        <time>2013-09-21T06:32:15Z</time>
      </trkpt>
      <trkpt lat="54.238372994586825" lon="27.038078969344497">
        <ele>242.87</ele>
        <time>2013-09-21T06:32:21Z</time>
      </trkpt>
      <trkpt lat="54.238451030105352" lon="27.038528993725777">
        <ele>242.87</ele>
        <time>2013-09-21T06:32:26Z</time>
      </trkpt>
      <trkpt lat="54.238620009273291" lon="27.039819974452257">
        <ele>242.87</ele>
        <time>2013-09-21T06:32:39Z</time>
      </trkpt>
      <trkpt lat="54.238798040896654" lon="27.040390027686954">
        <ele>243.34999999999999</ele>
        <time>2013-09-21T06:32:44Z</time>
      </trkpt>
      <trkpt lat="54.239108003675938" lon="27.042150981724262">
        <ele>242.38999999999999</ele>
        <time>2013-09-21T06:32:57Z</time>
      </trkpt>
      <trkpt lat="54.239445962011814" lon="27.044462040066719">
        <ele>237.58000000000001</ele>
        <time>2013-09-21T06:33:11Z</time>
      </trkpt>
      <trkpt lat="54.239724995568395" lon="27.046772008761764">
        <ele>229.88999999999999</ele>
        <time>2013-09-21T06:33:27Z</time>
      </trkpt>
      <trkpt lat="54.240025989711285" lon="27.04904199577868">
        <ele>224.61000000000001</ele>
        <time>2013-09-21T06:33:46Z</time>
      </trkpt>
      <trkpt lat="54.240177031606436" lon="27.050114963203669">
        <ele>222.19999999999999</ele>
        <time>2013-09-21T06:33:55Z</time>
      </trkpt>
      <trkpt lat="54.240211984142661" lon="27.050457028672099">
        <ele>221.72</ele>
        <time>2013-09-21T06:33:58Z</time>
      </trkpt>
      <trkpt lat="54.240450030192733" lon="27.052529035136104">
        <ele>217.88</ele>
        <time>2013-09-21T06:34:17Z</time>
      </trkpt>
      <trkpt lat="54.240453969687223" lon="27.053929986432195">
        <ele>216.43000000000001</ele>
        <time>2013-09-21T06:34:32Z</time>
      </trkpt>
      <trkpt lat="54.240383980795741" lon="27.054600035771728">
        <ele>214.50999999999999</ele>
        <time>2013-09-21T06:34:40Z</time>
      </trkpt>
      <trkpt lat="54.240376017987728" lon="27.054841015487909">
        <ele>213.06999999999999</ele>
        <time>2013-09-21T06:34:43Z</time>
      </trkpt>
      <trkpt lat="54.240342993289232" lon="27.055190037935972">
        <ele>211.63</ele>
        <time>2013-09-21T06:34:53Z</time>
      </trkpt>
      <trkpt lat="54.24033997580409" lon="27.055185008794069">
        <ele>212.11000000000001</ele>
        <time>2013-09-21T06:36:41Z</time>
      </trkpt>
      <trkpt lat="54.240332012996078" lon="27.055196994915605">
        <ele>213.55000000000001</ele>
        <time>2013-09-21T06:37:52Z</time>
      </trkpt>
      <trkpt lat="54.2403360363096" lon="27.055219961330295">
        <ele>214.03</ele>
        <time>2013-09-21T06:38:04Z</time>
      </trkpt>
      <trkpt lat="54.240385992452502" lon="27.055340996012092">
        <ele>215.47</ele>
        <time>2013-09-21T06:38:09Z</time>
      </trkpt>
      <trkpt lat="54.240498980507255" lon="27.056181030347943">
        <ele>215.47</ele>
        <time>2013-09-21T06:38:20Z</time>
      </trkpt>
      <trkpt lat="54.240598976612091" lon="27.056944034993649">
        <ele>214.99000000000001</ele>
        <time>2013-09-21T06:38:27Z</time>
      </trkpt>
      <trkpt lat="54.241082025691867" lon="27.058761985972524">
        <ele>210.66999999999999</ele>
        <time>2013-09-21T06:38:44Z</time>
      </trkpt>
      <trkpt lat="54.241252010688186" lon="27.059341007843614">
        <ele>209.22</ele>
        <time>2013-09-21T06:38:50Z</time>
      </trkpt>
      <trkpt lat="54.241292998194695" lon="27.059427006170154">
        <ele>208.74000000000001</ele>
        <time>2013-09-21T06:38:51Z</time>
      </trkpt>
      <trkpt lat="54.24203303642571" lon="27.060614973306656">
        <ele>202.97999999999999</ele>
        <time>2013-09-21T06:39:06Z</time>
      </trkpt>
      <trkpt lat="54.242842979729176" lon="27.06188902258873">
        <ele>200.09</ele>
        <time>2013-09-21T06:39:22Z</time>
      </trkpt>
      <trkpt lat="54.243449997156858" lon="27.063448978587985">
        <ele>197.21000000000001</ele>
        <time>2013-09-21T06:39:37Z</time>
      </trkpt>
      <trkpt lat="54.244073024019599" lon="27.065021004527807">
        <ele>195.77000000000001</ele>
        <time>2013-09-21T06:39:54Z</time>
      </trkpt>
      <trkpt lat="54.244611980393529" lon="27.066369988024235">
        <ele>193.84</ele>
        <time>2013-09-21T06:40:08Z</time>
      </trkpt>
      <trkpt lat="54.245196031406522" lon="27.067890968173742">
        <ele>192.40000000000001</ele>
        <time>2013-09-21T06:40:25Z</time>
      </trkpt>
      <trkpt lat="54.245642032474279" lon="27.068871986120939">
        <ele>192.88</ele>
        <time>2013-09-21T06:40:39Z</time>
      </trkpt>
      <trkpt lat="54.246059032157063" lon="27.070003040134907">
        <ele>190.96000000000001</ele>
        <time>2013-09-21T06:40:53Z</time>
      </trkpt>
      <trkpt lat="54.246085016056895" lon="27.07009700126946">
        <ele>190.96000000000001</ele>
        <time>2013-09-21T06:40:54Z</time>
      </trkpt>
      <trkpt lat="54.246236979961395" lon="27.07084902562201">
        <ele>188.56</ele>
        <time>2013-09-21T06:41:05Z</time>
      </trkpt>
      <trkpt lat="54.24629095941782" lon="27.071372978389263">
        <ele>188.08000000000001</ele>
        <time>2013-09-21T06:41:20Z</time>
      </trkpt>
      <trkpt lat="54.24628802575171" lon="27.07140700891614">
        <ele>188.08000000000001</ele>
        <time>2013-09-21T06:41:21Z</time>
      </trkpt>
      <trkpt lat="54.246292971074581" lon="27.071441039443016">
        <ele>188.08000000000001</ele>
        <time>2013-09-21T06:41:22Z</time>
      </trkpt>
      <trkpt lat="54.246364971622825" lon="27.071830965578556">
        <ele>187.11000000000001</ele>
        <time>2013-09-21T06:41:28Z</time>
      </trkpt>
      <trkpt lat="54.246389027684927" lon="27.071999022737145">
        <ele>186.63</ele>
        <time>2013-09-21T06:41:30Z</time>
      </trkpt>
      <trkpt lat="54.246437977999449" lon="27.072336981073022">
        <ele>186.63</ele>
        <time>2013-09-21T06:41:34Z</time>
      </trkpt>
      <trkpt lat="54.246446024626493" lon="27.072424991056323">
        <ele>186.15000000000001</ele>
        <time>2013-09-21T06:41:35Z</time>
      </trkpt>
      <trkpt lat="54.246457004919648" lon="27.072508977726102">
        <ele>186.15000000000001</ele>
        <time>2013-09-21T06:41:36Z</time>
      </trkpt>
      <trkpt lat="54.246627995744348" lon="27.073632990941405">
        <ele>185.19</ele>
        <time>2013-09-21T06:41:49Z</time>
      </trkpt>
      <trkpt lat="54.246638976037502" lon="27.073718989267945">
        <ele>185.19</ele>
        <time>2013-09-21T06:41:50Z</time>
      </trkpt>
      <trkpt lat="54.246650962159038" lon="27.073799036443233">
        <ele>185.19</ele>
        <time>2013-09-21T06:41:51Z</time>
      </trkpt>
      <trkpt lat="54.246747018769383" lon="27.07441502250731">
        <ele>185.66999999999999</ele>
        <time>2013-09-21T06:41:59Z</time>
      </trkpt>
      <trkpt lat="54.246991015970707" lon="27.075712960213423">
        <ele>186.15000000000001</ele>
        <time>2013-09-21T06:42:16Z</time>
      </trkpt>
      <trkpt lat="54.247215986251831" lon="27.076681992039084">
        <ele>188.56</ele>
        <time>2013-09-21T06:42:32Z</time>
      </trkpt>
      <trkpt lat="54.247253034263849" lon="27.077228995040059">
        <ele>188.56</ele>
        <time>2013-09-21T06:42:44Z</time>
      </trkpt>
      <trkpt lat="54.247266026213765" lon="27.077249027788639">
        <ele>188.56</ele>
        <time>2013-09-21T06:42:56Z</time>
      </trkpt>
      <trkpt lat="54.247274994850159" lon="27.077254978939891">
        <ele>188.56</ele>
        <time>2013-09-21T06:42:58Z</time>
      </trkpt>
      <trkpt lat="54.247281029820442" lon="27.077268976718187">
        <ele>188.56</ele>
        <time>2013-09-21T06:42:59Z</time>
      </trkpt>
      <trkpt lat="54.247283041477203" lon="27.077288003638387">
        <ele>188.56</ele>
        <time>2013-09-21T06:43:00Z</time>
      </trkpt>
      <trkpt lat="54.247281029820442" lon="27.077308958396316">
        <ele>189.03999999999999</ele>
        <time>2013-09-21T06:43:01Z</time>
      </trkpt>
      <trkpt lat="54.24727700650692" lon="27.07733603194356">
        <ele>189.03999999999999</ele>
        <time>2013-09-21T06:43:02Z</time>
      </trkpt>
      <trkpt lat="54.247251022607088" lon="27.077495036646724">
        <ele>188.56</ele>
        <time>2013-09-21T06:43:14Z</time>
      </trkpt>
      <trkpt lat="54.247248005121946" lon="27.077601989731193">
        <ele>188.56</ele>
        <time>2013-09-21T06:43:42Z</time>
      </trkpt>
      <trkpt lat="54.247282035648823" lon="27.077668039128184">
        <ele>189.03999999999999</ele>
        <time>2013-09-21T06:43:45Z</time>
      </trkpt>
      <trkpt lat="54.247302990406752" lon="27.07768396474421">
        <ele>189.03999999999999</ele>
        <time>2013-09-21T06:43:46Z</time>
      </trkpt>
      <trkpt lat="54.247325034812093" lon="27.077700980007648">
        <ele>188.56</ele>
        <time>2013-09-21T06:43:47Z</time>
      </trkpt>
      <trkpt lat="54.247345989570022" lon="27.07772403024137">
        <ele>188.08000000000001</ele>
        <time>2013-09-21T06:43:48Z</time>
      </trkpt>
      <trkpt lat="54.247365016490221" lon="27.077752025797963">
        <ele>188.08000000000001</ele>
        <time>2013-09-21T06:43:49Z</time>
      </trkpt>
      <trkpt lat="54.247379014268517" lon="27.077784966677427">
        <ele>188.08000000000001</ele>
        <time>2013-09-21T06:43:50Z</time>
      </trkpt>
      <trkpt lat="54.24738697707653" lon="27.077823020517826">
        <ele>187.59</ele>
        <time>2013-09-21T06:43:51Z</time>
      </trkpt>
      <trkpt lat="54.247392006218433" lon="27.077865013852715">
        <ele>187.59</ele>
        <time>2013-09-21T06:43:52Z</time>
      </trkpt>
      <trkpt lat="54.247397035360336" lon="27.077908013015985">
        <ele>187.59</ele>
        <time>2013-09-21T06:43:53Z</time>
      </trkpt>
      <trkpt lat="54.247442968189716" lon="27.078084032982588">
        <ele>187.59</ele>
        <time>2013-09-21T06:43:58Z</time>
      </trkpt>
      <trkpt lat="54.247457971796393" lon="27.078085960820317">
        <ele>187.11000000000001</ele>
        <time>2013-09-21T06:43:59Z</time>
      </trkpt>
      <trkpt lat="54.247507005929947" lon="27.078071963042021">
        <ele>187.59</ele>
        <time>2013-09-21T06:44:10Z</time>
      </trkpt>
      <trkpt lat="54.24751304090023" lon="27.078065006062388">
        <ele>187.59</ele>
        <time>2013-09-21T06:44:11Z</time>
      </trkpt>
      <trkpt lat="54.24753500148654" lon="27.078013960272074">
        <ele>187.11000000000001</ele>
        <time>2013-09-21T06:44:22Z</time>
      </trkpt>
      <trkpt lat="54.247468030080199" lon="27.078019995242357">
        <ele>191.91999999999999</ele>
        <time>2013-09-21T07:03:22Z</time>
      </trkpt>
      <trkpt lat="54.247497031465173" lon="27.07804799079895">
        <ele>191.91999999999999</ele>
        <time>2013-09-21T07:03:34Z</time>
      </trkpt>
      <trkpt lat="54.247474987059832" lon="27.078059976920485">
        <ele>190.47999999999999</ele>
        <time>2013-09-21T07:03:50Z</time>
      </trkpt>
      <trkpt lat="54.247427964583039" lon="27.078140024095774">
        <ele>189.52000000000001</ele>
        <time>2013-09-21T07:04:03Z</time>
      </trkpt>
      <trkpt lat="54.247423019260168" lon="27.078168019652367">
        <ele>189.52000000000001</ele>
        <time>2013-09-21T07:04:04Z</time>
      </trkpt>
      <trkpt lat="54.247418995946646" lon="27.078191991895437">
        <ele>189.52000000000001</ele>
        <time>2013-09-21T07:04:05Z</time>
      </trkpt>
      <trkpt lat="54.247415978461504" lon="27.078216969966888">
        <ele>189.52000000000001</ele>
        <time>2013-09-21T07:04:06Z</time>
      </trkpt>
      <trkpt lat="54.247412038967013" lon="27.078241026028991">
        <ele>190</ele>
        <time>2013-09-21T07:04:07Z</time>
      </trkpt>
      <trkpt lat="54.247404998168349" lon="27.078269021585584">
        <ele>190</ele>
        <time>2013-09-21T07:04:08Z</time>
      </trkpt>
      <trkpt lat="54.247400974854827" lon="27.078300034627318">
        <ele>190</ele>
        <time>2013-09-21T07:04:09Z</time>
      </trkpt>
      <trkpt lat="54.247400974854827" lon="27.078335992991924">
        <ele>190</ele>
        <time>2013-09-21T07:04:10Z</time>
      </trkpt>
      <trkpt lat="54.247404998168349" lon="27.078373963013291">
        <ele>189.52000000000001</ele>
        <time>2013-09-21T07:04:11Z</time>
      </trkpt>
      <trkpt lat="54.247438022866845" lon="27.079025991261005">
        <ele>190</ele>
        <time>2013-09-21T07:04:25Z</time>
      </trkpt>
      <trkpt lat="54.247484961524606" lon="27.079998962581158">
        <ele>190.96000000000001</ele>
        <time>2013-09-21T07:04:42Z</time>
      </trkpt>
      <trkpt lat="54.247541958466172" lon="27.08114099688828">
        <ele>191.91999999999999</ele>
        <time>2013-09-21T07:05:00Z</time>
      </trkpt>
      <trkpt lat="54.24755503423512" lon="27.082412028685212">
        <ele>192.88</ele>
        <time>2013-09-21T07:05:20Z</time>
      </trkpt>
      <trkpt lat="54.247530978173018" lon="27.083592033013701">
        <ele>193.84</ele>
        <time>2013-09-21T07:05:38Z</time>
      </trkpt>
      <trkpt lat="54.247556962072849" lon="27.084784023463726">
        <ele>196.25</ele>
        <time>2013-09-21T07:05:57Z</time>
      </trkpt>
      <trkpt lat="54.247634997591376" lon="27.085978025570512">
        <ele>198.16999999999999</ele>
        <time>2013-09-21T07:06:16Z</time>
      </trkpt>
      <trkpt lat="54.247737005352974" lon="27.087204968556762">
        <ele>201.05000000000001</ele>
        <time>2013-09-21T07:06:36Z</time>
      </trkpt>
      <trkpt lat="54.247845970094204" lon="27.088120020925999">
        <ele>203.46000000000001</ele>
        <time>2013-09-21T07:06:52Z</time>
      </trkpt>
      <trkpt lat="54.247987037524581" lon="27.089403960853815">
        <ele>205.38</ele>
        <time>2013-09-21T07:07:14Z</time>
      </trkpt>
      <trkpt lat="54.248092984780669" lon="27.090554041787982">
        <ele>207.78</ele>
        <time>2013-09-21T07:07:34Z</time>
      </trkpt>
      <trkpt lat="54.248206978663802" lon="27.09179699420929">
        <ele>209.22</ele>
        <time>2013-09-21T07:07:54Z</time>
      </trkpt>
      <trkpt lat="54.248318038880825" lon="27.093329038470984">
        <ele>208.25999999999999</ele>
        <time>2013-09-21T07:08:14Z</time>
      </trkpt>
      <trkpt lat="54.248299011960626" lon="27.095112036913633">
        <ele>206.81999999999999</ele>
        <time>2013-09-21T07:08:35Z</time>
      </trkpt>
      <trkpt lat="54.248228017240763" lon="27.096485998481512">
        <ele>206.81999999999999</ele>
        <time>2013-09-21T07:08:51Z</time>
      </trkpt>
      <trkpt lat="54.248148975893855" lon="27.09783598780632">
        <ele>207.78</ele>
        <time>2013-09-21T07:09:09Z</time>
      </trkpt>
      <trkpt lat="54.248073035851121" lon="27.099321009591222">
        <ele>209.69999999999999</ele>
        <time>2013-09-21T07:09:30Z</time>
      </trkpt>
      <trkpt lat="54.247896010056138" lon="27.100287023931742">
        <ele>212.59</ele>
        <time>2013-09-21T07:09:47Z</time>
      </trkpt>
      <trkpt lat="54.247590992599726" lon="27.100790021941066">
        <ele>214.99000000000001</ele>
        <time>2013-09-21T07:10:00Z</time>
      </trkpt>
      <trkpt lat="54.247544975951314" lon="27.101593008264899">
        <ele>216.43000000000001</ele>
        <time>2013-09-21T07:10:13Z</time>
      </trkpt>
      <trkpt lat="54.247565008699894" lon="27.101652016863227">
        <ele>216.43000000000001</ele>
        <time>2013-09-21T07:10:14Z</time>
      </trkpt>
      <trkpt lat="54.247668022289872" lon="27.101866006851196">
        <ele>216.43000000000001</ele>
        <time>2013-09-21T07:10:18Z</time>
      </trkpt>
      <trkpt lat="54.247705992311239" lon="27.102591041475534">
        <ele>217.40000000000001</ele>
        <time>2013-09-21T07:10:29Z</time>
      </trkpt>
      <trkpt lat="54.247349007055163" lon="27.103513972833753">
        <ele>221.24000000000001</ele>
        <time>2013-09-21T07:10:48Z</time>
      </trkpt>
      <trkpt lat="54.247082965448499" lon="27.104202965274453">
        <ele>222.68000000000001</ele>
        <time>2013-09-21T07:11:03Z</time>
      </trkpt>
      <trkpt lat="54.246722962707281" lon="27.105105025693774">
        <ele>225.09</ele>
        <time>2013-09-21T07:11:23Z</time>
      </trkpt>
      <trkpt lat="54.246414005756378" lon="27.105903988704085">
        <ele>228.44999999999999</ele>
        <time>2013-09-21T07:11:41Z</time>
      </trkpt>
      <trkpt lat="54.246129021048546" lon="27.106914008036256">
        <ele>230.84999999999999</ele>
        <time>2013-09-21T07:12:00Z</time>
      </trkpt>
      <trkpt lat="54.245908996090293" lon="27.107828976586461">
        <ele>232.30000000000001</ele>
        <time>2013-09-21T07:12:15Z</time>
      </trkpt>
      <trkpt lat="54.245849987491965" lon="27.108099041506648">
        <ele>231.33000000000001</ele>
        <time>2013-09-21T07:12:19Z</time>
      </trkpt>
      <trkpt lat="54.245544970035553" lon="27.109342999756336">
        <ele>231.81</ele>
        <time>2013-09-21T07:12:37Z</time>
      </trkpt>
      <trkpt lat="54.245343971997499" lon="27.110300967469811">
        <ele>231.81</ele>
        <time>2013-09-21T07:12:51Z</time>
      </trkpt>
      <trkpt lat="54.24523601308465" lon="27.111085010692477">
        <ele>232.78</ele>
        <time>2013-09-21T07:13:02Z</time>
      </trkpt>
      <trkpt lat="54.245137022808194" lon="27.112229978665709">
        <ele>234.22</ele>
        <time>2013-09-21T07:13:18Z</time>
      </trkpt>
      <trkpt lat="54.245130987837911" lon="27.112300973385572">
        <ele>234.22</ele>
        <time>2013-09-21T07:13:19Z</time>
      </trkpt>
      <trkpt lat="54.245138028636575" lon="27.113576028496027">
        <ele>236.13999999999999</ele>
        <time>2013-09-21T07:13:38Z</time>
      </trkpt>
      <trkpt lat="54.245292004197836" lon="27.114863991737366">
        <ele>239.02000000000001</ele>
        <time>2013-09-21T07:13:58Z</time>
      </trkpt>
      <trkpt lat="54.245446985587478" lon="27.116071991622448">
        <ele>239.99000000000001</ele>
        <time>2013-09-21T07:14:16Z</time>
      </trkpt>
      <trkpt lat="54.245625017210841" lon="27.117323996499181">
        <ele>239.99000000000001</ele>
        <time>2013-09-21T07:14:32Z</time>
      </trkpt>
      <trkpt lat="54.245640020817518" lon="27.117405971512198">
        <ele>239.99000000000001</ele>
        <time>2013-09-21T07:14:33Z</time>
      </trkpt>
      <trkpt lat="54.245740016922355" lon="27.118068980053067">
        <ele>239.02000000000001</ele>
        <time>2013-09-21T07:14:41Z</time>
      </trkpt>
      <trkpt lat="54.245914025232196" lon="27.119509996846318">
        <ele>237.58000000000001</ele>
        <time>2013-09-21T07:14:56Z</time>
      </trkpt>
      <trkpt lat="54.246011003851891" lon="27.120840959250927">
        <ele>237.09999999999999</ele>
        <time>2013-09-21T07:15:10Z</time>
      </trkpt>
      <trkpt lat="54.245985019952059" lon="27.122900979593396">
        <ele>234.69999999999999</ele>
        <time>2013-09-21T07:15:30Z</time>
      </trkpt>
      <trkpt lat="54.246015027165413" lon="27.125113969668746">
        <ele>231.81</ele>
        <time>2013-09-21T07:15:50Z</time>
      </trkpt>
      <trkpt lat="54.246258018538356" lon="27.127882009372115">
        <ele>227.00999999999999</ele>
        <time>2013-09-21T07:16:14Z</time>
      </trkpt>
      <trkpt lat="54.24650302156806" lon="27.129905987530947">
        <ele>222.19999999999999</ele>
        <time>2013-09-21T07:16:30Z</time>
      </trkpt>
      <trkpt lat="54.246989004313946" lon="27.132311007007957">
        <ele>215.94999999999999</ele>
        <time>2013-09-21T07:16:47Z</time>
      </trkpt>
      <trkpt lat="54.247465012595057" lon="27.134386030957103">
        <ele>213.55000000000001</ele>
        <time>2013-09-21T07:17:04Z</time>
      </trkpt>
      <trkpt lat="54.247967004776001" lon="27.136019999161363">
        <ele>212.11000000000001</ele>
        <time>2013-09-21T07:17:20Z</time>
      </trkpt>
      <trkpt lat="54.248281996697187" lon="27.13784197345376">
        <ele>213.06999999999999</ele>
        <time>2013-09-21T07:17:40Z</time>
      </trkpt>
      <trkpt lat="54.248604029417038" lon="27.139503015205264">
        <ele>213.06999999999999</ele>
        <time>2013-09-21T07:17:59Z</time>
      </trkpt>
      <trkpt lat="54.24897400662303" lon="27.140941014513373">
        <ele>210.66999999999999</ele>
        <time>2013-09-21T07:18:14Z</time>
      </trkpt>
      <trkpt lat="54.249539030715823" lon="27.142821997404099">
        <ele>209.22</ele>
        <time>2013-09-21T07:18:34Z</time>
      </trkpt>
      <trkpt lat="54.250151999294758" lon="27.144643971696496">
        <ele>209.22</ele>
        <time>2013-09-21T07:18:56Z</time>
      </trkpt>
      <trkpt lat="54.250582996755838" lon="27.145869992673397">
        <ele>208.74000000000001</ele>
        <time>2013-09-21T07:19:11Z</time>
      </trkpt>
      <trkpt lat="54.251191020011902" lon="27.147620972245932">
        <ele>207.78</ele>
        <time>2013-09-21T07:19:31Z</time>
      </trkpt>
      <trkpt lat="54.251910019665956" lon="27.149562975391746">
        <ele>204.41999999999999</ele>
        <time>2013-09-21T07:19:52Z</time>
      </trkpt>
      <trkpt lat="54.252641005441546" lon="27.151388972997665">
        <ele>200.09</ele>
        <time>2013-09-21T07:20:10Z</time>
      </trkpt>
      <trkpt lat="54.253449020907283" lon="27.153222011402249">
        <ele>193.36000000000001</ele>
        <time>2013-09-21T07:20:25Z</time>
      </trkpt>
      <trkpt lat="54.254334988072515" lon="27.155214976519346">
        <ele>188.56</ele>
        <time>2013-09-21T07:20:41Z</time>
      </trkpt>
      <trkpt lat="54.255229001864791" lon="27.157230991870165">
        <ele>185.66999999999999</ele>
        <time>2013-09-21T07:21:00Z</time>
      </trkpt>
      <trkpt lat="54.255953030660748" lon="27.158904019743204">
        <ele>183.75</ele>
        <time>2013-09-21T07:21:18Z</time>
      </trkpt>
      <trkpt lat="54.256552001461387" lon="27.160359034314752">
        <ele>182.78999999999999</ele>
        <time>2013-09-21T07:21:34Z</time>
      </trkpt>
      <trkpt lat="54.257247028872371" lon="27.162143960595131">
        <ele>180.87</ele>
        <time>2013-09-21T07:21:54Z</time>
      </trkpt>
      <trkpt lat="54.257967034354806" lon="27.1637739893049">
        <ele>180.38</ele>
        <time>2013-09-21T07:22:14Z</time>
      </trkpt>
      <trkpt lat="54.258792987093329" lon="27.165064970031381">
        <ele>180.87</ele>
        <time>2013-09-21T07:22:33Z</time>
      </trkpt>
      <trkpt lat="54.259664034470916" lon="27.166294008493423">
        <ele>180.38</ele>
        <time>2013-09-21T07:22:53Z</time>
      </trkpt>
      <trkpt lat="54.260603981092572" lon="27.167595969513059">
        <ele>179.41999999999999</ele>
        <time>2013-09-21T07:23:14Z</time>
      </trkpt>
      <trkpt lat="54.261546023190022" lon="27.168868007138371">
        <ele>179.41999999999999</ele>
        <time>2013-09-21T07:23:36Z</time>
      </trkpt>
      <trkpt lat="54.262581020593643" lon="27.170252026990056">
        <ele>179.90000000000001</ele>
        <time>2013-09-21T07:24:00Z</time>
      </trkpt>
      <trkpt lat="54.26343496888876" lon="27.171428008005023">
        <ele>179.41999999999999</ele>
        <time>2013-09-21T07:24:20Z</time>
      </trkpt>
      <trkpt lat="54.264285983517766" lon="27.172569958493114">
        <ele>179.41999999999999</ele>
        <time>2013-09-21T07:24:40Z</time>
      </trkpt>
      <trkpt lat="54.265005989000201" lon="27.173501020297408">
        <ele>178.94</ele>
        <time>2013-09-21T07:24:56Z</time>
      </trkpt>
      <trkpt lat="54.265838982537389" lon="27.17451598495245">
        <ele>178.46000000000001</ele>
        <time>2013-09-21T07:25:14Z</time>
      </trkpt>
      <trkpt lat="54.266675999388099" lon="27.175489962100983">
        <ele>178.94</ele>
        <time>2013-09-21T07:25:34Z</time>
      </trkpt>
      <trkpt lat="54.266876997426152" lon="27.175747035071254">
        <ele>178.94</ele>
        <time>2013-09-21T07:25:44Z</time>
      </trkpt>
      <trkpt lat="54.266876997426152" lon="27.175747035071254">
        <ele>178.94</ele>
        <time>2013-09-21T07:26:13Z</time>
      </trkpt>
      <trkpt lat="54.266876997426152" lon="27.175745023414493">
        <ele>178.94</ele>
        <time>2013-09-21T07:27:02Z</time>
      </trkpt>
      <trkpt lat="54.266932988539338" lon="27.175807971507311">
        <ele>178.94</ele>
        <time>2013-09-21T07:27:30Z</time>
      </trkpt>
      <trkpt lat="54.267295002937317" lon="27.176211979240179">
        <ele>177.97999999999999</ele>
        <time>2013-09-21T07:27:43Z</time>
      </trkpt>
      <trkpt lat="54.267832031473517" lon="27.176883034408092">
        <ele>178.46000000000001</ele>
        <time>2013-09-21T07:28:01Z</time>
      </trkpt>
      <trkpt lat="54.267929010093212" lon="27.177021000534296">
        <ele>178.94</ele>
        <time>2013-09-21T07:28:13Z</time>
      </trkpt>
      <trkpt lat="54.267928004264832" lon="27.177032986655831">
        <ele>177.97999999999999</ele>
        <time>2013-09-21T07:28:27Z</time>
      </trkpt>
      <trkpt lat="54.267948037013412" lon="27.177016977220774">
        <ele>177.02000000000001</ele>
        <time>2013-09-21T07:30:35Z</time>
      </trkpt>
      <trkpt lat="54.267991036176682" lon="27.177042961120605">
        <ele>177.02000000000001</ele>
        <time>2013-09-21T07:30:45Z</time>
      </trkpt>
      <trkpt lat="54.268307033926249" lon="27.177506983280182">
        <ele>177.02000000000001</ele>
        <time>2013-09-21T07:30:58Z</time>
      </trkpt>
      <trkpt lat="54.268802991136909" lon="27.178242998197675">
        <ele>177.5</ele>
        <time>2013-09-21T07:31:12Z</time>
      </trkpt>
      <trkpt lat="54.269361980259418" lon="27.179074985906482">
        <ele>176.53999999999999</ele>
        <time>2013-09-21T07:31:26Z</time>
      </trkpt>
      <trkpt lat="54.269884005188942" lon="27.179877972230315">
        <ele>174.62</ele>
        <time>2013-09-21T07:31:40Z</time>
      </trkpt>
      <trkpt lat="54.270540978759527" lon="27.180885979905725">
        <ele>173.16999999999999</ele>
        <time>2013-09-21T07:31:56Z</time>
      </trkpt>
      <trkpt lat="54.271236006170511" lon="27.18192801810801">
        <ele>171.72999999999999</ele>
        <time>2013-09-21T07:32:12Z</time>
      </trkpt>
      <trkpt lat="54.271936984732747" lon="27.182998973876238">
        <ele>170.77000000000001</ele>
        <time>2013-09-21T07:32:29Z</time>
      </trkpt>
      <trkpt lat="54.272700995206833" lon="27.184148970991373">
        <ele>169.81</ele>
        <time>2013-09-21T07:32:47Z</time>
      </trkpt>
      <trkpt lat="54.273398034274578" lon="27.185153961181641">
        <ele>169.81</ele>
        <time>2013-09-21T07:33:03Z</time>
      </trkpt>
      <trkpt lat="54.274007985368371" lon="27.18607597053051">
        <ele>170.28999999999999</ele>
        <time>2013-09-21T07:33:17Z</time>
      </trkpt>
      <trkpt lat="54.274318031966686" lon="27.186522977426648">
        <ele>170.77000000000001</ele>
        <time>2013-09-21T07:33:24Z</time>
      </trkpt>
      <trkpt lat="54.275067960843444" lon="27.187657970935106">
        <ele>170.77000000000001</ele>
        <time>2013-09-21T07:33:42Z</time>
      </trkpt>
      <trkpt lat="54.275787966325879" lon="27.188723981380463">
        <ele>169.33000000000001</ele>
        <time>2013-09-21T07:33:59Z</time>
      </trkpt>
      <trkpt lat="54.276468995958567" lon="27.189750010147691">
        <ele>169.81</ele>
        <time>2013-09-21T07:34:16Z</time>
      </trkpt>
      <trkpt lat="54.277209034189582" lon="27.190848039463162">
        <ele>170.28999999999999</ele>
        <time>2013-09-21T07:34:33Z</time>
      </trkpt>
      <trkpt lat="54.277964998036623" lon="27.191970963031054">
        <ele>170.77000000000001</ele>
        <time>2013-09-21T07:34:50Z</time>
      </trkpt>
      <trkpt lat="54.278777958825231" lon="27.193171000108123">
        <ele>173.16999999999999</ele>
        <time>2013-09-21T07:35:08Z</time>
      </trkpt>
      <trkpt lat="54.279451025649905" lon="27.194169033318758">
        <ele>175.09999999999999</ele>
        <time>2013-09-21T07:35:24Z</time>
      </trkpt>
      <trkpt lat="54.28015099838376" lon="27.195220040157437">
        <ele>175.58000000000001</ele>
        <time>2013-09-21T07:35:40Z</time>
      </trkpt>
      <trkpt lat="54.280721973627806" lon="27.196076000109315">
        <ele>175.09999999999999</ele>
        <time>2013-09-21T07:35:53Z</time>
      </trkpt>
      <trkpt lat="54.281111983582377" lon="27.196650998666883">
        <ele>174.62</ele>
        <time>2013-09-21T07:36:02Z</time>
      </trkpt>
      <trkpt lat="54.281703997403383" lon="27.197554986923933">
        <ele>173.66</ele>
        <time>2013-09-21T07:36:16Z</time>
      </trkpt>
      <trkpt lat="54.282325012609363" lon="27.198503986001015">
        <ele>174.13999999999999</ele>
        <time>2013-09-21T07:36:31Z</time>
      </trkpt>
      <trkpt lat="54.28287897258997" lon="27.199328010901809">
        <ele>174.13999999999999</ele>
        <time>2013-09-21T07:36:44Z</time>
      </trkpt>
      <trkpt lat="54.283539969474077" lon="27.200323026627302">
        <ele>174.13999999999999</ele>
        <time>2013-09-21T07:36:59Z</time>
      </trkpt>
      <trkpt lat="54.284190991893411" lon="27.201319970190525">
        <ele>173.66</ele>
        <time>2013-09-21T07:37:14Z</time>
      </trkpt>
      <trkpt lat="54.284988027065992" lon="27.202470973134041">
        <ele>173.16999999999999</ele>
        <time>2013-09-21T07:37:31Z</time>
      </trkpt>
      <trkpt lat="54.285729993134737" lon="27.203590041026473">
        <ele>174.62</ele>
        <time>2013-09-21T07:37:47Z</time>
      </trkpt>
      <trkpt lat="54.286433989182115" lon="27.204615985974669">
        <ele>175.58000000000001</ele>
        <time>2013-09-21T07:38:03Z</time>
      </trkpt>
      <trkpt lat="54.287133039906621" lon="27.205673027783632">
        <ele>176.53999999999999</ele>
        <time>2013-09-21T07:38:19Z</time>
      </trkpt>
      <trkpt lat="54.287838963791728" lon="27.206733003258705">
        <ele>176.53999999999999</ele>
        <time>2013-09-21T07:38:34Z</time>
      </trkpt>
      <trkpt lat="54.288316983729601" lon="27.207471029832959">
        <ele>175.58000000000001</ele>
        <time>2013-09-21T07:38:45Z</time>
      </trkpt>
      <trkpt lat="54.288813024759293" lon="27.208437966182828">
        <ele>175.09999999999999</ele>
        <time>2013-09-21T07:38:58Z</time>
      </trkpt>
      <trkpt lat="54.289461029693484" lon="27.209846964105964">
        <ele>174.13999999999999</ele>
        <time>2013-09-21T07:39:15Z</time>
      </trkpt>
      <trkpt lat="54.28994701243937" lon="27.210964020341635">
        <ele>173.66</ele>
        <time>2013-09-21T07:39:29Z</time>
      </trkpt>
      <trkpt lat="54.290191009640694" lon="27.211520997807384">
        <ele>173.16999999999999</ele>
        <time>2013-09-21T07:39:36Z</time>
      </trkpt>
      <trkpt lat="54.290409022942185" lon="27.212100019678473">
        <ele>172.21000000000001</ele>
        <time>2013-09-21T07:39:43Z</time>
      </trkpt>
      <trkpt lat="54.290709011256695" lon="27.212832011282444">
        <ele>171.72999999999999</ele>
        <time>2013-09-21T07:39:52Z</time>
      </trkpt>
      <trkpt lat="54.29080598987639" lon="27.213084977120161">
        <ele>172.21000000000001</ele>
        <time>2013-09-21T07:39:55Z</time>
      </trkpt>
      <trkpt lat="54.290890982374549" lon="27.213322017341852">
        <ele>172.21000000000001</ele>
        <time>2013-09-21T07:39:58Z</time>
      </trkpt>
      <trkpt lat="54.291314017027617" lon="27.214373024180532">
        <ele>174.13999999999999</ele>
        <time>2013-09-21T07:40:12Z</time>
      </trkpt>
      <trkpt lat="54.291759012266994" lon="27.215430987998843">
        <ele>174.13999999999999</ele>
        <time>2013-09-21T07:40:28Z</time>
      </trkpt>
      <trkpt lat="54.292171988636255" lon="27.216421980410814">
        <ele>174.13999999999999</ele>
        <time>2013-09-21T07:40:43Z</time>
      </trkpt>
      <trkpt lat="54.29220300167799" lon="27.216478977352381">
        <ele>174.62</ele>
        <time>2013-09-21T07:40:52Z</time>
      </trkpt>
      <trkpt lat="54.292196966707706" lon="27.21651996485889">
        <ele>175.09999999999999</ele>
        <time>2013-09-21T07:41:13Z</time>
      </trkpt>
      <trkpt lat="54.292196966707706" lon="27.216525999829173">
        <ele>174.62</ele>
        <time>2013-09-21T07:41:57Z</time>
      </trkpt>
      <trkpt lat="54.292204007506371" lon="27.216510996222496">
        <ele>174.62</ele>
        <time>2013-09-21T07:43:22Z</time>
      </trkpt>
      <trkpt lat="54.292206019163132" lon="27.216523988172412">
        <ele>174.62</ele>
        <time>2013-09-21T07:44:45Z</time>
      </trkpt>
      <trkpt lat="54.292215993627906" lon="27.216534968465567">
        <ele>173.66</ele>
        <time>2013-09-21T07:46:26Z</time>
      </trkpt>
      <trkpt lat="54.292238960042596" lon="27.216567993164063">
        <ele>173.16999999999999</ele>
        <time>2013-09-21T07:46:33Z</time>
      </trkpt>
      <trkpt lat="54.292305009439588" lon="27.216749964281917">
        <ele>172.69</ele>
        <time>2013-09-21T07:46:40Z</time>
      </trkpt>
      <trkpt lat="54.292615978047252" lon="27.217524033039808">
        <ele>172.69</ele>
        <time>2013-09-21T07:46:55Z</time>
      </trkpt>
      <trkpt lat="54.293116964399815" lon="27.218763967975974">
        <ele>173.16999999999999</ele>
        <time>2013-09-21T07:47:15Z</time>
      </trkpt>
      <trkpt lat="54.293402032926679" lon="27.219452960416675">
        <ele>173.66</ele>
        <time>2013-09-21T07:47:30Z</time>
      </trkpt>
      <trkpt lat="54.293418964371085" lon="27.219522027298808">
        <ele>173.16999999999999</ele>
        <time>2013-09-21T07:47:36Z</time>
      </trkpt>
      <trkpt lat="54.293614011257887" lon="27.220005998387933">
        <ele>173.66</ele>
        <time>2013-09-21T07:47:50Z</time>
      </trkpt>
      <trkpt lat="54.293637983500957" lon="27.220072969794273">
        <ele>173.66</ele>
        <time>2013-09-21T07:47:51Z</time>
      </trkpt>
      <trkpt lat="54.294104017317295" lon="27.221247022971511">
        <ele>172.69</ele>
        <time>2013-09-21T07:48:07Z</time>
      </trkpt>
      <trkpt lat="54.29413503035903" lon="27.221322041004896">
        <ele>172.69</ele>
        <time>2013-09-21T07:48:08Z</time>
      </trkpt>
      <trkpt lat="54.294708017259836" lon="27.222607992589474">
        <ele>172.69</ele>
        <time>2013-09-21T07:48:26Z</time>
      </trkpt>
      <trkpt lat="54.295298019424081" lon="27.22378296777606">
        <ele>173.16999999999999</ele>
        <time>2013-09-21T07:48:43Z</time>
      </trkpt>
      <trkpt lat="54.295601025223732" lon="27.224293006584048">
        <ele>172.69</ele>
        <time>2013-09-21T07:48:51Z</time>
      </trkpt>
      <trkpt lat="54.295947030186653" lon="27.224841015413404">
        <ele>173.66</ele>
        <time>2013-09-21T07:49:04Z</time>
      </trkpt>
      <trkpt lat="54.295976031571627" lon="27.224886026233435">
        <ele>174.62</ele>
        <time>2013-09-21T07:49:16Z</time>
      </trkpt>
      <trkpt lat="54.296064041554928" lon="27.224983004853129">
        <ele>175.09999999999999</ele>
        <time>2013-09-21T07:49:53Z</time>
      </trkpt>
      <trkpt lat="54.296293035149574" lon="27.225352982059121">
        <ele>175.09999999999999</ele>
        <time>2013-09-21T07:50:05Z</time>
      </trkpt>
      <trkpt lat="54.296796033158898" lon="27.226095031946898">
        <ele>176.06</ele>
        <time>2013-09-21T07:50:20Z</time>
      </trkpt>
      <trkpt lat="54.297193000093102" lon="27.226614039391279">
        <ele>176.53999999999999</ele>
        <time>2013-09-21T07:50:30Z</time>
      </trkpt>
      <trkpt lat="54.297344963997602" lon="27.226791987195611">
        <ele>176.53999999999999</ele>
        <time>2013-09-21T07:50:34Z</time>
      </trkpt>
      <trkpt lat="54.2981549911201" lon="27.227676026523113">
        <ele>176.06</ele>
        <time>2013-09-21T07:50:52Z</time>
      </trkpt>
      <trkpt lat="54.29896904155612" lon="27.228438025340438">
        <ele>177.02000000000001</ele>
        <time>2013-09-21T07:51:10Z</time>
      </trkpt>
      <trkpt lat="54.299176996573806" lon="27.228633994236588">
        <ele>177.5</ele>
        <time>2013-09-21T07:51:16Z</time>
      </trkpt>
      <trkpt lat="54.299181019887328" lon="27.22876500338316">
        <ele>177.02000000000001</ele>
        <time>2013-09-21T07:51:20Z</time>
      </trkpt>
      <trkpt lat="54.298897963017225" lon="27.228973964229226">
        <ele>173.66</ele>
        <time>2013-09-21T07:51:32Z</time>
      </trkpt>
      <trkpt lat="54.298474006354809" lon="27.229131041094661">
        <ele>165.96000000000001</ele>
        <time>2013-09-21T07:51:45Z</time>
      </trkpt>
      <trkpt lat="54.298107968643308" lon="27.229240005835891">
        <ele>158.75</ele>
        <time>2013-09-21T07:51:55Z</time>
      </trkpt>
      <trkpt lat="54.297972014173865" lon="27.229278981685638">
        <ele>157.31</ele>
        <time>2013-09-21T07:51:59Z</time>
      </trkpt>
      <trkpt lat="54.297476978972554" lon="27.229511998593807">
        <ele>154.43000000000001</ele>
        <time>2013-09-21T07:52:13Z</time>
      </trkpt>
      <trkpt lat="54.297383017838001" lon="27.229864960536361">
        <ele>162.59999999999999</ele>
        <time>2013-09-21T07:52:24Z</time>
      </trkpt>
      <trkpt lat="54.297343958169222" lon="27.230254970490932">
        <ele>167.41</ele>
        <time>2013-09-21T07:52:34Z</time>
      </trkpt>
      <trkpt lat="54.297323003411293" lon="27.230363013222814">
        <ele>168.37</ele>
        <time>2013-09-21T07:52:45Z</time>
      </trkpt>
      <trkpt lat="54.29733700118959" lon="27.230324959382415">
        <ele>167.41</ele>
        <time>2013-09-21T07:53:02Z</time>
      </trkpt>
      <trkpt lat="54.29736097343266" lon="27.23022697493434">
        <ele>167.88999999999999</ele>
        <time>2013-09-21T07:53:20Z</time>
      </trkpt>
      <trkpt lat="54.297363990917802" lon="27.230080962181091">
        <ele>167.88999999999999</ele>
        <time>2013-09-21T07:53:25Z</time>
      </trkpt>
      <trkpt lat="54.297348987311125" lon="27.229748032987118">
        <ele>167.88999999999999</ele>
        <time>2013-09-21T07:53:34Z</time>
      </trkpt>
      <trkpt lat="54.297479996457696" lon="27.229811986908317">
        <ele>169.81</ele>
        <time>2013-09-21T07:53:43Z</time>
      </trkpt>
      <trkpt lat="54.297516960650682" lon="27.229878036305308">
        <ele>169.33000000000001</ele>
        <time>2013-09-21T07:53:45Z</time>
      </trkpt>
      <trkpt lat="54.297832958400249" lon="27.230198979377747">
        <ele>169.81</ele>
        <time>2013-09-21T07:53:58Z</time>
      </trkpt>
      <trkpt lat="54.298061029985547" lon="27.230548001825809">
        <ele>170.28999999999999</ele>
        <time>2013-09-21T07:54:11Z</time>
      </trkpt>
      <trkpt lat="54.298293963074684" lon="27.23091303370893">
        <ele>170.28999999999999</ele>
        <time>2013-09-21T07:54:24Z</time>
      </trkpt>
      <trkpt lat="54.298448022454977" lon="27.231175974011421">
        <ele>170.28999999999999</ele>
        <time>2013-09-21T07:54:35Z</time>
      </trkpt>
      <trkpt lat="54.298480963334441" lon="27.23117102868855">
        <ele>171.25</ele>
        <time>2013-09-21T07:55:00Z</time>
      </trkpt>
      <trkpt lat="54.29847601801157" lon="27.23117396235466">
        <ele>171.25</ele>
        <time>2013-09-21T07:55:30Z</time>
      </trkpt>
      <trkpt lat="54.298522034659982" lon="27.231114031746984">
        <ele>173.66</ele>
        <time>2013-09-21T07:55:40Z</time>
      </trkpt>
      <trkpt lat="54.298535026609898" lon="27.231125012040138">
        <ele>173.16999999999999</ele>
        <time>2013-09-21T07:55:42Z</time>
      </trkpt>
      <trkpt lat="54.298542989417911" lon="27.231170022860169">
        <ele>173.16999999999999</ele>
        <time>2013-09-21T07:56:03Z</time>
      </trkpt>
      <trkpt lat="54.298527985811234" lon="27.231118977069855">
        <ele>173.66</ele>
        <time>2013-09-21T07:58:36Z</time>
      </trkpt>
      <trkpt lat="54.298513988032937" lon="27.231038007885218">
        <ele>173.16999999999999</ele>
        <time>2013-09-21T07:58:40Z</time>
      </trkpt>
      <trkpt lat="54.298525974154472" lon="27.23091596737504">
        <ele>172.69</ele>
        <time>2013-09-21T07:58:53Z</time>
      </trkpt>
      <trkpt lat="54.298529997467995" lon="27.230902975425124">
        <ele>172.21000000000001</ele>
        <time>2013-09-21T07:58:55Z</time>
      </trkpt>
      <trkpt lat="54.298556987196207" lon="27.230669036507607">
        <ele>171.25</ele>
        <time>2013-09-21T07:59:03Z</time>
      </trkpt>
      <trkpt lat="54.298624964430928" lon="27.230551019310951">
        <ele>169.81</ele>
        <time>2013-09-21T07:59:07Z</time>
      </trkpt>
      <trkpt lat="54.298878014087677" lon="27.230327976867557">
        <ele>166.44999999999999</ele>
        <time>2013-09-21T07:59:18Z</time>
      </trkpt>
      <trkpt lat="54.299129974097013" lon="27.229963028803468">
        <ele>166.44999999999999</ele>
        <time>2013-09-21T07:59:28Z</time>
      </trkpt>
      <trkpt lat="54.299303982406855" lon="27.229691036045551">
        <ele>169.33000000000001</ele>
        <time>2013-09-21T07:59:35Z</time>
      </trkpt>
      <trkpt lat="54.29953096434474" lon="27.229184014722705">
        <ele>169.33000000000001</ele>
        <time>2013-09-21T07:59:47Z</time>
      </trkpt>
      <trkpt lat="54.299581004306674" lon="27.228973964229226">
        <ele>170.77000000000001</ele>
        <time>2013-09-21T07:59:52Z</time>
      </trkpt>
      <trkpt lat="54.299728022888303" lon="27.229053005576134">
        <ele>173.16999999999999</ele>
        <time>2013-09-21T07:59:58Z</time>
      </trkpt>
      <trkpt lat="54.300344008952379" lon="27.229518033564091">
        <ele>177.5</ele>
        <time>2013-09-21T08:00:14Z</time>
      </trkpt>
      <trkpt lat="54.301131991669536" lon="27.229996975511312">
        <ele>181.34999999999999</ele>
        <time>2013-09-21T08:00:30Z</time>
      </trkpt>
      <trkpt lat="54.302008990198374" lon="27.230405006557703">
        <ele>181.83000000000001</ele>
        <time>2013-09-21T08:00:45Z</time>
      </trkpt>
      <trkpt lat="54.302899986505508" lon="27.230761991813779">
        <ele>178.46000000000001</ele>
        <time>2013-09-21T08:01:01Z</time>
      </trkpt>
      <trkpt lat="54.303624015301466" lon="27.230875985696912">
        <ele>177.02000000000001</ele>
        <time>2013-09-21T08:01:14Z</time>
      </trkpt>
      <trkpt lat="54.303841022774577" lon="27.231284016743302">
        <ele>177.02000000000001</ele>
        <time>2013-09-21T08:01:21Z</time>
      </trkpt>
      <trkpt lat="54.303854014724493" lon="27.231362974271178">
        <ele>177.02000000000001</ele>
        <time>2013-09-21T08:01:22Z</time>
      </trkpt>
      <trkpt lat="54.304027017205954" lon="27.232065964490175">
        <ele>174.62</ele>
        <time>2013-09-21T08:01:31Z</time>
      </trkpt>
      <trkpt lat="54.304065993055701" lon="27.232299987226725">
        <ele>174.13999999999999</ele>
        <time>2013-09-21T08:01:34Z</time>
      </trkpt>
      <trkpt lat="54.304080996662378" lon="27.232711035758257">
        <ele>172.21000000000001</ele>
        <time>2013-09-21T08:01:39Z</time>
      </trkpt>
      <trkpt lat="54.304156014695764" lon="27.233597002923489">
        <ele>172.69</ele>
        <time>2013-09-21T08:01:51Z</time>
      </trkpt>
      <trkpt lat="54.304285012185574" lon="27.23478002473712">
        <ele>172.69</ele>
        <time>2013-09-21T08:02:06Z</time>
      </trkpt>
      <trkpt lat="54.304301021620631" lon="27.235188977792859">
        <ele>172.21000000000001</ele>
        <time>2013-09-21T08:02:11Z</time>
      </trkpt>
      <trkpt lat="54.304357012733817" lon="27.235580999404192">
        <ele>172.21000000000001</ele>
        <time>2013-09-21T08:02:16Z</time>
      </trkpt>
      <trkpt lat="54.304424989968538" lon="27.236064970493317">
        <ele>172.69</ele>
        <time>2013-09-21T08:02:22Z</time>
      </trkpt>
      <trkpt lat="54.304503025487065" lon="27.237244974821806">
        <ele>171.72999999999999</ele>
        <time>2013-09-21T08:02:38Z</time>
      </trkpt>
      <trkpt lat="54.304576031863689" lon="27.238239990547299">
        <ele>168.37</ele>
        <time>2013-09-21T08:02:51Z</time>
      </trkpt>
      <trkpt lat="54.304585000500083" lon="27.238384997472167">
        <ele>167.88999999999999</ele>
        <time>2013-09-21T08:02:53Z</time>
      </trkpt>
      <trkpt lat="54.304678961634636" lon="27.239454025402665">
        <ele>167.88999999999999</ele>
        <time>2013-09-21T08:03:07Z</time>
      </trkpt>
      <trkpt lat="54.304762026295066" lon="27.240602010861039">
        <ele>165.96000000000001</ele>
        <time>2013-09-21T08:03:23Z</time>
      </trkpt>
      <trkpt lat="54.304773006588221" lon="27.241444978863001">
        <ele>165.47999999999999</ele>
        <time>2013-09-21T08:03:37Z</time>
      </trkpt>
      <trkpt lat="54.304864034056664" lon="27.242350978776813">
        <ele>167.41</ele>
        <time>2013-09-21T08:03:51Z</time>
      </trkpt>
      <trkpt lat="54.304902004078031" lon="27.243178021162748">
        <ele>166.44999999999999</ele>
        <time>2013-09-21T08:04:04Z</time>
      </trkpt>
      <trkpt lat="54.304992025718093" lon="27.244034986943007">
        <ele>167.41</ele>
        <time>2013-09-21T08:04:17Z</time>
      </trkpt>
      <trkpt lat="54.305169973522425" lon="27.244874015450478">
        <ele>174.62</ele>
        <time>2013-09-21T08:04:32Z</time>
      </trkpt>
      <trkpt lat="54.305196963250637" lon="27.24496403709054">
        <ele>177.02000000000001</ele>
        <time>2013-09-21T08:04:46Z</time>
      </trkpt>
      <trkpt lat="54.305196963250637" lon="27.244962025433779">
        <ele>176.53999999999999</ele>
        <time>2013-09-21T08:05:41Z</time>
      </trkpt>
      <trkpt lat="54.305195035412908" lon="27.244964959099889">
        <ele>176.53999999999999</ele>
        <time>2013-09-21T08:06:43Z</time>
      </trkpt>
      <trkpt lat="54.305195035412908" lon="27.244964959099889">
        <ele>176.53999999999999</ele>
        <time>2013-09-21T08:06:53Z</time>
      </trkpt>
      <trkpt lat="54.305214984342456" lon="27.244977029040456">
        <ele>176.53999999999999</ele>
        <time>2013-09-21T08:06:56Z</time>
      </trkpt>
      <trkpt lat="54.305184977129102" lon="27.244831016287208">
        <ele>177.02000000000001</ele>
        <time>2013-09-21T08:07:05Z</time>
      </trkpt>
      <trkpt lat="54.304862022399902" lon="27.244949033483863">
        <ele>174.62</ele>
        <time>2013-09-21T08:07:17Z</time>
      </trkpt>
      <trkpt lat="54.304249975830317" lon="27.244904022663832">
        <ele>173.66</ele>
        <time>2013-09-21T08:07:31Z</time>
      </trkpt>
      <trkpt lat="54.303577998653054" lon="27.244838979095221">
        <ele>174.62</ele>
        <time>2013-09-21T08:07:46Z</time>
      </trkpt>
      <trkpt lat="54.302980033680797" lon="27.244806038215756">
        <ele>176.06</ele>
        <time>2013-09-21T08:08:02Z</time>
      </trkpt>
      <trkpt lat="54.30292303673923" lon="27.244769996032119">
        <ele>176.53999999999999</ele>
        <time>2013-09-21T08:08:12Z</time>
      </trkpt>
      <trkpt lat="54.30292597040534" lon="27.244773013517261">
        <ele>175.58000000000001</ele>
        <time>2013-09-21T08:09:21Z</time>
      </trkpt>
      <trkpt lat="54.302956983447075" lon="27.244789022952318">
        <ele>176.06</ele>
        <time>2013-09-21T08:40:11Z</time>
      </trkpt>
      <trkpt lat="54.302938040345907" lon="27.244809977710247">
        <ele>178.94</ele>
        <time>2013-09-21T08:48:27Z</time>
      </trkpt>
      <trkpt lat="54.302962012588978" lon="27.244778964668512">
        <ele>177.97999999999999</ele>
        <time>2013-09-21T08:58:48Z</time>
      </trkpt>
      <trkpt lat="54.302949020639062" lon="27.244767984375358">
        <ele>177.5</ele>
        <time>2013-09-21T09:01:15Z</time>
      </trkpt>
      <trkpt lat="54.302950026467443" lon="27.24474904127419">
        <ele>176.53999999999999</ele>
        <time>2013-09-21T09:05:48Z</time>
      </trkpt>
      <trkpt lat="54.302951032295823" lon="27.244758009910583">
        <ele>177.02000000000001</ele>
        <time>2013-09-21T09:09:31Z</time>
      </trkpt>
      <trkpt lat="54.302909038960934" lon="27.244783993810415">
        <ele>178.94</ele>
        <time>2013-09-21T09:09:48Z</time>
      </trkpt>
      <trkpt lat="54.302722038701177" lon="27.244783993810415">
        <ele>179.41999999999999</ele>
        <time>2013-09-21T09:09:59Z</time>
      </trkpt>
      <trkpt lat="54.302340997382998" lon="27.244765972718596">
        <ele>179.41999999999999</ele>
        <time>2013-09-21T09:10:15Z</time>
      </trkpt>
      <trkpt lat="54.301942018792033" lon="27.244731020182371">
        <ele>179.90000000000001</ele>
        <time>2013-09-21T09:10:29Z</time>
      </trkpt>
      <trkpt lat="54.301467016339302" lon="27.244709981605411">
        <ele>179.41999999999999</ele>
        <time>2013-09-21T09:10:44Z</time>
      </trkpt>
      <trkpt lat="54.300925964489579" lon="27.244688021019101">
        <ele>179.90000000000001</ele>
        <time>2013-09-21T09:11:00Z</time>
      </trkpt>
      <trkpt lat="54.300350965932012" lon="27.24462297745049">
        <ele>177.97999999999999</ele>
        <time>2013-09-21T09:11:16Z</time>
      </trkpt>
      <trkpt lat="54.299653004854918" lon="27.244542008265853">
        <ele>175.58000000000001</ele>
        <time>2013-09-21T09:11:34Z</time>
      </trkpt>
      <trkpt lat="54.299011034891009" lon="27.244434971362352">
        <ele>176.06</ele>
        <time>2013-09-21T09:11:52Z</time>
      </trkpt>
      <trkpt lat="54.298331011086702" lon="27.244265992194414">
        <ele>177.02000000000001</ele>
        <time>2013-09-21T09:12:11Z</time>
      </trkpt>
      <trkpt lat="54.297719970345497" lon="27.244118973612785">
        <ele>177.5</ele>
        <time>2013-09-21T09:12:28Z</time>
      </trkpt>
      <trkpt lat="54.297093003988266" lon="27.243974972516298">
        <ele>177.5</ele>
        <time>2013-09-21T09:12:45Z</time>
      </trkpt>
      <trkpt lat="54.296541977673769" lon="27.243849998340011">
        <ele>176.53999999999999</ele>
        <time>2013-09-21T09:12:59Z</time>
      </trkpt>
      <trkpt lat="54.295851979404688" lon="27.243679007515311">
        <ele>176.06</ele>
        <time>2013-09-21T09:13:17Z</time>
      </trkpt>
      <trkpt lat="54.295236999168992" lon="27.243535006418824">
        <ele>175.58000000000001</ele>
        <time>2013-09-21T09:13:33Z</time>
      </trkpt>
      <trkpt lat="54.294919995591044" lon="27.243434004485607">
        <ele>174.13999999999999</ele>
        <time>2013-09-21T09:13:45Z</time>
      </trkpt>
      <trkpt lat="54.294557981193066" lon="27.243347000330687">
        <ele>174.13999999999999</ele>
        <time>2013-09-21T09:13:58Z</time>
      </trkpt>
      <trkpt lat="54.293910982087255" lon="27.243209034204483">
        <ele>173.16999999999999</ele>
        <time>2013-09-21T09:14:17Z</time>
      </trkpt>
      <trkpt lat="54.293331038206816" lon="27.24309403449297">
        <ele>175.09999999999999</ele>
        <time>2013-09-21T09:14:34Z</time>
      </trkpt>
      <trkpt lat="54.292877996340394" lon="27.243007030338049">
        <ele>175.09999999999999</ele>
        <time>2013-09-21T09:14:52Z</time>
      </trkpt>
      <trkpt lat="54.292752016335726" lon="27.242981968447566">
        <ele>175.09999999999999</ele>
        <time>2013-09-21T09:15:05Z</time>
      </trkpt>
      <trkpt lat="54.292750004678965" lon="27.242983980104327">
        <ele>175.09999999999999</ele>
        <time>2013-09-21T09:15:48Z</time>
      </trkpt>
      <trkpt lat="54.292747993022203" lon="27.242981968447566">
        <ele>175.09999999999999</ele>
        <time>2013-09-21T09:17:41Z</time>
      </trkpt>
      <trkpt lat="54.292548000812531" lon="27.242927988991141">
        <ele>175.09999999999999</ele>
        <time>2013-09-21T09:17:52Z</time>
      </trkpt>
      <trkpt lat="54.292115997523069" lon="27.242847019806504">
        <ele>175.58000000000001</ele>
        <time>2013-09-21T09:18:07Z</time>
      </trkpt>
      <trkpt lat="54.291562037542462" lon="27.242720033973455">
        <ele>176.53999999999999</ele>
        <time>2013-09-21T09:18:24Z</time>
      </trkpt>
      <trkpt lat="54.290944039821625" lon="27.242549965158105">
        <ele>173.66</ele>
        <time>2013-09-21T09:18:41Z</time>
      </trkpt>
      <trkpt lat="54.290255969390273" lon="27.242382997646928">
        <ele>175.09999999999999</ele>
        <time>2013-09-21T09:18:59Z</time>
      </trkpt>
      <trkpt lat="54.289651969447732" lon="27.242232039570808">
        <ele>175.09999999999999</ele>
        <time>2013-09-21T09:19:15Z</time>
      </trkpt>
      <trkpt lat="54.289080994203687" lon="27.242076974362135">
        <ele>173.66</ele>
        <time>2013-09-21T09:19:31Z</time>
      </trkpt>
      <trkpt lat="54.288552012294531" lon="27.24193699657917">
        <ele>173.66</ele>
        <time>2013-09-21T09:19:45Z</time>
      </trkpt>
      <trkpt lat="54.287929991260171" lon="27.241795007139444">
        <ele>173.16999999999999</ele>
        <time>2013-09-21T09:20:01Z</time>
      </trkpt>
      <trkpt lat="54.287204034626484" lon="27.24161303602159">
        <ele>172.69</ele>
        <time>2013-09-21T09:20:19Z</time>
      </trkpt>
      <trkpt lat="54.286635993048549" lon="27.241476997733116">
        <ele>174.13999999999999</ele>
        <time>2013-09-21T09:20:34Z</time>
      </trkpt>
      <trkpt lat="54.286016989499331" lon="27.241324028000236">
        <ele>173.66</ele>
        <time>2013-09-21T09:20:50Z</time>
      </trkpt>
      <trkpt lat="54.285461017861962" lon="27.241177009418607">
        <ele>171.72999999999999</ele>
        <time>2013-09-21T09:21:04Z</time>
      </trkpt>
      <trkpt lat="54.284713016822934" lon="27.241005012765527">
        <ele>173.66</ele>
        <time>2013-09-21T09:21:23Z</time>
      </trkpt>
      <trkpt lat="54.283997034654021" lon="27.240832010284066">
        <ele>174.13999999999999</ele>
        <time>2013-09-21T09:21:41Z</time>
      </trkpt>
      <trkpt lat="54.283483978360891" lon="27.240722039714456">
        <ele>175.58000000000001</ele>
        <time>2013-09-21T09:21:54Z</time>
      </trkpt>
      <trkpt lat="54.282982992008328" lon="27.240597987547517">
        <ele>176.06</ele>
        <time>2013-09-21T09:22:07Z</time>
      </trkpt>
      <trkpt lat="54.282162990421057" lon="27.240403024479747">
        <ele>176.53999999999999</ele>
        <time>2013-09-21T09:22:27Z</time>
      </trkpt>
      <trkpt lat="54.281464023515582" lon="27.240207977592945">
        <ele>175.09999999999999</ele>
        <time>2013-09-21T09:22:44Z</time>
      </trkpt>
      <trkpt lat="54.280732031911612" lon="27.240028018131852">
        <ele>173.16999999999999</ele>
        <time>2013-09-21T09:23:02Z</time>
      </trkpt>
      <trkpt lat="54.280495997518301" lon="27.239977978169918">
        <ele>174.13999999999999</ele>
        <time>2013-09-21T09:23:08Z</time>
      </trkpt>
      <trkpt lat="54.279809016734362" lon="27.239816961809993">
        <ele>172.69</ele>
        <time>2013-09-21T09:23:25Z</time>
      </trkpt>
      <trkpt lat="54.279153971001506" lon="27.23963800817728">
        <ele>167.41</ele>
        <time>2013-09-21T09:23:41Z</time>
      </trkpt>
      <trkpt lat="54.278461039066315" lon="27.239482020959258">
        <ele>167.88999999999999</ele>
        <time>2013-09-21T09:23:58Z</time>
      </trkpt>
      <trkpt lat="54.27778696641326" lon="27.23931304179132">
        <ele>167.88999999999999</ele>
        <time>2013-09-21T09:24:15Z</time>
      </trkpt>
      <trkpt lat="54.277280028909445" lon="27.23916401155293">
        <ele>167.88999999999999</ele>
        <time>2013-09-21T09:24:28Z</time>
      </trkpt>
      <trkpt lat="54.27671299315989" lon="27.23901498131454">
        <ele>169.81</ele>
        <time>2013-09-21T09:24:43Z</time>
      </trkpt>
      <trkpt lat="54.276356007903814" lon="27.238924959674478">
        <ele>170.77000000000001</ele>
        <time>2013-09-21T09:24:52Z</time>
      </trkpt>
      <trkpt lat="54.275575987994671" lon="27.238721027970314">
        <ele>172.69</ele>
        <time>2013-09-21T09:25:11Z</time>
      </trkpt>
      <trkpt lat="54.274783981963992" lon="27.238488011062145">
        <ele>173.16999999999999</ele>
        <time>2013-09-21T09:25:31Z</time>
      </trkpt>
      <trkpt lat="54.274033969268203" lon="27.238265974447131">
        <ele>171.72999999999999</ele>
        <time>2013-09-21T09:25:49Z</time>
      </trkpt>
      <trkpt lat="54.273374984040856" lon="27.238071011379361">
        <ele>172.69</ele>
        <time>2013-09-21T09:26:05Z</time>
      </trkpt>
      <trkpt lat="54.272632012143731" lon="27.237852998077869">
        <ele>172.21000000000001</ele>
        <time>2013-09-21T09:26:23Z</time>
      </trkpt>
      <trkpt lat="54.271860960870981" lon="27.237631967291236">
        <ele>173.66</ele>
        <time>2013-09-21T09:26:42Z</time>
      </trkpt>
      <trkpt lat="54.271227959543467" lon="27.237445972859859">
        <ele>173.16999999999999</ele>
        <time>2013-09-21T09:26:57Z</time>
      </trkpt>
      <trkpt lat="54.270532010123134" lon="27.237245980650187">
        <ele>173.66</ele>
        <time>2013-09-21T09:27:14Z</time>
      </trkpt>
      <trkpt lat="54.269807981327176" lon="27.237013969570398">
        <ele>171.25</ele>
        <time>2013-09-21T09:27:32Z</time>
      </trkpt>
      <trkpt lat="54.269163999706507" lon="27.236828980967402">
        <ele>171.72999999999999</ele>
        <time>2013-09-21T09:27:48Z</time>
      </trkpt>
      <trkpt lat="54.268520018085837" lon="27.236639969050884">
        <ele>173.16999999999999</ele>
        <time>2013-09-21T09:28:04Z</time>
      </trkpt>
      <trkpt lat="54.267963040620089" lon="27.236475013196468">
        <ele>173.66</ele>
        <time>2013-09-21T09:28:18Z</time>
      </trkpt>
      <trkpt lat="54.267155025154352" lon="27.236235961318016">
        <ele>174.13999999999999</ele>
        <time>2013-09-21T09:28:38Z</time>
      </trkpt>
      <trkpt lat="54.266579020768404" lon="27.236066982150078">
        <ele>174.13999999999999</ele>
        <time>2013-09-21T09:28:52Z</time>
      </trkpt>
      <trkpt lat="54.265919029712677" lon="27.235864978283644">
        <ele>173.16999999999999</ele>
        <time>2013-09-21T09:29:08Z</time>
      </trkpt>
      <trkpt lat="54.265126017853618" lon="27.235665991902351">
        <ele>172.21000000000001</ele>
        <time>2013-09-21T09:29:28Z</time>
      </trkpt>
      <trkpt lat="54.264411041513085" lon="27.235757019370794">
        <ele>172.69</ele>
        <time>2013-09-21T09:29:46Z</time>
      </trkpt>
      <trkpt lat="54.264017008244991" lon="27.23583203740418">
        <ele>174.62</ele>
        <time>2013-09-21T09:29:59Z</time>
      </trkpt>
      <trkpt lat="54.263933021575212" lon="27.235745033249259">
        <ele>176.53999999999999</ele>
        <time>2013-09-21T09:30:11Z</time>
      </trkpt>
      <trkpt lat="54.263907037675381" lon="27.235725000500679">
        <ele>177.5</ele>
        <time>2013-09-21T09:30:14Z</time>
      </trkpt>
      <trkpt lat="54.26386596634984" lon="27.235719971358776">
        <ele>178.46000000000001</ele>
        <time>2013-09-21T09:30:18Z</time>
      </trkpt>
      <trkpt lat="54.263792959973216" lon="27.235539006069303">
        <ele>178.94</ele>
        <time>2013-09-21T09:30:32Z</time>
      </trkpt>
      <trkpt lat="54.263760019093752" lon="27.235559038817883">
        <ele>179.90000000000001</ele>
        <time>2013-09-21T09:30:47Z</time>
      </trkpt>
      <trkpt lat="54.263760019093752" lon="27.23557697609067">
        <ele>179.90000000000001</ele>
        <time>2013-09-21T09:30:59Z</time>
      </trkpt>
      <trkpt lat="54.263753984123468" lon="27.235752996057272">
        <ele>180.38</ele>
        <time>2013-09-21T09:31:16Z</time>
      </trkpt>
      <trkpt lat="54.263767981901765" lon="27.235781997442245">
        <ele>179.90000000000001</ele>
        <time>2013-09-21T09:31:23Z</time>
      </trkpt>
      <trkpt lat="54.263794971629977" lon="27.236044015735388">
        <ele>180.38</ele>
        <time>2013-09-21T09:31:40Z</time>
      </trkpt>
      <trkpt lat="54.263794971629977" lon="27.236044015735388">
        <ele>180.38</ele>
        <time>2013-09-21T09:31:54Z</time>
      </trkpt>
      <trkpt lat="54.263796983286738" lon="27.236005961894989">
        <ele>180.38</ele>
        <time>2013-09-21T09:32:04Z</time>
      </trkpt>
      <trkpt lat="54.263797989115119" lon="27.235975032672286">
        <ele>179.90000000000001</ele>
        <time>2013-09-21T09:32:06Z</time>
      </trkpt>
      <trkpt lat="54.263759013265371" lon="27.235477985814214">
        <ele>177.97999999999999</ele>
        <time>2013-09-21T09:32:20Z</time>
      </trkpt>
      <trkpt lat="54.26377703435719" lon="27.235176991671324">
        <ele>176.06</ele>
        <time>2013-09-21T09:32:28Z</time>
      </trkpt>
      <trkpt lat="54.26375599578023" lon="27.235141033306718">
        <ele>174.62</ele>
        <time>2013-09-21T09:32:34Z</time>
      </trkpt>
      <trkpt lat="54.263748032972217" lon="27.23506199195981">
        <ele>171.72999999999999</ele>
        <time>2013-09-21T09:32:48Z</time>
      </trkpt>
      <trkpt lat="54.263743003830314" lon="27.235062997788191">
        <ele>171.72999999999999</ele>
        <time>2013-09-21T09:33:40Z</time>
      </trkpt>
      <trkpt lat="54.263633033260703" lon="27.234999965876341">
        <ele>172.69</ele>
        <time>2013-09-21T09:33:45Z</time>
      </trkpt>
      <trkpt lat="54.263301026076078" lon="27.235040031373501">
        <ele>172.21000000000001</ele>
        <time>2013-09-21T09:33:59Z</time>
      </trkpt>
      <trkpt lat="54.263259032741189" lon="27.235024021938443">
        <ele>170.28999999999999</ele>
        <time>2013-09-21T09:34:09Z</time>
      </trkpt>
      <trkpt lat="54.263213016092777" lon="27.235003989189863">
        <ele>171.25</ele>
        <time>2013-09-21T09:34:22Z</time>
      </trkpt>
      <trkpt lat="54.263212010264397" lon="27.234998038038611">
        <ele>170.77000000000001</ele>
        <time>2013-09-21T09:37:57Z</time>
      </trkpt>
      <trkpt lat="54.263209998607635" lon="27.235019998624921">
        <ele>172.21000000000001</ele>
        <time>2013-09-21T09:39:56Z</time>
      </trkpt>
      <trkpt lat="54.263209998607635" lon="27.235019998624921">
        <ele>172.21000000000001</ele>
        <time>2013-09-21T09:40:25Z</time>
      </trkpt>
      <trkpt lat="54.263204969465733" lon="27.235054029151797">
        <ele>176.53999999999999</ele>
        <time>2013-09-21T09:40:45Z</time>
      </trkpt>
      <trkpt lat="54.263199018314481" lon="27.235055034980178">
        <ele>177.5</ele>
        <time>2013-09-21T09:41:16Z</time>
      </trkpt>
      <trkpt lat="54.262901963666081" lon="27.23516802303493">
        <ele>179.41999999999999</ele>
        <time>2013-09-21T09:41:29Z</time>
      </trkpt>
      <trkpt lat="54.26263902336359" lon="27.235204987227917">
        <ele>179.41999999999999</ele>
        <time>2013-09-21T09:41:39Z</time>
      </trkpt>
      <trkpt lat="54.262269968166947" lon="27.235370026901364">
        <ele>183.27000000000001</ele>
        <time>2013-09-21T09:41:52Z</time>
      </trkpt>
      <trkpt lat="54.261912982910872" lon="27.235570019111037">
        <ele>185.19</ele>
        <time>2013-09-21T09:42:04Z</time>
      </trkpt>
      <trkpt lat="54.261636966839433" lon="27.235810998827219">
        <ele>183.27000000000001</ele>
        <time>2013-09-21T09:42:14Z</time>
      </trkpt>
      <trkpt lat="54.26128501072526" lon="27.236097995191813">
        <ele>180.87</ele>
        <time>2013-09-21T09:42:26Z</time>
      </trkpt>
      <trkpt lat="54.260943029075861" lon="27.236294969916344">
        <ele>178.94</ele>
        <time>2013-09-21T09:42:38Z</time>
      </trkpt>
      <trkpt lat="54.260518988594413" lon="27.236381974071264">
        <ele>177.97999999999999</ele>
        <time>2013-09-21T09:42:52Z</time>
      </trkpt>
      <trkpt lat="54.260010039433837" lon="27.2365009970963">
        <ele>177.5</ele>
        <time>2013-09-21T09:43:09Z</time>
      </trkpt>
      <trkpt lat="54.259521039202809" lon="27.236622031778097">
        <ele>176.53999999999999</ele>
        <time>2013-09-21T09:43:24Z</time>
      </trkpt>
      <trkpt lat="54.259053999558091" lon="27.236732002347708">
        <ele>173.16999999999999</ele>
        <time>2013-09-21T09:43:37Z</time>
      </trkpt>
      <trkpt lat="54.258643034845591" lon="27.236839039251208">
        <ele>172.69</ele>
        <time>2013-09-21T09:43:49Z</time>
      </trkpt>
      <trkpt lat="54.258120004087687" lon="27.236955966800451">
        <ele>176.06</ele>
        <time>2013-09-21T09:44:05Z</time>
      </trkpt>
      <trkpt lat="54.257766036316752" lon="27.237068032845855">
        <ele>176.53999999999999</ele>
        <time>2013-09-21T09:44:18Z</time>
      </trkpt>
      <trkpt lat="54.25765598192811" lon="27.237141961231828">
        <ele>177.02000000000001</ele>
        <time>2013-09-21T09:44:29Z</time>
      </trkpt>
      <trkpt lat="54.257405027747154" lon="27.237299038097262">
        <ele>178.94</ele>
        <time>2013-09-21T09:44:48Z</time>
      </trkpt>
      <trkpt lat="54.257171005010605" lon="27.237314041703939">
        <ele>179.41999999999999</ele>
        <time>2013-09-21T09:45:08Z</time>
      </trkpt>
      <trkpt lat="54.256905969232321" lon="27.237375983968377">
        <ele>178.46000000000001</ele>
        <time>2013-09-21T09:45:18Z</time>
      </trkpt>
      <trkpt lat="54.256785018369555" lon="27.237429041415453">
        <ele>177.97999999999999</ele>
        <time>2013-09-21T09:45:23Z</time>
      </trkpt>
      <trkpt lat="54.256648980081081" lon="27.23733801394701">
        <ele>176.53999999999999</ele>
        <time>2013-09-21T09:45:28Z</time>
      </trkpt>
      <trkpt lat="54.256429960951209" lon="27.237112037837505">
        <ele>176.53999999999999</ele>
        <time>2013-09-21T09:45:36Z</time>
      </trkpt>
      <trkpt lat="54.256314961239696" lon="27.237213039770722">
        <ele>175.58000000000001</ele>
        <time>2013-09-21T09:45:41Z</time>
      </trkpt>
      <trkpt lat="54.256294006481767" lon="27.237309012562037">
        <ele>175.58000000000001</ele>
        <time>2013-09-21T09:45:43Z</time>
      </trkpt>
      <trkpt lat="54.256026959046721" lon="27.237505987286568">
        <ele>174.62</ele>
        <time>2013-09-21T09:45:54Z</time>
      </trkpt>
      <trkpt lat="54.255730994045734" lon="27.237471034750342">
        <ele>176.53999999999999</ele>
        <time>2013-09-21T09:46:08Z</time>
      </trkpt>
      <trkpt lat="54.255599984899163" lon="27.237461982294917">
        <ele>177.02000000000001</ele>
        <time>2013-09-21T09:46:14Z</time>
      </trkpt>
      <trkpt lat="54.255620017647743" lon="27.237678989768028">
        <ele>177.02000000000001</ele>
        <time>2013-09-21T09:46:21Z</time>
      </trkpt>
      <trkpt lat="54.255622029304504" lon="27.237777980044484">
        <ele>177.5</ele>
        <time>2013-09-21T09:46:35Z</time>
      </trkpt>
      <trkpt lat="54.255622029304504" lon="27.237778985872865">
        <ele>177.97999999999999</ele>
        <time>2013-09-21T09:46:43Z</time>
      </trkpt>
      <trkpt lat="54.255676008760929" lon="27.237697010859847">
        <ele>177.97999999999999</ele>
        <time>2013-09-21T09:46:49Z</time>
      </trkpt>
      <trkpt lat="54.255772987380624" lon="27.237753001973033">
        <ele>177.97999999999999</ele>
        <time>2013-09-21T09:46:54Z</time>
      </trkpt>
      <trkpt lat="54.255809029564261" lon="27.237821985036135">
        <ele>178.46000000000001</ele>
        <time>2013-09-21T09:46:57Z</time>
      </trkpt>
      <trkpt lat="54.255884969606996" lon="27.238291036337614">
        <ele>178.46000000000001</ele>
        <time>2013-09-21T09:47:10Z</time>
      </trkpt>
      <trkpt lat="54.255765024572611" lon="27.238639974966645">
        <ele>178.94</ele>
        <time>2013-09-21T09:47:23Z</time>
      </trkpt>
      <trkpt lat="54.255670979619026" lon="27.238732008263469">
        <ele>178.46000000000001</ele>
        <time>2013-09-21T09:47:49Z</time>
      </trkpt>
      <trkpt lat="54.255427988246083" lon="27.238984974101186">
        <ele>178.94</ele>
        <time>2013-09-21T09:48:00Z</time>
      </trkpt>
      <trkpt lat="54.255148032680154" lon="27.23957497626543">
        <ele>178.46000000000001</ele>
        <time>2013-09-21T09:48:17Z</time>
      </trkpt>
      <trkpt lat="54.255034038797021" lon="27.239736998453736">
        <ele>177.97999999999999</ele>
        <time>2013-09-21T09:48:29Z</time>
      </trkpt>
      <trkpt lat="54.254994979128242" lon="27.23978703841567">
        <ele>178.94</ele>
        <time>2013-09-21T09:48:45Z</time>
      </trkpt>
      <trkpt lat="54.254922978579998" lon="27.239795001223683">
        <ele>179.90000000000001</ele>
        <time>2013-09-21T09:48:59Z</time>
      </trkpt>
      <trkpt lat="54.254694990813732" lon="27.239834982901812">
        <ele>179.90000000000001</ele>
        <time>2013-09-21T09:49:11Z</time>
      </trkpt>
      <trkpt lat="54.254246978089213" lon="27.239868007600307">
        <ele>177.02000000000001</ele>
        <time>2013-09-21T09:49:23Z</time>
      </trkpt>
      <trkpt lat="54.253898039460182" lon="27.239984013140202">
        <ele>176.53999999999999</ele>
        <time>2013-09-21T09:49:31Z</time>
      </trkpt>
      <trkpt lat="54.25357399508357" lon="27.240072023123503">
        <ele>176.06</ele>
        <time>2013-09-21T09:49:38Z</time>
      </trkpt>
      <trkpt lat="54.253084994852543" lon="27.240167995914817">
        <ele>174.62</ele>
        <time>2013-09-21T09:49:51Z</time>
      </trkpt>
      <trkpt lat="54.252621978521347" lon="27.240280983969569">
        <ele>172.69</ele>
        <time>2013-09-21T09:50:02Z</time>
      </trkpt>
      <trkpt lat="54.252014039084315" lon="27.240352984517813">
        <ele>171.25</ele>
        <time>2013-09-21T09:50:16Z</time>
      </trkpt>
      <trkpt lat="54.251232007518411" lon="27.240481982007623">
        <ele>175.58000000000001</ele>
        <time>2013-09-21T09:50:34Z</time>
      </trkpt>
      <trkpt lat="54.25049901008606" lon="27.240807032212615">
        <ele>176.53999999999999</ele>
        <time>2013-09-21T09:50:50Z</time>
      </trkpt>
      <trkpt lat="54.249785961583257" lon="27.240995960310102">
        <ele>177.97999999999999</ele>
        <time>2013-09-21T09:51:07Z</time>
      </trkpt>
      <trkpt lat="54.249487984925508" lon="27.24107600748539">
        <ele>177.5</ele>
        <time>2013-09-21T09:51:15Z</time>
      </trkpt>
      <trkpt lat="54.249090012162924" lon="27.241170974448323">
        <ele>177.02000000000001</ele>
        <time>2013-09-21T09:51:26Z</time>
      </trkpt>
      <trkpt lat="54.248750964179635" lon="27.241251021623611">
        <ele>177.97999999999999</ele>
        <time>2013-09-21T09:51:37Z</time>
      </trkpt>
      <trkpt lat="54.248519958928227" lon="27.241318998858333">
        <ele>177.02000000000001</ele>
        <time>2013-09-21T09:51:44Z</time>
      </trkpt>
      <trkpt lat="54.248350979760289" lon="27.241369960829616">
        <ele>176.53999999999999</ele>
        <time>2013-09-21T09:51:49Z</time>
      </trkpt>
      <trkpt lat="54.248208990320563" lon="27.241393011063337">
        <ele>176.06</ele>
        <time>2013-09-21T09:51:53Z</time>
      </trkpt>
      <trkpt lat="54.247847981750965" lon="27.241459982469678">
        <ele>175.58000000000001</ele>
        <time>2013-09-21T09:52:04Z</time>
      </trkpt>
      <trkpt lat="54.247420001775026" lon="27.241652011871338">
        <ele>175.09999999999999</ele>
        <time>2013-09-21T09:52:16Z</time>
      </trkpt>
      <trkpt lat="54.247076008468866" lon="27.241801964119077">
        <ele>176.53999999999999</ele>
        <time>2013-09-21T09:52:27Z</time>
      </trkpt>
      <trkpt lat="54.246644005179405" lon="27.242090972140431">
        <ele>177.5</ele>
        <time>2013-09-21T09:52:40Z</time>
      </trkpt>
      <trkpt lat="54.246405959129333" lon="27.242251988500357">
        <ele>173.16999999999999</ele>
        <time>2013-09-21T09:52:51Z</time>
      </trkpt>
      <trkpt lat="54.246362037956715" lon="27.242293981835246">
        <ele>172.69</ele>
        <time>2013-09-21T09:52:53Z</time>
      </trkpt>
      <trkpt lat="54.246252989396453" lon="27.242349972948432">
        <ele>168.84999999999999</ele>
        <time>2013-09-21T09:53:01Z</time>
      </trkpt>
      <trkpt lat="54.246103037148714" lon="27.242509983479977">
        <ele>172.21000000000001</ele>
        <time>2013-09-21T09:53:13Z</time>
      </trkpt>
      <trkpt lat="54.246070012450218" lon="27.242536973208189">
        <ele>173.66</ele>
        <time>2013-09-21T09:53:18Z</time>
      </trkpt>
      <trkpt lat="54.246013015508652" lon="27.242592964321375">
        <ele>174.62</ele>
        <time>2013-09-21T09:53:22Z</time>
      </trkpt>
      <trkpt lat="54.245725013315678" lon="27.242873003706336">
        <ele>176.53999999999999</ele>
        <time>2013-09-21T09:53:35Z</time>
      </trkpt>
      <trkpt lat="54.245457965880632" lon="27.243128987029195">
        <ele>174.62</ele>
        <time>2013-09-21T09:53:47Z</time>
      </trkpt>
      <trkpt lat="54.245115984231234" lon="27.243467029184103">
        <ele>174.13999999999999</ele>
        <time>2013-09-21T09:54:01Z</time>
      </trkpt>
      <trkpt lat="54.24469898454845" lon="27.243930967524648">
        <ele>175.58000000000001</ele>
        <time>2013-09-21T09:54:16Z</time>
      </trkpt>
      <trkpt lat="54.244664032012224" lon="27.243963992223144">
        <ele>175.58000000000001</ele>
        <time>2013-09-21T09:54:17Z</time>
      </trkpt>
      <trkpt lat="54.244123985990882" lon="27.244588024914265">
        <ele>174.13999999999999</ele>
        <time>2013-09-21T09:54:32Z</time>
      </trkpt>
      <trkpt lat="54.243782004341483" lon="27.244933024048805">
        <ele>173.16999999999999</ele>
        <time>2013-09-21T09:54:41Z</time>
      </trkpt>
      <trkpt lat="54.24349601380527" lon="27.24522496573627">
        <ele>174.13999999999999</ele>
        <time>2013-09-21T09:54:49Z</time>
      </trkpt>
      <trkpt lat="54.242884973064065" lon="27.24578202702105">
        <ele>176.06</ele>
        <time>2013-09-21T09:55:05Z</time>
      </trkpt>
      <trkpt lat="54.242511978372931" lon="27.246049996465445">
        <ele>176.06</ele>
        <time>2013-09-21T09:55:14Z</time>
      </trkpt>
      <trkpt lat="54.242117023095489" lon="27.24634001031518">
        <ele>176.06</ele>
        <time>2013-09-21T09:55:24Z</time>
      </trkpt>
      <trkpt lat="54.241961035877466" lon="27.246473031118512">
        <ele>175.58000000000001</ele>
        <time>2013-09-21T09:55:28Z</time>
      </trkpt>
      <trkpt lat="54.241786021739244" lon="27.246594987809658">
        <ele>173.66</ele>
        <time>2013-09-21T09:55:32Z</time>
      </trkpt>
      <trkpt lat="54.241185039281845" lon="27.247032020241022">
        <ele>162.12</ele>
        <time>2013-09-21T09:55:46Z</time>
      </trkpt>
      <trkpt lat="54.241145979613066" lon="27.247053980827332">
        <ele>161.63999999999999</ele>
        <time>2013-09-21T09:55:47Z</time>
      </trkpt>
      <trkpt lat="54.240996027365327" lon="27.247165041044354">
        <ele>157.78999999999999</ele>
        <time>2013-09-21T09:55:51Z</time>
      </trkpt>
      <trkpt lat="54.240835011005402" lon="27.247251961380243">
        <ele>158.75</ele>
        <time>2013-09-21T09:55:55Z</time>
      </trkpt>
      <trkpt lat="54.240705007687211" lon="27.247271994128823">
        <ele>157.78999999999999</ele>
        <time>2013-09-21T09:55:58Z</time>
      </trkpt>
      <trkpt lat="54.24023101106286" lon="27.247810028493404">
        <ele>154.43000000000001</ele>
        <time>2013-09-21T09:56:12Z</time>
      </trkpt>
      <trkpt lat="54.239790039137006" lon="27.248219987377524">
        <ele>158.27000000000001</ele>
        <time>2013-09-21T09:56:25Z</time>
      </trkpt>
      <trkpt lat="54.23971401527524" lon="27.24829601123929">
        <ele>159.24000000000001</ele>
        <time>2013-09-21T09:56:27Z</time>
      </trkpt>
      <trkpt lat="54.239186961203814" lon="27.248985003679991">
        <ele>166.44999999999999</ele>
        <time>2013-09-21T09:56:41Z</time>
      </trkpt>
      <trkpt lat="54.238773984834552" lon="27.2494559828192">
        <ele>170.28999999999999</ele>
        <time>2013-09-21T09:56:52Z</time>
      </trkpt>
      <trkpt lat="54.238542979583144" lon="27.249664021655917">
        <ele>170.77000000000001</ele>
        <time>2013-09-21T09:56:58Z</time>
      </trkpt>
      <trkpt lat="54.23816797323525" lon="27.249997034668922">
        <ele>171.72999999999999</ele>
        <time>2013-09-21T09:57:08Z</time>
      </trkpt>
      <trkpt lat="54.237761031836271" lon="27.250401964411139">
        <ele>175.58000000000001</ele>
        <time>2013-09-21T09:57:22Z</time>
      </trkpt>
      <trkpt lat="54.237747034057975" lon="27.250413028523326">
        <ele>176.06</ele>
        <time>2013-09-21T09:57:23Z</time>
      </trkpt>
      <trkpt lat="54.237717026844621" lon="27.250387966632843">
        <ele>178.46000000000001</ele>
        <time>2013-09-21T09:57:29Z</time>
      </trkpt>
      <trkpt lat="54.237719038501382" lon="27.250300040468574">
        <ele>178.94</ele>
        <time>2013-09-21T09:57:34Z</time>
      </trkpt>
      <trkpt lat="54.237799001857638" lon="27.250105999410152">
        <ele>179.41999999999999</ele>
        <time>2013-09-21T09:57:46Z</time>
      </trkpt>
      <trkpt lat="54.237822974100709" lon="27.250056965276599">
        <ele>179.41999999999999</ele>
        <time>2013-09-21T09:58:04Z</time>
      </trkpt>
      <trkpt lat="54.237829009070992" lon="27.250069035217166">
        <ele>178.94</ele>
        <time>2013-09-21T10:00:25Z</time>
      </trkpt>
      <trkpt lat="54.237819034606218" lon="27.250098036602139">
        <ele>177.5</ele>
        <time>2013-09-21T10:00:29Z</time>
      </trkpt>
      <trkpt lat="54.237742004916072" lon="27.250219993293285">
        <ele>177.97999999999999</ele>
        <time>2013-09-21T10:00:37Z</time>
      </trkpt>
      <trkpt lat="54.237678973004222" lon="27.250429037958384">
        <ele>177.02000000000001</ele>
        <time>2013-09-21T10:00:48Z</time>
      </trkpt>
      <trkpt lat="54.237344032153487" lon="27.250831034034491">
        <ele>177.5</ele>
        <time>2013-09-21T10:00:59Z</time>
      </trkpt>
      <trkpt lat="54.23711696639657" lon="27.251019962131977">
        <ele>177.5</ele>
        <time>2013-09-21T10:01:10Z</time>
      </trkpt>
      <trkpt lat="54.23705100081861" lon="27.251111995428801">
        <ele>177.5</ele>
        <time>2013-09-21T10:01:16Z</time>
      </trkpt>
      <trkpt lat="54.236962990835309" lon="27.251216014847159">
        <ele>177.02000000000001</ele>
        <time>2013-09-21T10:01:22Z</time>
      </trkpt>
      <trkpt lat="54.236614974215627" lon="27.251585992053151">
        <ele>177.02000000000001</ele>
        <time>2013-09-21T10:01:33Z</time>
      </trkpt>
      <trkpt lat="54.236138965934515" lon="27.251976002007723">
        <ele>174.13999999999999</ele>
        <time>2013-09-21T10:01:47Z</time>
      </trkpt>
      <trkpt lat="54.235812993720174" lon="27.25222997367382">
        <ele>169.81</ele>
        <time>2013-09-21T10:01:58Z</time>
      </trkpt>
      <trkpt lat="54.235485009849072" lon="27.252430971711874">
        <ele>166.44999999999999</ele>
        <time>2013-09-21T10:02:07Z</time>
      </trkpt>
      <trkpt lat="54.235001038759947" lon="27.25296095944941">
        <ele>169.81</ele>
        <time>2013-09-21T10:02:21Z</time>
      </trkpt>
      <trkpt lat="54.234639024361968" lon="27.25323798134923">
        <ele>171.25</ele>
        <time>2013-09-21T10:02:30Z</time>
      </trkpt>
      <trkpt lat="54.234449006617069" lon="27.253383994102478">
        <ele>171.25</ele>
        <time>2013-09-21T10:02:35Z</time>
      </trkpt>
      <trkpt lat="54.234013985842466" lon="27.253841981291771">
        <ele>173.16999999999999</ele>
        <time>2013-09-21T10:02:47Z</time>
      </trkpt>
      <trkpt lat="54.233644008636475" lon="27.254245989024639">
        <ele>176.53999999999999</ele>
        <time>2013-09-21T10:02:59Z</time>
      </trkpt>
      <trkpt lat="54.233494978398085" lon="27.254448998719454">
        <ele>178.94</ele>
        <time>2013-09-21T10:03:03Z</time>
      </trkpt>
      <trkpt lat="54.232946969568729" lon="27.25499901920557">
        <ele>182.78999999999999</ele>
        <time>2013-09-21T10:03:18Z</time>
      </trkpt>
      <trkpt lat="54.232564000412822" lon="27.255402021110058">
        <ele>185.66999999999999</ele>
        <time>2013-09-21T10:03:31Z</time>
      </trkpt>
      <trkpt lat="54.232110036537051" lon="27.255825977772474">
        <ele>184.22999999999999</ele>
        <time>2013-09-21T10:03:44Z</time>
      </trkpt>
      <trkpt lat="54.231755984947085" lon="27.256128983572125">
        <ele>184.22999999999999</ele>
        <time>2013-09-21T10:03:55Z</time>
      </trkpt>
      <trkpt lat="54.231450967490673" lon="27.256412962451577">
        <ele>182.78999999999999</ele>
        <time>2013-09-21T10:04:04Z</time>
      </trkpt>
      <trkpt lat="54.231274025514722" lon="27.256576996296644">
        <ele>183.27000000000001</ele>
        <time>2013-09-21T10:04:15Z</time>
      </trkpt>
      <trkpt lat="54.231278970837593" lon="27.256580013781786">
        <ele>182.78999999999999</ele>
        <time>2013-09-21T10:04:34Z</time>
      </trkpt>
      <trkpt lat="54.231075961142778" lon="27.256777994334698">
        <ele>182.31</ele>
        <time>2013-09-21T10:05:21Z</time>
      </trkpt>
      <trkpt lat="54.230609005317092" lon="27.25712601095438">
        <ele>181.34999999999999</ele>
        <time>2013-09-21T10:05:34Z</time>
      </trkpt>
      <trkpt lat="54.230573968961835" lon="27.257149983197451">
        <ele>181.34999999999999</ele>
        <time>2013-09-21T10:05:35Z</time>
      </trkpt>
      <trkpt lat="54.23006703145802" lon="27.257508980110288">
        <ele>180.38</ele>
        <time>2013-09-21T10:05:48Z</time>
      </trkpt>
      <trkpt lat="54.229525979608297" lon="27.257839981466532">
        <ele>180.87</ele>
        <time>2013-09-21T10:06:02Z</time>
      </trkpt>
      <trkpt lat="54.22948700375855" lon="27.25785699672997">
        <ele>180.87</ele>
        <time>2013-09-21T10:06:03Z</time>
      </trkpt>
      <trkpt lat="54.22897201962769" lon="27.258176011964679">
        <ele>180.38</ele>
        <time>2013-09-21T10:06:17Z</time>
      </trkpt>
      <trkpt lat="54.2284120246768" lon="27.258439036086202">
        <ele>180.87</ele>
        <time>2013-09-21T10:06:32Z</time>
      </trkpt>
      <trkpt lat="54.228187976405025" lon="27.258517993614078">
        <ele>180.38</ele>
        <time>2013-09-21T10:06:38Z</time>
      </trkpt>
      <trkpt lat="54.22802796587348" lon="27.258602986112237">
        <ele>180.87</ele>
        <time>2013-09-21T10:06:42Z</time>
      </trkpt>
      <trkpt lat="54.227700987830758" lon="27.258797027170658">
        <ele>180.38</ele>
        <time>2013-09-21T10:06:51Z</time>
      </trkpt>
      <trkpt lat="54.227521028369665" lon="27.258885959163308">
        <ele>181.34999999999999</ele>
        <time>2013-09-21T10:06:56Z</time>
      </trkpt>
      <trkpt lat="54.227312989532948" lon="27.258989978581667">
        <ele>179.41999999999999</ele>
        <time>2013-09-21T10:07:01Z</time>
      </trkpt>
      <trkpt lat="54.227005960419774" lon="27.259185025468469">
        <ele>175.09999999999999</ele>
        <time>2013-09-21T10:07:12Z</time>
      </trkpt>
      <trkpt lat="54.226556019857526" lon="27.259377976879478">
        <ele>170.77000000000001</ele>
        <time>2013-09-21T10:07:24Z</time>
      </trkpt>
      <trkpt lat="54.226303976029158" lon="27.259549973532557">
        <ele>167.41</ele>
        <time>2013-09-21T10:07:31Z</time>
      </trkpt>
      <trkpt lat="54.226185958832502" lon="27.25961702875793">
        <ele>165.96000000000001</ele>
        <time>2013-09-21T10:07:34Z</time>
      </trkpt>
      <trkpt lat="54.225809024646878" lon="27.259888015687466">
        <ele>162.59999999999999</ele>
        <time>2013-09-21T10:07:44Z</time>
      </trkpt>
      <trkpt lat="54.225345002487302" lon="27.260167971253395">
        <ele>164.03999999999999</ele>
        <time>2013-09-21T10:07:55Z</time>
      </trkpt>
      <trkpt lat="54.224976031109691" lon="27.260407023131847">
        <ele>166.93000000000001</ele>
        <time>2013-09-21T10:08:04Z</time>
      </trkpt>
      <trkpt lat="54.224378988146782" lon="27.260734001174569">
        <ele>175.09999999999999</ele>
        <time>2013-09-21T10:08:19Z</time>
      </trkpt>
      <trkpt lat="54.223991995677352" lon="27.260936005041003">
        <ele>177.5</ele>
        <time>2013-09-21T10:08:29Z</time>
      </trkpt>
      <trkpt lat="54.223346002399921" lon="27.261343030259013">
        <ele>182.31</ele>
        <time>2013-09-21T10:08:45Z</time>
      </trkpt>
      <trkpt lat="54.222581991925836" lon="27.261777967214584">
        <ele>183.27000000000001</ele>
        <time>2013-09-21T10:09:02Z</time>
      </trkpt>
      <trkpt lat="54.221868021413684" lon="27.262181974947453">
        <ele>182.78999999999999</ele>
        <time>2013-09-21T10:09:18Z</time>
      </trkpt>
      <trkpt lat="54.22102203592658" lon="27.262696037068963">
        <ele>183.27000000000001</ele>
        <time>2013-09-21T10:09:37Z</time>
      </trkpt>
      <trkpt lat="54.220393979921937" lon="27.263068025931716">
        <ele>183.75</ele>
        <time>2013-09-21T10:09:53Z</time>
      </trkpt>
      <trkpt lat="54.220341006293893" lon="27.263105995953083">
        <ele>184.22999999999999</ele>
        <time>2013-09-21T10:10:03Z</time>
      </trkpt>
      <trkpt lat="54.220017967745662" lon="27.263276986777782">
        <ele>184.22999999999999</ele>
        <time>2013-09-21T10:10:14Z</time>
      </trkpt>
      <trkpt lat="54.219444980844855" lon="27.263660039752722">
        <ele>186.15000000000001</ele>
        <time>2013-09-21T10:10:31Z</time>
      </trkpt>
      <trkpt lat="54.218748025596142" lon="27.264064969494939">
        <ele>184.71000000000001</ele>
        <time>2013-09-21T10:10:47Z</time>
      </trkpt>
      <trkpt lat="54.218118963763118" lon="27.264463026076555">
        <ele>184.71000000000001</ele>
        <time>2013-09-21T10:11:03Z</time>
      </trkpt>
      <trkpt lat="54.218046963214874" lon="27.264527985826135">
        <ele>183.75</ele>
        <time>2013-09-21T10:11:05Z</time>
      </trkpt>
      <trkpt lat="54.2176069971174" lon="27.264898968860507">
        <ele>184.22999999999999</ele>
        <time>2013-09-21T10:11:17Z</time>
      </trkpt>
      <trkpt lat="54.217064017429948" lon="27.265262994915247">
        <ele>185.19</ele>
        <time>2013-09-21T10:11:33Z</time>
      </trkpt>
      <trkpt lat="54.216932002454996" lon="27.265708995983005">
        <ele>185.66999999999999</ele>
        <time>2013-09-21T10:11:46Z</time>
      </trkpt>
      <trkpt lat="54.216716000810266" lon="27.266133958473802">
        <ele>186.15000000000001</ele>
        <time>2013-09-21T10:12:00Z</time>
      </trkpt>
      <trkpt lat="54.216387011110783" lon="27.266334034502506">
        <ele>186.63</ele>
        <time>2013-09-21T10:12:14Z</time>
      </trkpt>
      <trkpt lat="54.215914020314813" lon="27.26677400059998">
        <ele>187.11000000000001</ele>
        <time>2013-09-21T10:12:31Z</time>
      </trkpt>
      <trkpt lat="54.215466007590294" lon="27.267154036089778">
        <ele>186.63</ele>
        <time>2013-09-21T10:12:45Z</time>
      </trkpt>
      <trkpt lat="54.214965021237731" lon="27.267582016065717">
        <ele>187.59</ele>
        <time>2013-09-21T10:13:01Z</time>
      </trkpt>
      <trkpt lat="54.214451964944601" lon="27.267984012141824">
        <ele>187.59</ele>
        <time>2013-09-21T10:13:17Z</time>
      </trkpt>
      <trkpt lat="54.214316010475159" lon="27.268098006024957">
        <ele>188.08000000000001</ele>
        <time>2013-09-21T10:13:21Z</time>
      </trkpt>
      <trkpt lat="54.213857017457485" lon="27.268459014594555">
        <ele>187.59</ele>
        <time>2013-09-21T10:13:33Z</time>
      </trkpt>
      <trkpt lat="54.213366005569696" lon="27.268852964043617">
        <ele>187.59</ele>
        <time>2013-09-21T10:13:48Z</time>
      </trkpt>
      <trkpt lat="54.213190991431475" lon="27.269005011767149">
        <ele>188.08000000000001</ele>
        <time>2013-09-21T10:13:53Z</time>
      </trkpt>
      <trkpt lat="54.212638037279248" lon="27.269487977027893">
        <ele>188.08000000000001</ele>
        <time>2013-09-21T10:14:09Z</time>
      </trkpt>
      <trkpt lat="54.212078964337707" lon="27.269914029166102">
        <ele>190</ele>
        <time>2013-09-21T10:14:25Z</time>
      </trkpt>
      <trkpt lat="54.211517041549087" lon="27.270213011652231">
        <ele>190</ele>
        <time>2013-09-21T10:14:41Z</time>
      </trkpt>
      <trkpt lat="54.211214035749435" lon="27.270439993590117">
        <ele>189.03999999999999</ele>
        <time>2013-09-21T10:14:49Z</time>
      </trkpt>
      <trkpt lat="54.210638031363487" lon="27.270577037706971">
        <ele>190</ele>
        <time>2013-09-21T10:15:04Z</time>
      </trkpt>
      <trkpt lat="54.210596038028598" lon="27.270583994686604">
        <ele>190</ele>
        <time>2013-09-21T10:15:05Z</time>
      </trkpt>
      <trkpt lat="54.209969993680716" lon="27.270543007180095">
        <ele>188.56</ele>
        <time>2013-09-21T10:15:21Z</time>
      </trkpt>
      <trkpt lat="54.209459032863379" lon="27.270202031359076">
        <ele>190</ele>
        <time>2013-09-21T10:15:36Z</time>
      </trkpt>
      <trkpt lat="54.209186034277081" lon="27.269893996417522">
        <ele>191.44</ele>
        <time>2013-09-21T10:15:48Z</time>
      </trkpt>
      <trkpt lat="54.209167007356882" lon="27.269860971719027">
        <ele>191.91999999999999</ele>
        <time>2013-09-21T10:16:02Z</time>
      </trkpt>
      <trkpt lat="54.209058964625001" lon="27.26971697062254">
        <ele>193.84</ele>
        <time>2013-09-21T10:16:17Z</time>
      </trkpt>
      <trkpt lat="54.209041027352214" lon="27.269713031128049">
        <ele>193.84</ele>
        <time>2013-09-21T10:16:36Z</time>
      </trkpt>
      <trkpt lat="54.209046978503466" lon="27.269615968689322">
        <ele>193.36000000000001</ele>
        <time>2013-09-21T10:17:56Z</time>
      </trkpt>
      <trkpt lat="54.209043039008975" lon="27.269584033638239">
        <ele>192.88</ele>
        <time>2013-09-21T10:18:14Z</time>
      </trkpt>
      <trkpt lat="54.209000039845705" lon="27.269395021721721">
        <ele>192.88</ele>
        <time>2013-09-21T10:18:30Z</time>
      </trkpt>
      <trkpt lat="54.209004985168576" lon="27.269326960667968">
        <ele>192.88</ele>
        <time>2013-09-21T10:18:45Z</time>
      </trkpt>
      <trkpt lat="54.209010014310479" lon="27.269312962889671">
        <ele>192.88</ele>
        <time>2013-09-21T10:19:13Z</time>
      </trkpt>
      <trkpt lat="54.208942037075758" lon="27.269292008131742">
        <ele>192.40000000000001</ele>
        <time>2013-09-21T10:19:27Z</time>
      </trkpt>
      <trkpt lat="54.208939019590616" lon="27.269296031445265">
        <ele>191.91999999999999</ele>
        <time>2013-09-21T10:19:34Z</time>
      </trkpt>
      <trkpt lat="54.208612041547894" lon="27.26954497396946">
        <ele>191.91999999999999</ele>
        <time>2013-09-21T10:19:47Z</time>
      </trkpt>
      <trkpt lat="54.208134021610022" lon="27.269848985597491">
        <ele>191.91999999999999</ele>
        <time>2013-09-21T10:19:58Z</time>
      </trkpt>
      <trkpt lat="54.207474030554295" lon="27.269897013902664">
        <ele>192.40000000000001</ele>
        <time>2013-09-21T10:20:14Z</time>
      </trkpt>
      <trkpt lat="54.207165995612741" lon="27.26991000585258">
        <ele>191.91999999999999</ele>
        <time>2013-09-21T10:20:21Z</time>
      </trkpt>
      <trkpt lat="54.207006990909576" lon="27.269913023337722">
        <ele>192.40000000000001</ele>
        <time>2013-09-21T10:20:25Z</time>
      </trkpt>
      <trkpt lat="54.206310035660863" lon="27.269936995580792">
        <ele>191.44</ele>
        <time>2013-09-21T10:20:42Z</time>
      </trkpt>
      <trkpt lat="54.205475030466914" lon="27.269984018057585">
        <ele>191.44</ele>
        <time>2013-09-21T10:21:00Z</time>
      </trkpt>
      <trkpt lat="54.204897014424205" lon="27.270023999735713">
        <ele>191.91999999999999</ele>
        <time>2013-09-21T10:21:12Z</time>
      </trkpt>
      <trkpt lat="54.204625021666288" lon="27.270029028877616">
        <ele>192.88</ele>
        <time>2013-09-21T10:21:18Z</time>
      </trkpt>
      <trkpt lat="54.203893030062318" lon="27.270064987242222">
        <ele>192.40000000000001</ele>
        <time>2013-09-21T10:21:33Z</time>
      </trkpt>
      <trkpt lat="54.203143017366529" lon="27.270075967535377">
        <ele>192.40000000000001</ele>
        <time>2013-09-21T10:21:49Z</time>
      </trkpt>
      <trkpt lat="54.202400967478752" lon="27.270291969180107">
        <ele>190.96000000000001</ele>
        <time>2013-09-21T10:22:05Z</time>
      </trkpt>
      <trkpt lat="54.202269958332181" lon="27.270373022183776">
        <ele>191.44</ele>
        <time>2013-09-21T10:22:08Z</time>
      </trkpt>
      <trkpt lat="54.201409975066781" lon="27.271071989089251">
        <ele>192.40000000000001</ele>
        <time>2013-09-21T10:22:28Z</time>
      </trkpt>
      <trkpt lat="54.201067993417382" lon="27.271038964390755">
        <ele>192.40000000000001</ele>
        <time>2013-09-21T10:22:38Z</time>
      </trkpt>
      <trkpt lat="54.201046032831073" lon="27.270989008247852">
        <ele>191.91999999999999</ele>
        <time>2013-09-21T10:22:39Z</time>
      </trkpt>
      <trkpt lat="54.200989035889506" lon="27.270882977172732">
        <ele>191.91999999999999</ele>
        <time>2013-09-21T10:22:41Z</time>
      </trkpt>
      <trkpt lat="54.200689969584346" lon="27.270580977201462">
        <ele>189.52000000000001</ele>
        <time>2013-09-21T10:22:48Z</time>
      </trkpt>
      <trkpt lat="54.200402973219752" lon="27.270434964448214">
        <ele>188.56</ele>
        <time>2013-09-21T10:22:54Z</time>
      </trkpt>
      <trkpt lat="54.200034001842141" lon="27.270165989175439">
        <ele>187.11000000000001</ele>
        <time>2013-09-21T10:23:02Z</time>
      </trkpt>
      <trkpt lat="54.199822023510933" lon="27.270097006112337">
        <ele>186.63</ele>
        <time>2013-09-21T10:23:07Z</time>
      </trkpt>
      <trkpt lat="54.199748011305928" lon="27.270045038312674">
        <ele>186.15000000000001</ele>
        <time>2013-09-21T10:23:09Z</time>
      </trkpt>
      <trkpt lat="54.199468977749348" lon="27.26997496560216">
        <ele>186.15000000000001</ele>
        <time>2013-09-21T10:23:18Z</time>
      </trkpt>
      <trkpt lat="54.199433019384742" lon="27.2701680008322">
        <ele>186.63</ele>
        <time>2013-09-21T10:23:24Z</time>
      </trkpt>
      <trkpt lat="54.199399994686246" lon="27.270408980548382">
        <ele>186.15000000000001</ele>
        <time>2013-09-21T10:23:34Z</time>
      </trkpt>
      <trkpt lat="54.199408963322639" lon="27.27040596306324">
        <ele>185.66999999999999</ele>
        <time>2013-09-21T10:23:45Z</time>
      </trkpt>
      <trkpt lat="54.199469983577728" lon="27.270431024953723">
        <ele>184.71000000000001</ele>
        <time>2013-09-21T10:23:50Z</time>
      </trkpt>
      <trkpt lat="54.199784975498915" lon="27.270681979134679">
        <ele>182.31</ele>
        <time>2013-09-21T10:24:03Z</time>
      </trkpt>
      <trkpt lat="54.20016098767519" lon="27.271037958562374">
        <ele>180.87</ele>
        <time>2013-09-21T10:24:15Z</time>
      </trkpt>
      <trkpt lat="54.200656022876501" lon="27.271326966583729">
        <ele>182.78999999999999</ele>
        <time>2013-09-21T10:24:28Z</time>
      </trkpt>
      <trkpt lat="54.20069801621139" lon="27.271372983232141">
        <ele>183.75</ele>
        <time>2013-09-21T10:24:30Z</time>
      </trkpt>
      <trkpt lat="54.200659040361643" lon="27.271648999303579">
        <ele>187.11000000000001</ele>
        <time>2013-09-21T10:24:37Z</time>
      </trkpt>
      <trkpt lat="54.200602965429425" lon="27.271703984588385">
        <ele>188.08000000000001</ele>
        <time>2013-09-21T10:24:39Z</time>
      </trkpt>
      <trkpt lat="54.200030984356999" lon="27.272156020626426">
        <ele>190</ele>
        <time>2013-09-21T10:24:53Z</time>
      </trkpt>
      <trkpt lat="54.199404017999768" lon="27.272634962573647">
        <ele>190.47999999999999</ele>
        <time>2013-09-21T10:25:08Z</time>
      </trkpt>
      <trkpt lat="54.198584016412497" lon="27.27328397333622">
        <ele>190.47999999999999</ele>
        <time>2013-09-21T10:25:27Z</time>
      </trkpt>
      <trkpt lat="54.197843978181481" lon="27.27386400103569">
        <ele>191.44</ele>
        <time>2013-09-21T10:25:44Z</time>
      </trkpt>
      <trkpt lat="54.197073010727763" lon="27.274450985714793">
        <ele>191.44</ele>
        <time>2013-09-21T10:26:01Z</time>
      </trkpt>
      <trkpt lat="54.196256026625633" lon="27.275074012577534">
        <ele>192.40000000000001</ele>
        <time>2013-09-21T10:26:20Z</time>
      </trkpt>
      <trkpt lat="54.195667030289769" lon="27.275528982281685">
        <ele>192.40000000000001</ele>
        <time>2013-09-21T10:26:34Z</time>
      </trkpt>
      <trkpt lat="54.194922968745232" lon="27.276079002767801">
        <ele>192.88</ele>
        <time>2013-09-21T10:26:52Z</time>
      </trkpt>
      <trkpt lat="54.194027027115226" lon="27.276381002739072">
        <ele>192.88</ele>
        <time>2013-09-21T10:27:12Z</time>
      </trkpt>
      <trkpt lat="54.193932982161641" lon="27.276365999132395">
        <ele>192.88</ele>
        <time>2013-09-21T10:27:14Z</time>
      </trkpt>
      <trkpt lat="54.193315990269184" lon="27.27588496170938">
        <ele>192.40000000000001</ele>
        <time>2013-09-21T10:27:29Z</time>
      </trkpt>
      <trkpt lat="54.192809974774718" lon="27.275165962055326">
        <ele>191.91999999999999</ele>
        <time>2013-09-21T10:27:43Z</time>
      </trkpt>
      <trkpt lat="54.192381994798779" lon="27.274483004584908">
        <ele>191.91999999999999</ele>
        <time>2013-09-21T10:27:57Z</time>
      </trkpt>
      <trkpt lat="54.19175997376442" lon="27.273527970537543">
        <ele>192.40000000000001</ele>
        <time>2013-09-21T10:28:14Z</time>
      </trkpt>
      <trkpt lat="54.191683027893305" lon="27.273414982482791">
        <ele>191.91999999999999</ele>
        <time>2013-09-21T10:28:16Z</time>
      </trkpt>
      <trkpt lat="54.191576996818185" lon="27.273253966122866">
        <ele>191.91999999999999</ele>
        <time>2013-09-21T10:28:19Z</time>
      </trkpt>
      <trkpt lat="54.191398965194821" lon="27.272985996678472">
        <ele>192.40000000000001</ele>
        <time>2013-09-21T10:28:24Z</time>
      </trkpt>
      <trkpt lat="54.190798988565803" lon="27.272050995379686">
        <ele>193.36000000000001</ele>
        <time>2013-09-21T10:28:40Z</time>
      </trkpt>
      <trkpt lat="54.190267994999886" lon="27.271210039034486">
        <ele>191.91999999999999</ele>
        <time>2013-09-21T10:28:55Z</time>
      </trkpt>
      <trkpt lat="54.189737001433969" lon="27.270380984991789">
        <ele>190.47999999999999</ele>
        <time>2013-09-21T10:29:10Z</time>
      </trkpt>
      <trkpt lat="54.189354032278061" lon="27.269782014191151">
        <ele>190.47999999999999</ele>
        <time>2013-09-21T10:29:21Z</time>
      </trkpt>
      <trkpt lat="54.188733017072082" lon="27.268837038427591">
        <ele>190.47999999999999</ele>
        <time>2013-09-21T10:29:38Z</time>
      </trkpt>
      <trkpt lat="54.188135974109173" lon="27.268292969092727">
        <ele>190</ele>
        <time>2013-09-21T10:29:52Z</time>
      </trkpt>
      <trkpt lat="54.187417980283499" lon="27.26814603433013">
        <ele>190</ele>
        <time>2013-09-21T10:30:07Z</time>
      </trkpt>
      <trkpt lat="54.186737034469843" lon="27.268194984644651">
        <ele>191.44</ele>
        <time>2013-09-21T10:30:21Z</time>
      </trkpt>
      <trkpt lat="54.185977969318628" lon="27.268262961879373">
        <ele>191.91999999999999</ele>
        <time>2013-09-21T10:30:37Z</time>
      </trkpt>
      <trkpt lat="54.185826005414128" lon="27.268264973536134">
        <ele>192.40000000000001</ele>
        <time>2013-09-21T10:30:47Z</time>
      </trkpt>
      <trkpt lat="54.185790969058871" lon="27.268301015719771">
        <ele>192.88</ele>
        <time>2013-09-21T10:30:59Z</time>
      </trkpt>
      <trkpt lat="54.185779988765717" lon="27.268303027376533">
        <ele>192.88</ele>
        <time>2013-09-21T10:31:15Z</time>
      </trkpt>
      <trkpt lat="54.185779988765717" lon="27.268303027376533">
        <ele>192.88</ele>
        <time>2013-09-21T10:31:18Z</time>
      </trkpt>
      <trkpt lat="54.185764985159039" lon="27.268223986029625">
        <ele>192.88</ele>
        <time>2013-09-21T10:31:23Z</time>
      </trkpt>
      <trkpt lat="54.185701031237841" lon="27.268011001870036">
        <ele>191.44</ele>
        <time>2013-09-21T10:31:35Z</time>
      </trkpt>
      <trkpt lat="54.185649985447526" lon="27.267767004668713">
        <ele>190.96000000000001</ele>
        <time>2013-09-21T10:31:48Z</time>
      </trkpt>
      <trkpt lat="54.185547977685928" lon="27.267797011882067">
        <ele>190.96000000000001</ele>
        <time>2013-09-21T10:31:57Z</time>
      </trkpt>
      <trkpt lat="54.185376986861229" lon="27.267972026020288">
        <ele>191.44</ele>
        <time>2013-09-21T10:32:13Z</time>
      </trkpt>
      <trkpt lat="54.1852489951998" lon="27.268055006861687">
        <ele>191.91999999999999</ele>
        <time>2013-09-21T10:32:28Z</time>
      </trkpt>
      <trkpt lat="54.1852489951998" lon="27.268055006861687">
        <ele>191.91999999999999</ele>
        <time>2013-09-21T10:32:29Z</time>
      </trkpt>
      <trkpt lat="54.184871977195144" lon="27.268074033781886">
        <ele>193.36000000000001</ele>
        <time>2013-09-21T10:32:45Z</time>
      </trkpt>
      <trkpt lat="54.184480961412191" lon="27.268116027116776">
        <ele>194.80000000000001</ele>
        <time>2013-09-21T10:32:56Z</time>
      </trkpt>
      <trkpt lat="54.184394963085651" lon="27.268132036551833">
        <ele>194.80000000000001</ele>
        <time>2013-09-21T10:32:58Z</time>
      </trkpt>
      <trkpt lat="54.184195976704359" lon="27.268164977431297">
        <ele>194.80000000000001</ele>
        <time>2013-09-21T10:33:03Z</time>
      </trkpt>
      <trkpt lat="54.183963965624571" lon="27.268173024058342">
        <ele>195.28</ele>
        <time>2013-09-21T10:33:09Z</time>
      </trkpt>
      <trkpt lat="54.183676969259977" lon="27.268200013786554">
        <ele>194.80000000000001</ele>
        <time>2013-09-21T10:33:16Z</time>
      </trkpt>
      <trkpt lat="54.183241026476026" lon="27.268247036263347">
        <ele>192.88</ele>
        <time>2013-09-21T10:33:26Z</time>
      </trkpt>
      <trkpt lat="54.182658987119794" lon="27.268264973536134">
        <ele>194.31999999999999</ele>
        <time>2013-09-21T10:33:41Z</time>
      </trkpt>
      <trkpt lat="54.182171998545527" lon="27.268345020711422">
        <ele>193.36000000000001</ele>
        <time>2013-09-21T10:33:54Z</time>
      </trkpt>
      <trkpt lat="54.181548971682787" lon="27.268410986289382">
        <ele>193.36000000000001</ele>
        <time>2013-09-21T10:34:08Z</time>
      </trkpt>
      <trkpt lat="54.180859979242086" lon="27.268487010151148">
        <ele>192.88</ele>
        <time>2013-09-21T10:34:24Z</time>
      </trkpt>
      <trkpt lat="54.180267965421081" lon="27.268679961562157">
        <ele>194.80000000000001</ele>
        <time>2013-09-21T10:34:41Z</time>
      </trkpt>
      <trkpt lat="54.180088005959988" lon="27.26909302175045">
        <ele>195.28</ele>
        <time>2013-09-21T10:34:52Z</time>
      </trkpt>
      <trkpt lat="54.179980969056487" lon="27.269106013700366">
        <ele>194.31999999999999</ele>
        <time>2013-09-21T10:34:57Z</time>
      </trkpt>
      <trkpt lat="54.179673017933965" lon="27.268990008160472">
        <ele>194.80000000000001</ele>
        <time>2013-09-21T10:35:14Z</time>
      </trkpt>
      <trkpt lat="54.179487023502588" lon="27.268630005419254">
        <ele>195.28</ele>
        <time>2013-09-21T10:35:27Z</time>
      </trkpt>
      <trkpt lat="54.179480988532305" lon="27.268624976277351">
        <ele>194.31999999999999</ele>
        <time>2013-09-21T10:35:39Z</time>
      </trkpt>
      <trkpt lat="54.179477971047163" lon="27.268628999590874">
        <ele>194.80000000000001</ele>
        <time>2013-09-21T10:36:49Z</time>
      </trkpt>
      <trkpt lat="54.179475037381053" lon="27.268631011247635">
        <ele>194.80000000000001</ele>
        <time>2013-09-21T10:37:42Z</time>
      </trkpt>
      <trkpt lat="54.179474031552672" lon="27.268631011247635">
        <ele>194.80000000000001</ele>
        <time>2013-09-21T10:38:55Z</time>
      </trkpt>
      <trkpt lat="54.179474031552672" lon="27.268636962398887">
        <ele>194.31999999999999</ele>
        <time>2013-09-21T10:40:19Z</time>
      </trkpt>
      <trkpt lat="54.179476965218782" lon="27.268638974055648">
        <ele>193.84</ele>
        <time>2013-09-21T10:41:41Z</time>
      </trkpt>
      <trkpt lat="54.179478976875544" lon="27.268640985712409">
        <ele>193.84</ele>
        <time>2013-09-21T10:43:03Z</time>
      </trkpt>
      <trkpt lat="54.179476965218782" lon="27.268639979884028">
        <ele>193.84</ele>
        <time>2013-09-21T10:44:36Z</time>
      </trkpt>
      <trkpt lat="54.179475959390402" lon="27.268631011247635">
        <ele>193.36000000000001</ele>
        <time>2013-09-21T10:46:03Z</time>
      </trkpt>
      <trkpt lat="54.179474031552672" lon="27.268633022904396">
        <ele>192.88</ele>
        <time>2013-09-21T10:47:19Z</time>
      </trkpt>
      <trkpt lat="54.179472019895911" lon="27.268633022904396">
        <ele>192.88</ele>
        <time>2013-09-21T10:48:45Z</time>
      </trkpt>
      <trkpt lat="54.179475037381053" lon="27.268653977662325">
        <ele>191.91999999999999</ele>
        <time>2013-09-21T10:51:42Z</time>
      </trkpt>
      <trkpt lat="54.179477971047163" lon="27.268660012632608">
        <ele>191.91999999999999</ele>
        <time>2013-09-21T10:53:02Z</time>
      </trkpt>
      <trkpt lat="54.179473025724292" lon="27.268648026511073">
        <ele>190.96000000000001</ele>
        <time>2013-09-21T11:01:21Z</time>
      </trkpt>
      <trkpt lat="54.179476965218782" lon="27.268632017076015">
        <ele>191.91999999999999</ele>
        <time>2013-09-21T11:06:28Z</time>
      </trkpt>
      <trkpt lat="54.179417034611106" lon="27.268707035109401">
        <ele>193.36000000000001</ele>
        <time>2013-09-21T11:06:56Z</time>
      </trkpt>
      <trkpt lat="54.179417034611106" lon="27.268707035109401">
        <ele>193.36000000000001</ele>
        <time>2013-09-21T11:07:17Z</time>
      </trkpt>
      <trkpt lat="54.17916901409626" lon="27.268719021230936">
        <ele>193.36000000000001</ele>
        <time>2013-09-21T11:07:30Z</time>
      </trkpt>
      <trkpt lat="54.178788978606462" lon="27.268750034272671">
        <ele>192.88</ele>
        <time>2013-09-21T11:07:43Z</time>
      </trkpt>
      <trkpt lat="54.178737010806799" lon="27.268752967938781">
        <ele>192.40000000000001</ele>
        <time>2013-09-21T11:07:45Z</time>
      </trkpt>
      <trkpt lat="54.178619999438524" lon="27.268726984038949">
        <ele>191.91999999999999</ele>
        <time>2013-09-21T11:07:50Z</time>
      </trkpt>
      <trkpt lat="54.178119013085961" lon="27.268773000687361">
        <ele>190.47999999999999</ele>
        <time>2013-09-21T11:08:04Z</time>
      </trkpt>
      <trkpt lat="54.177680974826217" lon="27.268679039552808">
        <ele>194.31999999999999</ele>
        <time>2013-09-21T11:08:15Z</time>
      </trkpt>
      <trkpt lat="54.177275961264968" lon="27.268230020999908">
        <ele>197.21000000000001</ele>
        <time>2013-09-21T11:08:31Z</time>
      </trkpt>
      <trkpt lat="54.177055014297366" lon="27.267858032137156">
        <ele>200.09</ele>
        <time>2013-09-21T11:08:44Z</time>
      </trkpt>
      <trkpt lat="54.176850998774171" lon="27.267440026625991">
        <ele>202.49000000000001</ele>
        <time>2013-09-21T11:08:56Z</time>
      </trkpt>
      <trkpt lat="54.17674002237618" lon="27.267036018893123">
        <ele>202.97999999999999</ele>
        <time>2013-09-21T11:09:05Z</time>
      </trkpt>
      <trkpt lat="54.176682019606233" lon="27.266784980893135">
        <ele>202.00999999999999</ele>
        <time>2013-09-21T11:09:11Z</time>
      </trkpt>
      <trkpt lat="54.17663399130106" lon="27.266542995348573">
        <ele>202.00999999999999</ele>
        <time>2013-09-21T11:09:17Z</time>
      </trkpt>
      <trkpt lat="54.176503987982869" lon="27.266006972640753">
        <ele>202.00999999999999</ele>
        <time>2013-09-21T11:09:29Z</time>
      </trkpt>
      <trkpt lat="54.176394017413259" lon="27.265532976016402">
        <ele>202.97999999999999</ele>
        <time>2013-09-21T11:09:40Z</time>
      </trkpt>
      <trkpt lat="54.176241969689727" lon="27.264942973852158">
        <ele>205.86000000000001</ele>
        <time>2013-09-21T11:09:52Z</time>
      </trkpt>
      <trkpt lat="54.176084976643324" lon="27.264400999993086">
        <ele>205.38</ele>
        <time>2013-09-21T11:10:01Z</time>
      </trkpt>
      <trkpt lat="54.175955979153514" lon="27.263890039175749">
        <ele>203.94</ele>
        <time>2013-09-21T11:10:12Z</time>
      </trkpt>
      <trkpt lat="54.17579697445035" lon="27.263301964849234">
        <ele>202.97999999999999</ele>
        <time>2013-09-21T11:10:24Z</time>
      </trkpt>
      <trkpt lat="54.175673006102443" lon="27.262787986546755">
        <ele>202.49000000000001</ele>
        <time>2013-09-21T11:10:35Z</time>
      </trkpt>
      <trkpt lat="54.175692033022642" lon="27.262447010725737">
        <ele>200.56999999999999</ele>
        <time>2013-09-21T11:10:41Z</time>
      </trkpt>
      <trkpt lat="54.175755986943841" lon="27.262372998520732">
        <ele>199.13</ele>
        <time>2013-09-21T11:10:45Z</time>
      </trkpt>
      <trkpt lat="54.175824970006943" lon="27.262361012399197">
        <ele>198.16999999999999</ele>
        <time>2013-09-21T11:10:48Z</time>
      </trkpt>
      <trkpt lat="54.175851959735155" lon="27.26221801713109">
        <ele>197.69</ele>
        <time>2013-09-21T11:10:54Z</time>
      </trkpt>
      <trkpt lat="54.175752969458699" lon="27.261850973591208">
        <ele>200.56999999999999</ele>
        <time>2013-09-21T11:11:06Z</time>
      </trkpt>
      <trkpt lat="54.175604023039341" lon="27.26127496920526">
        <ele>202.00999999999999</ele>
        <time>2013-09-21T11:11:19Z</time>
      </trkpt>
      <trkpt lat="54.175498997792602" lon="27.260723020881414">
        <ele>202.97999999999999</ele>
        <time>2013-09-21T11:11:31Z</time>
      </trkpt>
      <trkpt lat="54.175318032503128" lon="27.260159002617002">
        <ele>202.97999999999999</ele>
        <time>2013-09-21T11:11:42Z</time>
      </trkpt>
      <trkpt lat="54.174987031146884" lon="27.259392980486155">
        <ele>198.65000000000001</ele>
        <time>2013-09-21T11:11:54Z</time>
      </trkpt>
      <trkpt lat="54.174787038937211" lon="27.259401027113199">
        <ele>200.09</ele>
        <time>2013-09-21T11:12:02Z</time>
      </trkpt>
      <trkpt lat="54.174686959013343" lon="27.259333971887827">
        <ele>196.72999999999999</ele>
        <time>2013-09-21T11:12:15Z</time>
      </trkpt>
      <trkpt lat="54.174713026732206" lon="27.259277980774641">
        <ele>193.84</ele>
        <time>2013-09-21T11:12:27Z</time>
      </trkpt>
      <trkpt lat="54.174695005640388" lon="27.259234981611371">
        <ele>192.40000000000001</ele>
        <time>2013-09-21T11:12:47Z</time>
      </trkpt>
      <trkpt lat="54.174675978720188" lon="27.259170021861792">
        <ele>191.44</ele>
        <time>2013-09-21T11:12:52Z</time>
      </trkpt>
      <trkpt lat="54.174628034234047" lon="27.259063990786672">
        <ele>192.88</ele>
        <time>2013-09-21T11:13:07Z</time>
      </trkpt>
      <trkpt lat="54.174567013978958" lon="27.259001964703202">
        <ele>194.31999999999999</ele>
        <time>2013-09-21T11:13:19Z</time>
      </trkpt>
      <trkpt lat="54.174504987895489" lon="27.258820999413729">
        <ele>193.36000000000001</ele>
        <time>2013-09-21T11:13:35Z</time>
      </trkpt>
      <trkpt lat="54.174418989568949" lon="27.258517993614078">
        <ele>192.40000000000001</ele>
        <time>2013-09-21T11:13:45Z</time>
      </trkpt>
      <trkpt lat="54.174290997907519" lon="27.257928997278214">
        <ele>192.40000000000001</ele>
        <time>2013-09-21T11:13:59Z</time>
      </trkpt>
      <trkpt lat="54.174226960167289" lon="27.257441002875566">
        <ele>194.80000000000001</ele>
        <time>2013-09-21T11:14:12Z</time>
      </trkpt>
      <trkpt lat="54.174082959070802" lon="27.256912020966411">
        <ele>196.72999999999999</ele>
        <time>2013-09-21T11:14:21Z</time>
      </trkpt>
      <trkpt lat="54.173885984346271" lon="27.256172988563776">
        <ele>196.25</ele>
        <time>2013-09-21T11:14:35Z</time>
      </trkpt>
      <trkpt lat="54.173729997128248" lon="27.2555570024997">
        <ele>200.09</ele>
        <time>2013-09-21T11:14:47Z</time>
      </trkpt>
      <trkpt lat="54.173550959676504" lon="27.254875972867012">
        <ele>199.61000000000001</ele>
        <time>2013-09-21T11:14:59Z</time>
      </trkpt>
      <trkpt lat="54.173505026847124" lon="27.254672963172197">
        <ele>199.13</ele>
        <time>2013-09-21T11:15:03Z</time>
      </trkpt>
      <trkpt lat="54.173653973266482" lon="27.254013977944851">
        <ele>197.69</ele>
        <time>2013-09-21T11:15:16Z</time>
      </trkpt>
      <trkpt lat="54.173511983826756" lon="27.253374019637704">
        <ele>197.69</ele>
        <time>2013-09-21T11:15:26Z</time>
      </trkpt>
      <trkpt lat="54.173288019374013" lon="27.252566004171968">
        <ele>201.53</ele>
        <time>2013-09-21T11:15:40Z</time>
      </trkpt>
      <trkpt lat="54.173079980537295" lon="27.251859996467829">
        <ele>202.49000000000001</ele>
        <time>2013-09-21T11:15:54Z</time>
      </trkpt>
      <trkpt lat="54.172811005264521" lon="27.251043012365699">
        <ele>202.49000000000001</ele>
        <time>2013-09-21T11:16:06Z</time>
      </trkpt>
      <trkpt lat="54.172672033309937" lon="27.250248994678259">
        <ele>202.00999999999999</ele>
        <time>2013-09-21T11:16:19Z</time>
      </trkpt>
      <trkpt lat="54.172625010833144" lon="27.249893015250564">
        <ele>202.00999999999999</ele>
        <time>2013-09-21T11:16:25Z</time>
      </trkpt>
      <trkpt lat="54.172384031116962" lon="27.248914008960128">
        <ele>202.49000000000001</ele>
        <time>2013-09-21T11:16:42Z</time>
      </trkpt>
      <trkpt lat="54.172246987000108" lon="27.24831503815949">
        <ele>204.90000000000001</ele>
        <time>2013-09-21T11:16:54Z</time>
      </trkpt>
      <trkpt lat="54.171948004513979" lon="27.247255984693766">
        <ele>204.41999999999999</ele>
        <time>2013-09-21T11:17:07Z</time>
      </trkpt>
      <trkpt lat="54.171924032270908" lon="27.247185995802283">
        <ele>204.41999999999999</ele>
        <time>2013-09-21T11:17:08Z</time>
      </trkpt>
      <trkpt lat="54.171650027856231" lon="27.24621101282537">
        <ele>202.49000000000001</ele>
        <time>2013-09-21T11:17:21Z</time>
      </trkpt>
      <trkpt lat="54.171278038993478" lon="27.245007958263159">
        <ele>197.69</ele>
        <time>2013-09-21T11:17:32Z</time>
      </trkpt>
      <trkpt lat="54.171028006821871" lon="27.244619959965348">
        <ele>198.16999999999999</ele>
        <time>2013-09-21T11:17:44Z</time>
      </trkpt>
      <trkpt lat="54.170947959646583" lon="27.244460033252835">
        <ele>197.21000000000001</ele>
        <time>2013-09-21T11:17:50Z</time>
      </trkpt>
      <trkpt lat="54.170952988788486" lon="27.244262974709272">
        <ele>196.72999999999999</ele>
        <time>2013-09-21T11:17:55Z</time>
      </trkpt>
      <trkpt lat="54.170947037637234" lon="27.243919987231493">
        <ele>196.25</ele>
        <time>2013-09-21T11:18:00Z</time>
      </trkpt>
      <trkpt lat="54.17074603959918" lon="27.243384970352054">
        <ele>197.21000000000001</ele>
        <time>2013-09-21T11:18:12Z</time>
      </trkpt>
      <trkpt lat="54.170551998540759" lon="27.242717016488314">
        <ele>196.72999999999999</ele>
        <time>2013-09-21T11:18:26Z</time>
      </trkpt>
      <trkpt lat="54.170314036309719" lon="27.241984019055963">
        <ele>199.61000000000001</ele>
        <time>2013-09-21T11:18:39Z</time>
      </trkpt>
      <trkpt lat="54.170137010514736" lon="27.241315981373191">
        <ele>202.00999999999999</ele>
        <time>2013-09-21T11:18:52Z</time>
      </trkpt>
      <trkpt lat="54.169985968619585" lon="27.240779958665371">
        <ele>202.49000000000001</ele>
        <time>2013-09-21T11:19:04Z</time>
      </trkpt>
      <trkpt lat="54.169642981141806" lon="27.239846969023347">
        <ele>199.61000000000001</ele>
        <time>2013-09-21T11:19:15Z</time>
      </trkpt>
      <trkpt lat="54.169356990605593" lon="27.239321004599333">
        <ele>195.77000000000001</ele>
        <time>2013-09-21T11:19:29Z</time>
      </trkpt>
      <trkpt lat="54.168994976207614" lon="27.238892018795013">
        <ele>193.84</ele>
        <time>2013-09-21T11:19:42Z</time>
      </trkpt>
      <trkpt lat="54.168589040637016" lon="27.238508965820074">
        <ele>192.88</ele>
        <time>2013-09-21T11:19:57Z</time>
      </trkpt>
      <trkpt lat="54.167968025431037" lon="27.238238984718919">
        <ele>193.36000000000001</ele>
        <time>2013-09-21T11:20:14Z</time>
      </trkpt>
      <trkpt lat="54.167352039366961" lon="27.23774797283113">
        <ele>190</ele>
        <time>2013-09-21T11:20:30Z</time>
      </trkpt>
      <trkpt lat="54.166655000299215" lon="27.237301971763372">
        <ele>190</ele>
        <time>2013-09-21T11:20:49Z</time>
      </trkpt>
      <trkpt lat="54.166027028113604" lon="27.237089993432164">
        <ele>189.52000000000001</ele>
        <time>2013-09-21T11:21:05Z</time>
      </trkpt>
      <trkpt lat="54.16520300321281" lon="27.236964013427496">
        <ele>190</ele>
        <time>2013-09-21T11:21:25Z</time>
      </trkpt>
      <trkpt lat="54.164548041298985" lon="27.237027967348695">
        <ele>189.52000000000001</ele>
        <time>2013-09-21T11:21:42Z</time>
      </trkpt>
      <trkpt lat="54.164456008002162" lon="27.237040959298611">
        <ele>189.52000000000001</ele>
        <time>2013-09-21T11:22:48Z</time>
      </trkpt>
      <trkpt lat="54.164016041904688" lon="27.237132992595434">
        <ele>189.03999999999999</ele>
        <time>2013-09-21T11:23:02Z</time>
      </trkpt>
      <trkpt lat="54.163426039740443" lon="27.237256960943341">
        <ele>189.52000000000001</ele>
        <time>2013-09-21T11:23:19Z</time>
      </trkpt>
      <trkpt lat="54.162741992622614" lon="27.237472040578723">
        <ele>188.56</ele>
        <time>2013-09-21T11:23:39Z</time>
      </trkpt>
      <trkpt lat="54.162236982956529" lon="27.237644959241152">
        <ele>188.08000000000001</ele>
        <time>2013-09-21T11:23:54Z</time>
      </trkpt>
      <trkpt lat="54.161772038787603" lon="27.237978978082538">
        <ele>189.52000000000001</ele>
        <time>2013-09-21T11:24:09Z</time>
      </trkpt>
      <trkpt lat="54.16180900298059" lon="27.238478036597371">
        <ele>190.96000000000001</ele>
        <time>2013-09-21T11:24:21Z</time>
      </trkpt>
      <trkpt lat="54.161714036017656" lon="27.239048006013036">
        <ele>189.03999999999999</ele>
        <time>2013-09-21T11:24:32Z</time>
      </trkpt>
      <trkpt lat="54.161545978859067" lon="27.239490989595652">
        <ele>187.59</ele>
        <time>2013-09-21T11:24:42Z</time>
      </trkpt>
      <trkpt lat="54.161201985552907" lon="27.239500964060426">
        <ele>187.59</ele>
        <time>2013-09-21T11:24:53Z</time>
      </trkpt>
      <trkpt lat="54.160646013915539" lon="27.239331984892488">
        <ele>188.08000000000001</ele>
        <time>2013-09-21T11:25:09Z</time>
      </trkpt>
      <trkpt lat="54.160028016194701" lon="27.238868968561292">
        <ele>190</ele>
        <time>2013-09-21T11:25:26Z</time>
      </trkpt>
      <trkpt lat="54.159469027072191" lon="27.23862798884511">
        <ele>191.44</ele>
        <time>2013-09-21T11:25:42Z</time>
      </trkpt>
      <trkpt lat="54.159000981599092" lon="27.238393966108561">
        <ele>192.40000000000001</ele>
        <time>2013-09-21T11:25:58Z</time>
      </trkpt>
      <trkpt lat="54.158773999661207" lon="27.238158015534282">
        <ele>190.96000000000001</ele>
        <time>2013-09-21T11:26:12Z</time>
      </trkpt>
      <trkpt lat="54.158752039074898" lon="27.238107975572348">
        <ele>190.96000000000001</ele>
        <time>2013-09-21T11:26:29Z</time>
      </trkpt>
      <trkpt lat="54.158705016598105" lon="27.238002028316259">
        <ele>190.96000000000001</ele>
        <time>2013-09-21T11:26:39Z</time>
      </trkpt>
      <trkpt lat="54.158705016598105" lon="27.238002028316259">
        <ele>190.96000000000001</ele>
        <time>2013-09-21T11:26:45Z</time>
      </trkpt>
      <trkpt lat="54.158712979406118" lon="27.237901026383042">
        <ele>190.47999999999999</ele>
        <time>2013-09-21T11:26:50Z</time>
      </trkpt>
      <trkpt lat="54.158725971356034" lon="27.237778985872865">
        <ele>190</ele>
        <time>2013-09-21T11:26:56Z</time>
      </trkpt>
      <trkpt lat="54.158637961372733" lon="27.23751001060009">
        <ele>190</ele>
        <time>2013-09-21T11:27:14Z</time>
      </trkpt>
      <trkpt lat="54.158559003844857" lon="27.237367015331984">
        <ele>189.52000000000001</ele>
        <time>2013-09-21T11:27:29Z</time>
      </trkpt>
      <trkpt lat="54.158181985840201" lon="27.236722027882934">
        <ele>189.52000000000001</ele>
        <time>2013-09-21T11:27:43Z</time>
      </trkpt>
      <trkpt lat="54.157707989215851" lon="27.23583203740418">
        <ele>190.47999999999999</ele>
        <time>2013-09-21T11:28:01Z</time>
      </trkpt>
      <trkpt lat="54.1576830111444" lon="27.235776968300343">
        <ele>190.47999999999999</ele>
        <time>2013-09-21T11:28:02Z</time>
      </trkpt>
      <trkpt lat="54.15721395984292" lon="27.234733002260327">
        <ele>189.52000000000001</ele>
        <time>2013-09-21T11:28:20Z</time>
      </trkpt>
      <trkpt lat="54.156798971816897" lon="27.233868995681405">
        <ele>189.52000000000001</ele>
        <time>2013-09-21T11:28:36Z</time>
      </trkpt>
      <trkpt lat="54.156276024878025" lon="27.232943968847394">
        <ele>189.52000000000001</ele>
        <time>2013-09-21T11:28:54Z</time>
      </trkpt>
      <trkpt lat="54.155733967199922" lon="27.232040986418724">
        <ele>190</ele>
        <time>2013-09-21T11:29:12Z</time>
      </trkpt>
      <trkpt lat="54.155137008056045" lon="27.231046976521611">
        <ele>189.03999999999999</ele>
        <time>2013-09-21T11:29:32Z</time>
      </trkpt>
      <trkpt lat="54.154616994783282" lon="27.230170983821154">
        <ele>188.56</ele>
        <time>2013-09-21T11:29:48Z</time>
      </trkpt>
      <trkpt lat="54.154175017029047" lon="27.229293985292315">
        <ele>189.52000000000001</ele>
        <time>2013-09-21T11:30:05Z</time>
      </trkpt>
      <trkpt lat="54.154006959870458" lon="27.228699959814548">
        <ele>189.52000000000001</ele>
        <time>2013-09-21T11:30:19Z</time>
      </trkpt>
      <trkpt lat="54.154006959870458" lon="27.228699959814548">
        <ele>189.52000000000001</ele>
        <time>2013-09-21T11:30:21Z</time>
      </trkpt>
      <trkpt lat="54.153984999284148" lon="27.228533998131752">
        <ele>190.47999999999999</ele>
        <time>2013-09-21T11:30:34Z</time>
      </trkpt>
      <trkpt lat="54.153920961543918" lon="27.228299975395203">
        <ele>189.52000000000001</ele>
        <time>2013-09-21T11:30:48Z</time>
      </trkpt>
      <trkpt lat="54.153875028714538" lon="27.22814398817718">
        <ele>190</ele>
        <time>2013-09-21T11:30:59Z</time>
      </trkpt>
      <trkpt lat="54.153874022886157" lon="27.228124961256981">
        <ele>190</ele>
        <time>2013-09-21T11:31:00Z</time>
      </trkpt>
      <trkpt lat="54.153846027329564" lon="27.22803502343595">
        <ele>190.47999999999999</ele>
        <time>2013-09-21T11:31:17Z</time>
      </trkpt>
      <trkpt lat="54.153819959610701" lon="27.227933015674353">
        <ele>190</ele>
        <time>2013-09-21T11:31:27Z</time>
      </trkpt>
      <trkpt lat="54.153621979057789" lon="27.227249974384904">
        <ele>190.47999999999999</ele>
        <time>2013-09-21T11:31:40Z</time>
      </trkpt>
      <trkpt lat="54.153445037081838" lon="27.226831968873739">
        <ele>190</ele>
        <time>2013-09-21T11:31:48Z</time>
      </trkpt>
      <trkpt lat="54.153119986876845" lon="27.226415975019336">
        <ele>189.52000000000001</ele>
        <time>2013-09-21T11:32:02Z</time>
      </trkpt>
      <trkpt lat="54.153033988550305" lon="27.226373981684446">
        <ele>188.56</ele>
        <time>2013-09-21T11:32:13Z</time>
      </trkpt>
      <trkpt lat="54.152981014922261" lon="27.2264039888978">
        <ele>188.56</ele>
        <time>2013-09-21T11:32:19Z</time>
      </trkpt>
      <trkpt lat="54.152860986068845" lon="27.226438019424677">
        <ele>193.36000000000001</ele>
        <time>2013-09-21T11:32:36Z</time>
      </trkpt>
      <trkpt lat="54.152794014662504" lon="27.226499039679766">
        <ele>195.77000000000001</ele>
        <time>2013-09-21T11:32:48Z</time>
      </trkpt>
      <trkpt lat="54.152715979143977" lon="27.226529968902469">
        <ele>196.72999999999999</ele>
        <time>2013-09-21T11:32:57Z</time>
      </trkpt>
      <trkpt lat="54.152673985809088" lon="27.226566011086106">
        <ele>198.16999999999999</ele>
        <time>2013-09-21T11:33:04Z</time>
      </trkpt>
      <trkpt lat="54.152622018009424" lon="27.226678999140859">
        <ele>201.53</ele>
        <time>2013-09-21T11:33:19Z</time>
      </trkpt>
      <trkpt lat="54.152550017461181" lon="27.226946968585253">
        <ele>202.00999999999999</ele>
        <time>2013-09-21T11:33:36Z</time>
      </trkpt>
      <trkpt lat="54.152452033013105" lon="27.227178979665041">
        <ele>202.00999999999999</ele>
        <time>2013-09-21T11:33:53Z</time>
      </trkpt>
      <trkpt lat="54.152381960302591" lon="27.227328009903431">
        <ele>202.49000000000001</ele>
        <time>2013-09-21T11:34:07Z</time>
      </trkpt>
      <trkpt lat="54.152252040803432" lon="27.227550968527794">
        <ele>202.00999999999999</ele>
        <time>2013-09-21T11:34:22Z</time>
      </trkpt>
      <trkpt lat="54.152168976143003" lon="27.227830002084374">
        <ele>203.94</ele>
        <time>2013-09-21T11:34:38Z</time>
      </trkpt>
      <trkpt lat="54.152116002514958" lon="27.228053966537118">
        <ele>203.94</ele>
        <time>2013-09-21T11:34:53Z</time>
      </trkpt>
      <trkpt lat="54.152056993916631" lon="27.228262005373836">
        <ele>204.90000000000001</ele>
        <time>2013-09-21T11:35:08Z</time>
      </trkpt>
      <trkpt lat="54.152031010016799" lon="27.228425033390522">
        <ele>204.41999999999999</ele>
        <time>2013-09-21T11:35:22Z</time>
      </trkpt>
      <trkpt lat="54.152023969218135" lon="27.22850801423192">
        <ele>204.41999999999999</ele>
        <time>2013-09-21T11:35:29Z</time>
      </trkpt>
      <trkpt lat="54.151948029175401" lon="27.228522012010217">
        <ele>204.41999999999999</ele>
        <time>2013-09-21T11:35:38Z</time>
      </trkpt>
      <trkpt lat="54.151771003380418" lon="27.22865603864193">
        <ele>204.90000000000001</ele>
        <time>2013-09-21T11:35:57Z</time>
      </trkpt>
      <trkpt lat="54.151599006727338" lon="27.228714041411877">
        <ele>205.38</ele>
        <time>2013-09-21T11:36:13Z</time>
      </trkpt>
      <trkpt lat="54.151371018961072" lon="27.22876600921154">
        <ele>207.78</ele>
        <time>2013-09-21T11:36:31Z</time>
      </trkpt>
      <trkpt lat="54.151230035349727" lon="27.228760980069637">
        <ele>207.30000000000001</ele>
        <time>2013-09-21T11:36:46Z</time>
      </trkpt>
      <trkpt lat="54.151190975680947" lon="27.228698031976819">
        <ele>207.78</ele>
        <time>2013-09-21T11:37:00Z</time>
      </trkpt>
      <trkpt lat="54.151078993454576" lon="27.228129990398884">
        <ele>207.30000000000001</ele>
        <time>2013-09-21T11:37:13Z</time>
      </trkpt>
      <trkpt lat="54.150912025943398" lon="27.227424988523126">
        <ele>207.30000000000001</ele>
        <time>2013-09-21T11:37:26Z</time>
      </trkpt>
      <trkpt lat="54.150836002081633" lon="27.226891983300447">
        <ele>209.22</ele>
        <time>2013-09-21T11:37:36Z</time>
      </trkpt>
      <trkpt lat="54.15087103843689" lon="27.226050021126866">
        <ele>208.74000000000001</ele>
        <time>2013-09-21T11:37:49Z</time>
      </trkpt>
      <trkpt lat="54.151048986241221" lon="27.225182997062802">
        <ele>210.19</ele>
        <time>2013-09-21T11:38:04Z</time>
      </trkpt>
      <trkpt lat="54.15119600482285" lon="27.22464001737535">
        <ele>210.19</ele>
        <time>2013-09-21T11:38:18Z</time>
      </trkpt>
      <trkpt lat="54.151225006207824" lon="27.224559970200062">
        <ele>209.69999999999999</ele>
        <time>2013-09-21T11:38:20Z</time>
      </trkpt>
      <trkpt lat="54.151030965149403" lon="27.22416702657938">
        <ele>210.19</ele>
        <time>2013-09-21T11:38:29Z</time>
      </trkpt>
      <trkpt lat="54.150816975161433" lon="27.224039034917951">
        <ele>210.19</ele>
        <time>2013-09-21T11:38:34Z</time>
      </trkpt>
      <trkpt lat="54.150074003264308" lon="27.223600996658206">
        <ele>210.66999999999999</ele>
        <time>2013-09-21T11:38:51Z</time>
      </trkpt>
      <trkpt lat="54.149265987798572" lon="27.223461018875241">
        <ele>209.69999999999999</ele>
        <time>2013-09-21T11:39:08Z</time>
      </trkpt>
      <trkpt lat="54.148557968437672" lon="27.223391029983759">
        <ele>209.22</ele>
        <time>2013-09-21T11:39:23Z</time>
      </trkpt>
      <trkpt lat="54.148413967341185" lon="27.223391029983759">
        <ele>209.69999999999999</ele>
        <time>2013-09-21T11:39:26Z</time>
      </trkpt>
      <trkpt lat="54.147871993482113" lon="27.223363034427166">
        <ele>209.69999999999999</ele>
        <time>2013-09-21T11:39:37Z</time>
      </trkpt>
      <trkpt lat="54.147476032376289" lon="27.223336966708302">
        <ele>209.69999999999999</ele>
        <time>2013-09-21T11:39:45Z</time>
      </trkpt>
      <trkpt lat="54.147375030443072" lon="27.223305031657219">
        <ele>209.69999999999999</ele>
        <time>2013-09-21T11:39:47Z</time>
      </trkpt>
      <trkpt lat="54.146681008860469" lon="27.222710000351071">
        <ele>209.22</ele>
        <time>2013-09-21T11:40:03Z</time>
      </trkpt>
      <trkpt lat="54.146602973341942" lon="27.222603969275951">
        <ele>209.22</ele>
        <time>2013-09-21T11:40:05Z</time>
      </trkpt>
      <trkpt lat="54.146163007244468" lon="27.221960993483663">
        <ele>209.22</ele>
        <time>2013-09-21T11:40:17Z</time>
      </trkpt>
      <trkpt lat="54.145537968724966" lon="27.221097992733121">
        <ele>208.74000000000001</ele>
        <time>2013-09-21T11:40:34Z</time>
      </trkpt>
      <trkpt lat="54.145038994029164" lon="27.220402965322137">
        <ele>208.74000000000001</ele>
        <time>2013-09-21T11:40:47Z</time>
      </trkpt>
      <trkpt lat="54.144511017948389" lon="27.219628980383277">
        <ele>209.22</ele>
        <time>2013-09-21T11:41:02Z</time>
      </trkpt>
      <trkpt lat="54.144441029056907" lon="27.21952797845006">
        <ele>209.22</ele>
        <time>2013-09-21T11:41:04Z</time>
      </trkpt>
      <trkpt lat="54.14382403716445" lon="27.218621978536248">
        <ele>208.74000000000001</ele>
        <time>2013-09-21T11:41:21Z</time>
      </trkpt>
      <trkpt lat="54.143631001934409" lon="27.218361971899867">
        <ele>209.22</ele>
        <time>2013-09-21T11:41:27Z</time>
      </trkpt>
      <trkpt lat="54.143510973080993" lon="27.218172959983349">
        <ele>208.74000000000001</ele>
        <time>2013-09-21T11:41:31Z</time>
      </trkpt>
      <trkpt lat="54.14337401278317" lon="27.218003980815411">
        <ele>208.74000000000001</ele>
        <time>2013-09-21T11:41:35Z</time>
      </trkpt>
      <trkpt lat="54.142995988950133" lon="27.217452032491565">
        <ele>208.74000000000001</ele>
        <time>2013-09-21T11:41:46Z</time>
      </trkpt>
      <trkpt lat="54.1424710303545" lon="27.216693973168731">
        <ele>208.74000000000001</ele>
        <time>2013-09-21T11:42:01Z</time>
      </trkpt>
      <trkpt lat="54.141950011253357" lon="27.216171026229858">
        <ele>209.22</ele>
        <time>2013-09-21T11:42:16Z</time>
      </trkpt>
      <trkpt lat="54.141788994893432" lon="27.216073041781783">
        <ele>209.69999999999999</ele>
        <time>2013-09-21T11:42:20Z</time>
      </trkpt>
      <trkpt lat="54.141170997172594" lon="27.215890986844897">
        <ele>209.22</ele>
        <time>2013-09-21T11:42:34Z</time>
      </trkpt>
      <trkpt lat="54.140550987794995" lon="27.215670961886644">
        <ele>207.30000000000001</ele>
        <time>2013-09-21T11:42:48Z</time>
      </trkpt>
      <trkpt lat="54.139954028651118" lon="27.215442974120378">
        <ele>204.41999999999999</ele>
        <time>2013-09-21T11:43:02Z</time>
      </trkpt>
      <trkpt lat="54.139253972098231" lon="27.21514399163425">
        <ele>201.05000000000001</ele>
        <time>2013-09-21T11:43:18Z</time>
      </trkpt>
      <trkpt lat="54.138448974117637" lon="27.214873004704714">
        <ele>202.00999999999999</ele>
        <time>2013-09-21T11:43:35Z</time>
      </trkpt>
      <trkpt lat="54.137907000258565" lon="27.214289959520102">
        <ele>202.97999999999999</ele>
        <time>2013-09-21T11:43:49Z</time>
      </trkpt>
      <trkpt lat="54.137608017772436" lon="27.213757038116455">
        <ele>205.38</ele>
        <time>2013-09-21T11:43:58Z</time>
      </trkpt>
      <trkpt lat="54.137556971982121" lon="27.21364002674818">
        <ele>205.86000000000001</ele>
        <time>2013-09-21T11:44:00Z</time>
      </trkpt>
      <trkpt lat="54.137440966442227" lon="27.213410027325153">
        <ele>206.34</ele>
        <time>2013-09-21T11:44:04Z</time>
      </trkpt>
      <trkpt lat="54.137163022533059" lon="27.212902000173926">
        <ele>206.81999999999999</ele>
        <time>2013-09-21T11:44:13Z</time>
      </trkpt>
      <trkpt lat="54.13703796453774" lon="27.212656997144222">
        <ele>207.30000000000001</ele>
        <time>2013-09-21T11:44:17Z</time>
      </trkpt>
      <trkpt lat="54.136595986783504" lon="27.211818974465132">
        <ele>207.30000000000001</ele>
        <time>2013-09-21T11:44:32Z</time>
      </trkpt>
      <trkpt lat="54.136427007615566" lon="27.211475986987352">
        <ele>207.30000000000001</ele>
        <time>2013-09-21T11:44:38Z</time>
      </trkpt>
      <trkpt lat="54.136104974895716" lon="27.210807027295232">
        <ele>208.74000000000001</ele>
        <time>2013-09-21T11:44:51Z</time>
      </trkpt>
      <trkpt lat="54.135572975501418" lon="27.210260024294257">
        <ele>210.19</ele>
        <time>2013-09-21T11:45:05Z</time>
      </trkpt>
      <trkpt lat="54.135342976078391" lon="27.210016027092934">
        <ele>210.19</ele>
        <time>2013-09-21T11:45:11Z</time>
      </trkpt>
      <trkpt lat="54.135097973048687" lon="27.209773035719991">
        <ele>209.69999999999999</ele>
        <time>2013-09-21T11:45:17Z</time>
      </trkpt>
      <trkpt lat="54.135010968893766" lon="27.209696006029844">
        <ele>209.69999999999999</ele>
        <time>2013-09-21T11:45:19Z</time>
      </trkpt>
      <trkpt lat="54.134841989725828" lon="27.20955703407526">
        <ele>208.74000000000001</ele>
        <time>2013-09-21T11:45:23Z</time>
      </trkpt>
      <trkpt lat="54.134590029716492" lon="27.209482016041875">
        <ele>207.78</ele>
        <time>2013-09-21T11:45:28Z</time>
      </trkpt>
      <trkpt lat="54.134385008364916" lon="27.209380008280277">
        <ele>207.30000000000001</ele>
        <time>2013-09-21T11:45:32Z</time>
      </trkpt>
      <trkpt lat="54.133987035602331" lon="27.208992009982467">
        <ele>206.81999999999999</ele>
        <time>2013-09-21T11:45:41Z</time>
      </trkpt>
      <trkpt lat="54.133326038718224" lon="27.208340987563133">
        <ele>205.86000000000001</ele>
        <time>2013-09-21T11:45:57Z</time>
      </trkpt>
      <trkpt lat="54.132691025733948" lon="27.207702035084367">
        <ele>206.34</ele>
        <time>2013-09-21T11:46:12Z</time>
      </trkpt>
      <trkpt lat="54.132219962775707" lon="27.207321999594569">
        <ele>206.81999999999999</ele>
        <time>2013-09-21T11:46:23Z</time>
      </trkpt>
      <trkpt lat="54.132124995812774" lon="27.207285035401583">
        <ele>206.34</ele>
        <time>2013-09-21T11:46:25Z</time>
      </trkpt>
      <trkpt lat="54.131777985021472" lon="27.207236001268029">
        <ele>205.38</ele>
        <time>2013-09-21T11:46:33Z</time>
      </trkpt>
      <trkpt lat="54.131594002246857" lon="27.207283023744822">
        <ele>204.90000000000001</ele>
        <time>2013-09-21T11:46:37Z</time>
      </trkpt>
      <trkpt lat="54.131412031129003" lon="27.207370027899742">
        <ele>203.94</ele>
        <time>2013-09-21T11:46:41Z</time>
      </trkpt>
      <trkpt lat="54.13074298761785" lon="27.20811802893877">
        <ele>204.41999999999999</ele>
        <time>2013-09-21T11:46:57Z</time>
      </trkpt>
      <trkpt lat="54.130567973479629" lon="27.208390021696687">
        <ele>203.94</ele>
        <time>2013-09-21T11:47:02Z</time>
      </trkpt>
      <trkpt lat="54.130433024838567" lon="27.208609962835908">
        <ele>203.94</ele>
        <time>2013-09-21T11:47:06Z</time>
      </trkpt>
      <trkpt lat="54.13031199015677" lon="27.208821019157767">
        <ele>203.94</ele>
        <time>2013-09-21T11:47:10Z</time>
      </trkpt>
      <trkpt lat="54.130147034302354" lon="27.209026962518692">
        <ele>203.94</ele>
        <time>2013-09-21T11:47:14Z</time>
      </trkpt>
      <trkpt lat="54.129541022703052" lon="27.209582012146711">
        <ele>203.46000000000001</ele>
        <time>2013-09-21T11:47:28Z</time>
      </trkpt>
      <trkpt lat="54.129353016614914" lon="27.209672033786774">
        <ele>202.49000000000001</ele>
        <time>2013-09-21T11:47:32Z</time>
      </trkpt>
      <trkpt lat="54.129257965832949" lon="27.209702963009477">
        <ele>201.53</ele>
        <time>2013-09-21T11:47:34Z</time>
      </trkpt>
      <trkpt lat="54.128424972295761" lon="27.20964596606791">
        <ele>201.53</ele>
        <time>2013-09-21T11:47:51Z</time>
      </trkpt>
      <trkpt lat="54.127885010093451" lon="27.209543958306313">
        <ele>201.05000000000001</ele>
        <time>2013-09-21T11:48:02Z</time>
      </trkpt>
      <trkpt lat="54.127473039552569" lon="27.209454020485282">
        <ele>201.53</ele>
        <time>2013-09-21T11:48:14Z</time>
      </trkpt>
      <trkpt lat="54.127312023192644" lon="27.209458965808153">
        <ele>202.49000000000001</ele>
        <time>2013-09-21T11:48:26Z</time>
      </trkpt>
      <trkpt lat="54.127139020711184" lon="27.209424013271928">
        <ele>203.94</ele>
        <time>2013-09-21T11:51:56Z</time>
      </trkpt>
      <trkpt lat="54.126668963581324" lon="27.209355030208826">
        <ele>205.38</ele>
        <time>2013-09-21T11:52:11Z</time>
      </trkpt>
      <trkpt lat="54.125965973362327" lon="27.209260985255241">
        <ele>205.38</ele>
        <time>2013-09-21T11:52:28Z</time>
      </trkpt>
      <trkpt lat="54.125228030607104" lon="27.20914900302887">
        <ele>203.94</ele>
        <time>2013-09-21T11:52:45Z</time>
      </trkpt>
      <trkpt lat="54.125056033954024" lon="27.20912603661418">
        <ele>203.94</ele>
        <time>2013-09-21T11:52:49Z</time>
      </trkpt>
      <trkpt lat="54.124300992116332" lon="27.209001984447241">
        <ele>204.41999999999999</ele>
        <time>2013-09-21T11:53:06Z</time>
      </trkpt>
      <trkpt lat="54.123573023825884" lon="27.208900982514024">
        <ele>204.41999999999999</ele>
        <time>2013-09-21T11:53:22Z</time>
      </trkpt>
      <trkpt lat="54.12266400642693" lon="27.208787994459271">
        <ele>203.94</ele>
        <time>2013-09-21T11:53:42Z</time>
      </trkpt>
      <trkpt lat="54.12180301733315" lon="27.208694033324718">
        <ele>204.90000000000001</ele>
        <time>2013-09-21T11:54:01Z</time>
      </trkpt>
      <trkpt lat="54.121156018227339" lon="27.20848498865962">
        <ele>205.38</ele>
        <time>2013-09-21T11:54:16Z</time>
      </trkpt>
      <trkpt lat="54.120484963059425" lon="27.208174020051956">
        <ele>208.25999999999999</ele>
        <time>2013-09-21T11:54:32Z</time>
      </trkpt>
      <trkpt lat="54.119920022785664" lon="27.207584017887712">
        <ele>208.25999999999999</ele>
        <time>2013-09-21T11:54:47Z</time>
      </trkpt>
      <trkpt lat="54.119416018947959" lon="27.207243964076042">
        <ele>209.22</ele>
        <time>2013-09-21T11:55:00Z</time>
      </trkpt>
      <trkpt lat="54.118986027315259" lon="27.206745995208621">
        <ele>208.25999999999999</ele>
        <time>2013-09-21T11:55:14Z</time>
      </trkpt>
      <trkpt lat="54.118504989892244" lon="27.206016015261412">
        <ele>210.66999999999999</ele>
        <time>2013-09-21T11:55:30Z</time>
      </trkpt>
      <trkpt lat="54.118435001000762" lon="27.205609995871782">
        <ele>210.19</ele>
        <time>2013-09-21T11:55:40Z</time>
      </trkpt>
      <trkpt lat="54.118447992950678" lon="27.205560961738229">
        <ele>210.19</ele>
        <time>2013-09-21T11:55:41Z</time>
      </trkpt>
      <trkpt lat="54.11853801459074" lon="27.205295003950596">
        <ele>208.25999999999999</ele>
        <time>2013-09-21T11:55:45Z</time>
      </trkpt>
      <trkpt lat="54.118509013205767" lon="27.204826958477497">
        <ele>205.38</ele>
        <time>2013-09-21T11:55:53Z</time>
      </trkpt>
      <trkpt lat="54.118376998230815" lon="27.204797035083175">
        <ele>203.46000000000001</ele>
        <time>2013-09-21T11:55:57Z</time>
      </trkpt>
      <trkpt lat="54.118068963289261" lon="27.205066010355949">
        <ele>201.05000000000001</ele>
        <time>2013-09-21T11:56:08Z</time>
      </trkpt>
      <trkpt lat="54.117814991623163" lon="27.205280000343919">
        <ele>203.46000000000001</ele>
        <time>2013-09-21T11:56:19Z</time>
      </trkpt>
      <trkpt lat="54.117464041337371" lon="27.20472302287817">
        <ele>205.38</ele>
        <time>2013-09-21T11:56:32Z</time>
      </trkpt>
      <trkpt lat="54.116963976994157" lon="27.20382297411561">
        <ele>207.30000000000001</ele>
        <time>2013-09-21T11:56:49Z</time>
      </trkpt>
      <trkpt lat="54.11639099009335" lon="27.20276702195406">
        <ele>208.25999999999999</ele>
        <time>2013-09-21T11:57:08Z</time>
      </trkpt>
      <trkpt lat="54.115955969318748" lon="27.201863033697009">
        <ele>209.69999999999999</ele>
        <time>2013-09-21T11:57:23Z</time>
      </trkpt>
      <trkpt lat="54.115426987409592" lon="27.20074899494648">
        <ele>211.15000000000001</ele>
        <time>2013-09-21T11:57:41Z</time>
      </trkpt>
      <trkpt lat="54.115209979936481" lon="27.200314980000257">
        <ele>210.66999999999999</ele>
        <time>2013-09-21T11:57:48Z</time>
      </trkpt>
      <trkpt lat="54.114615032449365" lon="27.199279982596636">
        <ele>210.66999999999999</ele>
        <time>2013-09-21T11:58:07Z</time>
      </trkpt>
      <trkpt lat="54.11389896646142" lon="27.198421005159616">
        <ele>210.66999999999999</ele>
        <time>2013-09-21T11:58:26Z</time>
      </trkpt>
      <trkpt lat="54.113216008991003" lon="27.19763302244246">
        <ele>210.19</ele>
        <time>2013-09-21T11:58:44Z</time>
      </trkpt>
      <trkpt lat="54.112493991851807" lon="27.196845961734653">
        <ele>210.19</ele>
        <time>2013-09-21T11:59:02Z</time>
      </trkpt>
      <trkpt lat="54.111707014963031" lon="27.196060996502638">
        <ele>210.66999999999999</ele>
        <time>2013-09-21T11:59:21Z</time>
      </trkpt>
      <trkpt lat="54.110957002267241" lon="27.19537703320384">
        <ele>210.19</ele>
        <time>2013-09-21T11:59:39Z</time>
      </trkpt>
      <trkpt lat="54.110920038074255" lon="27.195347025990486">
        <ele>210.19</ele>
        <time>2013-09-21T11:59:40Z</time>
      </trkpt>
      <trkpt lat="54.110296005383134" lon="27.195200007408857">
        <ele>209.69999999999999</ele>
        <time>2013-09-21T11:59:55Z</time>
      </trkpt>
      <trkpt lat="54.109538029879332" lon="27.19516103155911">
        <ele>210.19</ele>
        <time>2013-09-21T12:00:13Z</time>
      </trkpt>
      <trkpt lat="54.108884995803237" lon="27.19512197189033">
        <ele>209.22</ele>
        <time>2013-09-21T12:00:29Z</time>
      </trkpt>
      <trkpt lat="54.10839700140059" lon="27.195089031010866">
        <ele>208.74000000000001</ele>
        <time>2013-09-21T12:00:42Z</time>
      </trkpt>
      <trkpt lat="54.107824014499784" lon="27.195030022412539">
        <ele>206.81999999999999</ele>
        <time>2013-09-21T12:00:57Z</time>
      </trkpt>
      <trkpt lat="54.107474992051721" lon="27.195130018517375">
        <ele>203.46000000000001</ele>
        <time>2013-09-21T12:01:09Z</time>
      </trkpt>
      <trkpt lat="54.107341971248388" lon="27.195091964676976">
        <ele>201.53</ele>
        <time>2013-09-21T12:01:20Z</time>
      </trkpt>
      <trkpt lat="54.107224037870765" lon="27.195025999099016">
        <ele>208.74000000000001</ele>
        <time>2013-09-21T12:01:34Z</time>
      </trkpt>
      <trkpt lat="54.107194030657411" lon="27.195007978007197">
        <ele>210.19</ele>
        <time>2013-09-21T12:01:37Z</time>
      </trkpt>
      <trkpt lat="54.107115995138884" lon="27.195028010755777">
        <ele>210.66999999999999</ele>
        <time>2013-09-21T12:01:56Z</time>
      </trkpt>
      <trkpt lat="54.107054974883795" lon="27.19503303989768">
        <ele>210.66999999999999</ele>
        <time>2013-09-21T12:02:01Z</time>
      </trkpt>
      <trkpt lat="54.106858000159264" lon="27.195023987442255">
        <ele>211.63</ele>
        <time>2013-09-21T12:02:18Z</time>
      </trkpt>
      <trkpt lat="54.106747023761272" lon="27.19494997523725">
        <ele>213.06999999999999</ele>
        <time>2013-09-21T12:02:34Z</time>
      </trkpt>
      <trkpt lat="54.106738977134228" lon="27.194959027692676">
        <ele>213.06999999999999</ele>
        <time>2013-09-21T12:02:37Z</time>
      </trkpt>
      <trkpt lat="54.106676029041409" lon="27.194993980228901">
        <ele>213.06999999999999</ele>
        <time>2013-09-21T12:02:52Z</time>
      </trkpt>
      <trkpt lat="54.106674017384648" lon="27.194994986057281">
        <ele>213.55000000000001</ele>
        <time>2013-09-21T12:04:13Z</time>
      </trkpt>
      <trkpt lat="54.106673011556268" lon="27.195084001868963">
        <ele>215.47</ele>
        <time>2013-09-21T12:10:43Z</time>
      </trkpt>
      <trkpt lat="54.106653984636068" lon="27.195144016295671">
        <ele>215.94999999999999</ele>
        <time>2013-09-21T12:10:51Z</time>
      </trkpt>
      <trkpt lat="54.106578966602683" lon="27.195409974083304">
        <ele>217.40000000000001</ele>
        <time>2013-09-21T12:10:59Z</time>
      </trkpt>
      <trkpt lat="54.106371011584997" lon="27.19608698040247">
        <ele>218.36000000000001</ele>
        <time>2013-09-21T12:11:16Z</time>
      </trkpt>
      <trkpt lat="54.106231033802032" lon="27.196634989231825">
        <ele>218.84</ele>
        <time>2013-09-21T12:11:28Z</time>
      </trkpt>
      <trkpt lat="54.106069011613727" lon="27.19718299806118">
        <ele>220.28</ele>
        <time>2013-09-21T12:11:41Z</time>
      </trkpt>
      <trkpt lat="54.106173031032085" lon="27.197599997743964">
        <ele>223.63999999999999</ele>
        <time>2013-09-21T12:11:53Z</time>
      </trkpt>
      <trkpt lat="54.106414010748267" lon="27.197895040735602">
        <ele>227.49000000000001</ele>
        <time>2013-09-21T12:12:06Z</time>
      </trkpt>
      <trkpt lat="54.106425996869802" lon="27.198021020740271">
        <ele>227.97</ele>
        <time>2013-09-21T12:12:18Z</time>
      </trkpt>
      <trkpt lat="54.106437982991338" lon="27.198022026568651">
        <ele>227.97</ele>
        <time>2013-09-21T12:12:20Z</time>
      </trkpt>
      <trkpt lat="54.106490034610033" lon="27.197957988828421">
        <ele>227.97</ele>
        <time>2013-09-21T12:12:25Z</time>
      </trkpt>
      <trkpt lat="54.106749035418034" lon="27.198125040158629">
        <ele>228.44999999999999</ele>
        <time>2013-09-21T12:12:37Z</time>
      </trkpt>
      <trkpt lat="54.10676596686244" lon="27.198159992694855">
        <ele>228.44999999999999</ele>
        <time>2013-09-21T12:12:38Z</time>
      </trkpt>
      <trkpt lat="54.106745012104511" lon="27.198337018489838">
        <ele>227.49000000000001</ele>
        <time>2013-09-21T12:12:42Z</time>
      </trkpt>
      <trkpt lat="54.10652699880302" lon="27.199147967621684">
        <ele>224.61000000000001</ele>
        <time>2013-09-21T12:12:56Z</time>
      </trkpt>
      <trkpt lat="54.106223993003368" lon="27.199733024463058">
        <ele>224.61000000000001</ele>
        <time>2013-09-21T12:13:07Z</time>
      </trkpt>
      <trkpt lat="54.1061170399189" lon="27.199852969497442">
        <ele>224.61000000000001</ele>
        <time>2013-09-21T12:13:10Z</time>
      </trkpt>
      <trkpt lat="54.10551798529923" lon="27.20008397474885">
        <ele>225.56999999999999</ele>
        <time>2013-09-21T12:13:25Z</time>
      </trkpt>
      <trkpt lat="54.104819018393755" lon="27.200056985020638">
        <ele>226.05000000000001</ele>
        <time>2013-09-21T12:13:40Z</time>
      </trkpt>
      <trkpt lat="54.104098007082939" lon="27.200103001669049">
        <ele>224.61000000000001</ele>
        <time>2013-09-21T12:13:56Z</time>
      </trkpt>
      <trkpt lat="54.103686958551407" lon="27.200307017192245">
        <ele>224.61000000000001</ele>
        <time>2013-09-21T12:14:05Z</time>
      </trkpt>
      <trkpt lat="54.103057980537415" lon="27.200917974114418">
        <ele>225.56999999999999</ele>
        <time>2013-09-21T12:14:21Z</time>
      </trkpt>
      <trkpt lat="54.102904004976153" lon="27.201084019616246">
        <ele>226.05000000000001</ele>
        <time>2013-09-21T12:14:25Z</time>
      </trkpt>
      <trkpt lat="54.102379968389869" lon="27.201625993475318">
        <ele>227.49000000000001</ele>
        <time>2013-09-21T12:14:39Z</time>
      </trkpt>
      <trkpt lat="54.101799018681049" lon="27.201967975124717">
        <ele>227.49000000000001</ele>
        <time>2013-09-21T12:14:53Z</time>
      </trkpt>
      <trkpt lat="54.101669015362859" lon="27.202000999823213">
        <ele>227.97</ele>
        <time>2013-09-21T12:14:56Z</time>
      </trkpt>
      <trkpt lat="54.10154202952981" lon="27.202022038400173">
        <ele>227.97</ele>
        <time>2013-09-21T12:14:59Z</time>
      </trkpt>
      <trkpt lat="54.101151013746858" lon="27.201945008710027">
        <ele>228.93000000000001</ele>
        <time>2013-09-21T12:15:08Z</time>
      </trkpt>
      <trkpt lat="54.100915985181928" lon="27.201807964593172">
        <ele>228.44999999999999</ele>
        <time>2013-09-21T12:15:14Z</time>
      </trkpt>
      <trkpt lat="54.100280972197652" lon="27.201300021260977">
        <ele>228.44999999999999</ele>
        <time>2013-09-21T12:15:30Z</time>
      </trkpt>
      <trkpt lat="54.099657023325562" lon="27.200773973017931">
        <ele>228.44999999999999</ele>
        <time>2013-09-21T12:15:46Z</time>
      </trkpt>
      <trkpt lat="54.099191995337605" lon="27.200456969439983">
        <ele>228.44999999999999</ele>
        <time>2013-09-21T12:15:59Z</time>
      </trkpt>
      <trkpt lat="54.098648009821773" lon="27.200171984732151">
        <ele>228.44999999999999</ele>
        <time>2013-09-21T12:16:12Z</time>
      </trkpt>
      <trkpt lat="54.098051972687244" lon="27.199836960062385">
        <ele>228.44999999999999</ele>
        <time>2013-09-21T12:16:25Z</time>
      </trkpt>
      <trkpt lat="54.097359962761402" lon="27.199472011998296">
        <ele>229.88999999999999</ele>
        <time>2013-09-21T12:16:40Z</time>
      </trkpt>
      <trkpt lat="54.096715981140733" lon="27.199111003428698">
        <ele>230.84999999999999</ele>
        <time>2013-09-21T12:16:54Z</time>
      </trkpt>
      <trkpt lat="54.096127990633249" lon="27.19881696626544">
        <ele>230.84999999999999</ele>
        <time>2013-09-21T12:17:08Z</time>
      </trkpt>
      <trkpt lat="54.095561960712075" lon="27.198526030406356">
        <ele>228.93000000000001</ele>
        <time>2013-09-21T12:17:21Z</time>
      </trkpt>
      <trkpt lat="54.09496801905334" lon="27.198210032656789">
        <ele>227.97</ele>
        <time>2013-09-21T12:17:36Z</time>
      </trkpt>
      <trkpt lat="54.094741959124804" lon="27.198116993531585">
        <ele>227.49000000000001</ele>
        <time>2013-09-21T12:17:42Z</time>
      </trkpt>
      <trkpt lat="54.094379022717476" lon="27.198236016556621">
        <ele>226.53</ele>
        <time>2013-09-21T12:17:51Z</time>
      </trkpt>
      <trkpt lat="54.093969985842705" lon="27.198516977950931">
        <ele>226.53</ele>
        <time>2013-09-21T12:18:04Z</time>
      </trkpt>
      <trkpt lat="54.093655999749899" lon="27.198585039004683">
        <ele>226.05000000000001</ele>
        <time>2013-09-21T12:18:13Z</time>
      </trkpt>
      <trkpt lat="54.092939011752605" lon="27.198919979855418">
        <ele>225.09</ele>
        <time>2013-09-21T12:18:30Z</time>
      </trkpt>
      <trkpt lat="54.092181958258152" lon="27.199256010353565">
        <ele>224.61000000000001</ele>
        <time>2013-09-21T12:18:48Z</time>
      </trkpt>
      <trkpt lat="54.091622969135642" lon="27.199548035860062">
        <ele>224.61000000000001</ele>
        <time>2013-09-21T12:19:03Z</time>
      </trkpt>
      <trkpt lat="54.091460024937987" lon="27.199634034186602">
        <ele>224.61000000000001</ele>
        <time>2013-09-21T12:19:13Z</time>
      </trkpt>
      <trkpt lat="54.091462036594748" lon="27.199637973681092">
        <ele>224.61000000000001</ele>
        <time>2013-09-21T12:19:27Z</time>
      </trkpt>
      <trkpt lat="54.091442003846169" lon="27.199676027521491">
        <ele>224.61000000000001</ele>
        <time>2013-09-21T12:19:41Z</time>
      </trkpt>
      <trkpt lat="54.091435968875885" lon="27.199692958965898">
        <ele>224.61000000000001</ele>
        <time>2013-09-21T12:19:42Z</time>
      </trkpt>
      <trkpt lat="54.091436974704266" lon="27.199758002534509">
        <ele>225.09</ele>
        <time>2013-09-21T12:19:48Z</time>
      </trkpt>
      <trkpt lat="54.091452984139323" lon="27.199751967564225">
        <ele>225.09</ele>
        <time>2013-09-21T12:19:50Z</time>
      </trkpt>
      <trkpt lat="54.091502018272877" lon="27.199821034446359">
        <ele>227.97</ele>
        <time>2013-09-21T12:20:04Z</time>
      </trkpt>
      <trkpt lat="54.091517021879554" lon="27.199892029166222">
        <ele>231.33000000000001</ele>
        <time>2013-09-21T12:20:17Z</time>
      </trkpt>
      <trkpt lat="54.09150998108089" lon="27.199937039986253">
        <ele>231.81</ele>
        <time>2013-09-21T12:20:25Z</time>
      </trkpt>
      <trkpt lat="54.091446027159691" lon="27.200003005564213">
        <ele>231.33000000000001</ele>
        <time>2013-09-21T12:20:35Z</time>
      </trkpt>
      <trkpt lat="54.091341001912951" lon="27.200082968920469">
        <ele>230.37</ele>
        <time>2013-09-21T12:20:40Z</time>
      </trkpt>
      <trkpt lat="54.090868011116982" lon="27.20027700997889">
        <ele>229.88999999999999</ele>
        <time>2013-09-21T12:20:54Z</time>
      </trkpt>
      <trkpt lat="54.090301981195807" lon="27.200493011623621">
        <ele>231.33000000000001</ele>
        <time>2013-09-21T12:21:09Z</time>
      </trkpt>
      <trkpt lat="54.090139036998153" lon="27.200617985799909">
        <ele>231.33000000000001</ele>
        <time>2013-09-21T12:21:14Z</time>
      </trkpt>
      <trkpt lat="54.089621035382152" lon="27.201013024896383">
        <ele>231.81</ele>
        <time>2013-09-21T12:21:29Z</time>
      </trkpt>
      <trkpt lat="54.08895299769938" lon="27.201528009027243">
        <ele>232.78</ele>
        <time>2013-09-21T12:21:47Z</time>
      </trkpt>
      <trkpt lat="54.088648986071348" lon="27.201740993186831">
        <ele>233.25999999999999</ele>
        <time>2013-09-21T12:21:55Z</time>
      </trkpt>
      <trkpt lat="54.088399037718773" lon="27.202002005651593">
        <ele>233.25999999999999</ele>
        <time>2013-09-21T12:22:02Z</time>
      </trkpt>
      <trkpt lat="54.088178006932139" lon="27.202206021174788">
        <ele>233.25999999999999</ele>
        <time>2013-09-21T12:22:08Z</time>
      </trkpt>
      <trkpt lat="54.087695041671395" lon="27.202602988108993">
        <ele>233.25999999999999</ele>
        <time>2013-09-21T12:22:21Z</time>
      </trkpt>
      <trkpt lat="54.087475016713142" lon="27.202744977548718">
        <ele>233.25999999999999</ele>
        <time>2013-09-21T12:22:26Z</time>
      </trkpt>
      <trkpt lat="54.086866993457079" lon="27.203183015808463">
        <ele>232.30000000000001</ele>
        <time>2013-09-21T12:22:40Z</time>
      </trkpt>
      <trkpt lat="54.085983959957957" lon="27.203805036842823">
        <ele>229.88999999999999</ele>
        <time>2013-09-21T12:22:59Z</time>
      </trkpt>
      <trkpt lat="54.085830990225077" lon="27.204003017395735">
        <ele>229.41</ele>
        <time>2013-09-21T12:23:03Z</time>
      </trkpt>
      <trkpt lat="54.085712973028421" lon="27.204237962141633">
        <ele>229.41</ele>
        <time>2013-09-21T12:23:07Z</time>
      </trkpt>
      <trkpt lat="54.08544902689755" lon="27.204512972384691">
        <ele>228.44999999999999</ele>
        <time>2013-09-21T12:23:13Z</time>
      </trkpt>
      <trkpt lat="54.084975030273199" lon="27.204526970162988">
        <ele>230.37</ele>
        <time>2013-09-21T12:23:25Z</time>
      </trkpt>
      <trkpt lat="54.084704965353012" lon="27.204751018434763">
        <ele>230.84999999999999</ele>
        <time>2013-09-21T12:23:32Z</time>
      </trkpt>
      <trkpt lat="54.08401102758944" lon="27.205104986205697">
        <ele>230.37</ele>
        <time>2013-09-21T12:23:48Z</time>
      </trkpt>
      <trkpt lat="54.083202006295323" lon="27.205418972298503">
        <ele>230.37</ele>
        <time>2013-09-21T12:24:06Z</time>
      </trkpt>
      <trkpt lat="54.082710994407535" lon="27.205654000863433">
        <ele>229.88999999999999</ele>
        <time>2013-09-21T12:24:17Z</time>
      </trkpt>
      <trkpt lat="54.081966010853648" lon="27.2060770355165">
        <ele>231.33000000000001</ele>
        <time>2013-09-21T12:24:36Z</time>
      </trkpt>
      <trkpt lat="54.081420013681054" lon="27.206667037680745">
        <ele>230.84999999999999</ele>
        <time>2013-09-21T12:24:51Z</time>
      </trkpt>
      <trkpt lat="54.081342983990908" lon="27.206820007413626">
        <ele>230.37</ele>
        <time>2013-09-21T12:24:54Z</time>
      </trkpt>
      <trkpt lat="54.081217003986239" lon="27.206982029601932">
        <ele>230.37</ele>
        <time>2013-09-21T12:24:58Z</time>
      </trkpt>
      <trkpt lat="54.080619039013982" lon="27.20768703147769">
        <ele>230.37</ele>
        <time>2013-09-21T12:25:15Z</time>
      </trkpt>
      <trkpt lat="54.08016499131918" lon="27.208219030871987">
        <ele>228.93000000000001</ele>
        <time>2013-09-21T12:25:30Z</time>
      </trkpt>
      <trkpt lat="54.079867014661431" lon="27.208663020282984">
        <ele>226.53</ele>
        <time>2013-09-21T12:25:39Z</time>
      </trkpt>
      <trkpt lat="54.079840024933219" lon="27.208600994199514">
        <ele>228.44999999999999</ele>
        <time>2013-09-21T12:25:47Z</time>
      </trkpt>
      <trkpt lat="54.079710021615028" lon="27.20863401889801">
        <ele>227.97</ele>
        <time>2013-09-21T12:26:00Z</time>
      </trkpt>
      <trkpt lat="54.079395029693842" lon="27.208638964220881">
        <ele>228.44999999999999</ele>
        <time>2013-09-21T12:26:13Z</time>
      </trkpt>
      <trkpt lat="54.079411961138248" lon="27.208665031939745">
        <ele>228.93000000000001</ele>
        <time>2013-09-21T12:26:24Z</time>
      </trkpt>
      <trkpt lat="54.079551016911864" lon="27.208611974492669">
        <ele>228.93000000000001</ele>
        <time>2013-09-21T12:26:31Z</time>
      </trkpt>
      <trkpt lat="54.079793002456427" lon="27.208606023341417">
        <ele>228.93000000000001</ele>
        <time>2013-09-21T12:26:40Z</time>
      </trkpt>
      <trkpt lat="54.079795014113188" lon="27.208248032256961">
        <ele>227.00999999999999</ele>
        <time>2013-09-21T12:26:51Z</time>
      </trkpt>
      <trkpt lat="54.079751009121537" lon="27.208176031708717">
        <ele>227.00999999999999</ele>
        <time>2013-09-21T12:26:54Z</time>
      </trkpt>
      <trkpt lat="54.079568032175303" lon="27.208215007558465">
        <ele>226.05000000000001</ele>
        <time>2013-09-21T12:27:06Z</time>
      </trkpt>
      <trkpt lat="54.079568032175303" lon="27.208215007558465">
        <ele>226.05000000000001</ele>
        <time>2013-09-21T12:27:33Z</time>
      </trkpt>
      <trkpt lat="54.079569038003683" lon="27.208217019215226">
        <ele>226.05000000000001</ele>
        <time>2013-09-21T12:27:57Z</time>
      </trkpt>
      <trkpt lat="54.079399975016713" lon="27.208306035026908">
        <ele>225.56999999999999</ele>
        <time>2013-09-21T12:28:11Z</time>
      </trkpt>
      <trkpt lat="54.078691033646464" lon="27.208469985052943">
        <ele>225.56999999999999</ele>
        <time>2013-09-21T12:28:27Z</time>
      </trkpt>
      <trkpt lat="54.078566981479526" lon="27.208498986437917">
        <ele>225.09</ele>
        <time>2013-09-21T12:28:30Z</time>
      </trkpt>
      <trkpt lat="54.078351985663176" lon="27.208531005308032">
        <ele>225.56999999999999</ele>
        <time>2013-09-21T12:28:35Z</time>
      </trkpt>
      <trkpt lat="54.077776987105608" lon="27.20824996009469">
        <ele>225.09</ele>
        <time>2013-09-21T12:28:49Z</time>
      </trkpt>
      <trkpt lat="54.077445985749364" lon="27.207610001787543">
        <ele>226.05000000000001</ele>
        <time>2013-09-21T12:29:03Z</time>
      </trkpt>
      <trkpt lat="54.07737297937274" lon="27.207477986812592">
        <ele>226.53</ele>
        <time>2013-09-21T12:29:13Z</time>
      </trkpt>
      <trkpt lat="54.077315982431173" lon="27.207351000979543">
        <ele>227.49000000000001</ele>
        <time>2013-09-21T12:30:02Z</time>
      </trkpt>
      <trkpt lat="54.076960003003478" lon="27.206777008250356">
        <ele>227.00999999999999</ele>
        <time>2013-09-21T12:30:15Z</time>
      </trkpt>
      <trkpt lat="54.076391961425543" lon="27.206131014972925">
        <ele>227.49000000000001</ele>
        <time>2013-09-21T12:30:31Z</time>
      </trkpt>
      <trkpt lat="54.076353991404176" lon="27.206106036901474">
        <ele>227.49000000000001</ele>
        <time>2013-09-21T12:30:32Z</time>
      </trkpt>
      <trkpt lat="54.075651001185179" lon="27.206060020253062">
        <ele>227.00999999999999</ele>
        <time>2013-09-21T12:30:49Z</time>
      </trkpt>
      <trkpt lat="54.074932001531124" lon="27.20625096000731">
        <ele>226.05000000000001</ele>
        <time>2013-09-21T12:31:05Z</time>
      </trkpt>
      <trkpt lat="54.074317021295428" lon="27.206394961103797">
        <ele>225.56999999999999</ele>
        <time>2013-09-21T12:31:20Z</time>
      </trkpt>
      <trkpt lat="54.073873031884432" lon="27.206518007442355">
        <ele>226.05000000000001</ele>
        <time>2013-09-21T12:31:33Z</time>
      </trkpt>
      <trkpt lat="54.073123019188643" lon="27.206702996045351">
        <ele>227.49000000000001</ele>
        <time>2013-09-21T12:31:51Z</time>
      </trkpt>
      <trkpt lat="54.07262496650219" lon="27.206859989091754">
        <ele>226.53</ele>
        <time>2013-09-21T12:32:05Z</time>
      </trkpt>
      <trkpt lat="54.072236968204379" lon="27.206955961883068">
        <ele>225.56999999999999</ele>
        <time>2013-09-21T12:32:17Z</time>
      </trkpt>
      <trkpt lat="54.071887023746967" lon="27.20706501044333">
        <ele>225.56999999999999</ele>
        <time>2013-09-21T12:32:28Z</time>
      </trkpt>
      <trkpt lat="54.071605978533626" lon="27.207133993506432">
        <ele>226.05000000000001</ele>
        <time>2013-09-21T12:32:39Z</time>
      </trkpt>
      <trkpt lat="54.071412021294236" lon="27.207187972962856">
        <ele>227.49000000000001</ele>
        <time>2013-09-21T12:32:50Z</time>
      </trkpt>
      <trkpt lat="54.071327028796077" lon="27.20721404068172">
        <ele>227.49000000000001</ele>
        <time>2013-09-21T12:33:02Z</time>
      </trkpt>
      <trkpt lat="54.071327028796077" lon="27.20721404068172">
        <ele>227.49000000000001</ele>
        <time>2013-09-21T12:33:30Z</time>
      </trkpt>
      <trkpt lat="54.071306996047497" lon="27.207232983782887">
        <ele>227.49000000000001</ele>
        <time>2013-09-21T12:33:45Z</time>
      </trkpt>
      <trkpt lat="54.071306996047497" lon="27.207232983782887">
        <ele>227.49000000000001</ele>
        <time>2013-09-21T12:33:50Z</time>
      </trkpt>
      <trkpt lat="54.071244969964027" lon="27.207527020946145">
        <ele>230.37</ele>
        <time>2013-09-21T12:34:05Z</time>
      </trkpt>
      <trkpt lat="54.071203982457519" lon="27.207658030092716">
        <ele>232.30000000000001</ele>
        <time>2013-09-21T12:34:13Z</time>
      </trkpt>
      <trkpt lat="54.071089988574386" lon="27.207805970683694">
        <ele>235.18000000000001</ele>
        <time>2013-09-21T12:34:29Z</time>
      </trkpt>
      <trkpt lat="54.071089988574386" lon="27.207806976512074">
        <ele>235.18000000000001</ele>
        <time>2013-09-21T12:35:46Z</time>
      </trkpt>
      <trkpt lat="54.071094011887908" lon="27.207810999825597">
        <ele>234.22</ele>
        <time>2013-09-21T12:38:16Z</time>
      </trkpt>
      <trkpt lat="54.071096023544669" lon="27.207812005653977">
        <ele>234.69999999999999</ele>
        <time>2013-09-21T12:39:14Z</time>
      </trkpt>
      <trkpt lat="54.071093006059527" lon="27.2078160289675">
        <ele>234.69999999999999</ele>
        <time>2013-09-21T12:40:04Z</time>
      </trkpt>
      <trkpt lat="54.071087976917624" lon="27.207814017310739">
        <ele>234.69999999999999</ele>
        <time>2013-09-21T12:40:49Z</time>
      </trkpt>
      <trkpt lat="54.07109996303916" lon="27.207892974838614">
        <ele>234.69999999999999</ele>
        <time>2013-09-21T12:41:33Z</time>
      </trkpt>
      <trkpt lat="54.07107699662447" lon="27.20820302143693">
        <ele>234.69999999999999</ele>
        <time>2013-09-21T12:41:52Z</time>
      </trkpt>
      <trkpt lat="54.071066016331315" lon="27.208223976194859">
        <ele>234.69999999999999</ele>
        <time>2013-09-21T12:41:54Z</time>
      </trkpt>
      <trkpt lat="54.071046989411116" lon="27.20859101973474">
        <ele>234.69999999999999</ele>
        <time>2013-09-21T12:42:13Z</time>
      </trkpt>
      <trkpt lat="54.071069033816457" lon="27.208735020831227">
        <ele>235.18000000000001</ele>
        <time>2013-09-21T12:42:26Z</time>
      </trkpt>
      <trkpt lat="54.071127036586404" lon="27.209223015233874">
        <ele>235.66</ele>
        <time>2013-09-21T12:42:37Z</time>
      </trkpt>
      <trkpt lat="54.071246981620789" lon="27.209833972156048">
        <ele>235.18000000000001</ele>
        <time>2013-09-21T12:42:49Z</time>
      </trkpt>
      <trkpt lat="54.071426019072533" lon="27.210580967366695">
        <ele>235.66</ele>
        <time>2013-09-21T12:43:03Z</time>
      </trkpt>
      <trkpt lat="54.071478992700577" lon="27.210801998153329">
        <ele>236.13999999999999</ele>
        <time>2013-09-21T12:43:08Z</time>
      </trkpt>
      <trkpt lat="54.071391988545656" lon="27.210985980927944">
        <ele>236.62</ele>
        <time>2013-09-21T12:43:14Z</time>
      </trkpt>
      <trkpt lat="54.070954034104943" lon="27.211108021438122">
        <ele>237.09999999999999</ele>
        <time>2013-09-21T12:43:26Z</time>
      </trkpt>
      <trkpt lat="54.070451958104968" lon="27.211245987564325">
        <ele>237.09999999999999</ele>
        <time>2013-09-21T12:43:41Z</time>
      </trkpt>
      <trkpt lat="54.069968992844224" lon="27.211395017802715">
        <ele>237.09999999999999</ele>
        <time>2013-09-21T12:43:55Z</time>
      </trkpt>
      <trkpt lat="54.069808982312679" lon="27.211436005309224">
        <ele>237.58000000000001</ele>
        <time>2013-09-21T12:44:07Z</time>
      </trkpt>
      <trkpt lat="54.069808982312679" lon="27.211436005309224">
        <ele>237.58000000000001</ele>
        <time>2013-09-21T12:44:08Z</time>
      </trkpt>
      <trkpt lat="54.06978802755475" lon="27.211538013070822">
        <ele>237.58000000000001</ele>
        <time>2013-09-21T12:44:12Z</time>
      </trkpt>
      <trkpt lat="54.069736981764436" lon="27.211597021669149">
        <ele>237.58000000000001</ele>
        <time>2013-09-21T12:44:15Z</time>
      </trkpt>
      <trkpt lat="54.069592980667949" lon="27.211686037480831">
        <ele>237.09999999999999</ele>
        <time>2013-09-21T12:44:26Z</time>
      </trkpt>
      <trkpt lat="54.06959599815309" lon="27.211830038577318">
        <ele>237.09999999999999</ele>
        <time>2013-09-21T12:44:44Z</time>
      </trkpt>
      <trkpt lat="54.069599015638232" lon="27.211992982774973">
        <ele>237.09999999999999</ele>
        <time>2013-09-21T12:45:05Z</time>
      </trkpt>
      <trkpt lat="54.069643020629883" lon="27.212321972474456">
        <ele>237.58000000000001</ele>
        <time>2013-09-21T12:45:18Z</time>
      </trkpt>
      <trkpt lat="54.069632040336728" lon="27.212422974407673">
        <ele>237.09999999999999</ele>
        <time>2013-09-21T12:45:23Z</time>
      </trkpt>
      <trkpt lat="54.069586023688316" lon="27.212466979399323">
        <ele>237.09999999999999</ele>
        <time>2013-09-21T12:45:28Z</time>
      </trkpt>
      <trkpt lat="54.069598009809852" lon="27.212547026574612">
        <ele>237.58000000000001</ele>
        <time>2013-09-21T12:45:41Z</time>
      </trkpt>
      <trkpt lat="54.069600021466613" lon="27.212565969675779">
        <ele>238.06</ele>
        <time>2013-09-21T12:47:03Z</time>
      </trkpt>
      <trkpt lat="54.069678978994489" lon="27.212881967425346">
        <ele>238.06</ele>
        <time>2013-09-21T12:47:20Z</time>
      </trkpt>
      <trkpt lat="54.0697249956429" lon="27.213256973773241">
        <ele>239.02000000000001</ele>
        <time>2013-09-21T12:47:40Z</time>
      </trkpt>
      <trkpt lat="54.069706974551082" lon="27.213542964309454">
        <ele>238.53999999999999</ele>
        <time>2013-09-21T12:47:57Z</time>
      </trkpt>
      <trkpt lat="54.069623993709683" lon="27.213643966242671">
        <ele>238.53999999999999</ele>
        <time>2013-09-21T12:48:10Z</time>
      </trkpt>
      <trkpt lat="54.069403968751431" lon="27.213741028681397">
        <ele>239.02000000000001</ele>
        <time>2013-09-21T12:48:32Z</time>
      </trkpt>
      <trkpt lat="54.069325011223555" lon="27.213839013129473">
        <ele>239.02000000000001</ele>
        <time>2013-09-21T12:48:42Z</time>
      </trkpt>
      <trkpt lat="54.069306990131736" lon="27.213996006175876">
        <ele>238.06</ele>
        <time>2013-09-21T12:49:01Z</time>
      </trkpt>
      <trkpt lat="54.069290980696678" lon="27.214384004473686">
        <ele>238.06</ele>
        <time>2013-09-21T12:49:22Z</time>
      </trkpt>
      <trkpt lat="54.069306990131736" lon="27.214506966993213">
        <ele>238.53999999999999</ele>
        <time>2013-09-21T12:49:36Z</time>
      </trkpt>
      <trkpt lat="54.069305984303355" lon="27.214505039155483">
        <ele>238.53999999999999</ele>
        <time>2013-09-21T12:50:14Z</time>
      </trkpt>
      <trkpt lat="54.069305984303355" lon="27.214503027498722">
        <ele>238.53999999999999</ele>
        <time>2013-09-21T12:52:19Z</time>
      </trkpt>
      <trkpt lat="54.069306990131736" lon="27.214503027498722">
        <ele>238.53999999999999</ele>
        <time>2013-09-21T12:53:55Z</time>
      </trkpt>
      <trkpt lat="54.069307995960116" lon="27.214504033327103">
        <ele>238.53999999999999</ele>
        <time>2013-09-21T12:54:27Z</time>
      </trkpt>
      <trkpt lat="54.069306990131736" lon="27.214501015841961">
        <ele>239.02000000000001</ele>
        <time>2013-09-21T12:54:56Z</time>
      </trkpt>
      <trkpt lat="54.069306990131736" lon="27.214501015841961">
        <ele>239.02000000000001</ele>
        <time>2013-09-21T12:55:25Z</time>
      </trkpt>
      <trkpt lat="54.069301960989833" lon="27.214502021670341">
        <ele>239.02000000000001</ele>
        <time>2013-09-21T12:56:16Z</time>
      </trkpt>
      <trkpt lat="54.069302966818213" lon="27.214492969214916">
        <ele>239.02000000000001</ele>
        <time>2013-09-21T12:56:52Z</time>
      </trkpt>
      <trkpt lat="54.069302966818213" lon="27.214486012235284">
        <ele>239.02000000000001</ele>
        <time>2013-09-21T12:57:01Z</time>
      </trkpt>
      <trkpt lat="54.069356024265289" lon="27.214490035548806">
        <ele>239.02000000000001</ele>
        <time>2013-09-21T12:57:12Z</time>
      </trkpt>
      <trkpt lat="54.069356024265289" lon="27.214490035548806">
        <ele>239.02000000000001</ele>
        <time>2013-09-21T12:57:24Z</time>
      </trkpt>
      <trkpt lat="54.069356024265289" lon="27.214490035548806">
        <ele>239.02000000000001</ele>
        <time>2013-09-21T12:57:42Z</time>
      </trkpt>
      <trkpt lat="54.069359041750431" lon="27.214487018063664">
        <ele>239.99000000000001</ele>
        <time>2013-09-21T12:58:03Z</time>
      </trkpt>
      <trkpt lat="54.069359041750431" lon="27.214487018063664">
        <ele>239.99000000000001</ele>
        <time>2013-09-21T12:58:19Z</time>
      </trkpt>
      <trkpt lat="54.06935703009367" lon="27.214472014456987">
        <ele>239.99000000000001</ele>
        <time>2013-09-21T12:59:07Z</time>
      </trkpt>
      <trkpt lat="54.069356024265289" lon="27.214471008628607">
        <ele>239.99000000000001</ele>
        <time>2013-09-21T12:59:34Z</time>
      </trkpt>
      <trkpt lat="54.069356024265289" lon="27.214471008628607">
        <ele>239.99000000000001</ele>
        <time>2013-09-21T12:59:56Z</time>
      </trkpt>
      <trkpt lat="54.069347977638245" lon="27.214470002800226">
        <ele>239.99000000000001</ele>
        <time>2013-09-21T13:00:08Z</time>
      </trkpt>
      <trkpt lat="54.069344960153103" lon="27.214482994750142">
        <ele>239.99000000000001</ele>
        <time>2013-09-21T13:00:21Z</time>
      </trkpt>
      <trkpt lat="54.069344960153103" lon="27.214482994750142">
        <ele>239.99000000000001</ele>
        <time>2013-09-21T13:00:22Z</time>
      </trkpt>
      <trkpt lat="54.069322999566793" lon="27.214450975880027">
        <ele>241.43000000000001</ele>
        <time>2013-09-21T13:00:29Z</time>
      </trkpt>
      <trkpt lat="54.069276982918382" lon="27.214237991720438">
        <ele>241.91</ele>
        <time>2013-09-21T13:00:37Z</time>
      </trkpt>
      <trkpt lat="54.069223003461957" lon="27.214179988950491">
        <ele>241.43000000000001</ele>
        <time>2013-09-21T13:00:41Z</time>
      </trkpt>
      <trkpt lat="54.068870041519403" lon="27.214289959520102">
        <ele>240.94999999999999</ele>
        <time>2013-09-21T13:00:55Z</time>
      </trkpt>
      <trkpt lat="54.068592013791203" lon="27.214533034712076">
        <ele>241.43000000000001</ele>
        <time>2013-09-21T13:01:05Z</time>
      </trkpt>
      <trkpt lat="54.068615986034274" lon="27.215238958597183">
        <ele>241.43000000000001</ele>
        <time>2013-09-21T13:01:17Z</time>
      </trkpt>
      <trkpt lat="54.068623026832938" lon="27.215596027672291">
        <ele>241.91</ele>
        <time>2013-09-21T13:01:23Z</time>
      </trkpt>
      <trkpt lat="54.068571981042624" lon="27.215684037655592">
        <ele>242.87</ele>
        <time>2013-09-21T13:01:25Z</time>
      </trkpt>
      <trkpt lat="54.068533005192876" lon="27.215713039040565">
        <ele>242.87</ele>
        <time>2013-09-21T13:01:26Z</time>
      </trkpt>
      <trkpt lat="54.068492017686367" lon="27.215732987970114">
        <ele>243.34999999999999</ele>
        <time>2013-09-21T13:01:27Z</time>
      </trkpt>
      <trkpt lat="54.068446001037955" lon="27.215747991576791">
        <ele>243.34999999999999</ele>
        <time>2013-09-21T13:01:28Z</time>
      </trkpt>
      <trkpt lat="54.068401996046305" lon="27.215760983526707">
        <ele>243.83000000000001</ele>
        <time>2013-09-21T13:01:29Z</time>
      </trkpt>
      <trkpt lat="54.06778902746737" lon="27.215921999886632">
        <ele>240.94999999999999</ele>
        <time>2013-09-21T13:01:42Z</time>
      </trkpt>
      <trkpt lat="54.067083019763231" lon="27.216122997924685">
        <ele>239.50999999999999</ele>
        <time>2013-09-21T13:01:57Z</time>
      </trkpt>
      <trkpt lat="54.066203003749251" lon="27.216365989297628">
        <ele>238.53999999999999</ele>
        <time>2013-09-21T13:02:14Z</time>
      </trkpt>
      <trkpt lat="54.065434969961643" lon="27.21656296402216">
        <ele>236.62</ele>
        <time>2013-09-21T13:02:29Z</time>
      </trkpt>
      <trkpt lat="54.064538022503257" lon="27.216860018670559">
        <ele>235.66</ele>
        <time>2013-09-21T13:02:47Z</time>
      </trkpt>
      <trkpt lat="54.063574019819498" lon="27.217301996424794">
        <ele>235.18000000000001</ele>
        <time>2013-09-21T13:03:05Z</time>
      </trkpt>
      <trkpt lat="54.062606999650598" lon="27.217766018584371">
        <ele>235.66</ele>
        <time>2013-09-21T13:03:23Z</time>
      </trkpt>
      <trkpt lat="54.061670992523432" lon="27.218166003003716">
        <ele>236.13999999999999</ele>
        <time>2013-09-21T13:03:41Z</time>
      </trkpt>
      <trkpt lat="54.060959033668041" lon="27.218515025451779">
        <ele>236.13999999999999</ele>
        <time>2013-09-21T13:03:56Z</time>
      </trkpt>
      <trkpt lat="54.06018496491015" lon="27.218894977122545">
        <ele>237.09999999999999</ele>
        <time>2013-09-21T13:04:12Z</time>
      </trkpt>
      <trkpt lat="54.059447022154927" lon="27.219218015670776">
        <ele>239.50999999999999</ele>
        <time>2013-09-21T13:04:27Z</time>
      </trkpt>
      <trkpt lat="54.058613022789359" lon="27.219536025077105">
        <ele>239.99000000000001</ele>
        <time>2013-09-21T13:04:43Z</time>
      </trkpt>
      <trkpt lat="54.057510970160365" lon="27.21986903809011">
        <ele>237.09999999999999</ele>
        <time>2013-09-21T13:05:02Z</time>
      </trkpt>
      <trkpt lat="54.05651000328362" lon="27.220438001677394">
        <ele>236.13999999999999</ele>
        <time>2013-09-21T13:05:19Z</time>
      </trkpt>
      <trkpt lat="54.05560702085495" lon="27.221032027155161">
        <ele>235.66</ele>
        <time>2013-09-21T13:05:34Z</time>
      </trkpt>
      <trkpt lat="54.054420981556177" lon="27.22182696685195">
        <ele>235.18000000000001</ele>
        <time>2013-09-21T13:05:53Z</time>
      </trkpt>
      <trkpt lat="54.053569966927171" lon="27.222581002861261">
        <ele>233.74000000000001</ele>
        <time>2013-09-21T13:06:08Z</time>
      </trkpt>
      <trkpt lat="54.052800005301833" lon="27.223818004131317">
        <ele>230.84999999999999</ele>
        <time>2013-09-21T13:06:24Z</time>
      </trkpt>
      <trkpt lat="54.052120987325907" lon="27.224755017086864">
        <ele>231.33000000000001</ele>
        <time>2013-09-21T13:06:38Z</time>
      </trkpt>
      <trkpt lat="54.051324035972357" lon="27.225002031773329">
        <ele>232.30000000000001</ele>
        <time>2013-09-21T13:06:51Z</time>
      </trkpt>
      <trkpt lat="54.050317034125328" lon="27.224927013739944">
        <ele>232.78</ele>
        <time>2013-09-21T13:07:08Z</time>
      </trkpt>
      <trkpt lat="54.049752010032535" lon="27.225258015096188">
        <ele>234.69999999999999</ele>
        <time>2013-09-21T13:07:19Z</time>
      </trkpt>
      <trkpt lat="54.049523016437888" lon="27.225546017289162">
        <ele>239.02000000000001</ele>
        <time>2013-09-21T13:07:30Z</time>
      </trkpt>
      <trkpt lat="54.049374992027879" lon="27.225753972306848">
        <ele>241.91</ele>
        <time>2013-09-21T13:07:45Z</time>
      </trkpt>
      <trkpt lat="54.049359988421202" lon="27.225768975913525">
        <ele>241.43000000000001</ele>
        <time>2013-09-21T13:08:00Z</time>
      </trkpt>
      <trkpt lat="54.049256974831223" lon="27.225968968123198">
        <ele>239.99000000000001</ele>
        <time>2013-09-21T13:08:13Z</time>
      </trkpt>
      <trkpt lat="54.049187991768122" lon="27.226576991379261">
        <ele>238.53999999999999</ele>
        <time>2013-09-21T13:08:24Z</time>
      </trkpt>
      <trkpt lat="54.049267033115029" lon="27.227509981021285">
        <ele>238.06</ele>
        <time>2013-09-21T13:08:38Z</time>
      </trkpt>
      <trkpt lat="54.049217998981476" lon="27.228388991206884">
        <ele>239.99000000000001</ele>
        <time>2013-09-21T13:08:53Z</time>
      </trkpt>
      <trkpt lat="54.048907030373812" lon="27.229340001940727">
        <ele>239.99000000000001</ele>
        <time>2013-09-21T13:09:10Z</time>
      </trkpt>
      <trkpt lat="54.048577034845948" lon="27.230370976030827">
        <ele>239.02000000000001</ele>
        <time>2013-09-21T13:09:26Z</time>
      </trkpt>
      <trkpt lat="54.048175038769841" lon="27.231587022542953">
        <ele>236.13999999999999</ele>
        <time>2013-09-21T13:09:41Z</time>
      </trkpt>
      <trkpt lat="54.047484034672379" lon="27.233675960451365">
        <ele>230.84999999999999</ele>
        <time>2013-09-21T13:10:02Z</time>
      </trkpt>
      <trkpt lat="54.046956980600953" lon="27.235287968069315">
        <ele>227.00999999999999</ele>
        <time>2013-09-21T13:10:22Z</time>
      </trkpt>
      <trkpt lat="54.046520031988621" lon="27.2366529610008">
        <ele>226.53</ele>
        <time>2013-09-21T13:10:39Z</time>
      </trkpt>
      <trkpt lat="54.046142008155584" lon="27.237779991701245">
        <ele>226.05000000000001</ele>
        <time>2013-09-21T13:10:55Z</time>
      </trkpt>
      <trkpt lat="54.04608802869916" lon="27.237899014726281">
        <ele>226.05000000000001</ele>
        <time>2013-09-21T13:10:57Z</time>
      </trkpt>
      <trkpt lat="54.045623000711203" lon="27.239313963800669">
        <ele>226.05000000000001</ele>
        <time>2013-09-21T13:11:16Z</time>
      </trkpt>
      <trkpt lat="54.045157972723246" lon="27.240722961723804">
        <ele>226.53</ele>
        <time>2013-09-21T13:11:34Z</time>
      </trkpt>
      <trkpt lat="54.044748013839126" lon="27.241970021277666">
        <ele>226.05000000000001</ele>
        <time>2013-09-21T13:11:51Z</time>
      </trkpt>
      <trkpt lat="54.044335037469864" lon="27.243244992569089">
        <ele>226.05000000000001</ele>
        <time>2013-09-21T13:12:08Z</time>
      </trkpt>
      <trkpt lat="54.044146025553346" lon="27.243842035531998">
        <ele>225.56999999999999</ele>
        <time>2013-09-21T13:12:16Z</time>
      </trkpt>
      <trkpt lat="54.04376900754869" lon="27.244990020990372">
        <ele>227.00999999999999</ele>
        <time>2013-09-21T13:12:32Z</time>
      </trkpt>
      <trkpt lat="54.043323006480932" lon="27.246350990608335">
        <ele>227.00999999999999</ele>
        <time>2013-09-21T13:12:51Z</time>
      </trkpt>
      <trkpt lat="54.043161990121007" lon="27.247601989656687">
        <ele>227.49000000000001</ele>
        <time>2013-09-21T13:13:07Z</time>
      </trkpt>
      <trkpt lat="54.043139023706317" lon="27.248905962333083">
        <ele>227.97</ele>
        <time>2013-09-21T13:13:24Z</time>
      </trkpt>
      <trkpt lat="54.043214963749051" lon="27.250266009941697">
        <ele>228.44999999999999</ele>
        <time>2013-09-21T13:13:42Z</time>
      </trkpt>
      <trkpt lat="54.043285958468914" lon="27.251261025667191">
        <ele>228.93000000000001</ele>
        <time>2013-09-21T13:13:57Z</time>
      </trkpt>
      <trkpt lat="54.043357959017158" lon="27.252308009192348">
        <ele>229.88999999999999</ele>
        <time>2013-09-21T13:14:12Z</time>
      </trkpt>
      <trkpt lat="54.043306997045875" lon="27.253080988302827">
        <ele>229.88999999999999</ele>
        <time>2013-09-21T13:14:26Z</time>
      </trkpt>
      <trkpt lat="54.042950011789799" lon="27.253464041277766">
        <ele>227.00999999999999</ele>
        <time>2013-09-21T13:14:37Z</time>
      </trkpt>
      <trkpt lat="54.042042000219226" lon="27.254339028149843">
        <ele>223.63999999999999</ele>
        <time>2013-09-21T13:14:53Z</time>
      </trkpt>
      <trkpt lat="54.041533973067999" lon="27.254798021167517">
        <ele>223.16</ele>
        <time>2013-09-21T13:15:03Z</time>
      </trkpt>
      <trkpt lat="54.040793012827635" lon="27.255399003624916">
        <ele>223.63999999999999</ele>
        <time>2013-09-21T13:15:19Z</time>
      </trkpt>
      <trkpt lat="54.040365032851696" lon="27.255656998604536">
        <ele>224.12</ele>
        <time>2013-09-21T13:15:28Z</time>
      </trkpt>
      <trkpt lat="54.039681991562247" lon="27.255932008847594">
        <ele>225.56999999999999</ele>
        <time>2013-09-21T13:15:44Z</time>
      </trkpt>
      <trkpt lat="54.039313020184636" lon="27.25613996386528">
        <ele>224.12</ele>
        <time>2013-09-21T13:15:50Z</time>
      </trkpt>
      <trkpt lat="54.039013031870127" lon="27.256556041538715">
        <ele>223.16</ele>
        <time>2013-09-21T13:15:56Z</time>
      </trkpt>
      <trkpt lat="54.038911024108529" lon="27.256796015426517">
        <ele>223.16</ele>
        <time>2013-09-21T13:15:59Z</time>
      </trkpt>
      <trkpt lat="54.038650011643767" lon="27.257515015080571">
        <ele>222.19999999999999</ele>
        <time>2013-09-21T13:16:10Z</time>
      </trkpt>
      <trkpt lat="54.038390005007386" lon="27.257383000105619">
        <ele>223.63999999999999</ele>
        <time>2013-09-21T13:16:18Z</time>
      </trkpt>
      <trkpt lat="54.038215996697545" lon="27.257283004000783">
        <ele>223.16</ele>
        <time>2013-09-21T13:16:22Z</time>
      </trkpt>
      <trkpt lat="54.038131004199386" lon="27.257240004837513">
        <ele>223.16</ele>
        <time>2013-09-21T13:16:24Z</time>
      </trkpt>
      <trkpt lat="54.037920031696558" lon="27.257081000134349">
        <ele>223.63999999999999</ele>
        <time>2013-09-21T13:16:29Z</time>
      </trkpt>
      <trkpt lat="54.037841996178031" lon="27.256987038999796">
        <ele>223.63999999999999</ele>
        <time>2013-09-21T13:16:31Z</time>
      </trkpt>
      <trkpt lat="54.037653990089893" lon="27.256584959104657">
        <ele>223.63999999999999</ele>
        <time>2013-09-21T13:16:38Z</time>
      </trkpt>
      <trkpt lat="54.037524992600083" lon="27.256300980225205">
        <ele>223.63999999999999</ele>
        <time>2013-09-21T13:16:43Z</time>
      </trkpt>
      <trkpt lat="54.037462966516614" lon="27.256110040470958">
        <ele>223.63999999999999</ele>
        <time>2013-09-21T13:16:46Z</time>
      </trkpt>
      <trkpt lat="54.037162978202105" lon="27.255384000018239">
        <ele>223.16</ele>
        <time>2013-09-21T13:16:58Z</time>
      </trkpt>
      <trkpt lat="54.03708997182548" lon="27.255196999758482">
        <ele>223.16</ele>
        <time>2013-09-21T13:17:01Z</time>
      </trkpt>
      <trkpt lat="54.036993999034166" lon="27.254949985072017">
        <ele>222.68000000000001</ele>
        <time>2013-09-21T13:17:05Z</time>
      </trkpt>
      <trkpt lat="54.036498963832855" lon="27.253766963258386">
        <ele>222.68000000000001</ele>
        <time>2013-09-21T13:17:23Z</time>
      </trkpt>
      <trkpt lat="54.036435009911656" lon="27.25364601239562">
        <ele>222.68000000000001</ele>
        <time>2013-09-21T13:17:25Z</time>
      </trkpt>
      <trkpt lat="54.035924971103668" lon="27.252728026360273">
        <ele>222.68000000000001</ele>
        <time>2013-09-21T13:17:42Z</time>
      </trkpt>
      <trkpt lat="54.035736965015531" lon="27.252397025004029">
        <ele>222.68000000000001</ele>
        <time>2013-09-21T13:17:55Z</time>
      </trkpt>
      <trkpt lat="54.035684997215867" lon="27.252286970615387">
        <ele>222.68000000000001</ele>
        <time>2013-09-21T13:18:04Z</time>
      </trkpt>
      <trkpt lat="54.035597993060946" lon="27.252171970903873">
        <ele>222.19999999999999</ele>
        <time>2013-09-21T13:18:17Z</time>
      </trkpt>
      <trkpt lat="54.035376962274313" lon="27.251853961497545">
        <ele>219.80000000000001</ele>
        <time>2013-09-21T13:18:38Z</time>
      </trkpt>
      <trkpt lat="54.035146962851286" lon="27.251619016751647">
        <ele>216.91</ele>
        <time>2013-09-21T13:18:56Z</time>
      </trkpt>
      <trkpt lat="54.034993993118405" lon="27.251391028985381">
        <ele>217.88</ele>
        <time>2013-09-21T13:19:11Z</time>
      </trkpt>
      <trkpt lat="54.034963985905051" lon="27.251344006508589">
        <ele>217.40000000000001</ele>
        <time>2013-09-21T13:19:14Z</time>
      </trkpt>
      <trkpt lat="54.034809004515409" lon="27.251234035938978">
        <ele>216.91</ele>
        <time>2013-09-21T13:19:29Z</time>
      </trkpt>
      <trkpt lat="54.034717977046967" lon="27.251148037612438">
        <ele>217.40000000000001</ele>
        <time>2013-09-21T13:19:54Z</time>
      </trkpt>
      <trkpt lat="54.034560984000564" lon="27.25095902569592">
        <ele>218.36000000000001</ele>
        <time>2013-09-21T13:20:09Z</time>
      </trkpt>
      <trkpt lat="54.034409020096064" lon="27.250786023214459">
        <ele>221.24000000000001</ele>
        <time>2013-09-21T13:20:24Z</time>
      </trkpt>
      <trkpt lat="54.034382030367851" lon="27.250764984637499">
        <ele>221.24000000000001</ele>
        <time>2013-09-21T13:20:38Z</time>
      </trkpt>
      <trkpt lat="54.034382030367851" lon="27.250764984637499">
        <ele>221.24000000000001</ele>
        <time>2013-09-21T13:20:49Z</time>
      </trkpt>
      <trkpt lat="54.034374989569187" lon="27.250764984637499">
        <ele>220.75999999999999</ele>
        <time>2013-09-21T13:21:01Z</time>
      </trkpt>
      <trkpt lat="54.03438001871109" lon="27.250742018222809">
        <ele>221.24000000000001</ele>
        <time>2013-09-21T13:21:16Z</time>
      </trkpt>
      <trkpt lat="54.03438001871109" lon="27.250742018222809">
        <ele>221.24000000000001</ele>
        <time>2013-09-21T13:21:46Z</time>
      </trkpt>
      <trkpt lat="54.034381024539471" lon="27.250737994909286">
        <ele>221.24000000000001</ele>
        <time>2013-09-21T13:22:04Z</time>
      </trkpt>
      <trkpt lat="54.03437901288271" lon="27.250740006566048">
        <ele>221.24000000000001</ele>
        <time>2013-09-21T13:22:54Z</time>
      </trkpt>
      <trkpt lat="54.034377001225948" lon="27.250747969374061">
        <ele>221.72</ele>
        <time>2013-09-21T13:23:02Z</time>
      </trkpt>
      <trkpt lat="54.034363003447652" lon="27.250764984637499">
        <ele>221.24000000000001</ele>
        <time>2013-09-21T13:23:04Z</time>
      </trkpt>
      <trkpt lat="54.034314975142479" lon="27.250898005440831">
        <ele>221.24000000000001</ele>
        <time>2013-09-21T13:23:13Z</time>
      </trkpt>
      <trkpt lat="54.034271975979209" lon="27.250967994332314">
        <ele>219.80000000000001</ele>
        <time>2013-09-21T13:23:28Z</time>
      </trkpt>
      <trkpt lat="54.0342500153929" lon="27.251019040122628">
        <ele>220.75999999999999</ele>
        <time>2013-09-21T13:23:50Z</time>
      </trkpt>
      <trkpt lat="54.034205004572868" lon="27.251080982387066">
        <ele>220.28</ele>
        <time>2013-09-21T13:24:03Z</time>
      </trkpt>
      <trkpt lat="54.034142978489399" lon="27.251202017068863">
        <ele>221.24000000000001</ele>
        <time>2013-09-21T13:24:13Z</time>
      </trkpt>
      <trkpt lat="54.034114982932806" lon="27.251251973211765">
        <ele>221.72</ele>
        <time>2013-09-21T13:24:15Z</time>
      </trkpt>
      <trkpt lat="54.034087993204594" lon="27.251304024830461">
        <ele>221.72</ele>
        <time>2013-09-21T13:24:20Z</time>
      </trkpt>
      <trkpt lat="54.033889006823301" lon="27.251781038939953">
        <ele>222.19999999999999</ele>
        <time>2013-09-21T13:24:34Z</time>
      </trkpt>
      <trkpt lat="54.03356303460896" lon="27.252414040267467">
        <ele>222.19999999999999</ele>
        <time>2013-09-21T13:24:48Z</time>
      </trkpt>
      <trkpt lat="54.033217029646039" lon="27.253134967759252">
        <ele>222.19999999999999</ele>
        <time>2013-09-21T13:25:04Z</time>
      </trkpt>
      <trkpt lat="54.032875970005989" lon="27.253867965191603">
        <ele>221.72</ele>
        <time>2013-09-21T13:25:20Z</time>
      </trkpt>
      <trkpt lat="54.032544968649745" lon="27.254493003711104">
        <ele>220.28</ele>
        <time>2013-09-21T13:25:35Z</time>
      </trkpt>
      <trkpt lat="54.032211033627391" lon="27.255115024745464">
        <ele>220.75999999999999</ele>
        <time>2013-09-21T13:25:51Z</time>
      </trkpt>
      <trkpt lat="54.031913978978992" lon="27.255753977224231">
        <ele>219.80000000000001</ele>
        <time>2013-09-21T13:26:06Z</time>
      </trkpt>
      <trkpt lat="54.031620025634766" lon="27.256362000480294">
        <ele>220.28</ele>
        <time>2013-09-21T13:26:20Z</time>
      </trkpt>
      <trkpt lat="54.031249964609742" lon="27.257155012339354">
        <ele>218.84</ele>
        <time>2013-09-21T13:26:35Z</time>
      </trkpt>
      <trkpt lat="54.030923992395401" lon="27.257817015051842">
        <ele>216.91</ele>
        <time>2013-09-21T13:26:49Z</time>
      </trkpt>
      <trkpt lat="54.03055502101779" lon="27.258612960577011">
        <ele>215.47</ele>
        <time>2013-09-21T13:27:03Z</time>
      </trkpt>
      <trkpt lat="54.030007012188435" lon="27.25970696657896">
        <ele>215.47</ele>
        <time>2013-09-21T13:27:21Z</time>
      </trkpt>
      <trkpt lat="54.029764020815492" lon="27.260196972638369">
        <ele>215.47</ele>
        <time>2013-09-21T13:27:30Z</time>
      </trkpt>
      <trkpt lat="54.029349032789469" lon="27.261038012802601">
        <ele>214.50999999999999</ele>
        <time>2013-09-21T13:27:45Z</time>
      </trkpt>
      <trkpt lat="54.028873024508357" lon="27.261961027979851">
        <ele>214.50999999999999</ele>
        <time>2013-09-21T13:28:03Z</time>
      </trkpt>
      <trkpt lat="54.028556020930409" lon="27.262400994077325">
        <ele>214.99000000000001</ele>
        <time>2013-09-21T13:28:16Z</time>
      </trkpt>
      <trkpt lat="54.028517967090011" lon="27.262936010956764">
        <ele>215.94999999999999</ele>
        <time>2013-09-21T13:28:27Z</time>
      </trkpt>
      <trkpt lat="54.028511010110378" lon="27.263070959597826">
        <ele>215.47</ele>
        <time>2013-09-21T13:28:34Z</time>
      </trkpt>
      <trkpt lat="54.028517967090011" lon="27.263105995953083">
        <ele>215.47</ele>
        <time>2013-09-21T13:28:41Z</time>
      </trkpt>
      <trkpt lat="54.028573958203197" lon="27.263214960694313">
        <ele>214.99000000000001</ele>
        <time>2013-09-21T13:28:49Z</time>
      </trkpt>
      <trkpt lat="54.028602037578821" lon="27.263295007869601">
        <ele>214.99000000000001</ele>
        <time>2013-09-21T13:29:07Z</time>
      </trkpt>
      <trkpt lat="54.028580999001861" lon="27.263243040069938">
        <ele>215.47</ele>
        <time>2013-09-21T13:29:21Z</time>
      </trkpt>
      <trkpt lat="54.02853699401021" lon="27.263101972639561">
        <ele>215.94999999999999</ele>
        <time>2013-09-21T13:29:37Z</time>
      </trkpt>
      <trkpt lat="54.028531964868307" lon="27.263072971254587">
        <ele>214.99000000000001</ele>
        <time>2013-09-21T13:29:51Z</time>
      </trkpt>
      <trkpt lat="54.028499023988843" lon="27.263048999011517">
        <ele>215.47</ele>
        <time>2013-09-21T13:30:00Z</time>
      </trkpt>
      <trkpt lat="54.028492989018559" lon="27.263068025931716">
        <ele>214.99000000000001</ele>
        <time>2013-09-21T13:30:13Z</time>
      </trkpt>
      <trkpt lat="54.028492989018559" lon="27.263068025931716">
        <ele>214.99000000000001</ele>
        <time>2013-09-21T13:30:35Z</time>
      </trkpt>
      <trkpt lat="54.028487959876657" lon="27.263062996789813">
        <ele>215.94999999999999</ele>
        <time>2013-09-21T13:32:00Z</time>
      </trkpt>
      <trkpt lat="54.028488965705037" lon="27.263060985133052">
        <ele>215.94999999999999</ele>
        <time>2013-09-21T13:32:50Z</time>
      </trkpt>
      <trkpt lat="54.028485026210546" lon="27.263056039810181">
        <ele>214.99000000000001</ele>
        <time>2013-09-21T13:35:42Z</time>
      </trkpt>
      <trkpt lat="54.028467005118728" lon="27.263048999011517">
        <ele>214.03</ele>
        <time>2013-09-21T13:46:05Z</time>
      </trkpt>
      <trkpt lat="54.028473040089011" lon="27.263065008446574">
        <ele>214.03</ele>
        <time>2013-09-21T13:47:14Z</time>
      </trkpt>
      <trkpt lat="54.028470022603869" lon="27.263067020103335">
        <ele>213.55000000000001</ele>
        <time>2013-09-21T13:50:02Z</time>
      </trkpt>
      <trkpt lat="54.028463987633586" lon="27.263062996789813">
        <ele>211.63</ele>
        <time>2013-09-21T13:57:17Z</time>
      </trkpt>
      <trkpt lat="54.028459964320064" lon="27.26307800039649">
        <ele>210.19</ele>
        <time>2013-09-21T14:06:20Z</time>
      </trkpt>
      <trkpt lat="54.028488965705037" lon="27.263060985133052">
        <ele>212.11000000000001</ele>
        <time>2013-09-21T14:06:39Z</time>
      </trkpt>
      <trkpt lat="54.028495000675321" lon="27.263097027316689">
        <ele>213.06999999999999</ele>
        <time>2013-09-21T14:06:50Z</time>
      </trkpt>
      <trkpt lat="54.028500029817224" lon="27.263075988739729">
        <ele>213.55000000000001</ele>
        <time>2013-09-21T14:07:10Z</time>
      </trkpt>
      <trkpt lat="54.028506986796856" lon="27.262984961271286">
        <ele>214.03</ele>
        <time>2013-09-21T14:07:23Z</time>
      </trkpt>
      <trkpt lat="54.028512015938759" lon="27.262945985421538">
        <ele>214.50999999999999</ele>
        <time>2013-09-21T14:07:34Z</time>
      </trkpt>
      <trkpt lat="54.028529031202197" lon="27.262624958530068">
        <ele>216.43000000000001</ele>
        <time>2013-09-21T14:07:50Z</time>
      </trkpt>
      <trkpt lat="54.02847102843225" lon="27.262555975466967">
        <ele>216.91</ele>
        <time>2013-09-21T14:08:03Z</time>
      </trkpt>
      <trkpt lat="54.028464993461967" lon="27.26256100460887">
        <ele>216.91</ele>
        <time>2013-09-21T14:08:04Z</time>
      </trkpt>
      <trkpt lat="54.028416965156794" lon="27.262631999328732">
        <ele>216.43000000000001</ele>
        <time>2013-09-21T14:08:08Z</time>
      </trkpt>
      <trkpt lat="54.028108008205891" lon="27.263110019266605">
        <ele>214.03</ele>
        <time>2013-09-21T14:08:23Z</time>
      </trkpt>
      <trkpt lat="54.027781030163169" lon="27.263662973418832">
        <ele>213.55000000000001</ele>
        <time>2013-09-21T14:08:38Z</time>
      </trkpt>
      <trkpt lat="54.027372999116778" lon="27.264378033578396">
        <ele>214.03</ele>
        <time>2013-09-21T14:08:56Z</time>
      </trkpt>
      <trkpt lat="54.027166971936822" lon="27.265305994078517">
        <ele>214.50999999999999</ele>
        <time>2013-09-21T14:09:11Z</time>
      </trkpt>
      <trkpt lat="54.026741003617644" lon="27.266263961791992">
        <ele>213.55000000000001</ele>
        <time>2013-09-21T14:09:28Z</time>
      </trkpt>
      <trkpt lat="54.026341019198298" lon="27.267099972814322">
        <ele>213.55000000000001</ele>
        <time>2013-09-21T14:09:43Z</time>
      </trkpt>
      <trkpt lat="54.025884037837386" lon="27.26801997050643">
        <ele>212.59</ele>
        <time>2013-09-21T14:10:00Z</time>
      </trkpt>
      <trkpt lat="54.025451028719544" lon="27.268919013440609">
        <ele>214.03</ele>
        <time>2013-09-21T14:10:18Z</time>
      </trkpt>
      <trkpt lat="54.024982983246446" lon="27.269875975325704">
        <ele>213.06999999999999</ele>
        <time>2013-09-21T14:10:37Z</time>
      </trkpt>
      <trkpt lat="54.02451803907752" lon="27.270828997716308">
        <ele>211.63</ele>
        <time>2013-09-21T14:10:56Z</time>
      </trkpt>
      <trkpt lat="54.023968018591404" lon="27.271991986781359">
        <ele>211.15000000000001</ele>
        <time>2013-09-21T14:11:15Z</time>
      </trkpt>
      <trkpt lat="54.023600975051522" lon="27.272712998092175">
        <ele>212.11000000000001</ele>
        <time>2013-09-21T14:11:30Z</time>
      </trkpt>
      <trkpt lat="54.023321019485593" lon="27.273287996649742">
        <ele>212.11000000000001</ele>
        <time>2013-09-21T14:11:41Z</time>
      </trkpt>
      <trkpt lat="54.022862026467919" lon="27.273497963324189">
        <ele>212.59</ele>
        <time>2013-09-21T14:11:53Z</time>
      </trkpt>
      <trkpt lat="54.022287027910352" lon="27.273694016039371">
        <ele>214.99000000000001</ele>
        <time>2013-09-21T14:12:10Z</time>
      </trkpt>
      <trkpt lat="54.021830968558788" lon="27.274349983781576">
        <ele>215.94999999999999</ele>
        <time>2013-09-21T14:12:25Z</time>
      </trkpt>
      <trkpt lat="54.021141976118088" lon="27.275588996708393">
        <ele>213.06999999999999</ele>
        <time>2013-09-21T14:12:42Z</time>
      </trkpt>
      <trkpt lat="54.020515009760857" lon="27.276659030467272">
        <ele>211.15000000000001</ele>
        <time>2013-09-21T14:12:58Z</time>
      </trkpt>
      <trkpt lat="54.019967000931501" lon="27.277627978473902">
        <ele>211.63</ele>
        <time>2013-09-21T14:13:15Z</time>
      </trkpt>
      <trkpt lat="54.019442964345217" lon="27.278538001701236">
        <ele>211.63</ele>
        <time>2013-09-21T14:13:31Z</time>
      </trkpt>
      <trkpt lat="54.01921397075057" lon="27.278656018897891">
        <ele>211.63</ele>
        <time>2013-09-21T14:13:36Z</time>
      </trkpt>
      <trkpt lat="54.018814992159605" lon="27.278649983927608">
        <ele>212.11000000000001</ele>
        <time>2013-09-21T14:13:46Z</time>
      </trkpt>
      <trkpt lat="54.018655987456441" lon="27.278662975877523">
        <ele>212.11000000000001</ele>
        <time>2013-09-21T14:13:50Z</time>
      </trkpt>
      <trkpt lat="54.017999013885856" lon="27.27904200553894">
        <ele>210.66999999999999</ele>
        <time>2013-09-21T14:14:06Z</time>
      </trkpt>
      <trkpt lat="54.017327036708593" lon="27.279570987448096">
        <ele>211.15000000000001</ele>
        <time>2013-09-21T14:14:23Z</time>
      </trkpt>
      <trkpt lat="54.01689101010561" lon="27.280013971030712">
        <ele>212.11000000000001</ele>
        <time>2013-09-21T14:14:35Z</time>
      </trkpt>
      <trkpt lat="54.016296984627843" lon="27.28058997541666">
        <ele>213.55000000000001</ele>
        <time>2013-09-21T14:14:51Z</time>
      </trkpt>
      <trkpt lat="54.015920972451568" lon="27.281015021726489">
        <ele>213.55000000000001</ele>
        <time>2013-09-21T14:15:02Z</time>
      </trkpt>
      <trkpt lat="54.015269028022885" lon="27.28164098225534">
        <ele>213.55000000000001</ele>
        <time>2013-09-21T14:15:18Z</time>
      </trkpt>
      <trkpt lat="54.014929980039597" lon="27.281653974205256">
        <ele>213.06999999999999</ele>
        <time>2013-09-21T14:15:25Z</time>
      </trkpt>
      <trkpt lat="54.014800982549787" lon="27.28157602250576">
        <ele>212.59</ele>
        <time>2013-09-21T14:15:28Z</time>
      </trkpt>
      <trkpt lat="54.014652036130428" lon="27.281392961740494">
        <ele>212.59</ele>
        <time>2013-09-21T14:15:32Z</time>
      </trkpt>
      <trkpt lat="54.014508035033941" lon="27.281113006174564">
        <ele>212.59</ele>
        <time>2013-09-21T14:15:37Z</time>
      </trkpt>
      <trkpt lat="54.014057004824281" lon="27.280393000692129">
        <ele>212.11000000000001</ele>
        <time>2013-09-21T14:15:51Z</time>
      </trkpt>
      <trkpt lat="54.013842009007931" lon="27.280326029285789">
        <ele>212.59</ele>
        <time>2013-09-21T14:15:57Z</time>
      </trkpt>
      <trkpt lat="54.013560963794589" lon="27.280669016763568">
        <ele>212.59</ele>
        <time>2013-09-21T14:16:05Z</time>
      </trkpt>
      <trkpt lat="54.012974984943867" lon="27.281225994229317">
        <ele>213.06999999999999</ele>
        <time>2013-09-21T14:16:20Z</time>
      </trkpt>
      <trkpt lat="54.012570977210999" lon="27.281545009464025">
        <ele>212.59</ele>
        <time>2013-09-21T14:16:30Z</time>
      </trkpt>
      <trkpt lat="54.012438962236047" lon="27.281630001962185">
        <ele>212.59</ele>
        <time>2013-09-21T14:16:33Z</time>
      </trkpt>
      <trkpt lat="54.011689033359289" lon="27.282238025218248">
        <ele>211.63</ele>
        <time>2013-09-21T14:16:50Z</time>
      </trkpt>
      <trkpt lat="54.011158961802721" lon="27.282703975215554">
        <ele>211.63</ele>
        <time>2013-09-21T14:17:03Z</time>
      </trkpt>
      <trkpt lat="54.010587986558676" lon="27.283167997375131">
        <ele>213.55000000000001</ele>
        <time>2013-09-21T14:17:18Z</time>
      </trkpt>
      <trkpt lat="54.010070990771055" lon="27.283590026199818">
        <ele>213.06999999999999</ele>
        <time>2013-09-21T14:17:32Z</time>
      </trkpt>
      <trkpt lat="54.009580984711647" lon="27.283909041434526">
        <ele>213.55000000000001</ele>
        <time>2013-09-21T14:17:45Z</time>
      </trkpt>
      <trkpt lat="54.008978996425867" lon="27.284337021410465">
        <ele>215.47</ele>
        <time>2013-09-21T14:18:00Z</time>
      </trkpt>
      <trkpt lat="54.008654030039907" lon="27.284694006666541">
        <ele>216.43000000000001</ele>
        <time>2013-09-21T14:18:09Z</time>
      </trkpt>
      <trkpt lat="54.008583035320044" lon="27.284762989729643">
        <ele>216.43000000000001</ele>
        <time>2013-09-21T14:18:11Z</time>
      </trkpt>
      <trkpt lat="54.008139967918396" lon="27.285231035202742">
        <ele>218.36000000000001</ele>
        <time>2013-09-21T14:18:25Z</time>
      </trkpt>
      <trkpt lat="54.007489029318094" lon="27.285321978852153">
        <ele>216.91</ele>
        <time>2013-09-21T14:18:38Z</time>
      </trkpt>
      <trkpt lat="54.006946971639991" lon="27.285326002165675">
        <ele>215.47</ele>
        <time>2013-09-21T14:18:48Z</time>
      </trkpt>
      <trkpt lat="54.00677296333015" lon="27.285033976659179">
        <ele>215.94999999999999</ele>
        <time>2013-09-21T14:18:55Z</time>
      </trkpt>
      <trkpt lat="54.006691994145513" lon="27.284855023026466">
        <ele>216.43000000000001</ele>
        <time>2013-09-21T14:18:59Z</time>
      </trkpt>
      <trkpt lat="54.006519997492433" lon="27.284421008080244">
        <ele>218.36000000000001</ele>
        <time>2013-09-21T14:19:12Z</time>
      </trkpt>
      <trkpt lat="54.006633991375566" lon="27.284035021439195">
        <ele>218.84</ele>
        <time>2013-09-21T14:19:25Z</time>
      </trkpt>
      <trkpt lat="54.006640026345849" lon="27.284022029489279">
        <ele>218.84</ele>
        <time>2013-09-21T14:19:29Z</time>
      </trkpt>
      <trkpt lat="54.006533995270729" lon="27.283889008685946">
        <ele>219.31999999999999</ele>
        <time>2013-09-21T14:19:36Z</time>
      </trkpt>
      <trkpt lat="54.006026973947883" lon="27.28357401676476">
        <ele>218.36000000000001</ele>
        <time>2013-09-21T14:19:49Z</time>
      </trkpt>
      <trkpt lat="54.005991015583277" lon="27.283544009551406">
        <ele>218.36000000000001</ele>
        <time>2013-09-21T14:19:50Z</time>
      </trkpt>
      <trkpt lat="54.005669988691807" lon="27.283279979601502">
        <ele>218.84</ele>
        <time>2013-09-21T14:19:58Z</time>
      </trkpt>
      <trkpt lat="54.005631012842059" lon="27.283241003751755">
        <ele>218.84</ele>
        <time>2013-09-21T14:19:59Z</time>
      </trkpt>
      <trkpt lat="54.00558901950717" lon="27.283204039558768">
        <ele>219.31999999999999</ele>
        <time>2013-09-21T14:20:00Z</time>
      </trkpt>
      <trkpt lat="54.0055460203439" lon="27.283165985718369">
        <ele>219.31999999999999</ele>
        <time>2013-09-21T14:20:01Z</time>
      </trkpt>
      <trkpt lat="54.005500003695488" lon="27.283130027353764">
        <ele>219.80000000000001</ele>
        <time>2013-09-21T14:20:02Z</time>
      </trkpt>
      <trkpt lat="54.005167996510863" lon="27.282894998788834">
        <ele>218.36000000000001</ele>
        <time>2013-09-21T14:20:09Z</time>
      </trkpt>
      <trkpt lat="54.004568019881845" lon="27.282410021871328">
        <ele>219.31999999999999</ele>
        <time>2013-09-21T14:20:22Z</time>
      </trkpt>
      <trkpt lat="54.003733014687896" lon="27.281752964481711">
        <ele>216.91</ele>
        <time>2013-09-21T14:20:39Z</time>
      </trkpt>
      <trkpt lat="54.003048967570066" lon="27.281217025592923">
        <ele>216.43000000000001</ele>
        <time>2013-09-21T14:20:54Z</time>
      </trkpt>
      <trkpt lat="54.002372967079282" lon="27.280673962086439">
        <ele>218.84</ele>
        <time>2013-09-21T14:21:10Z</time>
      </trkpt>
      <trkpt lat="54.001755975186825" lon="27.280210023745894">
        <ele>220.75999999999999</ele>
        <time>2013-09-21T14:21:27Z</time>
      </trkpt>
      <trkpt lat="54.001589007675648" lon="27.28011698462069">
        <ele>221.24000000000001</ele>
        <time>2013-09-21T14:21:34Z</time>
      </trkpt>
      <trkpt lat="54.001562017947435" lon="27.280140034854412">
        <ele>221.24000000000001</ele>
        <time>2013-09-21T14:21:35Z</time>
      </trkpt>
      <trkpt lat="54.001168990507722" lon="27.280254028737545">
        <ele>221.72</ele>
        <time>2013-09-21T14:21:47Z</time>
      </trkpt>
      <trkpt lat="54.000544035807252" lon="27.280305996537209">
        <ele>217.88</ele>
        <time>2013-09-21T14:21:59Z</time>
      </trkpt>
      <trkpt lat="54.000426018610597" lon="27.280304990708828">
        <ele>217.40000000000001</ele>
        <time>2013-09-21T14:22:01Z</time>
      </trkpt>
      <trkpt lat="54.000014970079064" lon="27.280213963240385">
        <ele>215.47</ele>
        <time>2013-09-21T14:22:13Z</time>
      </trkpt>
      <trkpt lat="53.999826963990927" lon="27.280101981014013">
        <ele>215.47</ele>
        <time>2013-09-21T14:22:23Z</time>
      </trkpt>
      <trkpt lat="53.999662008136511" lon="27.280252017080784">
        <ele>215.47</ele>
        <time>2013-09-21T14:22:29Z</time>
      </trkpt>
      <trkpt lat="53.998963963240385" lon="27.280256040394306">
        <ele>218.84</ele>
        <time>2013-09-21T14:22:47Z</time>
      </trkpt>
      <trkpt lat="53.998385025188327" lon="27.280510012060404">
        <ele>219.80000000000001</ele>
        <time>2013-09-21T14:23:02Z</time>
      </trkpt>
      <trkpt lat="53.997742971405387" lon="27.280883006751537">
        <ele>219.80000000000001</ele>
        <time>2013-09-21T14:23:17Z</time>
      </trkpt>
      <trkpt lat="53.99706001393497" lon="27.281306963413954">
        <ele>222.19999999999999</ele>
        <time>2013-09-21T14:23:35Z</time>
      </trkpt>
      <trkpt lat="53.996362974867225" lon="27.28177098557353">
        <ele>219.80000000000001</ele>
        <time>2013-09-21T14:23:47Z</time>
      </trkpt>
      <trkpt lat="53.995311968028545" lon="27.282536001875997">
        <ele>217.88</ele>
        <time>2013-09-21T14:24:03Z</time>
      </trkpt>
      <trkpt lat="53.994658011943102" lon="27.282982002943754">
        <ele>218.84</ele>
        <time>2013-09-21T14:24:16Z</time>
      </trkpt>
      <trkpt lat="53.993981005623937" lon="27.283431021496654">
        <ele>219.80000000000001</ele>
        <time>2013-09-21T14:24:31Z</time>
      </trkpt>
      <trkpt lat="53.993340963497758" lon="27.283872999250889">
        <ele>221.24000000000001</ele>
        <time>2013-09-21T14:24:46Z</time>
      </trkpt>
      <trkpt lat="53.99239799939096" lon="27.284371973946691">
        <ele>219.80000000000001</ele>
        <time>2013-09-21T14:25:04Z</time>
      </trkpt>
      <trkpt lat="53.991663996130228" lon="27.28475603275001">
        <ele>220.28</ele>
        <time>2013-09-21T14:25:19Z</time>
      </trkpt>
      <trkpt lat="53.99093896150589" lon="27.28512299247086">
        <ele>219.80000000000001</ele>
        <time>2013-09-21T14:25:33Z</time>
      </trkpt>
      <trkpt lat="53.99007897824049" lon="27.285696985200047">
        <ele>218.36000000000001</ele>
        <time>2013-09-21T14:25:50Z</time>
      </trkpt>
      <trkpt lat="53.98951998911798" lon="27.286296039819717">
        <ele>218.36000000000001</ele>
        <time>2013-09-21T14:26:03Z</time>
      </trkpt>
      <trkpt lat="53.988968040794134" lon="27.287179995328188">
        <ele>219.80000000000001</ele>
        <time>2013-09-21T14:26:18Z</time>
      </trkpt>
      <trkpt lat="53.988621030002832" lon="27.2874850127846">
        <ele>220.75999999999999</ele>
        <time>2013-09-21T14:26:26Z</time>
      </trkpt>
      <trkpt lat="53.987918961793184" lon="27.287907963618636">
        <ele>221.72</ele>
        <time>2013-09-21T14:26:41Z</time>
      </trkpt>
      <trkpt lat="53.987101977691054" lon="27.288341978564858">
        <ele>223.16</ele>
        <time>2013-09-21T14:26:57Z</time>
      </trkpt>
      <trkpt lat="53.986513987183571" lon="27.288641966879368">
        <ele>224.12</ele>
        <time>2013-09-21T14:27:09Z</time>
      </trkpt>
      <trkpt lat="53.98586799390614" lon="27.288958970457315">
        <ele>224.12</ele>
        <time>2013-09-21T14:27:22Z</time>
      </trkpt>
      <trkpt lat="53.985539004206657" lon="27.289014961570501">
        <ele>222.68000000000001</ele>
        <time>2013-09-21T14:27:33Z</time>
      </trkpt>
      <trkpt lat="53.984933998435736" lon="27.289049997925758">
        <ele>222.19999999999999</ele>
        <time>2013-09-21T14:27:46Z</time>
      </trkpt>
      <trkpt lat="53.984125982969999" lon="27.289061984047294">
        <ele>222.68000000000001</ele>
        <time>2013-09-21T14:28:03Z</time>
      </trkpt>
      <trkpt lat="53.983308998867869" lon="27.289058966562152">
        <ele>222.68000000000001</ele>
        <time>2013-09-21T14:28:19Z</time>
      </trkpt>
      <trkpt lat="53.982368968427181" lon="27.289056032896042">
        <ele>223.63999999999999</ele>
        <time>2013-09-21T14:28:36Z</time>
      </trkpt>
      <trkpt lat="53.981413012370467" lon="27.289104983210564">
        <ele>222.68000000000001</ele>
        <time>2013-09-21T14:28:53Z</time>
      </trkpt>
      <trkpt lat="53.980526039376855" lon="27.289360966533422">
        <ele>224.12</ele>
        <time>2013-09-21T14:29:08Z</time>
      </trkpt>
      <trkpt lat="53.979278979822993" lon="27.289775032550097">
        <ele>222.19999999999999</ele>
        <time>2013-09-21T14:29:28Z</time>
      </trkpt>
      <trkpt lat="53.978408016264439" lon="27.290045013651252">
        <ele>220.28</ele>
        <time>2013-09-21T14:29:43Z</time>
      </trkpt>
      <trkpt lat="53.977635037153959" lon="27.29023695923388">
        <ele>221.24000000000001</ele>
        <time>2013-09-21T14:29:58Z</time>
      </trkpt>
      <trkpt lat="53.977081999182701" lon="27.290338966995478">
        <ele>221.72</ele>
        <time>2013-09-21T14:30:09Z</time>
      </trkpt>
      <trkpt lat="53.97624003700912" lon="27.290597967803478">
        <ele>220.75999999999999</ele>
        <time>2013-09-21T14:30:24Z</time>
      </trkpt>
      <trkpt lat="53.975566970184445" lon="27.290870966389775">
        <ele>219.31999999999999</ele>
        <time>2013-09-21T14:30:36Z</time>
      </trkpt>
      <trkpt lat="53.975323978811502" lon="27.290920000523329">
        <ele>218.36000000000001</ele>
        <time>2013-09-21T14:30:40Z</time>
      </trkpt>
      <trkpt lat="53.974893987178802" lon="27.290454972535372">
        <ele>218.36000000000001</ele>
        <time>2013-09-21T14:30:50Z</time>
      </trkpt>
      <trkpt lat="53.974697012454271" lon="27.289934037253261">
        <ele>219.31999999999999</ele>
        <time>2013-09-21T14:30:59Z</time>
      </trkpt>
      <trkpt lat="53.974448991939425" lon="27.28972096927464">
        <ele>219.80000000000001</ele>
        <time>2013-09-21T14:31:05Z</time>
      </trkpt>
      <trkpt lat="53.974227039143443" lon="27.289512008428574">
        <ele>221.72</ele>
        <time>2013-09-21T14:31:11Z</time>
      </trkpt>
      <trkpt lat="53.974123019725084" lon="27.28943900205195">
        <ele>222.19999999999999</ele>
        <time>2013-09-21T14:31:14Z</time>
      </trkpt>
      <trkpt lat="53.973960997536778" lon="27.289618039503694">
        <ele>223.63999999999999</ele>
        <time>2013-09-21T14:31:20Z</time>
      </trkpt>
      <trkpt lat="53.973867036402225" lon="27.290133023634553">
        <ele>224.12</ele>
        <time>2013-09-21T14:31:27Z</time>
      </trkpt>
      <trkpt lat="53.973805010318756" lon="27.290501995012164">
        <ele>224.61000000000001</ele>
        <time>2013-09-21T14:31:32Z</time>
      </trkpt>
      <trkpt lat="53.973725968971848" lon="27.291072970256209">
        <ele>226.05000000000001</ele>
        <time>2013-09-21T14:31:40Z</time>
      </trkpt>
      <trkpt lat="53.973709037527442" lon="27.291285032406449">
        <ele>225.56999999999999</ele>
        <time>2013-09-21T14:31:43Z</time>
      </trkpt>
      <trkpt lat="53.973666960373521" lon="27.292205030098557">
        <ele>223.16</ele>
        <time>2013-09-21T14:31:56Z</time>
      </trkpt>
      <trkpt lat="53.973460011184216" lon="27.29292101226747">
        <ele>224.12</ele>
        <time>2013-09-21T14:32:07Z</time>
      </trkpt>
      <trkpt lat="53.973210984840989" lon="27.293126033619046">
        <ele>224.12</ele>
        <time>2013-09-21T14:32:14Z</time>
      </trkpt>
      <trkpt lat="53.972985008731484" lon="27.293171966448426">
        <ele>223.63999999999999</ele>
        <time>2013-09-21T14:32:20Z</time>
      </trkpt>
      <trkpt lat="53.972842013463378" lon="27.293226029723883">
        <ele>224.61000000000001</ele>
        <time>2013-09-21T14:32:24Z</time>
      </trkpt>
      <trkpt lat="53.972622994333506" lon="27.293213037773967">
        <ele>227.00999999999999</ele>
        <time>2013-09-21T14:32:29Z</time>
      </trkpt>
      <trkpt lat="53.972407998517156" lon="27.293081022799015">
        <ele>228.44999999999999</ele>
        <time>2013-09-21T14:32:34Z</time>
      </trkpt>
      <trkpt lat="53.972041038796306" lon="27.29305000975728">
        <ele>227.49000000000001</ele>
        <time>2013-09-21T14:32:43Z</time>
      </trkpt>
      <trkpt lat="53.971929978579283" lon="27.293165009468794">
        <ele>227.97</ele>
        <time>2013-09-21T14:32:46Z</time>
      </trkpt>
      <trkpt lat="53.971782959997654" lon="27.293388973921537">
        <ele>228.44999999999999</ele>
        <time>2013-09-21T14:32:50Z</time>
      </trkpt>
      <trkpt lat="53.971564024686813" lon="27.293497016653419">
        <ele>229.41</ele>
        <time>2013-09-21T14:32:55Z</time>
      </trkpt>
      <trkpt lat="53.971177032217383" lon="27.29341302998364">
        <ele>229.88999999999999</ele>
        <time>2013-09-21T14:33:03Z</time>
      </trkpt>
      <trkpt lat="53.970902021974325" lon="27.293332982808352">
        <ele>229.41</ele>
        <time>2013-09-21T14:33:09Z</time>
      </trkpt>
      <trkpt lat="53.970731031149626" lon="27.293344968929887">
        <ele>228.93000000000001</ele>
        <time>2013-09-21T14:33:13Z</time>
      </trkpt>
      <trkpt lat="53.970234990119934" lon="27.293766997754574">
        <ele>229.88999999999999</ele>
        <time>2013-09-21T14:33:25Z</time>
      </trkpt>
      <trkpt lat="53.969812961295247" lon="27.294136974960566">
        <ele>232.78</ele>
        <time>2013-09-21T14:33:35Z</time>
      </trkpt>
      <trkpt lat="53.969724029302597" lon="27.294191038236022">
        <ele>233.74000000000001</ele>
        <time>2013-09-21T14:33:37Z</time>
      </trkpt>
      <trkpt lat="53.969180965796113" lon="27.294449033215642">
        <ele>237.09999999999999</ele>
        <time>2013-09-21T14:33:49Z</time>
      </trkpt>
      <trkpt lat="53.96902397274971" lon="27.294585993513465">
        <ele>238.53999999999999</ele>
        <time>2013-09-21T14:33:53Z</time>
      </trkpt>
      <trkpt lat="53.968863962218165" lon="27.294710967689753">
        <ele>239.50999999999999</ele>
        <time>2013-09-21T14:33:57Z</time>
      </trkpt>
      <trkpt lat="53.968500019982457" lon="27.295052027329803">
        <ele>241.91</ele>
        <time>2013-09-21T14:34:06Z</time>
      </trkpt>
      <trkpt lat="53.968400023877621" lon="27.29522000066936">
        <ele>243.34999999999999</ele>
        <time>2013-09-21T14:34:09Z</time>
      </trkpt>
      <trkpt lat="53.968175975605845" lon="27.295557036995888">
        <ele>247.19999999999999</ele>
        <time>2013-09-21T14:34:16Z</time>
      </trkpt>
      <trkpt lat="53.967813039198518" lon="27.296099010854959">
        <ele>247.68000000000001</ele>
        <time>2013-09-21T14:34:26Z</time>
      </trkpt>
      <trkpt lat="53.967206021770835" lon="27.296500001102686">
        <ele>244.31</ele>
        <time>2013-09-21T14:34:39Z</time>
      </trkpt>
      <trkpt lat="53.966711992397904" lon="27.296779034659266">
        <ele>243.34999999999999</ele>
        <time>2013-09-21T14:34:50Z</time>
      </trkpt>
      <trkpt lat="53.966547036543489" lon="27.296946002170444">
        <ele>244.31</ele>
        <time>2013-09-21T14:34:54Z</time>
      </trkpt>
      <trkpt lat="53.966462966054678" lon="27.297014985233545">
        <ele>244.78999999999999</ele>
        <time>2013-09-21T14:34:56Z</time>
      </trkpt>
      <trkpt lat="53.966256016865373" lon="27.297096960246563">
        <ele>245.75</ele>
        <time>2013-09-21T14:35:01Z</time>
      </trkpt>
      <trkpt lat="53.965831976383924" lon="27.297084974125028">
        <ele>247.19999999999999</ele>
        <time>2013-09-21T14:35:11Z</time>
      </trkpt>
      <trkpt lat="53.965688981115818" lon="27.297086985781789">
        <ele>247.19999999999999</ele>
        <time>2013-09-21T14:35:15Z</time>
      </trkpt>
      <trkpt lat="53.965429980307817" lon="27.2971520293504">
        <ele>248.16</ele>
        <time>2013-09-21T14:35:21Z</time>
      </trkpt>
      <trkpt lat="53.964979033917189" lon="27.297167032957077">
        <ele>249.59999999999999</ele>
        <time>2013-09-21T14:35:30Z</time>
      </trkpt>
      <trkpt lat="53.964866967871785" lon="27.29715496301651">
        <ele>249.59999999999999</ele>
        <time>2013-09-21T14:35:32Z</time>
      </trkpt>
      <trkpt lat="53.96451199427247" lon="27.297291001304984">
        <ele>249.59999999999999</ele>
        <time>2013-09-21T14:35:40Z</time>
      </trkpt>
      <trkpt lat="53.964405963197351" lon="27.297368030995131">
        <ele>250.56</ele>
        <time>2013-09-21T14:35:43Z</time>
      </trkpt>
      <trkpt lat="53.964046966284513" lon="27.297772038727999">
        <ele>254.41</ele>
        <time>2013-09-21T14:35:54Z</time>
      </trkpt>
      <trkpt lat="53.963953005149961" lon="27.297945041209459">
        <ele>255.84999999999999</ele>
        <time>2013-09-21T14:35:58Z</time>
      </trkpt>
      <trkpt lat="53.963841022923589" lon="27.298157019540668">
        <ele>257.76999999999998</ele>
        <time>2013-09-21T14:36:02Z</time>
      </trkpt>
      <trkpt lat="53.963784025982022" lon="27.298275036737323">
        <ele>257.76999999999998</ele>
        <time>2013-09-21T14:36:04Z</time>
      </trkpt>
      <trkpt lat="53.963607000187039" lon="27.298771999776363">
        <ele>261.13999999999999</ele>
        <time>2013-09-21T14:36:11Z</time>
      </trkpt>
      <trkpt lat="53.963485965505242" lon="27.299152035266161">
        <ele>264.5</ele>
        <time>2013-09-21T14:36:16Z</time>
      </trkpt>
      <trkpt lat="53.963404996320605" lon="27.299471972510219">
        <ele>265.94</ele>
        <time>2013-09-21T14:36:20Z</time>
      </trkpt>
      <trkpt lat="53.963244985789061" lon="27.299848990514874">
        <ele>265.94</ele>
        <time>2013-09-21T14:36:25Z</time>
      </trkpt>
      <trkpt lat="53.962966036051512" lon="27.300272025167942">
        <ele>264.98000000000002</ele>
        <time>2013-09-21T14:36:32Z</time>
      </trkpt>
      <trkpt lat="53.962875008583069" lon="27.30035500600934">
        <ele>264.5</ele>
        <time>2013-09-21T14:36:34Z</time>
      </trkpt>
      <trkpt lat="53.96270502358675" lon="27.300836965441704">
        <ele>264.01999999999998</ele>
        <time>2013-09-21T14:36:41Z</time>
      </trkpt>
      <trkpt lat="53.962716003879905" lon="27.301267040893435">
        <ele>263.54000000000002</ele>
        <time>2013-09-21T14:36:46Z</time>
      </trkpt>
      <trkpt lat="53.962645009160042" lon="27.301669958978891">
        <ele>262.57999999999998</ele>
        <time>2013-09-21T14:36:51Z</time>
      </trkpt>
      <trkpt lat="53.962575020268559" lon="27.301844973117113">
        <ele>260.17000000000002</ele>
        <time>2013-09-21T14:36:54Z</time>
      </trkpt>
      <trkpt lat="53.962463038042188" lon="27.302086958661675">
        <ele>256.81</ele>
        <time>2013-09-21T14:36:58Z</time>
      </trkpt>
      <trkpt lat="53.962115021422505" lon="27.303251037374139">
        <ele>248.16</ele>
        <time>2013-09-21T14:37:14Z</time>
      </trkpt>
      <trkpt lat="53.961999015882611" lon="27.303530992940068">
        <ele>246.72</ele>
        <time>2013-09-21T14:37:18Z</time>
      </trkpt>
      <trkpt lat="53.961624009534717" lon="27.304377984255552">
        <ele>241.91</ele>
        <time>2013-09-21T14:37:31Z</time>
      </trkpt>
      <trkpt lat="53.961255960166454" lon="27.305139983072877">
        <ele>239.50999999999999</ele>
        <time>2013-09-21T14:37:42Z</time>
      </trkpt>
      <trkpt lat="53.960830997675657" lon="27.306137010455132">
        <ele>238.53999999999999</ele>
        <time>2013-09-21T14:37:56Z</time>
      </trkpt>
      <trkpt lat="53.960717003792524" lon="27.306396011263132">
        <ele>238.06</ele>
        <time>2013-09-21T14:38:00Z</time>
      </trkpt>
      <trkpt lat="53.960605021566153" lon="27.306570019572973">
        <ele>237.58000000000001</ele>
        <time>2013-09-21T14:38:03Z</time>
      </trkpt>
      <trkpt lat="53.960392959415913" lon="27.306698011234403">
        <ele>236.62</ele>
        <time>2013-09-21T14:38:07Z</time>
      </trkpt>
      <trkpt lat="53.960224986076355" lon="27.306866990402341">
        <ele>236.62</ele>
        <time>2013-09-21T14:38:11Z</time>
      </trkpt>
      <trkpt lat="53.960181986913085" lon="27.307001017034054">
        <ele>236.62</ele>
        <time>2013-09-21T14:38:13Z</time>
      </trkpt>
      <trkpt lat="53.960108980536461" lon="27.307491023093462">
        <ele>237.58000000000001</ele>
        <time>2013-09-21T14:38:19Z</time>
      </trkpt>
      <trkpt lat="53.960024993866682" lon="27.307767039164901">
        <ele>237.09999999999999</ele>
        <time>2013-09-21T14:38:23Z</time>
      </trkpt>
      <trkpt lat="53.95986900664866" lon="27.308060992509127">
        <ele>237.58000000000001</ele>
        <time>2013-09-21T14:38:28Z</time>
      </trkpt>
      <trkpt lat="53.95959198474884" lon="27.308212034404278">
        <ele>236.62</ele>
        <time>2013-09-21T14:38:34Z</time>
      </trkpt>
      <trkpt lat="53.959304988384247" lon="27.308171968907118">
        <ele>237.09999999999999</ele>
        <time>2013-09-21T14:38:40Z</time>
      </trkpt>
      <trkpt lat="53.959123017266393" lon="27.308230977505445">
        <ele>238.06</ele>
        <time>2013-09-21T14:38:44Z</time>
      </trkpt>
      <trkpt lat="53.95892595872283" lon="27.308428036049008">
        <ele>239.50999999999999</ele>
        <time>2013-09-21T14:38:49Z</time>
      </trkpt>
      <trkpt lat="53.958822023123503" lon="27.308601038530469">
        <ele>239.99000000000001</ele>
        <time>2013-09-21T14:38:52Z</time>
      </trkpt>
      <trkpt lat="53.958575008437037" lon="27.308756019920111">
        <ele>240.94999999999999</ele>
        <time>2013-09-21T14:38:57Z</time>
      </trkpt>
      <trkpt lat="53.958297986537218" lon="27.308715032413602">
        <ele>240.47</ele>
        <time>2013-09-21T14:39:02Z</time>
      </trkpt>
      <trkpt lat="53.958196984604001" lon="27.308698017150164">
        <ele>239.99000000000001</ele>
        <time>2013-09-21T14:39:04Z</time>
      </trkpt>
      <trkpt lat="53.957673031836748" lon="27.30830498971045">
        <ele>238.53999999999999</ele>
        <time>2013-09-21T14:39:16Z</time>
      </trkpt>
      <trkpt lat="53.957297019660473" lon="27.308103991672397">
        <ele>238.06</ele>
        <time>2013-09-21T14:39:25Z</time>
      </trkpt>
      <trkpt lat="53.956958977505565" lon="27.308137016370893">
        <ele>239.02000000000001</ele>
        <time>2013-09-21T14:39:33Z</time>
      </trkpt>
      <trkpt lat="53.956479029729962" lon="27.308537000790238">
        <ele>240.47</ele>
        <time>2013-09-21T14:39:45Z</time>
      </trkpt>
      <trkpt lat="53.956266967579722" lon="27.308995993807912">
        <ele>241.91</ele>
        <time>2013-09-21T14:39:57Z</time>
      </trkpt>
      <trkpt lat="53.956262022256851" lon="27.309039998799562">
        <ele>242.87</ele>
        <time>2013-09-21T14:40:09Z</time>
      </trkpt>
      <trkpt lat="53.956250036135316" lon="27.309043016284704">
        <ele>242.87</ele>
        <time>2013-09-21T14:40:39Z</time>
      </trkpt>
      <trkpt lat="53.955996986478567" lon="27.308846041560173">
        <ele>244.31</ele>
        <time>2013-09-21T14:40:52Z</time>
      </trkpt>
      <trkpt lat="53.95591601729393" lon="27.3088170401752">
        <ele>244.31</ele>
        <time>2013-09-21T14:40:54Z</time>
      </trkpt>
      <trkpt lat="53.955574035644531" lon="27.308869007974863">
        <ele>242.87</ele>
        <time>2013-09-21T14:41:02Z</time>
      </trkpt>
      <trkpt lat="53.954930976033211" lon="27.309175031259656">
        <ele>240.94999999999999</ele>
        <time>2013-09-21T14:41:16Z</time>
      </trkpt>
      <trkpt lat="53.954846989363432" lon="27.309262035414577">
        <ele>240.94999999999999</ele>
        <time>2013-09-21T14:41:18Z</time>
      </trkpt>
      <trkpt lat="53.954250030219555" lon="27.310005007311702">
        <ele>240.47</ele>
        <time>2013-09-21T14:41:33Z</time>
      </trkpt>
      <trkpt lat="53.954106029123068" lon="27.310126964002848">
        <ele>239.50999999999999</ele>
        <time>2013-09-21T14:41:36Z</time>
      </trkpt>
      <trkpt lat="53.953673020005226" lon="27.310567013919353">
        <ele>239.02000000000001</ele>
        <time>2013-09-21T14:41:46Z</time>
      </trkpt>
      <trkpt lat="53.953048987314105" lon="27.311307974159718">
        <ele>238.53999999999999</ele>
        <time>2013-09-21T14:42:01Z</time>
      </trkpt>
      <trkpt lat="53.952858969569206" lon="27.311581978574395">
        <ele>239.99000000000001</ele>
        <time>2013-09-21T14:42:06Z</time>
      </trkpt>
      <trkpt lat="53.952604997903109" lon="27.312078019604087">
        <ele>240.47</ele>
        <time>2013-09-21T14:42:14Z</time>
      </trkpt>
      <trkpt lat="53.952469965443015" lon="27.312272982671857">
        <ele>240.94999999999999</ele>
        <time>2013-09-21T14:42:18Z</time>
      </trkpt>
      <trkpt lat="53.952234014868736" lon="27.312627034261823">
        <ele>241.91</ele>
        <time>2013-09-21T14:42:25Z</time>
      </trkpt>
      <trkpt lat="53.951969984918833" lon="27.313021989539266">
        <ele>243.83000000000001</ele>
        <time>2013-09-21T14:42:32Z</time>
      </trkpt>
      <trkpt lat="53.951471010223031" lon="27.313793040812016">
        <ele>246.22999999999999</ele>
        <time>2013-09-21T14:42:46Z</time>
      </trkpt>
      <trkpt lat="53.951293984428048" lon="27.314038965851068">
        <ele>246.22999999999999</ele>
        <time>2013-09-21T14:42:51Z</time>
      </trkpt>
      <trkpt lat="53.951011011376977" lon="27.314133010804653">
        <ele>244.78999999999999</ele>
        <time>2013-09-21T14:42:57Z</time>
      </trkpt>
      <trkpt lat="53.950876984745264" lon="27.314225966110826">
        <ele>243.34999999999999</ele>
        <time>2013-09-21T14:43:01Z</time>
      </trkpt>
      <trkpt lat="53.950827028602362" lon="27.314271982759237">
        <ele>241.91</ele>
        <time>2013-09-21T14:43:03Z</time>
      </trkpt>
      <trkpt lat="53.950784029439092" lon="27.314612036570907">
        <ele>239.99000000000001</ele>
        <time>2013-09-21T14:43:08Z</time>
      </trkpt>
      <trkpt lat="53.950880002230406" lon="27.314996011555195">
        <ele>239.99000000000001</ele>
        <time>2013-09-21T14:43:13Z</time>
      </trkpt>
      <trkpt lat="53.950829962268472" lon="27.315298011526465">
        <ele>239.50999999999999</ele>
        <time>2013-09-21T14:43:19Z</time>
      </trkpt>
      <trkpt lat="53.950543971732259" lon="27.315815007314086">
        <ele>238.53999999999999</ele>
        <time>2013-09-21T14:43:30Z</time>
      </trkpt>
      <trkpt lat="53.950522011145949" lon="27.315877033397555">
        <ele>238.53999999999999</ele>
        <time>2013-09-21T14:43:31Z</time>
      </trkpt>
      <trkpt lat="53.950449004769325" lon="27.316149026155472">
        <ele>238.53999999999999</ele>
        <time>2013-09-21T14:43:35Z</time>
      </trkpt>
      <trkpt lat="53.950151028111577" lon="27.316570971161127">
        <ele>240.47</ele>
        <time>2013-09-21T14:43:46Z</time>
      </trkpt>
      <trkpt lat="53.950061006471515" lon="27.316542975604534">
        <ele>239.50999999999999</ele>
        <time>2013-09-21T14:43:49Z</time>
      </trkpt>
      <trkpt lat="53.949855985119939" lon="27.316586980596185">
        <ele>239.02000000000001</ele>
        <time>2013-09-21T14:43:54Z</time>
      </trkpt>
      <trkpt lat="53.949590027332306" lon="27.316632997244596">
        <ele>237.58000000000001</ele>
        <time>2013-09-21T14:44:00Z</time>
      </trkpt>
      <trkpt lat="53.949124999344349" lon="27.316577006131411">
        <ele>234.69999999999999</ele>
        <time>2013-09-21T14:44:12Z</time>
      </trkpt>
      <trkpt lat="53.949085017666221" lon="27.316579017788172">
        <ele>234.22</ele>
        <time>2013-09-21T14:44:13Z</time>
      </trkpt>
      <trkpt lat="53.948965994641185" lon="27.316630985587835">
        <ele>234.22</ele>
        <time>2013-09-21T14:44:16Z</time>
      </trkpt>
      <trkpt lat="53.948756027966738" lon="27.316736010834575">
        <ele>233.74000000000001</ele>
        <time>2013-09-21T14:44:21Z</time>
      </trkpt>
      <trkpt lat="53.948668017983437" lon="27.316744979470968">
        <ele>233.74000000000001</ele>
        <time>2013-09-21T14:44:23Z</time>
      </trkpt>
      <trkpt lat="53.948139036074281" lon="27.316767023876309">
        <ele>230.84999999999999</ele>
        <time>2013-09-21T14:44:36Z</time>
      </trkpt>
      <trkpt lat="53.94809796474874" lon="27.316765012219548">
        <ele>230.84999999999999</ele>
        <time>2013-09-21T14:44:37Z</time>
      </trkpt>
      <trkpt lat="53.94796896725893" lon="27.316769035533071">
        <ele>229.88999999999999</ele>
        <time>2013-09-21T14:44:40Z</time>
      </trkpt>
      <trkpt lat="53.947478961199522" lon="27.316582035273314">
        <ele>228.93000000000001</ele>
        <time>2013-09-21T14:44:51Z</time>
      </trkpt>
      <trkpt lat="53.947304030880332" lon="27.316529983654618">
        <ele>229.41</ele>
        <time>2013-09-21T14:44:55Z</time>
      </trkpt>
      <trkpt lat="53.947028014808893" lon="27.316527971997857">
        <ele>230.84999999999999</ele>
        <time>2013-09-21T14:45:02Z</time>
      </trkpt>
      <trkpt lat="53.946769014000893" lon="27.316632997244596">
        <ele>229.88999999999999</ele>
        <time>2013-09-21T14:45:09Z</time>
      </trkpt>
      <trkpt lat="53.94640096463263" lon="27.316985037177801">
        <ele>231.33000000000001</ele>
        <time>2013-09-21T14:45:21Z</time>
      </trkpt>
      <trkpt lat="53.946166019886732" lon="27.317446041852236">
        <ele>236.62</ele>
        <time>2013-09-21T14:45:33Z</time>
      </trkpt>
      <trkpt lat="53.945972984656692" lon="27.317782994359732">
        <ele>239.02000000000001</ele>
        <time>2013-09-21T14:45:42Z</time>
      </trkpt>
      <trkpt lat="53.945777015760541" lon="27.318133022636175">
        <ele>240.47</ele>
        <time>2013-09-21T14:45:51Z</time>
      </trkpt>
      <trkpt lat="53.945514997467399" lon="27.318480033427477">
        <ele>242.38999999999999</ele>
        <time>2013-09-21T14:45:59Z</time>
      </trkpt>
      <trkpt lat="53.945146026089787" lon="27.318752026185393">
        <ele>241.91</ele>
        <time>2013-09-21T14:46:07Z</time>
      </trkpt>
      <trkpt lat="53.944816030561924" lon="27.318798964843154">
        <ele>235.66</ele>
        <time>2013-09-21T14:46:14Z</time>
      </trkpt>
      <trkpt lat="53.944162996485829" lon="27.318947995081544">
        <ele>225.09</ele>
        <time>2013-09-21T14:46:28Z</time>
      </trkpt>
      <trkpt lat="53.943632002919912" lon="27.319208001717925">
        <ele>221.72</ele>
        <time>2013-09-21T14:46:41Z</time>
      </trkpt>
      <trkpt lat="53.943366967141628" lon="27.319182017818093">
        <ele>219.31999999999999</ele>
        <time>2013-09-21T14:46:48Z</time>
      </trkpt>
      <trkpt lat="53.943291027098894" lon="27.319226022809744">
        <ele>218.84</ele>
        <time>2013-09-21T14:46:50Z</time>
      </trkpt>
      <trkpt lat="53.943039989098907" lon="27.319318978115916">
        <ele>216.91</ele>
        <time>2013-09-21T14:46:56Z</time>
      </trkpt>
      <trkpt lat="53.942919038236141" lon="27.319635981693864">
        <ele>214.50999999999999</ele>
        <time>2013-09-21T14:47:02Z</time>
      </trkpt>
      <trkpt lat="53.942709993571043" lon="27.320450032129884">
        <ele>216.91</ele>
        <time>2013-09-21T14:47:17Z</time>
      </trkpt>
      <trkpt lat="53.942263992503285" lon="27.320710038766265">
        <ele>221.24000000000001</ele>
        <time>2013-09-21T14:47:31Z</time>
      </trkpt>
      <trkpt lat="53.941841963678598" lon="27.320825960487127">
        <ele>222.19999999999999</ele>
        <time>2013-09-21T14:47:44Z</time>
      </trkpt>
      <trkpt lat="53.941310970112681" lon="27.320966022089124">
        <ele>223.16</ele>
        <time>2013-09-21T14:47:59Z</time>
      </trkpt>
      <trkpt lat="53.9407470356673" lon="27.321026958525181">
        <ele>224.61000000000001</ele>
        <time>2013-09-21T14:48:14Z</time>
      </trkpt>
      <trkpt lat="53.940331041812897" lon="27.321038022637367">
        <ele>224.61000000000001</ele>
        <time>2013-09-21T14:48:29Z</time>
      </trkpt>
      <trkpt lat="53.939950000494719" lon="27.321116980165243">
        <ele>222.19999999999999</ele>
        <time>2013-09-21T14:48:44Z</time>
      </trkpt>
      <trkpt lat="53.939907001331449" lon="27.321156039834023">
        <ele>222.68000000000001</ele>
        <time>2013-09-21T14:48:46Z</time>
      </trkpt>
      <trkpt lat="53.939870959147811" lon="27.321311021223664">
        <ele>222.68000000000001</ele>
        <time>2013-09-21T14:48:49Z</time>
      </trkpt>
      <trkpt lat="53.93986601382494" lon="27.321381010115147">
        <ele>222.68000000000001</ele>
        <time>2013-09-21T14:48:50Z</time>
      </trkpt>
      <trkpt lat="53.939861990511417" lon="27.321457033976912">
        <ele>222.68000000000001</ele>
        <time>2013-09-21T14:48:51Z</time>
      </trkpt>
      <trkpt lat="53.939833994954824" lon="27.322870977222919">
        <ele>220.75999999999999</ele>
        <time>2013-09-21T14:49:08Z</time>
      </trkpt>
      <trkpt lat="53.939797030761838" lon="27.324205040931702">
        <ele>218.84</ele>
        <time>2013-09-21T14:49:24Z</time>
      </trkpt>
      <trkpt lat="53.939718995243311" lon="27.325606998056173">
        <ele>219.31999999999999</ele>
        <time>2013-09-21T14:49:41Z</time>
      </trkpt>
      <trkpt lat="53.93965202383697" lon="27.326319962739944">
        <ele>219.31999999999999</ele>
        <time>2013-09-21T14:49:54Z</time>
      </trkpt>
      <trkpt lat="53.939646994695067" lon="27.326319040730596">
        <ele>219.80000000000001</ele>
        <time>2013-09-21T14:50:40Z</time>
      </trkpt>
      <trkpt lat="53.93965202383697" lon="27.326314011588693">
        <ele>219.31999999999999</ele>
        <time>2013-09-21T14:51:20Z</time>
      </trkpt>
      <trkpt lat="53.939632996916771" lon="27.326548034325242">
        <ele>220.28</ele>
        <time>2013-09-21T14:51:46Z</time>
      </trkpt>
      <trkpt lat="53.939568037167192" lon="27.327287988737226">
        <ele>222.19999999999999</ele>
        <time>2013-09-21T14:51:58Z</time>
      </trkpt>
      <trkpt lat="53.939461000263691" lon="27.32813598588109">
        <ele>224.12</ele>
        <time>2013-09-21T14:52:10Z</time>
      </trkpt>
      <trkpt lat="53.939451025798917" lon="27.328211003914475">
        <ele>224.12</ele>
        <time>2013-09-21T14:52:11Z</time>
      </trkpt>
      <trkpt lat="53.939284980297089" lon="27.329415986314416">
        <ele>224.61000000000001</ele>
        <time>2013-09-21T14:52:27Z</time>
      </trkpt>
      <trkpt lat="53.93922102637589" lon="27.330693975090981">
        <ele>227.00999999999999</ele>
        <time>2013-09-21T14:52:45Z</time>
      </trkpt>
      <trkpt lat="53.939293026924133" lon="27.331755040213466">
        <ele>226.53</ele>
        <time>2013-09-21T14:52:58Z</time>
      </trkpt>
      <trkpt lat="53.939290009438992" lon="27.3318309802562">
        <ele>226.05000000000001</ele>
        <time>2013-09-21T14:52:59Z</time>
      </trkpt>
      <trkpt lat="53.939282968640327" lon="27.331912033259869">
        <ele>226.05000000000001</ele>
        <time>2013-09-21T14:53:00Z</time>
      </trkpt>
      <trkpt lat="53.939151959493756" lon="27.333217011764646">
        <ele>223.16</ele>
        <time>2013-09-21T14:53:16Z</time>
      </trkpt>
      <trkpt lat="53.939068978652358" lon="27.334182020276785">
        <ele>221.72</ele>
        <time>2013-09-21T14:53:30Z</time>
      </trkpt>
      <trkpt lat="53.939054980874062" lon="27.335360012948513">
        <ele>222.68000000000001</ele>
        <time>2013-09-21T14:53:46Z</time>
      </trkpt>
      <trkpt lat="53.93905196338892" lon="27.335768966004252">
        <ele>222.68000000000001</ele>
        <time>2013-09-21T14:53:52Z</time>
      </trkpt>
      <trkpt lat="53.939048023894429" lon="27.335842978209257">
        <ele>222.68000000000001</ele>
        <time>2013-09-21T14:53:53Z</time>
      </trkpt>
      <trkpt lat="53.939014999195933" lon="27.33638696372509">
        <ele>222.19999999999999</ele>
        <time>2013-09-21T14:54:00Z</time>
      </trkpt>
      <trkpt lat="53.939084988087416" lon="27.336948970332742">
        <ele>221.72</ele>
        <time>2013-09-21T14:54:09Z</time>
      </trkpt>
      <trkpt lat="53.938967976719141" lon="27.337722033262253">
        <ele>220.75999999999999</ele>
        <time>2013-09-21T14:54:21Z</time>
      </trkpt>
      <trkpt lat="53.93875197507441" lon="27.33857799321413">
        <ele>220.28</ele>
        <time>2013-09-21T14:54:36Z</time>
      </trkpt>
      <trkpt lat="53.938734037801623" lon="27.338642030954361">
        <ele>220.28</ele>
        <time>2013-09-21T14:54:37Z</time>
      </trkpt>
      <trkpt lat="53.938720962032676" lon="27.338711014017463">
        <ele>220.28</ele>
        <time>2013-09-21T14:54:38Z</time>
      </trkpt>
      <trkpt lat="53.938658013939857" lon="27.339110998436809">
        <ele>220.75999999999999</ele>
        <time>2013-09-21T14:54:44Z</time>
      </trkpt>
      <trkpt lat="53.938392978161573" lon="27.340171979740262">
        <ele>220.28</ele>
        <time>2013-09-21T14:54:58Z</time>
      </trkpt>
      <trkpt lat="53.938054013997316" lon="27.341546025127172">
        <ele>221.72</ele>
        <time>2013-09-21T14:55:16Z</time>
      </trkpt>
      <trkpt lat="53.937914036214352" lon="27.342224959284067">
        <ele>222.68000000000001</ele>
        <time>2013-09-21T14:55:25Z</time>
      </trkpt>
      <trkpt lat="53.937909007072449" lon="27.342298971489072">
        <ele>222.68000000000001</ele>
        <time>2013-09-21T14:55:26Z</time>
      </trkpt>
      <trkpt lat="53.937853015959263" lon="27.342796018347144">
        <ele>223.16</ele>
        <time>2013-09-21T14:55:34Z</time>
      </trkpt>
      <trkpt lat="53.937873970717192" lon="27.342841029167175">
        <ele>223.16</ele>
        <time>2013-09-21T14:55:35Z</time>
      </trkpt>
      <trkpt lat="53.937929961830378" lon="27.342912023887038">
        <ele>223.63999999999999</ele>
        <time>2013-09-21T14:55:37Z</time>
      </trkpt>
      <trkpt lat="53.938134983181953" lon="27.34311000443995">
        <ele>223.63999999999999</ele>
        <time>2013-09-21T14:55:42Z</time>
      </trkpt>
      <trkpt lat="53.938671005889773" lon="27.343790028244257">
        <ele>224.12</ele>
        <time>2013-09-21T14:55:56Z</time>
      </trkpt>
      <trkpt lat="53.939111977815628" lon="27.344565019011497">
        <ele>226.05000000000001</ele>
        <time>2013-09-21T14:56:11Z</time>
      </trkpt>
      <trkpt lat="53.939257990568876" lon="27.344673983752728">
        <ele>226.53</ele>
        <time>2013-09-21T14:56:15Z</time>
      </trkpt>
      <trkpt lat="53.939685970544815" lon="27.345242025330663">
        <ele>224.12</ele>
        <time>2013-09-21T14:56:25Z</time>
      </trkpt>
      <trkpt lat="53.940249988809228" lon="27.346797036007047">
        <ele>220.75999999999999</ele>
        <time>2013-09-21T14:56:40Z</time>
      </trkpt>
      <trkpt lat="53.940552994608879" lon="27.347510000690818">
        <ele>222.68000000000001</ele>
        <time>2013-09-21T14:56:51Z</time>
      </trkpt>
      <trkpt lat="53.94083596765995" lon="27.348495963960886">
        <ele>222.68000000000001</ele>
        <time>2013-09-21T14:57:05Z</time>
      </trkpt>
      <trkpt lat="53.940917020663619" lon="27.348871976137161">
        <ele>221.72</ele>
        <time>2013-09-21T14:57:11Z</time>
      </trkpt>
      <trkpt lat="53.940953984856606" lon="27.349070962518454">
        <ele>221.72</ele>
        <time>2013-09-21T14:57:14Z</time>
      </trkpt>
      <trkpt lat="53.941302001476288" lon="27.350117024034262">
        <ele>219.31999999999999</ele>
        <time>2013-09-21T14:57:27Z</time>
      </trkpt>
      <trkpt lat="53.941376013681293" lon="27.350337971001863">
        <ele>218.84</ele>
        <time>2013-09-21T14:57:30Z</time>
      </trkpt>
      <trkpt lat="53.94147701561451" lon="27.350800987333059">
        <ele>219.31999999999999</ele>
        <time>2013-09-21T14:57:36Z</time>
      </trkpt>
      <trkpt lat="53.941511968150735" lon="27.350944988429546">
        <ele>219.31999999999999</ele>
        <time>2013-09-21T14:57:38Z</time>
      </trkpt>
      <trkpt lat="53.9417780097574" lon="27.351797008886933">
        <ele>219.31999999999999</ele>
        <time>2013-09-21T14:57:52Z</time>
      </trkpt>
      <trkpt lat="53.942131977528334" lon="27.352996962144971">
        <ele>218.36000000000001</ele>
        <time>2013-09-21T14:58:09Z</time>
      </trkpt>
      <trkpt lat="53.942151004448533" lon="27.353068040683866">
        <ele>218.36000000000001</ele>
        <time>2013-09-21T14:58:10Z</time>
      </trkpt>
      <trkpt lat="53.942374968901277" lon="27.353801960125566">
        <ele>219.31999999999999</ele>
        <time>2013-09-21T14:58:22Z</time>
      </trkpt>
      <trkpt lat="53.942619971930981" lon="27.354807034134865">
        <ele>220.28</ele>
        <time>2013-09-21T14:58:39Z</time>
      </trkpt>
      <trkpt lat="53.942740000784397" lon="27.355353031307459">
        <ele>219.80000000000001</ele>
        <time>2013-09-21T14:58:51Z</time>
      </trkpt>
      <trkpt lat="53.942771013826132" lon="27.356105977669358">
        <ele>219.31999999999999</ele>
        <time>2013-09-21T14:59:05Z</time>
      </trkpt>
      <trkpt lat="53.942772019654512" lon="27.356832018122077">
        <ele>222.19999999999999</ele>
        <time>2013-09-21T14:59:18Z</time>
      </trkpt>
      <trkpt lat="53.942923983559012" lon="27.357488991692662">
        <ele>227.49000000000001</ele>
        <time>2013-09-21T14:59:34Z</time>
      </trkpt>
      <trkpt lat="53.942929012700915" lon="27.357582030817866">
        <ele>227.97</ele>
        <time>2013-09-21T14:59:42Z</time>
      </trkpt>
      <trkpt lat="53.942931024357677" lon="27.357603991404176">
        <ele>227.97</ele>
        <time>2013-09-21T14:59:43Z</time>
      </trkpt>
      <trkpt lat="53.942936975508928" lon="27.357641961425543">
        <ele>228.44999999999999</ele>
        <time>2013-09-21T14:59:45Z</time>
      </trkpt>
      <trkpt lat="53.942952984943986" lon="27.357823010534048">
        <ele>233.74000000000001</ele>
        <time>2013-09-21T14:59:57Z</time>
      </trkpt>
      <trkpt lat="53.942965976893902" lon="27.357985032722354">
        <ele>237.58000000000001</ele>
        <time>2013-09-21T15:00:08Z</time>
      </trkpt>
      <trkpt lat="53.943001013249159" lon="27.358228024095297">
        <ele>242.87</ele>
        <time>2013-09-21T15:00:21Z</time>
      </trkpt>
      <trkpt lat="53.943026997148991" lon="27.358508985489607">
        <ele>245.75</ele>
        <time>2013-09-21T15:00:33Z</time>
      </trkpt>
      <trkpt lat="53.943052981048822" lon="27.358747031539679">
        <ele>247.19999999999999</ele>
        <time>2013-09-21T15:00:43Z</time>
      </trkpt>
      <trkpt lat="53.943058010190725" lon="27.358832024037838">
        <ele>247.68000000000001</ele>
        <time>2013-09-21T15:00:55Z</time>
      </trkpt>
      <trkpt lat="53.943155994638801" lon="27.35918297432363">
        <ele>246.72</ele>
        <time>2013-09-21T15:01:04Z</time>
      </trkpt>
      <trkpt lat="53.943290021270514" lon="27.359433006495237">
        <ele>245.75</ele>
        <time>2013-09-21T15:01:08Z</time>
      </trkpt>
      <trkpt lat="53.943805005401373" lon="27.360676964744925">
        <ele>239.02000000000001</ele>
        <time>2013-09-21T15:01:21Z</time>
      </trkpt>
      <trkpt lat="53.944112034514546" lon="27.361740963533521">
        <ele>237.58000000000001</ele>
        <time>2013-09-21T15:01:34Z</time>
      </trkpt>
      <trkpt lat="53.944126032292843" lon="27.361813969910145">
        <ele>237.58000000000001</ele>
        <time>2013-09-21T15:01:35Z</time>
      </trkpt>
      <trkpt lat="53.944273972883821" lon="27.362879980355501">
        <ele>237.58000000000001</ele>
        <time>2013-09-21T15:01:50Z</time>
      </trkpt>
      <trkpt lat="53.944428032264113" lon="27.363436035811901">
        <ele>234.69999999999999</ele>
        <time>2013-09-21T15:02:02Z</time>
      </trkpt>
      <trkpt lat="53.944536997005343" lon="27.364038024097681">
        <ele>231.33000000000001</ele>
        <time>2013-09-21T15:02:16Z</time>
      </trkpt>
      <trkpt lat="53.94468099810183" lon="27.364613022655249">
        <ele>230.37</ele>
        <time>2013-09-21T15:02:30Z</time>
      </trkpt>
      <trkpt lat="53.944745035842061" lon="27.364889038726687">
        <ele>230.37</ele>
        <time>2013-09-21T15:02:37Z</time>
      </trkpt>
      <trkpt lat="53.944659037515521" lon="27.365117026492953">
        <ele>230.37</ele>
        <time>2013-09-21T15:02:44Z</time>
      </trkpt>
      <trkpt lat="53.944547977298498" lon="27.365252980962396">
        <ele>230.37</ele>
        <time>2013-09-21T15:02:50Z</time>
      </trkpt>
      <trkpt lat="53.944590976461768" lon="27.365370998159051">
        <ele>230.84999999999999</ele>
        <time>2013-09-21T15:02:54Z</time>
      </trkpt>
      <trkpt lat="53.944877972826362" lon="27.366160992532969">
        <ele>230.84999999999999</ele>
        <time>2013-09-21T15:03:10Z</time>
      </trkpt>
      <trkpt lat="53.945210985839367" lon="27.367080990225077">
        <ele>229.88999999999999</ele>
        <time>2013-09-21T15:03:26Z</time>
      </trkpt>
      <trkpt lat="53.945236969739199" lon="27.367153996601701">
        <ele>229.41</ele>
        <time>2013-09-21T15:03:27Z</time>
      </trkpt>
      <trkpt lat="53.945662016049027" lon="27.368211038410664">
        <ele>226.05000000000001</ele>
        <time>2013-09-21T15:03:41Z</time>
      </trkpt>
      <trkpt lat="53.945994023233652" lon="27.369496989995241">
        <ele>222.68000000000001</ele>
        <time>2013-09-21T15:03:54Z</time>
      </trkpt>
      <trkpt lat="53.946524010971189" lon="27.371108997613192">
        <ele>218.84</ele>
        <time>2013-09-21T15:04:09Z</time>
      </trkpt>
      <trkpt lat="53.946750992909074" lon="27.371993036940694">
        <ele>217.40000000000001</ele>
        <time>2013-09-21T15:04:18Z</time>
      </trkpt>
      <trkpt lat="53.946917960420251" lon="27.373005989938974">
        <ele>218.84</ele>
        <time>2013-09-21T15:04:32Z</time>
      </trkpt>
      <trkpt lat="53.946931958198547" lon="27.373074973002076">
        <ele>218.84</ele>
        <time>2013-09-21T15:04:33Z</time>
      </trkpt>
      <trkpt lat="53.947116024792194" lon="27.374203009530902">
        <ele>215.47</ele>
        <time>2013-09-21T15:04:49Z</time>
      </trkpt>
      <trkpt lat="53.947190036997199" lon="27.374939024448395">
        <ele>213.06999999999999</ele>
        <time>2013-09-21T15:05:03Z</time>
      </trkpt>
      <trkpt lat="53.947209985926747" lon="27.375242030248046">
        <ele>213.55000000000001</ele>
        <time>2013-09-21T15:05:11Z</time>
      </trkpt>
      <trkpt lat="53.947299001738429" lon="27.375388965010643">
        <ele>214.50999999999999</ele>
        <time>2013-09-21T15:05:18Z</time>
      </trkpt>
      <trkpt lat="53.947464963421226" lon="27.376395966857672">
        <ele>214.03</ele>
        <time>2013-09-21T15:05:33Z</time>
      </trkpt>
      <trkpt lat="53.947552973404527" lon="27.376742977648973">
        <ele>213.55000000000001</ele>
        <time>2013-09-21T15:05:40Z</time>
      </trkpt>
      <trkpt lat="53.947640983387828" lon="27.376853032037616">
        <ele>213.55000000000001</ele>
        <time>2013-09-21T15:05:45Z</time>
      </trkpt>
      <trkpt lat="53.947943989187479" lon="27.377156037837267">
        <ele>216.43000000000001</ele>
        <time>2013-09-21T15:05:56Z</time>
      </trkpt>
      <trkpt lat="53.948007021099329" lon="27.3772700317204">
        <ele>217.88</ele>
        <time>2013-09-21T15:06:06Z</time>
      </trkpt>
      <trkpt lat="53.948007021099329" lon="27.3772700317204">
        <ele>217.88</ele>
        <time>2013-09-21T15:06:28Z</time>
      </trkpt>
      <trkpt lat="53.948012972250581" lon="27.377281012013555">
        <ele>217.88</ele>
        <time>2013-09-21T15:06:39Z</time>
      </trkpt>
      <trkpt lat="53.948012972250581" lon="27.377281012013555">
        <ele>217.88</ele>
        <time>2013-09-21T15:07:14Z</time>
      </trkpt>
      <trkpt lat="53.948034010827541" lon="27.377296015620232">
        <ele>217.88</ele>
        <time>2013-09-21T15:07:27Z</time>
      </trkpt>
      <trkpt lat="53.948098970577121" lon="27.377354018390179">
        <ele>216.91</ele>
        <time>2013-09-21T15:07:41Z</time>
      </trkpt>
      <trkpt lat="53.948179017752409" lon="27.377325017005205">
        <ele>217.88</ele>
        <time>2013-09-21T15:07:51Z</time>
      </trkpt>
      <trkpt lat="53.948212964460254" lon="27.377317976206541">
        <ele>218.84</ele>
        <time>2013-09-21T15:07:55Z</time>
      </trkpt>
      <trkpt lat="53.948258981108665" lon="27.37727103754878">
        <ele>219.80000000000001</ele>
        <time>2013-09-21T15:08:01Z</time>
      </trkpt>
      <trkpt lat="53.948298962786794" lon="27.377027962356806">
        <ele>221.24000000000001</ele>
        <time>2013-09-21T15:08:15Z</time>
      </trkpt>
      <trkpt lat="53.948296029120684" lon="27.376704001799226">
        <ele>222.68000000000001</ele>
        <time>2013-09-21T15:08:30Z</time>
      </trkpt>
      <trkpt lat="53.948387978598475" lon="27.376594031229615">
        <ele>221.72</ele>
        <time>2013-09-21T15:08:45Z</time>
      </trkpt>
      <trkpt lat="53.948464002460241" lon="27.376506021246314">
        <ele>220.28</ele>
        <time>2013-09-21T15:08:57Z</time>
      </trkpt>
      <trkpt lat="53.948797015473247" lon="27.376425974071026">
        <ele>219.80000000000001</ele>
        <time>2013-09-21T15:09:22Z</time>
      </trkpt>
      <trkpt lat="53.948865998536348" lon="27.376423962414265">
        <ele>219.31999999999999</ele>
        <time>2013-09-21T15:09:29Z</time>
      </trkpt>
      <trkpt lat="53.948930036276579" lon="27.376500992104411">
        <ele>221.24000000000001</ele>
        <time>2013-09-21T15:09:41Z</time>
      </trkpt>
      <trkpt lat="53.949088035151362" lon="27.376944981515408">
        <ele>222.19999999999999</ele>
        <time>2013-09-21T15:09:51Z</time>
      </trkpt>
      <trkpt lat="53.949114019051194" lon="27.376981023699045">
        <ele>222.19999999999999</ele>
        <time>2013-09-21T15:09:52Z</time>
      </trkpt>
      <trkpt lat="53.949594972655177" lon="27.376998960971832">
        <ele>221.24000000000001</ele>
        <time>2013-09-21T15:10:06Z</time>
      </trkpt>
      <trkpt lat="53.950119009241462" lon="27.377189984545112">
        <ele>216.91</ele>
        <time>2013-09-21T15:10:21Z</time>
      </trkpt>
      <trkpt lat="53.950320007279515" lon="27.377349995076656">
        <ele>216.43000000000001</ele>
        <time>2013-09-21T15:10:34Z</time>
      </trkpt>
      <trkpt lat="53.950521005317569" lon="27.377522997558117">
        <ele>216.43000000000001</ele>
        <time>2013-09-21T15:10:49Z</time>
      </trkpt>
      <trkpt lat="53.950521005317569" lon="27.377522997558117">
        <ele>216.43000000000001</ele>
        <time>2013-09-21T15:10:59Z</time>
      </trkpt>
      <trkpt lat="53.950521005317569" lon="27.377522997558117">
        <ele>216.43000000000001</ele>
        <time>2013-09-21T15:11:23Z</time>
      </trkpt>
      <trkpt lat="53.950543971732259" lon="27.377530038356781">
        <ele>215.94999999999999</ele>
        <time>2013-09-21T15:11:37Z</time>
      </trkpt>
      <trkpt lat="53.950564004480839" lon="27.377515034750104">
        <ele>214.50999999999999</ele>
        <time>2013-09-21T15:11:50Z</time>
      </trkpt>
      <trkpt lat="53.950564004480839" lon="27.377515034750104">
        <ele>214.50999999999999</ele>
        <time>2013-09-21T15:12:07Z</time>
      </trkpt>
      <trkpt lat="53.950564004480839" lon="27.377515034750104">
        <ele>214.50999999999999</ele>
        <time>2013-09-21T15:12:26Z</time>
      </trkpt>
      <trkpt lat="53.950564004480839" lon="27.377513023093343">
        <ele>214.99000000000001</ele>
        <time>2013-09-21T15:13:02Z</time>
      </trkpt>
      <trkpt lat="53.9505660161376" lon="27.377513023093343">
        <ele>214.50999999999999</ele>
        <time>2013-09-21T15:13:27Z</time>
      </trkpt>
      <trkpt lat="53.950568027794361" lon="27.377511011436582">
        <ele>214.50999999999999</ele>
        <time>2013-09-21T15:13:55Z</time>
      </trkpt>
      <trkpt lat="53.950568027794361" lon="27.377511011436582">
        <ele>214.50999999999999</ele>
        <time>2013-09-21T15:14:14Z</time>
      </trkpt>
      <trkpt lat="53.950571967288852" lon="27.377516040578485">
        <ele>214.03</ele>
        <time>2013-09-21T15:14:48Z</time>
      </trkpt>
      <trkpt lat="53.950567021965981" lon="27.377516040578485">
        <ele>213.55000000000001</ele>
        <time>2013-09-21T15:15:18Z</time>
      </trkpt>
      <trkpt lat="53.950567021965981" lon="27.377516040578485">
        <ele>213.55000000000001</ele>
        <time>2013-09-21T15:15:39Z</time>
      </trkpt>
      <trkpt lat="53.950568027794361" lon="27.377511011436582">
        <ele>213.55000000000001</ele>
        <time>2013-09-21T15:15:54Z</time>
      </trkpt>
      <trkpt lat="53.950568027794361" lon="27.377511011436582">
        <ele>213.55000000000001</ele>
        <time>2013-09-21T15:16:14Z</time>
      </trkpt>
      <trkpt lat="53.950568027794361" lon="27.377513023093343">
        <ele>213.55000000000001</ele>
        <time>2013-09-21T15:16:36Z</time>
      </trkpt>
      <trkpt lat="53.950569033622742" lon="27.377516040578485">
        <ele>214.03</ele>
        <time>2013-09-21T15:16:53Z</time>
      </trkpt>
      <trkpt lat="53.950568027794361" lon="27.37750899977982">
        <ele>214.03</ele>
        <time>2013-09-21T15:17:09Z</time>
      </trkpt>
      <trkpt lat="53.950556963682175" lon="27.377511011436582">
        <ele>213.55000000000001</ele>
        <time>2013-09-21T15:17:19Z</time>
      </trkpt>
      <trkpt lat="53.950557969510555" lon="27.377517968416214">
        <ele>213.55000000000001</ele>
        <time>2013-09-21T15:17:37Z</time>
      </trkpt>
      <trkpt lat="53.950557969510555" lon="27.377517968416214">
        <ele>213.55000000000001</ele>
        <time>2013-09-21T15:17:46Z</time>
      </trkpt>
      <trkpt lat="53.950660983100533" lon="27.377633973956108">
        <ele>212.59</ele>
        <time>2013-09-21T15:17:52Z</time>
      </trkpt>
      <trkpt lat="53.951157024130225" lon="27.378133032470942">
        <ele>212.59</ele>
        <time>2013-09-21T15:18:07Z</time>
      </trkpt>
      <trkpt lat="53.951738979667425" lon="27.378653967753053">
        <ele>213.06999999999999</ele>
        <time>2013-09-21T15:18:22Z</time>
      </trkpt>
      <trkpt lat="53.952431995421648" lon="27.379280012100935">
        <ele>212.11000000000001</ele>
        <time>2013-09-21T15:18:41Z</time>
      </trkpt>
      <trkpt lat="53.953128028661013" lon="27.379889963194728">
        <ele>212.11000000000001</ele>
        <time>2013-09-21T15:19:00Z</time>
      </trkpt>
      <trkpt lat="53.95381098613143" lon="27.380497986450791">
        <ele>212.11000000000001</ele>
        <time>2013-09-21T15:19:18Z</time>
      </trkpt>
      <trkpt lat="53.954514982178807" lon="27.381111038848758">
        <ele>212.59</ele>
        <time>2013-09-21T15:19:36Z</time>
      </trkpt>
      <trkpt lat="53.955214032903314" lon="27.381730964407325">
        <ele>213.55000000000001</ele>
        <time>2013-09-21T15:19:54Z</time>
      </trkpt>
      <trkpt lat="53.955917023122311" lon="27.382360026240349">
        <ele>214.03</ele>
        <time>2013-09-21T15:20:14Z</time>
      </trkpt>
      <trkpt lat="53.95636897534132" lon="27.382775014266372">
        <ele>215.47</ele>
        <time>2013-09-21T15:20:28Z</time>
      </trkpt>
      <trkpt lat="53.956788992509246" lon="27.383101992309093">
        <ele>215.47</ele>
        <time>2013-09-21T15:20:41Z</time>
      </trkpt>
      <trkpt lat="53.957174979150295" lon="27.383561991155148">
        <ele>214.50999999999999</ele>
        <time>2013-09-21T15:20:55Z</time>
      </trkpt>
      <trkpt lat="53.957533976063132" lon="27.384123997762799">
        <ele>212.11000000000001</ele>
        <time>2013-09-21T15:21:07Z</time>
      </trkpt>
      <trkpt lat="53.957794988527894" lon="27.384542003273964">
        <ele>212.11000000000001</ele>
        <time>2013-09-21T15:21:18Z</time>
      </trkpt>
      <trkpt lat="53.95785097964108" lon="27.384634036570787">
        <ele>212.11000000000001</ele>
        <time>2013-09-21T15:21:20Z</time>
      </trkpt>
      <trkpt lat="53.958369987085462" lon="27.385603990405798">
        <ele>210.66999999999999</ele>
        <time>2013-09-21T15:21:36Z</time>
      </trkpt>
      <trkpt lat="53.958787992596626" lon="27.386588025838137">
        <ele>209.69999999999999</ele>
        <time>2013-09-21T15:21:50Z</time>
      </trkpt>
      <trkpt lat="53.959209015592933" lon="27.387598967179656">
        <ele>210.19</ele>
        <time>2013-09-21T15:22:05Z</time>
      </trkpt>
      <trkpt lat="53.959521995857358" lon="27.388384016230702">
        <ele>210.19</ele>
        <time>2013-09-21T15:22:17Z</time>
      </trkpt>
      <trkpt lat="53.960038991644979" lon="27.389666028320789">
        <ele>210.19</ele>
        <time>2013-09-21T15:22:36Z</time>
      </trkpt>
      <trkpt lat="53.960479041561484" lon="27.390752993524075">
        <ele>208.74000000000001</ele>
        <time>2013-09-21T15:22:52Z</time>
      </trkpt>
      <trkpt lat="53.960865028202534" lon="27.391820009797812">
        <ele>209.69999999999999</ele>
        <time>2013-09-21T15:23:08Z</time>
      </trkpt>
      <trkpt lat="53.961035013198853" lon="27.39259198307991">
        <ele>210.19</ele>
        <time>2013-09-21T15:23:19Z</time>
      </trkpt>
      <trkpt lat="53.961249003186822" lon="27.393785985186696">
        <ele>211.63</ele>
        <time>2013-09-21T15:23:35Z</time>
      </trkpt>
      <trkpt lat="53.96148000843823" lon="27.394966995343566">
        <ele>212.11000000000001</ele>
        <time>2013-09-21T15:23:51Z</time>
      </trkpt>
      <trkpt lat="53.961685029789805" lon="27.396210031583905">
        <ele>213.06999999999999</ele>
        <time>2013-09-21T15:24:08Z</time>
      </trkpt>
      <trkpt lat="53.961886027827859" lon="27.397465975955129">
        <ele>213.55000000000001</ele>
        <time>2013-09-21T15:24:24Z</time>
      </trkpt>
      <trkpt lat="53.96212499588728" lon="27.398917973041534">
        <ele>211.63</ele>
        <time>2013-09-21T15:24:41Z</time>
      </trkpt>
      <trkpt lat="53.962334962561727" lon="27.400270979851484">
        <ele>210.19</ele>
        <time>2013-09-21T15:24:57Z</time>
      </trkpt>
      <trkpt lat="53.962593963369727" lon="27.401797994971275">
        <ele>209.69999999999999</ele>
        <time>2013-09-21T15:25:15Z</time>
      </trkpt>
      <trkpt lat="53.962678033858538" lon="27.402294036000967">
        <ele>209.22</ele>
        <time>2013-09-21T15:25:21Z</time>
      </trkpt>
      <trkpt lat="53.96277098916471" lon="27.402780018746853">
        <ele>208.25999999999999</ele>
        <time>2013-09-21T15:25:27Z</time>
      </trkpt>
      <trkpt lat="53.962806025519967" lon="27.402935000136495">
        <ele>207.78</ele>
        <time>2013-09-21T15:25:29Z</time>
      </trkpt>
      <trkpt lat="53.963026972487569" lon="27.404178036376834">
        <ele>206.81999999999999</ele>
        <time>2013-09-21T15:25:45Z</time>
      </trkpt>
      <trkpt lat="53.963055973872542" lon="27.404335029423237">
        <ele>206.81999999999999</ele>
        <time>2013-09-21T15:25:47Z</time>
      </trkpt>
      <trkpt lat="53.963241968303919" lon="27.405699016526341">
        <ele>209.22</ele>
        <time>2013-09-21T15:26:05Z</time>
      </trkpt>
      <trkpt lat="53.963480014353991" lon="27.406710963696241">
        <ele>210.19</ele>
        <time>2013-09-21T15:26:19Z</time>
      </trkpt>
      <trkpt lat="53.963885027915239" lon="27.40799599327147">
        <ele>210.19</ele>
        <time>2013-09-21T15:26:36Z</time>
      </trkpt>
      <trkpt lat="53.964261040091515" lon="27.409170968458056">
        <ele>208.25999999999999</ele>
        <time>2013-09-21T15:26:51Z</time>
      </trkpt>
      <trkpt lat="53.964551975950599" lon="27.410116028040648">
        <ele>209.69999999999999</ele>
        <time>2013-09-21T15:27:04Z</time>
      </trkpt>
      <trkpt lat="53.964759008958936" lon="27.410688009113073">
        <ele>210.66999999999999</ele>
        <time>2013-09-21T15:27:12Z</time>
      </trkpt>
      <trkpt lat="53.964972998946905" lon="27.411143984645605">
        <ele>210.66999999999999</ele>
        <time>2013-09-21T15:27:19Z</time>
      </trkpt>
      <trkpt lat="53.965034019201994" lon="27.411274993792176">
        <ele>210.66999999999999</ele>
        <time>2013-09-21T15:27:21Z</time>
      </trkpt>
      <trkpt lat="53.965405002236366" lon="27.412050990387797">
        <ele>210.66999999999999</ele>
        <time>2013-09-21T15:27:33Z</time>
      </trkpt>
      <trkpt lat="53.965679006651044" lon="27.41263403557241">
        <ele>211.15000000000001</ele>
        <time>2013-09-21T15:27:42Z</time>
      </trkpt>
      <trkpt lat="53.965796018019319" lon="27.412913991138339">
        <ele>210.66999999999999</ele>
        <time>2013-09-21T15:27:46Z</time>
      </trkpt>
      <trkpt lat="53.96605996415019" lon="27.413608012720942">
        <ele>209.69999999999999</ele>
        <time>2013-09-21T15:27:55Z</time>
      </trkpt>
      <trkpt lat="53.966442011296749" lon="27.414720961824059">
        <ele>209.22</ele>
        <time>2013-09-21T15:28:09Z</time>
      </trkpt>
      <trkpt lat="53.966763960197568" lon="27.415659986436367">
        <ele>212.11000000000001</ele>
        <time>2013-09-21T15:28:22Z</time>
      </trkpt>
      <trkpt lat="53.966913996264338" lon="27.416068017482758">
        <ele>213.55000000000001</ele>
        <time>2013-09-21T15:28:28Z</time>
      </trkpt>
      <trkpt lat="53.96700200624764" lon="27.416345961391926">
        <ele>213.55000000000001</ele>
        <time>2013-09-21T15:28:32Z</time>
      </trkpt>
      <trkpt lat="53.96728296764195" lon="27.4171709921211">
        <ele>217.88</ele>
        <time>2013-09-21T15:28:45Z</time>
      </trkpt>
      <trkpt lat="53.967583039775491" lon="27.418040027841926">
        <ele>218.84</ele>
        <time>2013-09-21T15:28:58Z</time>
      </trkpt>
      <trkpt lat="53.967880010604858" lon="27.418959019705653">
        <ele>220.28</ele>
        <time>2013-09-21T15:29:11Z</time>
      </trkpt>
      <trkpt lat="53.968074973672628" lon="27.419628985226154">
        <ele>222.19999999999999</ele>
        <time>2013-09-21T15:29:20Z</time>
      </trkpt>
      <trkpt lat="53.968136999756098" lon="27.419924028217793">
        <ele>222.19999999999999</ele>
        <time>2013-09-21T15:29:24Z</time>
      </trkpt>
      <trkpt lat="53.968168012797832" lon="27.420076997950673">
        <ele>222.19999999999999</ele>
        <time>2013-09-21T15:29:26Z</time>
      </trkpt>
      <trkpt lat="53.968285024166107" lon="27.421002024784684">
        <ele>223.63999999999999</ele>
        <time>2013-09-21T15:29:38Z</time>
      </trkpt>
      <trkpt lat="53.968285024166107" lon="27.422623001039028">
        <ele>222.68000000000001</ele>
        <time>2013-09-21T15:29:55Z</time>
      </trkpt>
      <trkpt lat="53.968272032216191" lon="27.423280980437994">
        <ele>221.72</ele>
        <time>2013-09-21T15:30:03Z</time>
      </trkpt>
      <trkpt lat="53.968262979760766" lon="27.42357300594449">
        <ele>220.28</ele>
        <time>2013-09-21T15:30:07Z</time>
      </trkpt>
      <trkpt lat="53.968289969488978" lon="27.424286976456642">
        <ele>217.40000000000001</ele>
        <time>2013-09-21T15:30:15Z</time>
      </trkpt>
      <trkpt lat="53.96831201389432" lon="27.425649035722017">
        <ele>214.03</ele>
        <time>2013-09-21T15:30:27Z</time>
      </trkpt>
      <trkpt lat="53.968363981693983" lon="27.427285015583038">
        <ele>212.11000000000001</ele>
        <time>2013-09-21T15:30:41Z</time>
      </trkpt>
      <trkpt lat="53.968495996668935" lon="27.428733995184302">
        <ele>213.06999999999999</ele>
        <time>2013-09-21T15:30:55Z</time>
      </trkpt>
      <trkpt lat="53.968559028580785" lon="27.429191982373595">
        <ele>212.59</ele>
        <time>2013-09-21T15:31:00Z</time>
      </trkpt>
      <trkpt lat="53.968524998053908" lon="27.429627003148198">
        <ele>213.06999999999999</ele>
        <time>2013-09-21T15:31:05Z</time>
      </trkpt>
      <trkpt lat="53.968153009191155" lon="27.431302964687347">
        <ele>211.15000000000001</ele>
        <time>2013-09-21T15:31:22Z</time>
      </trkpt>
      <trkpt lat="53.967826031148434" lon="27.432439969852567">
        <ele>213.55000000000001</ele>
        <time>2013-09-21T15:31:37Z</time>
      </trkpt>
      <trkpt lat="53.967535011470318" lon="27.433359967544675">
        <ele>215.94999999999999</ele>
        <time>2013-09-21T15:31:52Z</time>
      </trkpt>
      <trkpt lat="53.967327978461981" lon="27.434063041582704">
        <ele>217.40000000000001</ele>
        <time>2013-09-21T15:32:03Z</time>
      </trkpt>
      <trkpt lat="53.967184983193874" lon="27.434567967429757">
        <ele>217.40000000000001</ele>
        <time>2013-09-21T15:32:08Z</time>
      </trkpt>
      <trkpt lat="53.967166962102056" lon="27.434684978798032">
        <ele>217.40000000000001</ele>
        <time>2013-09-21T15:32:09Z</time>
      </trkpt>
      <trkpt lat="53.967164028435946" lon="27.43483099155128">
        <ele>216.91</ele>
        <time>2013-09-21T15:32:10Z</time>
      </trkpt>
      <trkpt lat="53.96719696931541" lon="27.436460014432669">
        <ele>214.03</ele>
        <time>2013-09-21T15:32:23Z</time>
      </trkpt>
      <trkpt lat="53.967178026214242" lon="27.437227964401245">
        <ele>214.50999999999999</ele>
        <time>2013-09-21T15:32:32Z</time>
      </trkpt>
      <trkpt lat="53.967170985415578" lon="27.437304994091392">
        <ele>214.50999999999999</ele>
        <time>2013-09-21T15:32:33Z</time>
      </trkpt>
      <trkpt lat="53.967133015394211" lon="27.437626020982862">
        <ele>215.94999999999999</ele>
        <time>2013-09-21T15:32:37Z</time>
      </trkpt>
      <trkpt lat="53.967123962938786" lon="27.437939001247287">
        <ele>218.36000000000001</ele>
        <time>2013-09-21T15:32:41Z</time>
      </trkpt>
      <trkpt lat="53.967137960717082" lon="27.438490027561784">
        <ele>224.12</ele>
        <time>2013-09-21T15:32:49Z</time>
      </trkpt>
      <trkpt lat="53.966778041794896" lon="27.439744966104627">
        <ele>222.68000000000001</ele>
        <time>2013-09-21T15:33:05Z</time>
      </trkpt>
      <trkpt lat="53.966502025723457" lon="27.441008035093546">
        <ele>218.84</ele>
        <time>2013-09-21T15:33:21Z</time>
      </trkpt>
      <trkpt lat="53.966477969661355" lon="27.441415982320905">
        <ele>218.36000000000001</ele>
        <time>2013-09-21T15:33:26Z</time>
      </trkpt>
      <trkpt lat="53.96650898270309" lon="27.441689986735582">
        <ele>217.40000000000001</ele>
        <time>2013-09-21T15:33:29Z</time>
      </trkpt>
      <trkpt lat="53.966596992686391" lon="27.442056024447083">
        <ele>215.94999999999999</ele>
        <time>2013-09-21T15:33:33Z</time>
      </trkpt>
      <trkpt lat="53.966936962679029" lon="27.442904021590948">
        <ele>211.63</ele>
        <time>2013-09-21T15:33:45Z</time>
      </trkpt>
      <trkpt lat="53.967036958783865" lon="27.443100996315479">
        <ele>211.15000000000001</ele>
        <time>2013-09-21T15:33:48Z</time>
      </trkpt>
      <trkpt lat="53.967148019000888" lon="27.443411964923143">
        <ele>210.66999999999999</ele>
        <time>2013-09-21T15:33:55Z</time>
      </trkpt>
      <trkpt lat="53.967156987637281" lon="27.443930972367525">
        <ele>209.69999999999999</ele>
        <time>2013-09-21T15:34:07Z</time>
      </trkpt>
      <trkpt lat="53.967286990955472" lon="27.444359958171844">
        <ele>210.19</ele>
        <time>2013-09-21T15:34:15Z</time>
      </trkpt>
      <trkpt lat="53.967179032042623" lon="27.44527199305594">
        <ele>212.11000000000001</ele>
        <time>2013-09-21T15:34:31Z</time>
      </trkpt>
      <trkpt lat="53.967162016779184" lon="27.445309963077307">
        <ele>213.06999999999999</ele>
        <time>2013-09-21T15:34:36Z</time>
      </trkpt>
      <trkpt lat="53.967168973758817" lon="27.445350028574467">
        <ele>214.03</ele>
        <time>2013-09-21T15:34:39Z</time>
      </trkpt>
      <trkpt lat="53.96715497598052" lon="27.44542496278882">
        <ele>215.94999999999999</ele>
        <time>2013-09-21T15:34:43Z</time>
      </trkpt>
      <trkpt lat="53.96715103648603" lon="27.445855960249901">
        <ele>220.28</ele>
        <time>2013-09-21T15:34:54Z</time>
      </trkpt>
      <trkpt lat="53.967070989310741" lon="27.4464759696275">
        <ele>219.80000000000001</ele>
        <time>2013-09-21T15:35:07Z</time>
      </trkpt>
      <trkpt lat="53.966965964064002" lon="27.447048034518957">
        <ele>217.88</ele>
        <time>2013-09-21T15:35:19Z</time>
      </trkpt>
      <trkpt lat="53.966953977942467" lon="27.447093967348337">
        <ele>217.88</ele>
        <time>2013-09-21T15:35:30Z</time>
      </trkpt>
      <trkpt lat="53.96693998016417" lon="27.447092961519957">
        <ele>217.40000000000001</ele>
        <time>2013-09-21T15:35:39Z</time>
      </trkpt>
      <trkpt lat="53.966935034841299" lon="27.447089022025466">
        <ele>216.91</ele>
        <time>2013-09-21T15:36:58Z</time>
      </trkpt>
      <trkpt lat="53.96693604066968" lon="27.447092039510608">
        <ele>216.91</ele>
        <time>2013-09-21T15:37:33Z</time>
      </trkpt>
      <trkpt lat="53.966924976557493" lon="27.44711902923882">
        <ele>216.43000000000001</ele>
        <time>2013-09-21T15:37:45Z</time>
      </trkpt>
      <trkpt lat="53.966924976557493" lon="27.44711902923882">
        <ele>216.43000000000001</ele>
        <time>2013-09-21T15:37:46Z</time>
      </trkpt>
      <trkpt lat="53.966749962419271" lon="27.447221959009767">
        <ele>215.94999999999999</ele>
        <time>2013-09-21T15:37:52Z</time>
      </trkpt>
      <trkpt lat="53.966397000476718" lon="27.447290020063519">
        <ele>214.50999999999999</ele>
        <time>2013-09-21T15:38:01Z</time>
      </trkpt>
      <trkpt lat="53.966277977451682" lon="27.447303012013435">
        <ele>214.03</ele>
        <time>2013-09-21T15:38:04Z</time>
      </trkpt>
      <trkpt lat="53.96569199860096" lon="27.447616998106241">
        <ele>210.19</ele>
        <time>2013-09-21T15:38:17Z</time>
      </trkpt>
      <trkpt lat="53.965510027483106" lon="27.447673995047808">
        <ele>209.69999999999999</ele>
        <time>2013-09-21T15:38:21Z</time>
      </trkpt>
      <trkpt lat="53.965302994474769" lon="27.447797041386366">
        <ele>210.19</ele>
        <time>2013-09-21T15:38:26Z</time>
      </trkpt>
      <trkpt lat="53.964933017268777" lon="27.448006002232432">
        <ele>209.22</ele>
        <time>2013-09-21T15:38:34Z</time>
      </trkpt>
      <trkpt lat="53.964716009795666" lon="27.448051013052464">
        <ele>209.22</ele>
        <time>2013-09-21T15:38:38Z</time>
      </trkpt>
      <trkpt lat="53.964427001774311" lon="27.448414033278823">
        <ele>208.25999999999999</ele>
        <time>2013-09-21T15:38:46Z</time>
      </trkpt>
      <trkpt lat="53.964396994560957" lon="27.448629029095173">
        <ele>208.25999999999999</ele>
        <time>2013-09-21T15:38:49Z</time>
      </trkpt>
      <trkpt lat="53.964140005409718" lon="27.449318021535873">
        <ele>208.74000000000001</ele>
        <time>2013-09-21T15:39:00Z</time>
      </trkpt>
      <trkpt lat="53.963997010141611" lon="27.449682969599962">
        <ele>208.74000000000001</ele>
        <time>2013-09-21T15:39:11Z</time>
      </trkpt>
      <trkpt lat="53.963993992656469" lon="27.449684981256723">
        <ele>208.25999999999999</ele>
        <time>2013-09-21T15:39:33Z</time>
      </trkpt>
      <trkpt lat="53.963992986828089" lon="27.449693027883768">
        <ele>208.25999999999999</ele>
        <time>2013-09-21T15:40:01Z</time>
      </trkpt>
      <trkpt lat="53.963977983221412" lon="27.4497190117836">
        <ele>208.25999999999999</ele>
        <time>2013-09-21T15:40:04Z</time>
      </trkpt>
      <trkpt lat="53.963924003764987" lon="27.449833005666733">
        <ele>208.25999999999999</ele>
        <time>2013-09-21T15:40:09Z</time>
      </trkpt>
      <trkpt lat="53.963561989367008" lon="27.450577989220619">
        <ele>208.25999999999999</ele>
        <time>2013-09-21T15:40:25Z</time>
      </trkpt>
      <trkpt lat="53.963117999956012" lon="27.451403019949794">
        <ele>205.38</ele>
        <time>2013-09-21T15:40:40Z</time>
      </trkpt>
      <trkpt lat="53.962642997503281" lon="27.452095029875636">
        <ele>203.94</ele>
        <time>2013-09-21T15:40:55Z</time>
      </trkpt>
      <trkpt lat="53.962186016142368" lon="27.452888041734695">
        <ele>203.46000000000001</ele>
        <time>2013-09-21T15:41:10Z</time>
      </trkpt>
      <trkpt lat="53.961661979556084" lon="27.453907029703259">
        <ele>202.49000000000001</ele>
        <time>2013-09-21T15:41:27Z</time>
      </trkpt>
      <trkpt lat="53.961178008466959" lon="27.454799031838775">
        <ele>203.46000000000001</ele>
        <time>2013-09-21T15:41:43Z</time>
      </trkpt>
      <trkpt lat="53.960920013487339" lon="27.455234974622726">
        <ele>203.46000000000001</ele>
        <time>2013-09-21T15:41:56Z</time>
      </trkpt>
      <trkpt lat="53.960916996002197" lon="27.455251989886165">
        <ele>203.46000000000001</ele>
        <time>2013-09-21T15:42:00Z</time>
      </trkpt>
      <trkpt lat="53.960823034867644" lon="27.455567987635732">
        <ele>202.97999999999999</ele>
        <time>2013-09-21T15:42:10Z</time>
      </trkpt>
      <trkpt lat="53.96053503267467" lon="27.455964032560587">
        <ele>202.97999999999999</ele>
        <time>2013-09-21T15:42:19Z</time>
      </trkpt>
      <trkpt lat="53.960114009678364" lon="27.456267038360238">
        <ele>202.97999999999999</ele>
        <time>2013-09-21T15:42:32Z</time>
      </trkpt>
      <trkpt lat="53.959561977535486" lon="27.456172993406653">
        <ele>202.00999999999999</ele>
        <time>2013-09-21T15:42:45Z</time>
      </trkpt>
      <trkpt lat="53.959520990028977" lon="27.456148015335202">
        <ele>201.53</ele>
        <time>2013-09-21T15:42:46Z</time>
      </trkpt>
      <trkpt lat="53.958995025604963" lon="27.455681981518865">
        <ele>201.53</ele>
        <time>2013-09-21T15:43:01Z</time>
      </trkpt>
      <trkpt lat="53.958574002608657" lon="27.455235980451107">
        <ele>202.97999999999999</ele>
        <time>2013-09-21T15:43:14Z</time>
      </trkpt>
      <trkpt lat="53.958283988758922" lon="27.455294989049435">
        <ele>202.97999999999999</ele>
        <time>2013-09-21T15:43:24Z</time>
      </trkpt>
      <trkpt lat="53.958188015967607" lon="27.455586008727551">
        <ele>202.97999999999999</ele>
        <time>2013-09-21T15:43:30Z</time>
      </trkpt>
      <trkpt lat="53.958235960453749" lon="27.455792035907507">
        <ele>203.46000000000001</ele>
        <time>2013-09-21T15:43:34Z</time>
      </trkpt>
      <trkpt lat="53.958513988181949" lon="27.456255974248052">
        <ele>202.97999999999999</ele>
        <time>2013-09-21T15:43:45Z</time>
      </trkpt>
      <trkpt lat="53.958574002608657" lon="27.456537019461393">
        <ele>202.97999999999999</ele>
        <time>2013-09-21T15:43:49Z</time>
      </trkpt>
      <trkpt lat="53.958586994558573" lon="27.456911019980907">
        <ele>202.97999999999999</ele>
        <time>2013-09-21T15:43:54Z</time>
      </trkpt>
      <trkpt lat="53.958465037867427" lon="27.45820602402091">
        <ele>203.46000000000001</ele>
        <time>2013-09-21T15:44:11Z</time>
      </trkpt>
      <trkpt lat="53.958232020959258" lon="27.458882024511695">
        <ele>202.97999999999999</ele>
        <time>2013-09-21T15:44:23Z</time>
      </trkpt>
      <trkpt lat="53.957797000184655" lon="27.459689034149051">
        <ele>202.00999999999999</ele>
        <time>2013-09-21T15:44:40Z</time>
      </trkpt>
      <trkpt lat="53.957741009071469" lon="27.459767991676927">
        <ele>202.00999999999999</ele>
        <time>2013-09-21T15:44:48Z</time>
      </trkpt>
      <trkpt lat="53.957723993808031" lon="27.459848960861564">
        <ele>201.53</ele>
        <time>2013-09-21T15:45:01Z</time>
      </trkpt>
      <trkpt lat="53.957718964666128" lon="27.459876034408808">
        <ele>202.00999999999999</ele>
        <time>2013-09-21T15:45:03Z</time>
      </trkpt>
      <trkpt lat="53.957729022949934" lon="27.459969995543361">
        <ele>201.05000000000001</ele>
        <time>2013-09-21T15:45:18Z</time>
      </trkpt>
      <trkpt lat="53.957729022949934" lon="27.459969995543361">
        <ele>201.05000000000001</ele>
        <time>2013-09-21T15:45:42Z</time>
      </trkpt>
      <trkpt lat="53.957704966887832" lon="27.459861030802131">
        <ele>201.05000000000001</ele>
        <time>2013-09-21T15:45:55Z</time>
      </trkpt>
      <trkpt lat="53.957704966887832" lon="27.459840998053551">
        <ele>201.05000000000001</ele>
        <time>2013-09-21T15:46:11Z</time>
      </trkpt>
      <trkpt lat="53.957704966887832" lon="27.459827000275254">
        <ele>200.56999999999999</ele>
        <time>2013-09-21T15:46:26Z</time>
      </trkpt>
      <trkpt lat="53.95770002156496" lon="27.459843009710312">
        <ele>199.61000000000001</ele>
        <time>2013-09-21T15:46:36Z</time>
      </trkpt>
      <trkpt lat="53.957648975774646" lon="27.459885003045201">
        <ele>201.05000000000001</ele>
        <time>2013-09-21T15:46:41Z</time>
      </trkpt>
      <trkpt lat="53.957272963598371" lon="27.460522027686238">
        <ele>202.49000000000001</ele>
        <time>2013-09-21T15:46:57Z</time>
      </trkpt>
      <trkpt lat="53.956731995567679" lon="27.461197022348642">
        <ele>202.00999999999999</ele>
        <time>2013-09-21T15:47:15Z</time>
      </trkpt>
      <trkpt lat="53.956654965877533" lon="27.461267011240125">
        <ele>202.00999999999999</ele>
        <time>2013-09-21T15:47:17Z</time>
      </trkpt>
      <trkpt lat="53.956155991181731" lon="27.461531963199377">
        <ele>201.53</ele>
        <time>2013-09-21T15:47:29Z</time>
      </trkpt>
      <trkpt lat="53.956072004511952" lon="27.461561970412731">
        <ele>201.05000000000001</ele>
        <time>2013-09-21T15:47:31Z</time>
      </trkpt>
      <trkpt lat="53.955426011234522" lon="27.461683005094528">
        <ele>201.53</ele>
        <time>2013-09-21T15:47:46Z</time>
      </trkpt>
      <trkpt lat="53.954866016283631" lon="27.461894983425736">
        <ele>202.49000000000001</ele>
        <time>2013-09-21T15:48:00Z</time>
      </trkpt>
      <trkpt lat="53.954222034662962" lon="27.462137974798679">
        <ele>201.53</ele>
        <time>2013-09-21T15:48:14Z</time>
      </trkpt>
      <trkpt lat="53.95346799865365" lon="27.462443998083472">
        <ele>202.00999999999999</ele>
        <time>2013-09-21T15:48:32Z</time>
      </trkpt>
      <trkpt lat="53.95278001204133" lon="27.462831996381283">
        <ele>201.53</ele>
        <time>2013-09-21T15:48:48Z</time>
      </trkpt>
      <trkpt lat="53.952003009617329" lon="27.463349997997284">
        <ele>200.56999999999999</ele>
        <time>2013-09-21T15:49:06Z</time>
      </trkpt>
      <trkpt lat="53.951465981081128" lon="27.463783007115126">
        <ele>201.53</ele>
        <time>2013-09-21T15:49:19Z</time>
      </trkpt>
      <trkpt lat="53.950753016397357" lon="27.464191038161516">
        <ele>201.05000000000001</ele>
        <time>2013-09-21T15:49:35Z</time>
      </trkpt>
      <trkpt lat="53.950667018070817" lon="27.464281981810927">
        <ele>200.56999999999999</ele>
        <time>2013-09-21T15:49:37Z</time>
      </trkpt>
      <trkpt lat="53.950225962325931" lon="27.465303987264633">
        <ele>201.05000000000001</ele>
        <time>2013-09-21T15:49:53Z</time>
      </trkpt>
      <trkpt lat="53.950018007308245" lon="27.465802039951086">
        <ele>201.53</ele>
        <time>2013-09-21T15:50:01Z</time>
      </trkpt>
      <trkpt lat="53.949996968731284" lon="27.466104039922357">
        <ele>201.53</ele>
        <time>2013-09-21T15:50:05Z</time>
      </trkpt>
      <trkpt lat="53.95005002617836" lon="27.46647602878511">
        <ele>201.53</ele>
        <time>2013-09-21T15:50:10Z</time>
      </trkpt>
      <trkpt lat="53.950149016454816" lon="27.466925969347358">
        <ele>202.97999999999999</ele>
        <time>2013-09-21T15:50:17Z</time>
      </trkpt>
      <trkpt lat="53.950188998132944" lon="27.4678960070014">
        <ele>203.46000000000001</ele>
        <time>2013-09-21T15:50:30Z</time>
      </trkpt>
      <trkpt lat="53.950114985927939" lon="27.468207981437445">
        <ele>202.97999999999999</ele>
        <time>2013-09-21T15:50:34Z</time>
      </trkpt>
      <trkpt lat="53.950091013684869" lon="27.468573013320565">
        <ele>202.97999999999999</ele>
        <time>2013-09-21T15:50:38Z</time>
      </trkpt>
      <trkpt lat="53.950127977877855" lon="27.469044998288155">
        <ele>203.46000000000001</ele>
        <time>2013-09-21T15:50:44Z</time>
      </trkpt>
      <trkpt lat="53.950139963999391" lon="27.469545984640718">
        <ele>203.94</ele>
        <time>2013-09-21T15:50:50Z</time>
      </trkpt>
      <trkpt lat="53.9501360245049" lon="27.469932977110147">
        <ele>203.94</ele>
        <time>2013-09-21T15:50:55Z</time>
      </trkpt>
      <trkpt lat="53.950009038671851" lon="27.470461959019303">
        <ele>202.00999999999999</ele>
        <time>2013-09-21T15:51:02Z</time>
      </trkpt>
      <trkpt lat="53.949994035065174" lon="27.470908965915442">
        <ele>202.49000000000001</ele>
        <time>2013-09-21T15:51:08Z</time>
      </trkpt>
      <trkpt lat="53.95005002617836" lon="27.471112981438637">
        <ele>202.49000000000001</ele>
        <time>2013-09-21T15:51:11Z</time>
      </trkpt>
      <trkpt lat="53.950162008404732" lon="27.472073966637254">
        <ele>202.97999999999999</ele>
        <time>2013-09-21T15:51:24Z</time>
      </trkpt>
      <trkpt lat="53.950194027274847" lon="27.472390970215201">
        <ele>202.49000000000001</ele>
        <time>2013-09-21T15:51:28Z</time>
      </trkpt>
      <trkpt lat="53.95009302534163" lon="27.473456980660558">
        <ele>202.00999999999999</ele>
        <time>2013-09-21T15:51:41Z</time>
      </trkpt>
      <trkpt lat="53.950100988149643" lon="27.474263990297914">
        <ele>202.00999999999999</ele>
        <time>2013-09-21T15:51:51Z</time>
      </trkpt>
      <trkpt lat="53.950089002028108" lon="27.475190022960305">
        <ele>202.97999999999999</ele>
        <time>2013-09-21T15:52:03Z</time>
      </trkpt>
      <trkpt lat="53.950070980936289" lon="27.475493028759956">
        <ele>203.46000000000001</ele>
        <time>2013-09-21T15:52:07Z</time>
      </trkpt>
      <trkpt lat="53.950054971501231" lon="27.475936012342572">
        <ele>203.94</ele>
        <time>2013-09-21T15:52:13Z</time>
      </trkpt>
      <trkpt lat="53.950073998421431" lon="27.476247986778617">
        <ele>203.94</ele>
        <time>2013-09-21T15:52:17Z</time>
      </trkpt>
      <trkpt lat="53.950097970664501" lon="27.476608995348215">
        <ele>203.94</ele>
        <time>2013-09-21T15:52:22Z</time>
      </trkpt>
      <trkpt lat="53.950151028111577" lon="27.476822985336185">
        <ele>203.94</ele>
        <time>2013-09-21T15:52:25Z</time>
      </trkpt>
      <trkpt lat="53.950143987312913" lon="27.477294970303774">
        <ele>205.38</ele>
        <time>2013-09-21T15:52:31Z</time>
      </trkpt>
      <trkpt lat="53.950141975656152" lon="27.477454980835319">
        <ele>205.86000000000001</ele>
        <time>2013-09-21T15:52:33Z</time>
      </trkpt>
      <trkpt lat="53.950076010078192" lon="27.47810298576951">
        <ele>205.86000000000001</ele>
        <time>2013-09-21T15:52:41Z</time>
      </trkpt>
      <trkpt lat="53.950054971501231" lon="27.478507999330759">
        <ele>204.90000000000001</ele>
        <time>2013-09-21T15:52:47Z</time>
      </trkpt>
      <trkpt lat="53.949920022860169" lon="27.479102024808526">
        <ele>204.41999999999999</ele>
        <time>2013-09-21T15:52:57Z</time>
      </trkpt>
      <trkpt lat="53.949894960969687" lon="27.479234039783478">
        <ele>204.41999999999999</ele>
        <time>2013-09-21T15:53:01Z</time>
      </trkpt>
      <trkpt lat="53.949867971241474" lon="27.479339987039566">
        <ele>203.94</ele>
        <time>2013-09-21T15:53:04Z</time>
      </trkpt>
      <trkpt lat="53.949907030910254" lon="27.47947895899415">
        <ele>202.97999999999999</ele>
        <time>2013-09-21T15:53:17Z</time>
      </trkpt>
      <trkpt lat="53.949905019253492" lon="27.479478036984801">
        <ele>202.97999999999999</ele>
        <time>2013-09-21T15:53:47Z</time>
      </trkpt>
      <trkpt lat="53.949908036738634" lon="27.479491028934717">
        <ele>202.97999999999999</ele>
        <time>2013-09-21T15:53:49Z</time>
      </trkpt>
      <trkpt lat="53.94994399510324" lon="27.479867963120341">
        <ele>202.49000000000001</ele>
        <time>2013-09-21T15:54:00Z</time>
      </trkpt>
      <trkpt lat="53.950043991208076" lon="27.480177003890276">
        <ele>202.97999999999999</ele>
        <time>2013-09-21T15:54:06Z</time>
      </trkpt>
      <trkpt lat="53.950249012559652" lon="27.480398034676909">
        <ele>203.94</ele>
        <time>2013-09-21T15:54:12Z</time>
      </trkpt>
      <trkpt lat="53.950371975079179" lon="27.480552010238171">
        <ele>204.90000000000001</ele>
        <time>2013-09-21T15:54:16Z</time>
      </trkpt>
      <trkpt lat="53.950688978657126" lon="27.480977978557348">
        <ele>205.86000000000001</ele>
        <time>2013-09-21T15:54:25Z</time>
      </trkpt>
      <trkpt lat="53.951258026063442" lon="27.481409981846809">
        <ele>206.34</ele>
        <time>2013-09-21T15:54:38Z</time>
      </trkpt>
      <trkpt lat="53.951388029381633" lon="27.481516012921929">
        <ele>205.38</ele>
        <time>2013-09-21T15:54:41Z</time>
      </trkpt>
      <trkpt lat="53.951519960537553" lon="27.481578039005399">
        <ele>205.38</ele>
        <time>2013-09-21T15:54:44Z</time>
      </trkpt>
      <trkpt lat="53.952012984082103" lon="27.481721034273505">
        <ele>205.86000000000001</ele>
        <time>2013-09-21T15:54:54Z</time>
      </trkpt>
      <trkpt lat="53.952545989304781" lon="27.482294021174312">
        <ele>206.81999999999999</ele>
        <time>2013-09-21T15:55:08Z</time>
      </trkpt>
      <trkpt lat="53.952665012329817" lon="27.482403991743922">
        <ele>206.81999999999999</ele>
        <time>2013-09-21T15:55:11Z</time>
      </trkpt>
      <trkpt lat="53.953055022284389" lon="27.48304596170783">
        <ele>206.34</ele>
        <time>2013-09-21T15:55:24Z</time>
      </trkpt>
      <trkpt lat="53.95308100618422" lon="27.483684998005629">
        <ele>205.38</ele>
        <time>2013-09-21T15:55:34Z</time>
      </trkpt>
      <trkpt lat="53.952739024534822" lon="27.48437600210309">
        <ele>205.38</ele>
        <time>2013-09-21T15:55:46Z</time>
      </trkpt>
      <trkpt lat="53.952314984053373" lon="27.485227016732097">
        <ele>204.90000000000001</ele>
        <time>2013-09-21T15:56:01Z</time>
      </trkpt>
      <trkpt lat="53.951858002692461" lon="27.485890025272965">
        <ele>203.46000000000001</ele>
        <time>2013-09-21T15:56:16Z</time>
      </trkpt>
      <trkpt lat="53.951744008809328" lon="27.486205017194152">
        <ele>204.41999999999999</ele>
        <time>2013-09-21T15:56:23Z</time>
      </trkpt>
      <trkpt lat="53.951716013252735" lon="27.486237036064267">
        <ele>204.41999999999999</ele>
        <time>2013-09-21T15:56:37Z</time>
      </trkpt>
      <trkpt lat="53.951716013252735" lon="27.486235024407506">
        <ele>204.41999999999999</ele>
        <time>2013-09-21T15:57:22Z</time>
      </trkpt>
      <trkpt lat="53.951708972454071" lon="27.486248016357422">
        <ele>204.41999999999999</ele>
        <time>2013-09-21T15:57:56Z</time>
      </trkpt>
      <trkpt lat="53.951671002432704" lon="27.48628699220717">
        <ele>204.41999999999999</ele>
        <time>2013-09-21T15:58:00Z</time>
      </trkpt>
      <trkpt lat="53.951708972454071" lon="27.486239969730377">
        <ele>203.94</ele>
        <time>2013-09-21T15:58:10Z</time>
      </trkpt>
      <trkpt lat="53.951711989939213" lon="27.486238963901997">
        <ele>202.97999999999999</ele>
        <time>2013-09-21T15:58:18Z</time>
      </trkpt>
      <trkpt lat="53.951710984110832" lon="27.48626796528697">
        <ele>203.46000000000001</ele>
        <time>2013-09-21T15:59:10Z</time>
      </trkpt>
      <trkpt lat="53.95170696079731" lon="27.486284980550408">
        <ele>202.97999999999999</ele>
        <time>2013-09-21T15:59:18Z</time>
      </trkpt>
      <trkpt lat="53.951711989939213" lon="27.486327979713678">
        <ele>202.97999999999999</ele>
        <time>2013-09-21T15:59:30Z</time>
      </trkpt>
      <trkpt lat="53.951711989939213" lon="27.486327979713678">
        <ele>202.97999999999999</ele>
        <time>2013-09-21T16:00:02Z</time>
      </trkpt>
      <trkpt lat="53.951712995767593" lon="27.486358992755413">
        <ele>202.49000000000001</ele>
        <time>2013-09-21T16:00:21Z</time>
      </trkpt>
      <trkpt lat="53.951692041009665" lon="27.486336026340723">
        <ele>203.94</ele>
        <time>2013-09-21T16:00:34Z</time>
      </trkpt>
      <trkpt lat="53.951709978282452" lon="27.486370978876948">
        <ele>203.94</ele>
        <time>2013-09-21T16:00:38Z</time>
      </trkpt>
      <trkpt lat="53.951722970232368" lon="27.486404003575444">
        <ele>204.41999999999999</ele>
        <time>2013-09-21T16:00:44Z</time>
      </trkpt>
      <trkpt lat="53.951759012416005" lon="27.486454965546727">
        <ele>205.38</ele>
        <time>2013-09-21T16:00:48Z</time>
      </trkpt>
      <trkpt lat="53.9518369641155" lon="27.48656895942986">
        <ele>206.34</ele>
        <time>2013-09-21T16:01:03Z</time>
      </trkpt>
      <trkpt lat="53.951847022399306" lon="27.486584968864918">
        <ele>206.81999999999999</ele>
        <time>2013-09-21T16:01:15Z</time>
      </trkpt>
      <trkpt lat="53.951821960508823" lon="27.48654599301517">
        <ele>207.30000000000001</ele>
        <time>2013-09-21T16:05:42Z</time>
      </trkpt>
      <trkpt lat="53.951826989650726" lon="27.486540041863918">
        <ele>207.30000000000001</ele>
        <time>2013-09-21T16:06:16Z</time>
      </trkpt>
      <trkpt lat="53.951822966337204" lon="27.486541969701648">
        <ele>207.30000000000001</ele>
        <time>2013-09-21T16:06:43Z</time>
      </trkpt>
      <trkpt lat="53.951864037662745" lon="27.486540963873267">
        <ele>207.30000000000001</ele>
        <time>2013-09-21T16:07:00Z</time>
      </trkpt>
      <trkpt lat="53.952025976032019" lon="27.486666021868587">
        <ele>207.78</ele>
        <time>2013-09-21T16:07:08Z</time>
      </trkpt>
      <trkpt lat="53.952335016801953" lon="27.486670967191458">
        <ele>205.86000000000001</ele>
        <time>2013-09-21T16:07:14Z</time>
      </trkpt>
      <trkpt lat="53.952589994296432" lon="27.486885963007808">
        <ele>202.97999999999999</ele>
        <time>2013-09-21T16:07:20Z</time>
      </trkpt>
      <trkpt lat="53.952714968472719" lon="27.487130966037512">
        <ele>202.49000000000001</ele>
        <time>2013-09-21T16:07:24Z</time>
      </trkpt>
      <trkpt lat="53.952839020639658" lon="27.487967982888222">
        <ele>203.46000000000001</ele>
        <time>2013-09-21T16:07:35Z</time>
      </trkpt>
      <trkpt lat="53.952827034518123" lon="27.488441979512572">
        <ele>202.49000000000001</ele>
        <time>2013-09-21T16:07:41Z</time>
      </trkpt>
      <trkpt lat="53.952807001769543" lon="27.488617999479175">
        <ele>202.00999999999999</ele>
        <time>2013-09-21T16:07:43Z</time>
      </trkpt>
      <trkpt lat="53.952773977071047" lon="27.488796031102538">
        <ele>201.53</ele>
        <time>2013-09-21T16:07:45Z</time>
      </trkpt>
      <trkpt lat="53.952573984861374" lon="27.489770008251071">
        <ele>201.05000000000001</ele>
        <time>2013-09-21T16:07:57Z</time>
      </trkpt>
      <trkpt lat="53.952526962384582" lon="27.489932030439377">
        <ele>201.53</ele>
        <time>2013-09-21T16:07:59Z</time>
      </trkpt>
      <trkpt lat="53.952158996835351" lon="27.490867031738162">
        <ele>202.97999999999999</ele>
        <time>2013-09-21T16:08:12Z</time>
      </trkpt>
      <trkpt lat="53.95202798768878" lon="27.491155033931136">
        <ele>203.94</ele>
        <time>2013-09-21T16:08:16Z</time>
      </trkpt>
      <trkpt lat="53.95174702629447" lon="27.491443958133459">
        <ele>206.34</ele>
        <time>2013-09-21T16:08:22Z</time>
      </trkpt>
      <trkpt lat="53.951594978570938" lon="27.491485029459">
        <ele>207.30000000000001</ele>
        <time>2013-09-21T16:08:25Z</time>
      </trkpt>
      <trkpt lat="53.951053004711866" lon="27.491188980638981">
        <ele>209.22</ele>
        <time>2013-09-21T16:08:39Z</time>
      </trkpt>
      <trkpt lat="53.950595017522573" lon="27.490805005654693">
        <ele>212.11000000000001</ele>
        <time>2013-09-21T16:08:52Z</time>
      </trkpt>
      <trkpt lat="53.950224034488201" lon="27.49043301679194">
        <ele>213.06999999999999</ele>
        <time>2013-09-21T16:09:03Z</time>
      </trkpt>
      <trkpt lat="53.949804017320275" lon="27.490500994026661">
        <ele>216.43000000000001</ele>
        <time>2013-09-21T16:09:16Z</time>
      </trkpt>
      <trkpt lat="53.949645012617111" lon="27.490495964884758">
        <ele>214.99000000000001</ele>
        <time>2013-09-21T16:09:25Z</time>
      </trkpt>
      <trkpt lat="53.949627997353673" lon="27.490486996248364">
        <ele>213.55000000000001</ele>
        <time>2013-09-21T16:09:35Z</time>
      </trkpt>
      <trkpt lat="53.949627997353673" lon="27.490486996248364">
        <ele>213.55000000000001</ele>
        <time>2013-09-21T16:09:51Z</time>
      </trkpt>
      <trkpt lat="53.949625985696912" lon="27.490491019561887">
        <ele>213.06999999999999</ele>
        <time>2013-09-21T16:11:18Z</time>
      </trkpt>
      <trkpt lat="53.949593966826797" lon="27.49047702178359">
        <ele>211.63</ele>
        <time>2013-09-21T16:11:41Z</time>
      </trkpt>
      <trkpt lat="53.949280986562371" lon="27.490422036498785">
        <ele>208.25999999999999</ele>
        <time>2013-09-21T16:11:51Z</time>
      </trkpt>
      <trkpt lat="53.948619989678264" lon="27.490269988775253">
        <ele>203.46000000000001</ele>
        <time>2013-09-21T16:12:06Z</time>
      </trkpt>
      <trkpt lat="53.948496021330357" lon="27.490250039845705">
        <ele>202.97999999999999</ele>
        <time>2013-09-21T16:12:09Z</time>
      </trkpt>
      <trkpt lat="53.948144987225533" lon="27.49047601595521">
        <ele>203.46000000000001</ele>
        <time>2013-09-21T16:12:18Z</time>
      </trkpt>
      <trkpt lat="53.948045996949077" lon="27.490526977926493">
        <ele>203.46000000000001</ele>
        <time>2013-09-21T16:12:20Z</time>
      </trkpt>
      <trkpt lat="53.947949018329382" lon="27.490546004846692">
        <ele>203.94</ele>
        <time>2013-09-21T16:12:22Z</time>
      </trkpt>
      <trkpt lat="53.947445014491677" lon="27.490490013733506">
        <ele>205.38</ele>
        <time>2013-09-21T16:12:35Z</time>
      </trkpt>
      <trkpt lat="53.947023991495371" lon="27.490468975156546">
        <ele>209.69999999999999</ele>
        <time>2013-09-21T16:12:46Z</time>
      </trkpt>
      <trkpt lat="53.946537002921104" lon="27.490552039816976">
        <ele>209.69999999999999</ele>
        <time>2013-09-21T16:12:58Z</time>
      </trkpt>
      <trkpt lat="53.946092007681727" lon="27.490438967943192">
        <ele>212.59</ele>
        <time>2013-09-21T16:13:10Z</time>
      </trkpt>
      <trkpt lat="53.945594960823655" lon="27.490034038200974">
        <ele>214.03</ele>
        <time>2013-09-21T16:13:24Z</time>
      </trkpt>
      <trkpt lat="53.945017028599977" lon="27.489430960267782">
        <ele>210.19</ele>
        <time>2013-09-21T16:13:41Z</time>
      </trkpt>
      <trkpt lat="53.944426020607352" lon="27.488826960325241">
        <ele>209.22</ele>
        <time>2013-09-21T16:13:58Z</time>
      </trkpt>
      <trkpt lat="53.943913970142603" lon="27.488432005047798">
        <ele>210.19</ele>
        <time>2013-09-21T16:14:14Z</time>
      </trkpt>
      <trkpt lat="53.943536030128598" lon="27.488573994487524">
        <ele>209.69999999999999</ele>
        <time>2013-09-21T16:14:26Z</time>
      </trkpt>
      <trkpt lat="53.943246016278863" lon="27.489289976656437">
        <ele>209.22</ele>
        <time>2013-09-21T16:14:39Z</time>
      </trkpt>
      <trkpt lat="53.942903028801084" lon="27.490353975445032">
        <ele>208.74000000000001</ele>
        <time>2013-09-21T16:14:56Z</time>
      </trkpt>
      <trkpt lat="53.942559035494924" lon="27.491394001990557">
        <ele>211.15000000000001</ele>
        <time>2013-09-21T16:15:13Z</time>
      </trkpt>
      <trkpt lat="53.942226022481918" lon="27.492373008280993">
        <ele>214.50999999999999</ele>
        <time>2013-09-21T16:15:30Z</time>
      </trkpt>
      <trkpt lat="53.941782033070922" lon="27.493432983756065">
        <ele>213.06999999999999</ele>
        <time>2013-09-21T16:15:47Z</time>
      </trkpt>
      <trkpt lat="53.941230000928044" lon="27.494566971436143">
        <ele>212.11000000000001</ele>
        <time>2013-09-21T16:16:04Z</time>
      </trkpt>
      <trkpt lat="53.940764972940087" lon="27.49552602879703">
        <ele>213.06999999999999</ele>
        <time>2013-09-21T16:16:19Z</time>
      </trkpt>
      <trkpt lat="53.940308997407556" lon="27.496497994288802">
        <ele>210.19</ele>
        <time>2013-09-21T16:16:34Z</time>
      </trkpt>
      <trkpt lat="53.939572982490063" lon="27.497960971668363">
        <ele>202.00999999999999</ele>
        <time>2013-09-21T16:16:49Z</time>
      </trkpt>
      <trkpt lat="53.939333008602262" lon="27.498496994376183">
        <ele>201.05000000000001</ele>
        <time>2013-09-21T16:16:55Z</time>
      </trkpt>
      <trkpt lat="53.939315993338823" lon="27.498572012409568">
        <ele>200.56999999999999</ele>
        <time>2013-09-21T16:16:56Z</time>
      </trkpt>
      <trkpt lat="53.939311970025301" lon="27.49864200130105">
        <ele>200.56999999999999</ele>
        <time>2013-09-21T16:16:57Z</time>
      </trkpt>
      <trkpt lat="53.939363015815616" lon="27.498889015987515">
        <ele>200.56999999999999</ele>
        <time>2013-09-21T16:17:01Z</time>
      </trkpt>
      <trkpt lat="53.939401991665363" lon="27.499251030385494">
        <ele>199.61000000000001</ele>
        <time>2013-09-21T16:17:06Z</time>
      </trkpt>
      <trkpt lat="53.939722012728453" lon="27.499916972592473">
        <ele>197.69</ele>
        <time>2013-09-21T16:17:15Z</time>
      </trkpt>
      <trkpt lat="53.939742967486382" lon="27.499980004504323">
        <ele>197.69</ele>
        <time>2013-09-21T16:17:16Z</time>
      </trkpt>
      <trkpt lat="53.939901972189546" lon="27.500864965841174">
        <ele>196.25</ele>
        <time>2013-09-21T16:17:27Z</time>
      </trkpt>
      <trkpt lat="53.939918987452984" lon="27.501105023548007">
        <ele>195.77000000000001</ele>
        <time>2013-09-21T16:17:30Z</time>
      </trkpt>
      <trkpt lat="53.939897026866674" lon="27.50132798217237">
        <ele>195.28</ele>
        <time>2013-09-21T16:17:33Z</time>
      </trkpt>
      <trkpt lat="53.939817985519767" lon="27.50177800655365">
        <ele>195.77000000000001</ele>
        <time>2013-09-21T16:17:39Z</time>
      </trkpt>
      <trkpt lat="53.93945999443531" lon="27.502989023923874">
        <ele>199.61000000000001</ele>
        <time>2013-09-21T16:17:57Z</time>
      </trkpt>
      <trkpt lat="53.939191019162536" lon="27.503990996629">
        <ele>198.65000000000001</ele>
        <time>2013-09-21T16:18:13Z</time>
      </trkpt>
      <trkpt lat="53.939018016681075" lon="27.504683006554842">
        <ele>198.65000000000001</ele>
        <time>2013-09-21T16:18:25Z</time>
      </trkpt>
      <trkpt lat="53.938950961455703" lon="27.505358001217246">
        <ele>198.16999999999999</ele>
        <time>2013-09-21T16:18:35Z</time>
      </trkpt>
      <trkpt lat="53.938958002254367" lon="27.505580959841609">
        <ele>198.16999999999999</ele>
        <time>2013-09-21T16:18:38Z</time>
      </trkpt>
      <trkpt lat="53.93887703306973" lon="27.505885977298021">
        <ele>198.16999999999999</ele>
        <time>2013-09-21T16:18:43Z</time>
      </trkpt>
      <trkpt lat="53.938633035868406" lon="27.506294008344412">
        <ele>197.21000000000001</ele>
        <time>2013-09-21T16:18:53Z</time>
      </trkpt>
      <trkpt lat="53.938289964571595" lon="27.507249964401126">
        <ele>198.65000000000001</ele>
        <time>2013-09-21T16:19:09Z</time>
      </trkpt>
      <trkpt lat="53.938231039792299" lon="27.507426990196109">
        <ele>200.09</ele>
        <time>2013-09-21T16:19:12Z</time>
      </trkpt>
      <trkpt lat="53.937791995704174" lon="27.508354028686881">
        <ele>203.46000000000001</ele>
        <time>2013-09-21T16:19:27Z</time>
      </trkpt>
      <trkpt lat="53.937364015728235" lon="27.509391037747264">
        <ele>199.13</ele>
        <time>2013-09-21T16:19:43Z</time>
      </trkpt>
      <trkpt lat="53.93726603128016" lon="27.510623009875417">
        <ele>197.69</ele>
        <time>2013-09-21T16:19:59Z</time>
      </trkpt>
      <trkpt lat="53.937285980209708" lon="27.510936995968223">
        <ele>197.21000000000001</ele>
        <time>2013-09-21T16:20:03Z</time>
      </trkpt>
      <trkpt lat="53.937330991029739" lon="27.511323988437653">
        <ele>197.21000000000001</ele>
        <time>2013-09-21T16:20:08Z</time>
      </trkpt>
      <trkpt lat="53.937250021845102" lon="27.511853976175189">
        <ele>196.72999999999999</ele>
        <time>2013-09-21T16:20:15Z</time>
      </trkpt>
      <trkpt lat="53.937075007706881" lon="27.512128986418247">
        <ele>196.72999999999999</ele>
        <time>2013-09-21T16:20:20Z</time>
      </trkpt>
      <trkpt lat="53.936979034915566" lon="27.512189000844955">
        <ele>196.72999999999999</ele>
        <time>2013-09-21T16:20:22Z</time>
      </trkpt>
      <trkpt lat="53.936783988028765" lon="27.512207021936774">
        <ele>196.25</ele>
        <time>2013-09-21T16:20:26Z</time>
      </trkpt>
      <trkpt lat="53.935749996453524" lon="27.51181298866868">
        <ele>195.28</ele>
        <time>2013-09-21T16:20:47Z</time>
      </trkpt>
      <trkpt lat="53.934888001531363" lon="27.511526998132467">
        <ele>194.80000000000001</ele>
        <time>2013-09-21T16:21:05Z</time>
      </trkpt>
      <trkpt lat="53.934170007705688" lon="27.511795973405242">
        <ele>194.80000000000001</ele>
        <time>2013-09-21T16:21:20Z</time>
      </trkpt>
      <trkpt lat="53.933333996683359" lon="27.512201992794871">
        <ele>195.28</ele>
        <time>2013-09-21T16:21:38Z</time>
      </trkpt>
      <trkpt lat="53.933243975043297" lon="27.512252032756805">
        <ele>195.28</ele>
        <time>2013-09-21T16:21:40Z</time>
      </trkpt>
      <trkpt lat="53.932892018929124" lon="27.512689987197518">
        <ele>195.77000000000001</ele>
        <time>2013-09-21T16:21:49Z</time>
      </trkpt>
      <trkpt lat="53.932479964569211" lon="27.513786004856229">
        <ele>196.25</ele>
        <time>2013-09-21T16:22:05Z</time>
      </trkpt>
      <trkpt lat="53.932295981794596" lon="27.514422023668885">
        <ele>197.21000000000001</ele>
        <time>2013-09-21T16:22:14Z</time>
      </trkpt>
      <trkpt lat="53.932272009551525" lon="27.51578701660037">
        <ele>198.65000000000001</ele>
        <time>2013-09-21T16:22:32Z</time>
      </trkpt>
      <trkpt lat="53.932598987594247" lon="27.516914969310164">
        <ele>197.69</ele>
        <time>2013-09-21T16:22:48Z</time>
      </trkpt>
      <trkpt lat="53.933021016418934" lon="27.51832002773881">
        <ele>197.69</ele>
        <time>2013-09-21T16:23:08Z</time>
      </trkpt>
      <trkpt lat="53.933411026373506" lon="27.519538002088666">
        <ele>196.72999999999999</ele>
        <time>2013-09-21T16:23:25Z</time>
      </trkpt>
      <trkpt lat="53.933822996914387" lon="27.520592026412487">
        <ele>196.72999999999999</ele>
        <time>2013-09-21T16:23:41Z</time>
      </trkpt>
      <trkpt lat="53.934263968840241" lon="27.521482016891241">
        <ele>195.28</ele>
        <time>2013-09-21T16:23:56Z</time>
      </trkpt>
      <trkpt lat="53.934348961338401" lon="27.521667005494237">
        <ele>195.28</ele>
        <time>2013-09-21T16:23:59Z</time>
      </trkpt>
      <trkpt lat="53.934407969936728" lon="27.521958025172353">
        <ele>195.77000000000001</ele>
        <time>2013-09-21T16:24:03Z</time>
      </trkpt>
      <trkpt lat="53.934436971321702" lon="27.52225499600172">
        <ele>195.77000000000001</ele>
        <time>2013-09-21T16:24:07Z</time>
      </trkpt>
      <trkpt lat="53.934483993798494" lon="27.522472003474832">
        <ele>196.25</ele>
        <time>2013-09-21T16:24:10Z</time>
      </trkpt>
      <trkpt lat="53.934348961338401" lon="27.523011965677142">
        <ele>196.25</ele>
        <time>2013-09-21T16:24:19Z</time>
      </trkpt>
      <trkpt lat="53.93413295969367" lon="27.523356964811683">
        <ele>196.72999999999999</ele>
        <time>2013-09-21T16:24:26Z</time>
      </trkpt>
      <trkpt lat="53.934133965522051" lon="27.523592999204993">
        <ele>196.72999999999999</ele>
        <time>2013-09-21T16:24:29Z</time>
      </trkpt>
      <trkpt lat="53.934075040742755" lon="27.524235974997282">
        <ele>196.72999999999999</ele>
        <time>2013-09-21T16:24:37Z</time>
      </trkpt>
      <trkpt lat="53.933961968868971" lon="27.52538999542594">
        <ele>197.21000000000001</ele>
        <time>2013-09-21T16:24:52Z</time>
      </trkpt>
      <trkpt lat="53.933911006897688" lon="27.526115030050278">
        <ele>197.69</ele>
        <time>2013-09-21T16:25:01Z</time>
      </trkpt>
      <trkpt lat="53.933533988893032" lon="27.527287993580103">
        <ele>198.65000000000001</ele>
        <time>2013-09-21T16:25:17Z</time>
      </trkpt>
      <trkpt lat="53.932878021150827" lon="27.528224000707269">
        <ele>196.25</ele>
        <time>2013-09-21T16:25:35Z</time>
      </trkpt>
      <trkpt lat="53.932044021785259" lon="27.528686011210084">
        <ele>196.72999999999999</ele>
        <time>2013-09-21T16:25:53Z</time>
      </trkpt>
      <trkpt lat="53.931080019101501" lon="27.528773015365005">
        <ele>196.72999999999999</ele>
        <time>2013-09-21T16:26:13Z</time>
      </trkpt>
      <trkpt lat="53.930278038606048" lon="27.528840992599726">
        <ele>197.21000000000001</ele>
        <time>2013-09-21T16:26:33Z</time>
      </trkpt>
      <trkpt lat="53.930177958682179" lon="27.52878500148654">
        <ele>197.69</ele>
        <time>2013-09-21T16:26:37Z</time>
      </trkpt>
      <trkpt lat="53.930137977004051" lon="27.528821965679526">
        <ele>197.21000000000001</ele>
        <time>2013-09-21T16:26:48Z</time>
      </trkpt>
      <trkpt lat="53.930137977004051" lon="27.528821965679526">
        <ele>197.21000000000001</ele>
        <time>2013-09-21T16:27:11Z</time>
      </trkpt>
      <trkpt lat="53.930144011974335" lon="27.528826994821429">
        <ele>197.21000000000001</ele>
        <time>2013-09-21T16:27:22Z</time>
      </trkpt>
      <trkpt lat="53.930147029459476" lon="27.528825988993049">
        <ele>197.21000000000001</ele>
        <time>2013-09-21T16:28:18Z</time>
      </trkpt>
      <trkpt lat="53.930149963125587" lon="27.528824983164668">
        <ele>196.25</ele>
        <time>2013-09-21T16:28:57Z</time>
      </trkpt>
      <trkpt lat="53.930152980610728" lon="27.528833029791713">
        <ele>196.25</ele>
        <time>2013-09-21T16:29:40Z</time>
      </trkpt>
      <trkpt lat="53.930154992267489" lon="27.528834035620093">
        <ele>196.25</ele>
        <time>2013-09-21T16:30:13Z</time>
      </trkpt>
      <trkpt lat="53.930157003924251" lon="27.528835041448474">
        <ele>196.25</ele>
        <time>2013-09-21T16:30:42Z</time>
      </trkpt>
      <trkpt lat="53.930154992267489" lon="27.528826994821429">
        <ele>196.25</ele>
        <time>2013-09-21T16:31:21Z</time>
      </trkpt>
      <trkpt lat="53.930149963125587" lon="27.528817020356655">
        <ele>196.25</ele>
        <time>2013-09-21T16:31:24Z</time>
      </trkpt>
      <trkpt lat="53.930062036961317" lon="27.528598001226783">
        <ele>200.09</ele>
        <time>2013-09-21T16:31:39Z</time>
      </trkpt>
      <trkpt lat="53.930023983120918" lon="27.52863303758204">
        <ele>201.53</ele>
        <time>2013-09-21T16:31:43Z</time>
      </trkpt>
      <trkpt lat="53.929955000057817" lon="27.528833029791713">
        <ele>202.49000000000001</ele>
        <time>2013-09-21T16:31:57Z</time>
      </trkpt>
      <trkpt lat="53.929955000057817" lon="27.528833029791713">
        <ele>202.49000000000001</ele>
        <time>2013-09-21T16:32:02Z</time>
      </trkpt>
      <trkpt lat="53.929903032258153" lon="27.529342984780669">
        <ele>202.97999999999999</ele>
        <time>2013-09-21T16:32:14Z</time>
      </trkpt>
      <trkpt lat="53.929987018927932" lon="27.530363984405994">
        <ele>202.00999999999999</ele>
        <time>2013-09-21T16:32:31Z</time>
      </trkpt>
      <trkpt lat="53.930016020312905" lon="27.531135035678744">
        <ele>200.09</ele>
        <time>2013-09-21T16:32:45Z</time>
      </trkpt>
      <trkpt lat="53.930039992555976" lon="27.531625963747501">
        <ele>200.09</ele>
        <time>2013-09-21T16:32:53Z</time>
      </trkpt>
      <trkpt lat="53.930056001991034" lon="27.531765019521117">
        <ele>200.09</ele>
        <time>2013-09-21T16:32:55Z</time>
      </trkpt>
      <trkpt lat="53.930048961192369" lon="27.532511008903384">
        <ele>199.61000000000001</ele>
        <time>2013-09-21T16:33:09Z</time>
      </trkpt>
      <trkpt lat="53.930048039183021" lon="27.532533975318074">
        <ele>199.61000000000001</ele>
        <time>2013-09-21T16:33:11Z</time>
      </trkpt>
      <trkpt lat="53.93004703335464" lon="27.532553002238274">
        <ele>199.61000000000001</ele>
        <time>2013-09-21T16:33:12Z</time>
      </trkpt>
      <trkpt lat="53.930048039183021" lon="27.532579991966486">
        <ele>199.13</ele>
        <time>2013-09-21T16:33:13Z</time>
      </trkpt>
      <trkpt lat="53.930051978677511" lon="27.532606981694698">
        <ele>199.13</ele>
        <time>2013-09-21T16:33:14Z</time>
      </trkpt>
      <trkpt lat="53.930083997547626" lon="27.532936977222562">
        <ele>199.13</ele>
        <time>2013-09-21T16:33:24Z</time>
      </trkpt>
    </trkseg>
  </trk>

</gpx>
